<?xml version="1.0" encoding="UTF-8"?>
<gpx
  version="1.0"
  creator="GPSBabel - http://www.gpsbabel.org"
  xmlns:xsi="http://www.w3.org/2001/XMLSchema-instance"
  xmlns="http://www.topografix.com/GPX/1/0"
  xsi:schemaLocation="http://www.topografix.com/GPX/1/0 http://www.topografix.com/GPX/1/0/gpx.xsd">
<time>2011-11-12T10:28:20Z</time>
<bounds minlat="32.858081818" minlon="35.222980499" maxlat="32.877025604" maxlon="35.258071899"/>
<trk>
  <name>Holux2011/11/12_07:07</name>
<trkseg>
<trkpt lat="32.861045837" lon="35.257911682">
  <ele>295.330566</ele>
  <time>2011-11-12T05:07:46Z</time>
  <speed>0.060000</speed>
</trkpt>
<trkpt lat="32.861080170" lon="35.257904053">
  <ele>295.557129</ele>
  <time>2011-11-12T05:10:47Z</time>
  <speed>1.650000</speed>
</trkpt>
<trkpt lat="32.861110687" lon="35.257865906">
  <ele>295.814941</ele>
  <time>2011-11-12T05:10:49Z</time>
  <speed>2.020000</speed>
</trkpt>
<trkpt lat="32.861145020" lon="35.257839203">
  <ele>295.471191</ele>
  <time>2011-11-12T05:10:51Z</time>
  <speed>1.890000</speed>
</trkpt>
<trkpt lat="32.861179352" lon="35.257804871">
  <ele>295.955566</ele>
  <time>2011-11-12T05:10:53Z</time>
  <speed>2.650000</speed>
</trkpt>
<trkpt lat="32.861206055" lon="35.257762909">
  <ele>296.197754</ele>
  <time>2011-11-12T05:10:55Z</time>
  <speed>2.260000</speed>
</trkpt>
<trkpt lat="32.861209869" lon="35.257701874">
  <ele>295.877441</ele>
  <time>2011-11-12T05:10:57Z</time>
  <speed>2.930000</speed>
</trkpt>
<trkpt lat="32.861206055" lon="35.257663727">
  <ele>295.299316</ele>
  <time>2011-11-12T05:10:58Z</time>
  <speed>3.110000</speed>
</trkpt>
<trkpt lat="32.861198425" lon="35.257625580">
  <ele>295.479004</ele>
  <time>2011-11-12T05:10:59Z</time>
  <speed>3.430000</speed>
</trkpt>
<trkpt lat="32.861194611" lon="35.257587433">
  <ele>295.861816</ele>
  <time>2011-11-12T05:11:00Z</time>
  <speed>3.950000</speed>
</trkpt>
<trkpt lat="32.861186981" lon="35.257545471">
  <ele>296.307129</ele>
  <time>2011-11-12T05:11:01Z</time>
  <speed>3.660000</speed>
</trkpt>
<trkpt lat="32.861179352" lon="35.257507324">
  <ele>296.564941</ele>
  <time>2011-11-12T05:11:02Z</time>
  <speed>3.250000</speed>
</trkpt>
<trkpt lat="32.861171722" lon="35.257472992">
  <ele>296.932129</ele>
  <time>2011-11-12T05:11:03Z</time>
  <speed>3.120000</speed>
</trkpt>
<trkpt lat="32.861160278" lon="35.257442474">
  <ele>297.291504</ele>
  <time>2011-11-12T05:11:04Z</time>
  <speed>3.010000</speed>
</trkpt>
<trkpt lat="32.861148834" lon="35.257408142">
  <ele>297.088379</ele>
  <time>2011-11-12T05:11:05Z</time>
  <speed>3.210000</speed>
</trkpt>
<trkpt lat="32.861133575" lon="35.257381439">
  <ele>296.666504</ele>
  <time>2011-11-12T05:11:06Z</time>
  <speed>2.970000</speed>
</trkpt>
<trkpt lat="32.861114502" lon="35.257350922">
  <ele>296.533691</ele>
  <time>2011-11-12T05:11:07Z</time>
  <speed>2.910000</speed>
</trkpt>
<trkpt lat="32.861080170" lon="35.257305145">
  <ele>295.799316</ele>
  <time>2011-11-12T05:11:09Z</time>
  <speed>2.310000</speed>
</trkpt>
<trkpt lat="32.861061096" lon="35.257282257">
  <ele>295.877441</ele>
  <time>2011-11-12T05:11:10Z</time>
  <speed>2.320000</speed>
</trkpt>
<trkpt lat="32.861019135" lon="35.257266998">
  <ele>296.393066</ele>
  <time>2011-11-12T05:11:12Z</time>
  <speed>1.650000</speed>
</trkpt>
<trkpt lat="32.860988617" lon="35.257274628">
  <ele>295.361816</ele>
  <time>2011-11-12T05:11:14Z</time>
  <speed>2.050000</speed>
</trkpt>
<trkpt lat="32.860942841" lon="35.257270813">
  <ele>293.510254</ele>
  <time>2011-11-12T05:11:16Z</time>
  <speed>2.630000</speed>
</trkpt>
<trkpt lat="32.860923767" lon="35.257244110">
  <ele>293.439941</ele>
  <time>2011-11-12T05:11:17Z</time>
  <speed>2.900000</speed>
</trkpt>
<trkpt lat="32.860904694" lon="35.257213593">
  <ele>293.619629</ele>
  <time>2011-11-12T05:11:18Z</time>
  <speed>3.290000</speed>
</trkpt>
<trkpt lat="32.860881805" lon="35.257190704">
  <ele>294.049316</ele>
  <time>2011-11-12T05:11:19Z</time>
  <speed>2.830000</speed>
</trkpt>
<trkpt lat="32.860855103" lon="35.257160187">
  <ele>294.682129</ele>
  <time>2011-11-12T05:11:21Z</time>
  <speed>1.800000</speed>
</trkpt>
<trkpt lat="32.860855103" lon="35.257114410">
  <ele>294.729004</ele>
  <time>2011-11-12T05:11:23Z</time>
  <speed>2.250000</speed>
</trkpt>
<trkpt lat="32.860809326" lon="35.257083893">
  <ele>295.791504</ele>
  <time>2011-11-12T05:11:25Z</time>
  <speed>3.050000</speed>
</trkpt>
<trkpt lat="32.860774994" lon="35.257072449">
  <ele>295.955566</ele>
  <time>2011-11-12T05:11:26Z</time>
  <speed>4.050000</speed>
</trkpt>
<trkpt lat="32.860733032" lon="35.257072449">
  <ele>295.471191</ele>
  <time>2011-11-12T05:11:27Z</time>
  <speed>4.810000</speed>
</trkpt>
<trkpt lat="32.860679626" lon="35.257076263">
  <ele>295.525879</ele>
  <time>2011-11-12T05:11:28Z</time>
  <speed>5.060000</speed>
</trkpt>
<trkpt lat="32.860637665" lon="35.257061005">
  <ele>295.775879</ele>
  <time>2011-11-12T05:11:29Z</time>
  <speed>4.240000</speed>
</trkpt>
<trkpt lat="32.860591888" lon="35.257057190">
  <ele>296.611816</ele>
  <time>2011-11-12T05:11:30Z</time>
  <speed>3.550000</speed>
</trkpt>
<trkpt lat="32.860561371" lon="35.257049561">
  <ele>297.494629</ele>
  <time>2011-11-12T05:11:31Z</time>
  <speed>3.330000</speed>
</trkpt>
<trkpt lat="32.860527039" lon="35.257038116">
  <ele>297.174316</ele>
  <time>2011-11-12T05:11:32Z</time>
  <speed>3.670000</speed>
</trkpt>
<trkpt lat="32.860488892" lon="35.257022858">
  <ele>297.494629</ele>
  <time>2011-11-12T05:11:33Z</time>
  <speed>3.970000</speed>
</trkpt>
<trkpt lat="32.860450745" lon="35.257003784">
  <ele>297.080566</ele>
  <time>2011-11-12T05:11:34Z</time>
  <speed>4.520000</speed>
</trkpt>
<trkpt lat="32.860408783" lon="35.256988525">
  <ele>296.807129</ele>
  <time>2011-11-12T05:11:35Z</time>
  <speed>4.970000</speed>
</trkpt>
<trkpt lat="32.860366821" lon="35.256977081">
  <ele>296.549316</ele>
  <time>2011-11-12T05:11:36Z</time>
  <speed>4.890000</speed>
</trkpt>
<trkpt lat="32.860328674" lon="35.256950378">
  <ele>296.463379</ele>
  <time>2011-11-12T05:11:37Z</time>
  <speed>4.450000</speed>
</trkpt>
<trkpt lat="32.860294342" lon="35.256923676">
  <ele>295.979004</ele>
  <time>2011-11-12T05:11:38Z</time>
  <speed>4.420000</speed>
</trkpt>
<trkpt lat="32.860271454" lon="35.256893158">
  <ele>295.377441</ele>
  <time>2011-11-12T05:11:39Z</time>
  <speed>4.300000</speed>
</trkpt>
<trkpt lat="32.860260010" lon="35.256843567">
  <ele>295.424316</ele>
  <time>2011-11-12T05:11:40Z</time>
  <speed>4.490000</speed>
</trkpt>
<trkpt lat="32.860233307" lon="35.256805420">
  <ele>295.322754</ele>
  <time>2011-11-12T05:11:41Z</time>
  <speed>4.230000</speed>
</trkpt>
<trkpt lat="32.860214233" lon="35.256763458">
  <ele>295.807129</ele>
  <time>2011-11-12T05:11:42Z</time>
  <speed>3.660000</speed>
</trkpt>
<trkpt lat="32.860202789" lon="35.256732941">
  <ele>296.072754</ele>
  <time>2011-11-12T05:11:43Z</time>
  <speed>2.790000</speed>
</trkpt>
<trkpt lat="32.860202789" lon="35.256694794">
  <ele>296.658691</ele>
  <time>2011-11-12T05:11:45Z</time>
  <speed>1.730000</speed>
</trkpt>
<trkpt lat="32.860198975" lon="35.256641388">
  <ele>297.127441</ele>
  <time>2011-11-12T05:11:47Z</time>
  <speed>2.740000</speed>
</trkpt>
<trkpt lat="32.860198975" lon="35.256584167">
  <ele>297.838379</ele>
  <time>2011-11-12T05:11:49Z</time>
  <speed>3.040000</speed>
</trkpt>
<trkpt lat="32.860183716" lon="35.256519318">
  <ele>298.221191</ele>
  <time>2011-11-12T05:11:51Z</time>
  <speed>2.640000</speed>
</trkpt>
<trkpt lat="32.860179901" lon="35.256469727">
  <ele>299.072754</ele>
  <time>2011-11-12T05:11:53Z</time>
  <speed>2.850000</speed>
</trkpt>
<trkpt lat="32.860164642" lon="35.256401062">
  <ele>298.830566</ele>
  <time>2011-11-12T05:11:55Z</time>
  <speed>3.290000</speed>
</trkpt>
<trkpt lat="32.860160828" lon="35.256359100">
  <ele>298.283691</ele>
  <time>2011-11-12T05:11:56Z</time>
  <speed>3.910000</speed>
</trkpt>
<trkpt lat="32.860153198" lon="35.256313324">
  <ele>298.525879</ele>
  <time>2011-11-12T05:11:57Z</time>
  <speed>4.040000</speed>
</trkpt>
<trkpt lat="32.860149384" lon="35.256263733">
  <ele>298.783691</ele>
  <time>2011-11-12T05:11:58Z</time>
  <speed>4.350000</speed>
</trkpt>
<trkpt lat="32.860141754" lon="35.256214142">
  <ele>298.385254</ele>
  <time>2011-11-12T05:11:59Z</time>
  <speed>4.340000</speed>
</trkpt>
<trkpt lat="32.860134125" lon="35.256168365">
  <ele>298.057129</ele>
  <time>2011-11-12T05:12:00Z</time>
  <speed>4.830000</speed>
</trkpt>
<trkpt lat="32.860118866" lon="35.256114960">
  <ele>298.088379</ele>
  <time>2011-11-12T05:12:01Z</time>
  <speed>5.080000</speed>
</trkpt>
<trkpt lat="32.860115051" lon="35.256057739">
  <ele>297.510254</ele>
  <time>2011-11-12T05:12:02Z</time>
  <speed>5.560000</speed>
</trkpt>
<trkpt lat="32.860111237" lon="35.255992889">
  <ele>296.814941</ele>
  <time>2011-11-12T05:12:03Z</time>
  <speed>5.900000</speed>
</trkpt>
<trkpt lat="32.860111237" lon="35.255931854">
  <ele>296.291504</ele>
  <time>2011-11-12T05:12:04Z</time>
  <speed>5.910000</speed>
</trkpt>
<trkpt lat="32.860103607" lon="35.255867004">
  <ele>295.838379</ele>
  <time>2011-11-12T05:12:05Z</time>
  <speed>6.070000</speed>
</trkpt>
<trkpt lat="32.860088348" lon="35.255798340">
  <ele>295.729004</ele>
  <time>2011-11-12T05:12:06Z</time>
  <speed>6.410000</speed>
</trkpt>
<trkpt lat="32.860073090" lon="35.255733490">
  <ele>295.408691</ele>
  <time>2011-11-12T05:12:07Z</time>
  <speed>6.300000</speed>
</trkpt>
<trkpt lat="32.860065460" lon="35.255664825">
  <ele>295.143066</ele>
  <time>2011-11-12T05:12:08Z</time>
  <speed>5.780000</speed>
</trkpt>
<trkpt lat="32.860065460" lon="35.255607605">
  <ele>294.033691</ele>
  <time>2011-11-12T05:12:09Z</time>
  <speed>5.520000</speed>
</trkpt>
<trkpt lat="32.860054016" lon="35.255550385">
  <ele>293.689941</ele>
  <time>2011-11-12T05:12:10Z</time>
  <speed>5.310000</speed>
</trkpt>
<trkpt lat="32.860034943" lon="35.255496979">
  <ele>293.049316</ele>
  <time>2011-11-12T05:12:11Z</time>
  <speed>5.740000</speed>
</trkpt>
<trkpt lat="32.860015869" lon="35.255432129">
  <ele>293.322754</ele>
  <time>2011-11-12T05:12:12Z</time>
  <speed>5.670000</speed>
</trkpt>
<trkpt lat="32.860004425" lon="35.255378723">
  <ele>292.814941</ele>
  <time>2011-11-12T05:12:13Z</time>
  <speed>5.470000</speed>
</trkpt>
<trkpt lat="32.859992981" lon="35.255321503">
  <ele>292.385254</ele>
  <time>2011-11-12T05:12:14Z</time>
  <speed>5.300000</speed>
</trkpt>
<trkpt lat="32.859981537" lon="35.255268097">
  <ele>291.471191</ele>
  <time>2011-11-12T05:12:15Z</time>
  <speed>5.670000</speed>
</trkpt>
<trkpt lat="32.859954834" lon="35.255210876">
  <ele>290.377441</ele>
  <time>2011-11-12T05:12:16Z</time>
  <speed>6.190000</speed>
</trkpt>
<trkpt lat="32.859924316" lon="35.255157471">
  <ele>288.955566</ele>
  <time>2011-11-12T05:12:17Z</time>
  <speed>5.710000</speed>
</trkpt>
<trkpt lat="32.859916687" lon="35.255100250">
  <ele>288.643066</ele>
  <time>2011-11-12T05:12:18Z</time>
  <speed>3.980000</speed>
</trkpt>
<trkpt lat="32.859920502" lon="35.255058289">
  <ele>287.533691</ele>
  <time>2011-11-12T05:12:19Z</time>
  <speed>4.220000</speed>
</trkpt>
<trkpt lat="32.859939575" lon="35.255020142">
  <ele>286.447754</ele>
  <time>2011-11-12T05:12:20Z</time>
  <speed>3.880000</speed>
</trkpt>
<trkpt lat="32.859958649" lon="35.254981995">
  <ele>285.619629</ele>
  <time>2011-11-12T05:12:21Z</time>
  <speed>3.650000</speed>
</trkpt>
<trkpt lat="32.859977722" lon="35.254951477">
  <ele>285.330566</ele>
  <time>2011-11-12T05:12:22Z</time>
  <speed>3.350000</speed>
</trkpt>
<trkpt lat="32.859989166" lon="35.254920959">
  <ele>285.830566</ele>
  <time>2011-11-12T05:12:23Z</time>
  <speed>2.720000</speed>
</trkpt>
<trkpt lat="32.860008240" lon="35.254894257">
  <ele>285.893066</ele>
  <time>2011-11-12T05:12:27Z</time>
  <speed>0.220000</speed>
</trkpt>
<trkpt lat="32.860015869" lon="35.254840851">
  <ele>285.557129</ele>
  <time>2011-11-12T05:13:15Z</time>
  <speed>4.430000</speed>
</trkpt>
<trkpt lat="32.860023499" lon="35.254795074">
  <ele>285.010254</ele>
  <time>2011-11-12T05:13:16Z</time>
  <speed>5.080000</speed>
</trkpt>
<trkpt lat="32.860050201" lon="35.254737854">
  <ele>284.689941</ele>
  <time>2011-11-12T05:13:17Z</time>
  <speed>6.200000</speed>
</trkpt>
<trkpt lat="32.860084534" lon="35.254688263">
  <ele>284.541504</ele>
  <time>2011-11-12T05:13:18Z</time>
  <speed>5.110000</speed>
</trkpt>
<trkpt lat="32.860118866" lon="35.254642487">
  <ele>284.150879</ele>
  <time>2011-11-12T05:13:19Z</time>
  <speed>4.960000</speed>
</trkpt>
<trkpt lat="32.860145569" lon="35.254589081">
  <ele>284.416504</ele>
  <time>2011-11-12T05:13:20Z</time>
  <speed>4.980000</speed>
</trkpt>
<trkpt lat="32.860172272" lon="35.254539490">
  <ele>283.939941</ele>
  <time>2011-11-12T05:13:21Z</time>
  <speed>5.030000</speed>
</trkpt>
<trkpt lat="32.860195160" lon="35.254482269">
  <ele>283.854004</ele>
  <time>2011-11-12T05:13:22Z</time>
  <speed>5.840000</speed>
</trkpt>
<trkpt lat="32.860218048" lon="35.254421234">
  <ele>283.119629</ele>
  <time>2011-11-12T05:13:23Z</time>
  <speed>6.260000</speed>
</trkpt>
<trkpt lat="32.860237122" lon="35.254360199">
  <ele>282.877441</ele>
  <time>2011-11-12T05:13:24Z</time>
  <speed>5.600000</speed>
</trkpt>
<trkpt lat="32.860252380" lon="35.254302979">
  <ele>282.447754</ele>
  <time>2011-11-12T05:13:25Z</time>
  <speed>4.520000</speed>
</trkpt>
<trkpt lat="32.860263824" lon="35.254261017">
  <ele>282.080566</ele>
  <time>2011-11-12T05:13:26Z</time>
  <speed>3.420000</speed>
</trkpt>
<trkpt lat="32.860279083" lon="35.254219055">
  <ele>281.525879</ele>
  <time>2011-11-12T05:13:27Z</time>
  <speed>3.440000</speed>
</trkpt>
<trkpt lat="32.860290527" lon="35.254188538">
  <ele>280.674316</ele>
  <time>2011-11-12T05:13:28Z</time>
  <speed>3.180000</speed>
</trkpt>
<trkpt lat="32.860301971" lon="35.254146576">
  <ele>280.596191</ele>
  <time>2011-11-12T05:13:29Z</time>
  <speed>3.380000</speed>
</trkpt>
<trkpt lat="32.860309601" lon="35.254100800">
  <ele>280.330566</ele>
  <time>2011-11-12T05:13:30Z</time>
  <speed>3.980000</speed>
</trkpt>
<trkpt lat="32.860317230" lon="35.254047394">
  <ele>279.604004</ele>
  <time>2011-11-12T05:13:31Z</time>
  <speed>4.340000</speed>
</trkpt>
<trkpt lat="32.860328674" lon="35.253997803">
  <ele>279.166504</ele>
  <time>2011-11-12T05:13:32Z</time>
  <speed>4.570000</speed>
</trkpt>
<trkpt lat="32.860347748" lon="35.253940582">
  <ele>278.643066</ele>
  <time>2011-11-12T05:13:33Z</time>
  <speed>5.040000</speed>
</trkpt>
<trkpt lat="32.860366821" lon="35.253890991">
  <ele>277.971191</ele>
  <time>2011-11-12T05:13:34Z</time>
  <speed>5.210000</speed>
</trkpt>
<trkpt lat="32.860385895" lon="35.253833771">
  <ele>277.861816</ele>
  <time>2011-11-12T05:13:35Z</time>
  <speed>4.810000</speed>
</trkpt>
<trkpt lat="32.860412598" lon="35.253768921">
  <ele>277.908691</ele>
  <time>2011-11-12T05:13:36Z</time>
  <speed>5.120000</speed>
</trkpt>
<trkpt lat="32.860439301" lon="35.253730774">
  <ele>277.283691</ele>
  <time>2011-11-12T05:13:37Z</time>
  <speed>3.990000</speed>
</trkpt>
<trkpt lat="32.860488892" lon="35.253696442">
  <ele>276.924316</ele>
  <time>2011-11-12T05:13:39Z</time>
  <speed>2.910000</speed>
</trkpt>
<trkpt lat="32.860515594" lon="35.253681183">
  <ele>276.838379</ele>
  <time>2011-11-12T05:13:40Z</time>
  <speed>2.890000</speed>
</trkpt>
<trkpt lat="32.860549927" lon="35.253665924">
  <ele>276.166504</ele>
  <time>2011-11-12T05:13:41Z</time>
  <speed>4.080000</speed>
</trkpt>
<trkpt lat="32.860584259" lon="35.253646851">
  <ele>276.432129</ele>
  <time>2011-11-12T05:13:42Z</time>
  <speed>3.750000</speed>
</trkpt>
<trkpt lat="32.860622406" lon="35.253631592">
  <ele>276.775879</ele>
  <time>2011-11-12T05:13:43Z</time>
  <speed>3.490000</speed>
</trkpt>
<trkpt lat="32.860652924" lon="35.253616333">
  <ele>276.697754</ele>
  <time>2011-11-12T05:13:44Z</time>
  <speed>3.580000</speed>
</trkpt>
<trkpt lat="32.860687256" lon="35.253604889">
  <ele>276.346191</ele>
  <time>2011-11-12T05:13:45Z</time>
  <speed>3.410000</speed>
</trkpt>
<trkpt lat="32.860721588" lon="35.253589630">
  <ele>275.846191</ele>
  <time>2011-11-12T05:13:46Z</time>
  <speed>3.490000</speed>
</trkpt>
<trkpt lat="32.860759735" lon="35.253555298">
  <ele>274.221191</ele>
  <time>2011-11-12T05:13:47Z</time>
  <speed>5.040000</speed>
</trkpt>
<trkpt lat="32.860801697" lon="35.253517151">
  <ele>273.588379</ele>
  <time>2011-11-12T05:13:48Z</time>
  <speed>5.610000</speed>
</trkpt>
<trkpt lat="32.860855103" lon="35.253482819">
  <ele>273.049316</ele>
  <time>2011-11-12T05:13:49Z</time>
  <speed>5.840000</speed>
</trkpt>
<trkpt lat="32.860900879" lon="35.253452301">
  <ele>272.596191</ele>
  <time>2011-11-12T05:13:50Z</time>
  <speed>5.060000</speed>
</trkpt>
<trkpt lat="32.860939026" lon="35.253421783">
  <ele>272.252441</ele>
  <time>2011-11-12T05:13:51Z</time>
  <speed>4.610000</speed>
</trkpt>
<trkpt lat="32.860980988" lon="35.253398895">
  <ele>271.893066</ele>
  <time>2011-11-12T05:13:52Z</time>
  <speed>4.630000</speed>
</trkpt>
<trkpt lat="32.861026764" lon="35.253356934">
  <ele>270.229004</ele>
  <time>2011-11-12T05:13:53Z</time>
  <speed>5.110000</speed>
</trkpt>
<trkpt lat="32.861072540" lon="35.253341675">
  <ele>270.033691</ele>
  <time>2011-11-12T05:13:54Z</time>
  <speed>5.120000</speed>
</trkpt>
<trkpt lat="32.861118317" lon="35.253303528">
  <ele>270.775879</ele>
  <time>2011-11-12T05:13:55Z</time>
  <speed>4.990000</speed>
</trkpt>
<trkpt lat="32.861164093" lon="35.253276825">
  <ele>269.979004</ele>
  <time>2011-11-12T05:13:56Z</time>
  <speed>4.890000</speed>
</trkpt>
<trkpt lat="32.861209869" lon="35.253246307">
  <ele>269.471191</ele>
  <time>2011-11-12T05:13:57Z</time>
  <speed>4.590000</speed>
</trkpt>
<trkpt lat="32.861255646" lon="35.253211975">
  <ele>268.908691</ele>
  <time>2011-11-12T05:13:58Z</time>
  <speed>4.230000</speed>
</trkpt>
<trkpt lat="32.861286163" lon="35.253177643">
  <ele>268.236816</ele>
  <time>2011-11-12T05:13:59Z</time>
  <speed>3.580000</speed>
</trkpt>
<trkpt lat="32.861320496" lon="35.253147125">
  <ele>267.877441</ele>
  <time>2011-11-12T05:14:00Z</time>
  <speed>3.810000</speed>
</trkpt>
<trkpt lat="32.861366272" lon="35.253128052">
  <ele>266.268066</ele>
  <time>2011-11-12T05:14:01Z</time>
  <speed>3.940000</speed>
</trkpt>
<trkpt lat="32.861408234" lon="35.253105164">
  <ele>265.096191</ele>
  <time>2011-11-12T05:14:02Z</time>
  <speed>3.890000</speed>
</trkpt>
<trkpt lat="32.861438751" lon="35.253074646">
  <ele>264.807129</ele>
  <time>2011-11-12T05:14:03Z</time>
  <speed>3.850000</speed>
</trkpt>
<trkpt lat="32.861469269" lon="35.253036499">
  <ele>264.869629</ele>
  <time>2011-11-12T05:14:04Z</time>
  <speed>4.050000</speed>
</trkpt>
<trkpt lat="32.861499786" lon="35.253005981">
  <ele>264.174316</ele>
  <time>2011-11-12T05:14:05Z</time>
  <speed>3.960000</speed>
</trkpt>
<trkpt lat="32.861537933" lon="35.252986908">
  <ele>263.252441</ele>
  <time>2011-11-12T05:14:06Z</time>
  <speed>3.610000</speed>
</trkpt>
<trkpt lat="32.861572266" lon="35.252971649">
  <ele>262.525879</ele>
  <time>2011-11-12T05:14:07Z</time>
  <speed>3.520000</speed>
</trkpt>
<trkpt lat="32.861602783" lon="35.252952576">
  <ele>262.330566</ele>
  <time>2011-11-12T05:14:08Z</time>
  <speed>2.850000</speed>
</trkpt>
<trkpt lat="32.861629486" lon="35.252941132">
  <ele>261.939941</ele>
  <time>2011-11-12T05:14:09Z</time>
  <speed>2.370000</speed>
</trkpt>
<trkpt lat="32.861675262" lon="35.252933502">
  <ele>261.533691</ele>
  <time>2011-11-12T05:14:11Z</time>
  <speed>1.290000</speed>
</trkpt>
<trkpt lat="32.861705780" lon="35.252948761">
  <ele>261.494629</ele>
  <time>2011-11-12T05:14:13Z</time>
  <speed>0.500000</speed>
</trkpt>
<trkpt lat="32.861728668" lon="35.252956390">
  <ele>259.939941</ele>
  <time>2011-11-12T05:14:18Z</time>
  <speed>0.240000</speed>
</trkpt>
<trkpt lat="32.861747742" lon="35.252925873">
  <ele>259.041504</ele>
  <time>2011-11-12T05:14:25Z</time>
  <speed>0.790000</speed>
</trkpt>
<trkpt lat="32.861778259" lon="35.252902985">
  <ele>258.861816</ele>
  <time>2011-11-12T05:14:29Z</time>
  <speed>1.970000</speed>
</trkpt>
<trkpt lat="32.861804962" lon="35.252880096">
  <ele>258.869629</ele>
  <time>2011-11-12T05:14:31Z</time>
  <speed>1.790000</speed>
</trkpt>
<trkpt lat="32.861816406" lon="35.252845764">
  <ele>259.721191</ele>
  <time>2011-11-12T05:14:32Z</time>
  <speed>1.730000</speed>
</trkpt>
<trkpt lat="32.861824036" lon="35.252807617">
  <ele>259.658691</ele>
  <time>2011-11-12T05:14:33Z</time>
  <speed>1.870000</speed>
</trkpt>
<trkpt lat="32.861850739" lon="35.252765656">
  <ele>259.721191</ele>
  <time>2011-11-12T05:14:35Z</time>
  <speed>1.990000</speed>
</trkpt>
<trkpt lat="32.861862183" lon="35.252738953">
  <ele>259.322754</ele>
  <time>2011-11-12T05:14:36Z</time>
  <speed>1.900000</speed>
</trkpt>
<trkpt lat="32.861881256" lon="35.252700806">
  <ele>259.564941</ele>
  <time>2011-11-12T05:14:38Z</time>
  <speed>1.640000</speed>
</trkpt>
<trkpt lat="32.861881256" lon="35.252643585">
  <ele>259.033691</ele>
  <time>2011-11-12T05:14:40Z</time>
  <speed>2.550000</speed>
</trkpt>
<trkpt lat="32.861904144" lon="35.252605438">
  <ele>258.518066</ele>
  <time>2011-11-12T05:14:42Z</time>
  <speed>1.540000</speed>
</trkpt>
<trkpt lat="32.861938477" lon="35.252578735">
  <ele>257.361816</ele>
  <time>2011-11-12T05:14:45Z</time>
  <speed>1.600000</speed>
</trkpt>
<trkpt lat="32.861961365" lon="35.252559662">
  <ele>256.604004</ele>
  <time>2011-11-12T05:14:47Z</time>
  <speed>1.430000</speed>
</trkpt>
<trkpt lat="32.861988068" lon="35.252555847">
  <ele>255.868408</ele>
  <time>2011-11-12T05:14:49Z</time>
  <speed>1.460000</speed>
</trkpt>
<trkpt lat="32.862018585" lon="35.252532959">
  <ele>255.212158</ele>
  <time>2011-11-12T05:14:51Z</time>
  <speed>1.910000</speed>
</trkpt>
<trkpt lat="32.862026215" lon="35.252502441">
  <ele>255.012939</ele>
  <time>2011-11-12T05:14:53Z</time>
  <speed>1.350000</speed>
</trkpt>
<trkpt lat="32.862033844" lon="35.252468109">
  <ele>254.977783</ele>
  <time>2011-11-12T05:14:55Z</time>
  <speed>1.730000</speed>
</trkpt>
<trkpt lat="32.862037659" lon="35.252437592">
  <ele>254.532471</ele>
  <time>2011-11-12T05:14:57Z</time>
  <speed>1.530000</speed>
</trkpt>
<trkpt lat="32.862079620" lon="35.252422333">
  <ele>255.430908</ele>
  <time>2011-11-12T05:15:00Z</time>
  <speed>1.480000</speed>
</trkpt>
<trkpt lat="32.862098694" lon="35.252384186">
  <ele>255.200439</ele>
  <time>2011-11-12T05:15:02Z</time>
  <speed>1.900000</speed>
</trkpt>
<trkpt lat="32.862113953" lon="35.252349854">
  <ele>254.532471</ele>
  <time>2011-11-12T05:15:04Z</time>
  <speed>1.900000</speed>
</trkpt>
<trkpt lat="32.862129211" lon="35.252311707">
  <ele>254.786377</ele>
  <time>2011-11-12T05:15:06Z</time>
  <speed>2.000000</speed>
</trkpt>
<trkpt lat="32.862163544" lon="35.252281189">
  <ele>254.446533</ele>
  <time>2011-11-12T05:15:08Z</time>
  <speed>2.100000</speed>
</trkpt>
<trkpt lat="32.862171173" lon="35.252246857">
  <ele>254.341064</ele>
  <time>2011-11-12T05:15:10Z</time>
  <speed>1.560000</speed>
</trkpt>
<trkpt lat="32.862174988" lon="35.252201080">
  <ele>254.559814</ele>
  <time>2011-11-12T05:15:12Z</time>
  <speed>2.030000</speed>
</trkpt>
<trkpt lat="32.862182617" lon="35.252170563">
  <ele>255.552002</ele>
  <time>2011-11-12T05:15:14Z</time>
  <speed>1.860000</speed>
</trkpt>
<trkpt lat="32.862197876" lon="35.252128601">
  <ele>256.869629</ele>
  <time>2011-11-12T05:15:16Z</time>
  <speed>1.870000</speed>
</trkpt>
<trkpt lat="32.862201691" lon="35.252098083">
  <ele>258.377441</ele>
  <time>2011-11-12T05:15:17Z</time>
  <speed>1.460000</speed>
</trkpt>
<trkpt lat="32.862209320" lon="35.252063751">
  <ele>259.018066</ele>
  <time>2011-11-12T05:15:19Z</time>
  <speed>1.720000</speed>
</trkpt>
<trkpt lat="32.862232208" lon="35.252059937">
  <ele>260.627441</ele>
  <time>2011-11-12T05:15:20Z</time>
  <speed>1.450000</speed>
</trkpt>
<trkpt lat="32.862251282" lon="35.252021790">
  <ele>261.744629</ele>
  <time>2011-11-12T05:15:23Z</time>
  <speed>1.680000</speed>
</trkpt>
<trkpt lat="32.862236023" lon="35.251991272">
  <ele>261.971191</ele>
  <time>2011-11-12T05:15:25Z</time>
  <speed>1.210000</speed>
</trkpt>
<trkpt lat="32.862209320" lon="35.251964569">
  <ele>261.932129</ele>
  <time>2011-11-12T05:15:27Z</time>
  <speed>1.240000</speed>
</trkpt>
<trkpt lat="32.862171173" lon="35.251945496">
  <ele>262.689941</ele>
  <time>2011-11-12T05:15:29Z</time>
  <speed>1.940000</speed>
</trkpt>
<trkpt lat="32.862140656" lon="35.251937866">
  <ele>264.705566</ele>
  <time>2011-11-12T05:15:30Z</time>
  <speed>1.730000</speed>
</trkpt>
<trkpt lat="32.862098694" lon="35.251884460">
  <ele>266.119629</ele>
  <time>2011-11-12T05:15:32Z</time>
  <speed>2.110000</speed>
</trkpt>
<trkpt lat="32.862079620" lon="35.251857758">
  <ele>266.775879</ele>
  <time>2011-11-12T05:15:33Z</time>
  <speed>1.580000</speed>
</trkpt>
<trkpt lat="32.862056732" lon="35.251838684">
  <ele>267.025879</ele>
  <time>2011-11-12T05:15:35Z</time>
  <speed>1.380000</speed>
</trkpt>
<trkpt lat="32.862022400" lon="35.251815796">
  <ele>267.549316</ele>
  <time>2011-11-12T05:15:38Z</time>
  <speed>0.970000</speed>
</trkpt>
<trkpt lat="32.862003326" lon="35.251792908">
  <ele>267.939941</ele>
  <time>2011-11-12T05:15:40Z</time>
  <speed>0.890000</speed>
</trkpt>
<trkpt lat="32.861972809" lon="35.251785278">
  <ele>269.518066</ele>
  <time>2011-11-12T05:15:42Z</time>
  <speed>0.810000</speed>
</trkpt>
<trkpt lat="32.861961365" lon="35.251750946">
  <ele>271.002441</ele>
  <time>2011-11-12T05:15:44Z</time>
  <speed>0.670000</speed>
</trkpt>
<trkpt lat="32.861942291" lon="35.251754761">
  <ele>272.736816</ele>
  <time>2011-11-12T05:15:51Z</time>
  <speed>0.070000</speed>
</trkpt>
<trkpt lat="32.861877441" lon="35.251743317">
  <ele>273.447754</ele>
  <time>2011-11-12T05:16:07Z</time>
</trkpt>
<trkpt lat="32.861877441" lon="35.251708984">
  <ele>274.424316</ele>
  <time>2011-11-12T05:16:23Z</time>
  <speed>0.180000</speed>
</trkpt>
<trkpt lat="32.861877441" lon="35.251682281">
  <ele>276.002441</ele>
  <time>2011-11-12T05:16:34Z</time>
  <speed>0.180000</speed>
</trkpt>
<trkpt lat="32.861877441" lon="35.251659393">
  <ele>278.213379</ele>
  <time>2011-11-12T05:16:46Z</time>
  <speed>0.170000</speed>
</trkpt>
<trkpt lat="32.861869812" lon="35.251640320">
  <ele>280.611816</ele>
  <time>2011-11-12T05:16:57Z</time>
  <speed>0.160000</speed>
</trkpt>
<trkpt lat="32.861865997" lon="35.251625061">
  <ele>283.416504</ele>
  <time>2011-11-12T05:17:08Z</time>
  <speed>0.100000</speed>
</trkpt>
<trkpt lat="32.861869812" lon="35.251613617">
  <ele>286.330566</ele>
  <time>2011-11-12T05:17:18Z</time>
  <speed>0.080000</speed>
</trkpt>
<trkpt lat="32.861862183" lon="35.251598358">
  <ele>288.986816</ele>
  <time>2011-11-12T05:17:29Z</time>
  <speed>0.140000</speed>
</trkpt>
<trkpt lat="32.861854553" lon="35.251579285">
  <ele>291.400879</ele>
  <time>2011-11-12T05:17:43Z</time>
  <speed>0.110000</speed>
</trkpt>
<trkpt lat="32.861854553" lon="35.251556396">
  <ele>293.908691</ele>
  <time>2011-11-12T05:17:57Z</time>
  <speed>0.260000</speed>
</trkpt>
<trkpt lat="32.861862183" lon="35.251529694">
  <ele>295.604004</ele>
  <time>2011-11-12T05:18:07Z</time>
  <speed>0.370000</speed>
</trkpt>
<trkpt lat="32.861900330" lon="35.251491547">
  <ele>295.994629</ele>
  <time>2011-11-12T05:18:10Z</time>
  <speed>1.390000</speed>
</trkpt>
<trkpt lat="32.861934662" lon="35.251453400">
  <ele>295.463379</ele>
  <time>2011-11-12T05:18:12Z</time>
  <speed>2.470000</speed>
</trkpt>
<trkpt lat="32.861957550" lon="35.251392365">
  <ele>295.416504</ele>
  <time>2011-11-12T05:18:14Z</time>
  <speed>2.470000</speed>
</trkpt>
<trkpt lat="32.861972809" lon="35.251361847">
  <ele>295.479004</ele>
  <time>2011-11-12T05:18:15Z</time>
  <speed>2.150000</speed>
</trkpt>
<trkpt lat="32.861988068" lon="35.251312256">
  <ele>295.088379</ele>
  <time>2011-11-12T05:18:17Z</time>
  <speed>2.270000</speed>
</trkpt>
<trkpt lat="32.862007141" lon="35.251255035">
  <ele>294.072754</ele>
  <time>2011-11-12T05:18:19Z</time>
  <speed>2.740000</speed>
</trkpt>
<trkpt lat="32.862007141" lon="35.251220703">
  <ele>293.650879</ele>
  <time>2011-11-12T05:18:20Z</time>
  <speed>2.890000</speed>
</trkpt>
<trkpt lat="32.862007141" lon="35.251163483">
  <ele>292.783691</ele>
  <time>2011-11-12T05:18:22Z</time>
  <speed>2.570000</speed>
</trkpt>
<trkpt lat="32.862022400" lon="35.251121521">
  <ele>292.080566</ele>
  <time>2011-11-12T05:18:24Z</time>
  <speed>1.860000</speed>
</trkpt>
<trkpt lat="32.862030029" lon="35.251079559">
  <ele>291.877441</ele>
  <time>2011-11-12T05:18:26Z</time>
  <speed>1.020000</speed>
</trkpt>
<trkpt lat="32.862033844" lon="35.251033783">
  <ele>292.705566</ele>
  <time>2011-11-12T05:18:29Z</time>
  <speed>0.880000</speed>
</trkpt>
<trkpt lat="32.862022400" lon="35.251007080">
  <ele>292.354004</ele>
  <time>2011-11-12T05:18:31Z</time>
  <speed>1.030000</speed>
</trkpt>
<trkpt lat="32.862003326" lon="35.250968933">
  <ele>294.018066</ele>
  <time>2011-11-12T05:18:32Z</time>
  <speed>0.910000</speed>
</trkpt>
<trkpt lat="32.862033844" lon="35.250972748">
  <ele>293.908691</ele>
  <time>2011-11-12T05:18:39Z</time>
  <speed>0.750000</speed>
</trkpt>
<trkpt lat="32.862068176" lon="35.250988007">
  <ele>294.174316</ele>
  <time>2011-11-12T05:18:42Z</time>
  <speed>1.520000</speed>
</trkpt>
<trkpt lat="32.862098694" lon="35.250961304">
  <ele>293.494629</ele>
  <time>2011-11-12T05:18:44Z</time>
  <speed>2.080000</speed>
</trkpt>
<trkpt lat="32.862117767" lon="35.250942230">
  <ele>292.822754</ele>
  <time>2011-11-12T05:18:45Z</time>
  <speed>3.800000</speed>
</trkpt>
<trkpt lat="32.862136841" lon="35.250900269">
  <ele>292.018066</ele>
  <time>2011-11-12T05:18:46Z</time>
  <speed>4.650000</speed>
</trkpt>
<trkpt lat="32.862155914" lon="35.250831604">
  <ele>291.533691</ele>
  <time>2011-11-12T05:18:47Z</time>
  <speed>5.500000</speed>
</trkpt>
<trkpt lat="32.862186432" lon="35.250789642">
  <ele>290.705566</ele>
  <time>2011-11-12T05:18:48Z</time>
  <speed>5.040000</speed>
</trkpt>
<trkpt lat="32.862209320" lon="35.250751495">
  <ele>289.088379</ele>
  <time>2011-11-12T05:18:49Z</time>
  <speed>4.690000</speed>
</trkpt>
<trkpt lat="32.862224579" lon="35.250698090">
  <ele>287.900879</ele>
  <time>2011-11-12T05:18:50Z</time>
  <speed>4.700000</speed>
</trkpt>
<trkpt lat="32.862243652" lon="35.250652313">
  <ele>286.650879</ele>
  <time>2011-11-12T05:18:51Z</time>
  <speed>4.710000</speed>
</trkpt>
<trkpt lat="32.862247467" lon="35.250583649">
  <ele>286.143066</ele>
  <time>2011-11-12T05:18:52Z</time>
  <speed>5.600000</speed>
</trkpt>
<trkpt lat="32.862262726" lon="35.250507355">
  <ele>285.830566</ele>
  <time>2011-11-12T05:18:53Z</time>
  <speed>6.470000</speed>
</trkpt>
<trkpt lat="32.862281799" lon="35.250434875">
  <ele>285.486816</ele>
  <time>2011-11-12T05:18:54Z</time>
  <speed>6.220000</speed>
</trkpt>
<trkpt lat="32.862274170" lon="35.250358582">
  <ele>284.244629</ele>
  <time>2011-11-12T05:18:55Z</time>
  <speed>7.370000</speed>
</trkpt>
<trkpt lat="32.862262726" lon="35.250274658">
  <ele>283.018066</ele>
  <time>2011-11-12T05:18:56Z</time>
  <speed>7.110000</speed>
</trkpt>
<trkpt lat="32.862258911" lon="35.250183105">
  <ele>282.744629</ele>
  <time>2011-11-12T05:18:57Z</time>
  <speed>7.070000</speed>
</trkpt>
<trkpt lat="32.862258911" lon="35.250102997">
  <ele>281.580566</ele>
  <time>2011-11-12T05:18:58Z</time>
  <speed>7.150000</speed>
</trkpt>
<trkpt lat="32.862255096" lon="35.250022888">
  <ele>281.182129</ele>
  <time>2011-11-12T05:18:59Z</time>
  <speed>6.690000</speed>
</trkpt>
<trkpt lat="32.862251282" lon="35.249942780">
  <ele>280.307129</ele>
  <time>2011-11-12T05:19:00Z</time>
  <speed>7.050000</speed>
</trkpt>
<trkpt lat="32.862243652" lon="35.249862671">
  <ele>279.166504</ele>
  <time>2011-11-12T05:19:01Z</time>
  <speed>7.300000</speed>
</trkpt>
<trkpt lat="32.862243652" lon="35.249797821">
  <ele>278.104004</ele>
  <time>2011-11-12T05:19:02Z</time>
  <speed>5.050000</speed>
</trkpt>
<trkpt lat="32.862251282" lon="35.249744415">
  <ele>277.002441</ele>
  <time>2011-11-12T05:19:03Z</time>
  <speed>4.480000</speed>
</trkpt>
<trkpt lat="32.862258911" lon="35.249694824">
  <ele>275.854004</ele>
  <time>2011-11-12T05:19:04Z</time>
  <speed>4.940000</speed>
</trkpt>
<trkpt lat="32.862262726" lon="35.249637604">
  <ele>274.854004</ele>
  <time>2011-11-12T05:19:05Z</time>
  <speed>5.080000</speed>
</trkpt>
<trkpt lat="32.862270355" lon="35.249576569">
  <ele>273.822754</ele>
  <time>2011-11-12T05:19:06Z</time>
  <speed>5.280000</speed>
</trkpt>
<trkpt lat="32.862289429" lon="35.249526978">
  <ele>271.713379</ele>
  <time>2011-11-12T05:19:07Z</time>
  <speed>4.740000</speed>
</trkpt>
<trkpt lat="32.862319946" lon="35.249485016">
  <ele>270.877441</ele>
  <time>2011-11-12T05:19:08Z</time>
  <speed>5.140000</speed>
</trkpt>
<trkpt lat="32.862350464" lon="35.249439240">
  <ele>270.119629</ele>
  <time>2011-11-12T05:19:09Z</time>
  <speed>4.930000</speed>
</trkpt>
<trkpt lat="32.862373352" lon="35.249385834">
  <ele>269.307129</ele>
  <time>2011-11-12T05:19:10Z</time>
  <speed>5.290000</speed>
</trkpt>
<trkpt lat="32.862392426" lon="35.249328613">
  <ele>268.432129</ele>
  <time>2011-11-12T05:19:11Z</time>
  <speed>5.360000</speed>
</trkpt>
<trkpt lat="32.862419128" lon="35.249279022">
  <ele>267.236816</ele>
  <time>2011-11-12T05:19:12Z</time>
  <speed>5.690000</speed>
</trkpt>
<trkpt lat="32.862453461" lon="35.249225616">
  <ele>267.033691</ele>
  <time>2011-11-12T05:19:13Z</time>
  <speed>5.380000</speed>
</trkpt>
<trkpt lat="32.862472534" lon="35.249172211">
  <ele>266.338379</ele>
  <time>2011-11-12T05:19:14Z</time>
  <speed>5.300000</speed>
</trkpt>
<trkpt lat="32.862476349" lon="35.249107361">
  <ele>265.088379</ele>
  <time>2011-11-12T05:19:15Z</time>
  <speed>5.780000</speed>
</trkpt>
<trkpt lat="32.862476349" lon="35.249050140">
  <ele>264.221191</ele>
  <time>2011-11-12T05:19:16Z</time>
  <speed>5.350000</speed>
</trkpt>
<trkpt lat="32.862472534" lon="35.248992920">
  <ele>262.869629</ele>
  <time>2011-11-12T05:19:17Z</time>
  <speed>4.690000</speed>
</trkpt>
<trkpt lat="32.862468719" lon="35.248939514">
  <ele>262.979004</ele>
  <time>2011-11-12T05:19:18Z</time>
  <speed>4.190000</speed>
</trkpt>
<trkpt lat="32.862480164" lon="35.248882294">
  <ele>262.385254</ele>
  <time>2011-11-12T05:19:19Z</time>
  <speed>4.840000</speed>
</trkpt>
<trkpt lat="32.862499237" lon="35.248825073">
  <ele>262.322754</ele>
  <time>2011-11-12T05:19:20Z</time>
  <speed>4.840000</speed>
</trkpt>
<trkpt lat="32.862518311" lon="35.248771667">
  <ele>261.416504</ele>
  <time>2011-11-12T05:19:21Z</time>
  <speed>5.310000</speed>
</trkpt>
<trkpt lat="32.862541199" lon="35.248710632">
  <ele>261.182129</ele>
  <time>2011-11-12T05:19:22Z</time>
  <speed>5.920000</speed>
</trkpt>
<trkpt lat="32.862560272" lon="35.248649597">
  <ele>260.197754</ele>
  <time>2011-11-12T05:19:23Z</time>
  <speed>5.480000</speed>
</trkpt>
<trkpt lat="32.862590790" lon="35.248600006">
  <ele>259.025879</ele>
  <time>2011-11-12T05:19:24Z</time>
  <speed>5.060000</speed>
</trkpt>
<trkpt lat="32.862621307" lon="35.248565674">
  <ele>258.689941</ele>
  <time>2011-11-12T05:19:25Z</time>
  <speed>4.150000</speed>
</trkpt>
<trkpt lat="32.862644196" lon="35.248523712">
  <ele>258.807129</ele>
  <time>2011-11-12T05:19:26Z</time>
  <speed>4.370000</speed>
</trkpt>
<trkpt lat="32.862659454" lon="35.248458862">
  <ele>257.721191</ele>
  <time>2011-11-12T05:19:27Z</time>
  <speed>5.530000</speed>
</trkpt>
<trkpt lat="32.862674713" lon="35.248397827">
  <ele>256.338379</ele>
  <time>2011-11-12T05:19:28Z</time>
  <speed>5.940000</speed>
</trkpt>
<trkpt lat="32.862701416" lon="35.248340607">
  <ele>255.055908</ele>
  <time>2011-11-12T05:19:29Z</time>
  <speed>5.460000</speed>
</trkpt>
<trkpt lat="32.862724304" lon="35.248291016">
  <ele>254.333252</ele>
  <time>2011-11-12T05:19:30Z</time>
  <speed>5.110000</speed>
</trkpt>
<trkpt lat="32.862758636" lon="35.248256683">
  <ele>253.727783</ele>
  <time>2011-11-12T05:19:31Z</time>
  <speed>4.850000</speed>
</trkpt>
<trkpt lat="32.862800598" lon="35.248218536">
  <ele>253.493408</ele>
  <time>2011-11-12T05:19:32Z</time>
  <speed>4.910000</speed>
</trkpt>
<trkpt lat="32.862838745" lon="35.248195648">
  <ele>252.973877</ele>
  <time>2011-11-12T05:19:33Z</time>
  <speed>4.160000</speed>
</trkpt>
<trkpt lat="32.862876892" lon="35.248176575">
  <ele>252.731689</ele>
  <time>2011-11-12T05:19:34Z</time>
  <speed>4.060000</speed>
</trkpt>
<trkpt lat="32.862918854" lon="35.248149872">
  <ele>253.489502</ele>
  <time>2011-11-12T05:19:35Z</time>
  <speed>4.160000</speed>
</trkpt>
<trkpt lat="32.862960815" lon="35.248126984">
  <ele>253.223877</ele>
  <time>2011-11-12T05:19:36Z</time>
  <speed>5.110000</speed>
</trkpt>
<trkpt lat="32.863002777" lon="35.248092651">
  <ele>254.356689</ele>
  <time>2011-11-12T05:19:37Z</time>
  <speed>4.810000</speed>
</trkpt>
<trkpt lat="32.863037109" lon="35.248081207">
  <ele>253.626221</ele>
  <time>2011-11-12T05:19:38Z</time>
  <speed>3.560000</speed>
</trkpt>
<trkpt lat="32.863067627" lon="35.248039246">
  <ele>254.270752</ele>
  <time>2011-11-12T05:19:39Z</time>
  <speed>3.840000</speed>
</trkpt>
<trkpt lat="32.863086700" lon="35.247993469">
  <ele>253.876221</ele>
  <time>2011-11-12T05:19:40Z</time>
  <speed>4.780000</speed>
</trkpt>
<trkpt lat="32.863094330" lon="35.247928619">
  <ele>253.501221</ele>
  <time>2011-11-12T05:19:41Z</time>
  <speed>5.230000</speed>
</trkpt>
<trkpt lat="32.863098145" lon="35.247867584">
  <ele>252.622314</ele>
  <time>2011-11-12T05:19:42Z</time>
  <speed>5.920000</speed>
</trkpt>
<trkpt lat="32.863113403" lon="35.247821808">
  <ele>251.110596</ele>
  <time>2011-11-12T05:19:43Z</time>
  <speed>4.830000</speed>
</trkpt>
<trkpt lat="32.863136292" lon="35.247779846">
  <ele>250.321533</ele>
  <time>2011-11-12T05:19:44Z</time>
  <speed>5.080000</speed>
</trkpt>
<trkpt lat="32.863174438" lon="35.247726440">
  <ele>250.649658</ele>
  <time>2011-11-12T05:19:45Z</time>
  <speed>5.370000</speed>
</trkpt>
<trkpt lat="32.863204956" lon="35.247669220">
  <ele>250.098877</ele>
  <time>2011-11-12T05:19:46Z</time>
  <speed>6.120000</speed>
</trkpt>
<trkpt lat="32.863231659" lon="35.247592926">
  <ele>249.305908</ele>
  <time>2011-11-12T05:19:47Z</time>
  <speed>7.280000</speed>
</trkpt>
<trkpt lat="32.863258362" lon="35.247512817">
  <ele>248.602783</ele>
  <time>2011-11-12T05:19:48Z</time>
  <speed>7.600000</speed>
</trkpt>
<trkpt lat="32.863292694" lon="35.247447968">
  <ele>248.059814</ele>
  <time>2011-11-12T05:19:49Z</time>
  <speed>7.330000</speed>
</trkpt>
<trkpt lat="32.863342285" lon="35.247402191">
  <ele>247.743408</ele>
  <time>2011-11-12T05:19:50Z</time>
  <speed>7.130000</speed>
</trkpt>
<trkpt lat="32.863380432" lon="35.247375488">
  <ele>248.102783</ele>
  <time>2011-11-12T05:19:51Z</time>
  <speed>5.090000</speed>
</trkpt>
<trkpt lat="32.863418579" lon="35.247352600">
  <ele>247.860596</ele>
  <time>2011-11-12T05:19:52Z</time>
  <speed>4.650000</speed>
</trkpt>
<trkpt lat="32.863456726" lon="35.247329712">
  <ele>248.223877</ele>
  <time>2011-11-12T05:19:53Z</time>
  <speed>4.390000</speed>
</trkpt>
<trkpt lat="32.863491058" lon="35.247322083">
  <ele>247.462158</ele>
  <time>2011-11-12T05:19:54Z</time>
  <speed>3.480000</speed>
</trkpt>
<trkpt lat="32.863521576" lon="35.247310638">
  <ele>247.227783</ele>
  <time>2011-11-12T05:19:55Z</time>
  <speed>3.260000</speed>
</trkpt>
<trkpt lat="32.863578796" lon="35.247287750">
  <ele>247.602783</ele>
  <time>2011-11-12T05:19:57Z</time>
  <speed>3.060000</speed>
</trkpt>
<trkpt lat="32.863616943" lon="35.247291565">
  <ele>247.524658</ele>
  <time>2011-11-12T05:19:59Z</time>
  <speed>2.000000</speed>
</trkpt>
<trkpt lat="32.863655090" lon="35.247257233">
  <ele>249.259033</ele>
  <time>2011-11-12T05:20:01Z</time>
  <speed>2.660000</speed>
</trkpt>
<trkpt lat="32.863697052" lon="35.247280121">
  <ele>248.712158</ele>
  <time>2011-11-12T05:20:03Z</time>
  <speed>1.990000</speed>
</trkpt>
<trkpt lat="32.863719940" lon="35.247299194">
  <ele>248.864502</ele>
  <time>2011-11-12T05:20:04Z</time>
  <speed>1.850000</speed>
</trkpt>
<trkpt lat="32.863761902" lon="35.247314453">
  <ele>249.962158</ele>
  <time>2011-11-12T05:20:06Z</time>
  <speed>1.480000</speed>
</trkpt>
<trkpt lat="32.863803864" lon="35.247333527">
  <ele>251.649658</ele>
  <time>2011-11-12T05:20:09Z</time>
  <speed>0.910000</speed>
</trkpt>
<trkpt lat="32.863830566" lon="35.247337341">
  <ele>252.001221</ele>
  <time>2011-11-12T05:20:12Z</time>
  <speed>1.440000</speed>
</trkpt>
<trkpt lat="32.863864899" lon="35.247322083">
  <ele>252.833252</ele>
  <time>2011-11-12T05:20:14Z</time>
  <speed>2.250000</speed>
</trkpt>
<trkpt lat="32.863906860" lon="35.247287750">
  <ele>256.893066</ele>
  <time>2011-11-12T05:20:16Z</time>
  <speed>2.270000</speed>
</trkpt>
<trkpt lat="32.863941193" lon="35.247268677">
  <ele>258.939941</ele>
  <time>2011-11-12T05:20:18Z</time>
  <speed>2.110000</speed>
</trkpt>
<trkpt lat="32.863986969" lon="35.247268677">
  <ele>260.502441</ele>
  <time>2011-11-12T05:20:20Z</time>
  <speed>2.330000</speed>
</trkpt>
<trkpt lat="32.864021301" lon="35.247280121">
  <ele>261.682129</ele>
  <time>2011-11-12T05:20:22Z</time>
  <speed>1.920000</speed>
</trkpt>
<trkpt lat="32.864044189" lon="35.247291565">
  <ele>263.369629</ele>
  <time>2011-11-12T05:20:24Z</time>
  <speed>1.500000</speed>
</trkpt>
<trkpt lat="32.864063263" lon="35.247318268">
  <ele>263.986816</ele>
  <time>2011-11-12T05:20:26Z</time>
  <speed>1.730000</speed>
</trkpt>
<trkpt lat="32.864063263" lon="35.247360229">
  <ele>264.908691</ele>
  <time>2011-11-12T05:20:28Z</time>
  <speed>2.090000</speed>
</trkpt>
<trkpt lat="32.864048004" lon="35.247394562">
  <ele>265.979004</ele>
  <time>2011-11-12T05:20:30Z</time>
  <speed>1.840000</speed>
</trkpt>
<trkpt lat="32.864025116" lon="35.247428894">
  <ele>267.080566</ele>
  <time>2011-11-12T05:20:32Z</time>
  <speed>2.150000</speed>
</trkpt>
<trkpt lat="32.864002228" lon="35.247459412">
  <ele>268.307129</ele>
  <time>2011-11-12T05:20:34Z</time>
  <speed>1.740000</speed>
</trkpt>
<trkpt lat="32.863986969" lon="35.247497559">
  <ele>269.010254</ele>
  <time>2011-11-12T05:20:36Z</time>
  <speed>1.800000</speed>
</trkpt>
<trkpt lat="32.863967896" lon="35.247524261">
  <ele>269.783691</ele>
  <time>2011-11-12T05:20:38Z</time>
  <speed>1.680000</speed>
</trkpt>
<trkpt lat="32.863948822" lon="35.247562408">
  <ele>270.775879</ele>
  <time>2011-11-12T05:20:40Z</time>
  <speed>1.830000</speed>
</trkpt>
<trkpt lat="32.863929749" lon="35.247596741">
  <ele>270.494629</ele>
  <time>2011-11-12T05:20:42Z</time>
  <speed>1.720000</speed>
</trkpt>
<trkpt lat="32.863906860" lon="35.247627258">
  <ele>271.189941</ele>
  <time>2011-11-12T05:20:45Z</time>
  <speed>1.630000</speed>
</trkpt>
<trkpt lat="32.863891602" lon="35.247661591">
  <ele>270.697754</ele>
  <time>2011-11-12T05:20:47Z</time>
  <speed>1.540000</speed>
</trkpt>
<trkpt lat="32.863864899" lon="35.247695923">
  <ele>270.783691</ele>
  <time>2011-11-12T05:20:50Z</time>
  <speed>1.400000</speed>
</trkpt>
<trkpt lat="32.863845825" lon="35.247714996">
  <ele>269.564941</ele>
  <time>2011-11-12T05:20:53Z</time>
  <speed>0.440000</speed>
</trkpt>
<trkpt lat="32.863822937" lon="35.247741699">
  <ele>269.080566</ele>
  <time>2011-11-12T05:21:16Z</time>
  <speed>1.320000</speed>
</trkpt>
<trkpt lat="32.863834381" lon="35.247772217">
  <ele>269.322754</ele>
  <time>2011-11-12T05:21:18Z</time>
  <speed>1.790000</speed>
</trkpt>
<trkpt lat="32.863853455" lon="35.247795105">
  <ele>270.135254</ele>
  <time>2011-11-12T05:21:20Z</time>
  <speed>1.720000</speed>
</trkpt>
<trkpt lat="32.863899231" lon="35.247806549">
  <ele>271.182129</ele>
  <time>2011-11-12T05:21:22Z</time>
  <speed>1.920000</speed>
</trkpt>
<trkpt lat="32.863937378" lon="35.247817993">
  <ele>272.111816</ele>
  <time>2011-11-12T05:21:24Z</time>
  <speed>1.760000</speed>
</trkpt>
<trkpt lat="32.863967896" lon="35.247814178">
  <ele>272.916504</ele>
  <time>2011-11-12T05:21:26Z</time>
  <speed>1.890000</speed>
</trkpt>
<trkpt lat="32.864006042" lon="35.247814178">
  <ele>273.299316</ele>
  <time>2011-11-12T05:21:28Z</time>
  <speed>1.820000</speed>
</trkpt>
<trkpt lat="32.864044189" lon="35.247802734">
  <ele>274.713379</ele>
  <time>2011-11-12T05:21:30Z</time>
  <speed>2.010000</speed>
</trkpt>
<trkpt lat="32.864078522" lon="35.247787476">
  <ele>274.791504</ele>
  <time>2011-11-12T05:21:33Z</time>
  <speed>1.700000</speed>
</trkpt>
<trkpt lat="32.864116669" lon="35.247787476">
  <ele>274.299316</ele>
  <time>2011-11-12T05:21:35Z</time>
  <speed>2.010000</speed>
</trkpt>
<trkpt lat="32.864154816" lon="35.247791290">
  <ele>274.557129</ele>
  <time>2011-11-12T05:21:37Z</time>
  <speed>1.900000</speed>
</trkpt>
<trkpt lat="32.864192963" lon="35.247787476">
  <ele>275.307129</ele>
  <time>2011-11-12T05:21:39Z</time>
  <speed>1.820000</speed>
</trkpt>
<trkpt lat="32.864231110" lon="35.247791290">
  <ele>275.119629</ele>
  <time>2011-11-12T05:21:41Z</time>
  <speed>1.460000</speed>
</trkpt>
<trkpt lat="32.864257813" lon="35.247779846">
  <ele>274.713379</ele>
  <time>2011-11-12T05:21:43Z</time>
  <speed>1.790000</speed>
</trkpt>
<trkpt lat="32.864288330" lon="35.247779846">
  <ele>274.908691</ele>
  <time>2011-11-12T05:21:45Z</time>
  <speed>1.690000</speed>
</trkpt>
<trkpt lat="32.864318848" lon="35.247772217">
  <ele>276.229004</ele>
  <time>2011-11-12T05:21:47Z</time>
  <speed>1.810000</speed>
</trkpt>
<trkpt lat="32.864353180" lon="35.247772217">
  <ele>276.705566</ele>
  <time>2011-11-12T05:21:49Z</time>
  <speed>1.910000</speed>
</trkpt>
<trkpt lat="32.864391327" lon="35.247768402">
  <ele>277.760254</ele>
  <time>2011-11-12T05:21:51Z</time>
  <speed>1.680000</speed>
</trkpt>
<trkpt lat="32.864418030" lon="35.247764587">
  <ele>278.525879</ele>
  <time>2011-11-12T05:21:53Z</time>
  <speed>1.990000</speed>
</trkpt>
<trkpt lat="32.864452362" lon="35.247768402">
  <ele>279.025879</ele>
  <time>2011-11-12T05:21:55Z</time>
  <speed>1.830000</speed>
</trkpt>
<trkpt lat="32.864479065" lon="35.247768402">
  <ele>278.229004</ele>
  <time>2011-11-12T05:21:57Z</time>
  <speed>2.050000</speed>
</trkpt>
<trkpt lat="32.864513397" lon="35.247776031">
  <ele>278.369629</ele>
  <time>2011-11-12T05:21:59Z</time>
  <speed>1.910000</speed>
</trkpt>
<trkpt lat="32.864547729" lon="35.247783661">
  <ele>277.869629</ele>
  <time>2011-11-12T05:22:01Z</time>
  <speed>2.070000</speed>
</trkpt>
<trkpt lat="32.864585876" lon="35.247795105">
  <ele>277.760254</ele>
  <time>2011-11-12T05:22:03Z</time>
  <speed>2.320000</speed>
</trkpt>
<trkpt lat="32.864620209" lon="35.247798920">
  <ele>277.682129</ele>
  <time>2011-11-12T05:22:05Z</time>
  <speed>2.070000</speed>
</trkpt>
<trkpt lat="32.864662170" lon="35.247806549">
  <ele>277.854004</ele>
  <time>2011-11-12T05:22:07Z</time>
  <speed>2.470000</speed>
</trkpt>
<trkpt lat="32.864707947" lon="35.247806549">
  <ele>278.174316</ele>
  <time>2011-11-12T05:22:09Z</time>
  <speed>2.480000</speed>
</trkpt>
<trkpt lat="32.864749908" lon="35.247810364">
  <ele>277.955566</ele>
  <time>2011-11-12T05:22:11Z</time>
  <speed>2.440000</speed>
</trkpt>
<trkpt lat="32.864791870" lon="35.247814178">
  <ele>277.494629</ele>
  <time>2011-11-12T05:22:13Z</time>
  <speed>2.620000</speed>
</trkpt>
<trkpt lat="32.864841461" lon="35.247817993">
  <ele>276.900879</ele>
  <time>2011-11-12T05:22:15Z</time>
  <speed>2.430000</speed>
</trkpt>
<trkpt lat="32.864883423" lon="35.247837067">
  <ele>276.525879</ele>
  <time>2011-11-12T05:22:17Z</time>
  <speed>2.550000</speed>
</trkpt>
<trkpt lat="32.864929199" lon="35.247848511">
  <ele>276.510254</ele>
  <time>2011-11-12T05:22:19Z</time>
  <speed>3.150000</speed>
</trkpt>
<trkpt lat="32.864959717" lon="35.247844696">
  <ele>277.252441</ele>
  <time>2011-11-12T05:22:20Z</time>
  <speed>3.360000</speed>
</trkpt>
<trkpt lat="32.864994049" lon="35.247844696">
  <ele>277.400879</ele>
  <time>2011-11-12T05:22:21Z</time>
  <speed>3.280000</speed>
</trkpt>
<trkpt lat="32.865024567" lon="35.247840881">
  <ele>277.518066</ele>
  <time>2011-11-12T05:22:22Z</time>
  <speed>3.210000</speed>
</trkpt>
<trkpt lat="32.865074158" lon="35.247848511">
  <ele>277.619629</ele>
  <time>2011-11-12T05:22:24Z</time>
  <speed>2.640000</speed>
</trkpt>
<trkpt lat="32.865127563" lon="35.247848511">
  <ele>278.127441</ele>
  <time>2011-11-12T05:22:26Z</time>
  <speed>2.330000</speed>
</trkpt>
<trkpt lat="32.865154266" lon="35.247848511">
  <ele>278.088379</ele>
  <time>2011-11-12T05:22:27Z</time>
  <speed>2.340000</speed>
</trkpt>
<trkpt lat="32.865203857" lon="35.247863770">
  <ele>278.760254</ele>
  <time>2011-11-12T05:22:29Z</time>
  <speed>2.140000</speed>
</trkpt>
<trkpt lat="32.865242004" lon="35.247879028">
  <ele>278.721191</ele>
  <time>2011-11-12T05:22:31Z</time>
  <speed>2.370000</speed>
</trkpt>
<trkpt lat="32.865287781" lon="35.247901917">
  <ele>278.908691</ele>
  <time>2011-11-12T05:22:33Z</time>
  <speed>2.650000</speed>
</trkpt>
<trkpt lat="32.865329742" lon="35.247924805">
  <ele>280.619629</ele>
  <time>2011-11-12T05:22:35Z</time>
  <speed>1.740000</speed>
</trkpt>
<trkpt lat="32.865367889" lon="35.247959137">
  <ele>281.307129</ele>
  <time>2011-11-12T05:22:37Z</time>
  <speed>2.350000</speed>
</trkpt>
<trkpt lat="32.865402222" lon="35.247978210">
  <ele>281.049316</ele>
  <time>2011-11-12T05:22:39Z</time>
  <speed>1.920000</speed>
</trkpt>
<trkpt lat="32.865428925" lon="35.248008728">
  <ele>281.127441</ele>
  <time>2011-11-12T05:22:41Z</time>
  <speed>1.890000</speed>
</trkpt>
<trkpt lat="32.865455627" lon="35.248031616">
  <ele>282.611816</ele>
  <time>2011-11-12T05:22:43Z</time>
  <speed>2.100000</speed>
</trkpt>
<trkpt lat="32.865493774" lon="35.248062134">
  <ele>283.354004</ele>
  <time>2011-11-12T05:22:45Z</time>
  <speed>2.260000</speed>
</trkpt>
<trkpt lat="32.865528107" lon="35.248092651">
  <ele>283.955566</ele>
  <time>2011-11-12T05:22:47Z</time>
  <speed>2.090000</speed>
</trkpt>
<trkpt lat="32.865554810" lon="35.248123169">
  <ele>284.541504</ele>
  <time>2011-11-12T05:22:49Z</time>
  <speed>1.810000</speed>
</trkpt>
<trkpt lat="32.865581512" lon="35.248157501">
  <ele>283.971191</ele>
  <time>2011-11-12T05:22:51Z</time>
  <speed>2.380000</speed>
</trkpt>
<trkpt lat="32.865612030" lon="35.248191833">
  <ele>284.236816</ele>
  <time>2011-11-12T05:22:53Z</time>
  <speed>2.220000</speed>
</trkpt>
<trkpt lat="32.865638733" lon="35.248226166">
  <ele>285.119629</ele>
  <time>2011-11-12T05:22:55Z</time>
  <speed>1.950000</speed>
</trkpt>
<trkpt lat="32.865673065" lon="35.248264313">
  <ele>284.432129</ele>
  <time>2011-11-12T05:22:57Z</time>
  <speed>1.840000</speed>
</trkpt>
<trkpt lat="32.865703583" lon="35.248298645">
  <ele>284.447754</ele>
  <time>2011-11-12T05:22:59Z</time>
  <speed>2.300000</speed>
</trkpt>
<trkpt lat="32.865734100" lon="35.248340607">
  <ele>284.807129</ele>
  <time>2011-11-12T05:23:01Z</time>
  <speed>2.150000</speed>
</trkpt>
<trkpt lat="32.865768433" lon="35.248374939">
  <ele>285.463379</ele>
  <time>2011-11-12T05:23:03Z</time>
  <speed>2.400000</speed>
</trkpt>
<trkpt lat="32.865795135" lon="35.248394012">
  <ele>287.127441</ele>
  <time>2011-11-12T05:23:04Z</time>
  <speed>1.980000</speed>
</trkpt>
<trkpt lat="32.865825653" lon="35.248413086">
  <ele>287.510254</ele>
  <time>2011-11-12T05:23:06Z</time>
  <speed>2.260000</speed>
</trkpt>
<trkpt lat="32.865852356" lon="35.248428345">
  <ele>287.791504</ele>
  <time>2011-11-12T05:23:07Z</time>
  <speed>2.240000</speed>
</trkpt>
<trkpt lat="32.865905762" lon="35.248435974">
  <ele>289.314941</ele>
  <time>2011-11-12T05:23:09Z</time>
  <speed>2.260000</speed>
</trkpt>
<trkpt lat="32.865947723" lon="35.248447418">
  <ele>289.885254</ele>
  <time>2011-11-12T05:23:11Z</time>
  <speed>1.800000</speed>
</trkpt>
<trkpt lat="32.865978241" lon="35.248447418">
  <ele>289.432129</ele>
  <time>2011-11-12T05:23:13Z</time>
  <speed>1.520000</speed>
</trkpt>
<trkpt lat="32.866004944" lon="35.248439789">
  <ele>289.135254</ele>
  <time>2011-11-12T05:23:16Z</time>
  <speed>0.940000</speed>
</trkpt>
<trkpt lat="32.866035461" lon="35.248451233">
  <ele>289.596191</ele>
  <time>2011-11-12T05:23:18Z</time>
  <speed>1.630000</speed>
</trkpt>
<trkpt lat="32.866069794" lon="35.248462677">
  <ele>289.158691</ele>
  <time>2011-11-12T05:23:20Z</time>
  <speed>1.760000</speed>
</trkpt>
<trkpt lat="32.866104126" lon="35.248489380">
  <ele>288.822754</ele>
  <time>2011-11-12T05:23:22Z</time>
  <speed>1.500000</speed>
</trkpt>
<trkpt lat="32.866115570" lon="35.248523712">
  <ele>289.994629</ele>
  <time>2011-11-12T05:23:24Z</time>
  <speed>1.570000</speed>
</trkpt>
<trkpt lat="32.866111755" lon="35.248558044">
  <ele>291.721191</ele>
  <time>2011-11-12T05:23:26Z</time>
  <speed>1.280000</speed>
</trkpt>
<trkpt lat="32.866100311" lon="35.248592377">
  <ele>292.447754</ele>
  <time>2011-11-12T05:23:28Z</time>
  <speed>1.340000</speed>
</trkpt>
<trkpt lat="32.866100311" lon="35.248607635">
  <ele>295.635254</ele>
  <time>2011-11-12T05:23:30Z</time>
  <speed>1.410000</speed>
</trkpt>
<trkpt lat="32.866081238" lon="35.248638153">
  <ele>296.900879</ele>
  <time>2011-11-12T05:23:32Z</time>
  <speed>1.480000</speed>
</trkpt>
<trkpt lat="32.866062164" lon="35.248676300">
  <ele>297.314941</ele>
  <time>2011-11-12T05:23:34Z</time>
  <speed>1.340000</speed>
</trkpt>
<trkpt lat="32.866035461" lon="35.248695374">
  <ele>297.674316</ele>
  <time>2011-11-12T05:23:36Z</time>
  <speed>1.250000</speed>
</trkpt>
<trkpt lat="32.866004944" lon="35.248706818">
  <ele>297.658691</ele>
  <time>2011-11-12T05:23:38Z</time>
  <speed>1.440000</speed>
</trkpt>
<trkpt lat="32.865966797" lon="35.248722076">
  <ele>299.072754</ele>
  <time>2011-11-12T05:23:40Z</time>
  <speed>1.440000</speed>
</trkpt>
<trkpt lat="32.865921021" lon="35.248729706">
  <ele>299.838379</ele>
  <time>2011-11-12T05:23:42Z</time>
  <speed>1.840000</speed>
</trkpt>
<trkpt lat="32.865886688" lon="35.248741150">
  <ele>298.479004</ele>
  <time>2011-11-12T05:23:44Z</time>
  <speed>1.500000</speed>
</trkpt>
<trkpt lat="32.865856171" lon="35.248756409">
  <ele>298.674316</ele>
  <time>2011-11-12T05:23:46Z</time>
  <speed>1.970000</speed>
</trkpt>
<trkpt lat="32.865821838" lon="35.248764038">
  <ele>298.150879</ele>
  <time>2011-11-12T05:23:48Z</time>
  <speed>1.710000</speed>
</trkpt>
<trkpt lat="32.865783691" lon="35.248771667">
  <ele>297.455566</ele>
  <time>2011-11-12T05:23:50Z</time>
  <speed>1.700000</speed>
</trkpt>
<trkpt lat="32.865749359" lon="35.248779297">
  <ele>297.596191</ele>
  <time>2011-11-12T05:23:52Z</time>
  <speed>1.810000</speed>
</trkpt>
<trkpt lat="32.865718842" lon="35.248783112">
  <ele>298.275879</ele>
  <time>2011-11-12T05:23:54Z</time>
  <speed>1.310000</speed>
</trkpt>
<trkpt lat="32.865684509" lon="35.248783112">
  <ele>299.072754</ele>
  <time>2011-11-12T05:23:56Z</time>
  <speed>1.660000</speed>
</trkpt>
<trkpt lat="32.865638733" lon="35.248794556">
  <ele>299.424316</ele>
  <time>2011-11-12T05:23:58Z</time>
  <speed>1.890000</speed>
</trkpt>
<trkpt lat="32.865600586" lon="35.248802185">
  <ele>300.002441</ele>
  <time>2011-11-12T05:24:00Z</time>
  <speed>1.770000</speed>
</trkpt>
<trkpt lat="32.865573883" lon="35.248817444">
  <ele>299.619629</ele>
  <time>2011-11-12T05:24:02Z</time>
  <speed>1.750000</speed>
</trkpt>
<trkpt lat="32.865539551" lon="35.248836517">
  <ele>299.455566</ele>
  <time>2011-11-12T05:24:04Z</time>
  <speed>1.720000</speed>
</trkpt>
<trkpt lat="32.865505219" lon="35.248851776">
  <ele>299.588379</ele>
  <time>2011-11-12T05:24:07Z</time>
  <speed>1.560000</speed>
</trkpt>
<trkpt lat="32.865470886" lon="35.248851776">
  <ele>299.486816</ele>
  <time>2011-11-12T05:24:09Z</time>
  <speed>1.650000</speed>
</trkpt>
<trkpt lat="32.865440369" lon="35.248855591">
  <ele>299.361816</ele>
  <time>2011-11-12T05:24:11Z</time>
  <speed>1.320000</speed>
</trkpt>
<trkpt lat="32.865406036" lon="35.248855591">
  <ele>299.510254</ele>
  <time>2011-11-12T05:24:14Z</time>
  <speed>1.390000</speed>
</trkpt>
<trkpt lat="32.865367889" lon="35.248863220">
  <ele>299.893066</ele>
  <time>2011-11-12T05:24:16Z</time>
  <speed>1.450000</speed>
</trkpt>
<trkpt lat="32.865325928" lon="35.248870850">
  <ele>300.205566</ele>
  <time>2011-11-12T05:24:19Z</time>
  <speed>1.510000</speed>
</trkpt>
<trkpt lat="32.865287781" lon="35.248874664">
  <ele>300.166504</ele>
  <time>2011-11-12T05:24:22Z</time>
  <speed>1.580000</speed>
</trkpt>
<trkpt lat="32.865257263" lon="35.248878479">
  <ele>300.314941</ele>
  <time>2011-11-12T05:24:24Z</time>
  <speed>1.630000</speed>
</trkpt>
<trkpt lat="32.865230560" lon="35.248878479">
  <ele>299.908691</ele>
  <time>2011-11-12T05:24:26Z</time>
  <speed>1.250000</speed>
</trkpt>
<trkpt lat="32.865200043" lon="35.248878479">
  <ele>299.955566</ele>
  <time>2011-11-12T05:24:28Z</time>
  <speed>1.630000</speed>
</trkpt>
<trkpt lat="32.865173340" lon="35.248878479">
  <ele>299.854004</ele>
  <time>2011-11-12T05:24:30Z</time>
  <speed>1.450000</speed>
</trkpt>
<trkpt lat="32.865139008" lon="35.248870850">
  <ele>299.994629</ele>
  <time>2011-11-12T05:24:33Z</time>
  <speed>1.240000</speed>
</trkpt>
<trkpt lat="32.865097046" lon="35.248870850">
  <ele>300.416504</ele>
  <time>2011-11-12T05:24:36Z</time>
  <speed>1.550000</speed>
</trkpt>
<trkpt lat="32.865062714" lon="35.248867035">
  <ele>301.010254</ele>
  <time>2011-11-12T05:24:38Z</time>
  <speed>1.460000</speed>
</trkpt>
<trkpt lat="32.865024567" lon="35.248863220">
  <ele>301.197754</ele>
  <time>2011-11-12T05:24:40Z</time>
  <speed>1.260000</speed>
</trkpt>
<trkpt lat="32.864997864" lon="35.248870850">
  <ele>301.486816</ele>
  <time>2011-11-12T05:24:42Z</time>
  <speed>1.510000</speed>
</trkpt>
<trkpt lat="32.864963531" lon="35.248878479">
  <ele>302.689941</ele>
  <time>2011-11-12T05:24:45Z</time>
  <speed>1.420000</speed>
</trkpt>
<trkpt lat="32.864921570" lon="35.248882294">
  <ele>303.119629</ele>
  <time>2011-11-12T05:24:48Z</time>
  <speed>1.440000</speed>
</trkpt>
<trkpt lat="32.864883423" lon="35.248897552">
  <ele>303.775879</ele>
  <time>2011-11-12T05:24:51Z</time>
  <speed>1.770000</speed>
</trkpt>
<trkpt lat="32.864852905" lon="35.248893738">
  <ele>303.760254</ele>
  <time>2011-11-12T05:24:53Z</time>
  <speed>1.320000</speed>
</trkpt>
<trkpt lat="32.864830017" lon="35.248916626">
  <ele>304.236816</ele>
  <time>2011-11-12T05:24:56Z</time>
  <speed>1.410000</speed>
</trkpt>
<trkpt lat="32.864799500" lon="35.248928070">
  <ele>304.189941</ele>
  <time>2011-11-12T05:24:58Z</time>
  <speed>1.430000</speed>
</trkpt>
<trkpt lat="32.864768982" lon="35.248931885">
  <ele>304.869629</ele>
  <time>2011-11-12T05:25:00Z</time>
  <speed>1.150000</speed>
</trkpt>
<trkpt lat="32.864742279" lon="35.248943329">
  <ele>304.682129</ele>
  <time>2011-11-12T05:25:03Z</time>
  <speed>1.380000</speed>
</trkpt>
<trkpt lat="32.864719391" lon="35.248970032">
  <ele>304.143066</ele>
  <time>2011-11-12T05:25:06Z</time>
  <speed>1.490000</speed>
</trkpt>
<trkpt lat="32.864692688" lon="35.248989105">
  <ele>303.729004</ele>
  <time>2011-11-12T05:25:08Z</time>
  <speed>1.140000</speed>
</trkpt>
<trkpt lat="32.864650726" lon="35.249004364">
  <ele>304.986816</ele>
  <time>2011-11-12T05:25:11Z</time>
  <speed>1.400000</speed>
</trkpt>
<trkpt lat="32.864620209" lon="35.249019623">
  <ele>305.330566</ele>
  <time>2011-11-12T05:25:13Z</time>
  <speed>1.250000</speed>
</trkpt>
<trkpt lat="32.864593506" lon="35.249015808">
  <ele>306.213379</ele>
  <time>2011-11-12T05:25:15Z</time>
  <speed>1.140000</speed>
</trkpt>
<trkpt lat="32.864559174" lon="35.249023438">
  <ele>305.893066</ele>
  <time>2011-11-12T05:25:18Z</time>
  <speed>0.990000</speed>
</trkpt>
<trkpt lat="32.864532471" lon="35.249034882">
  <ele>305.291504</ele>
  <time>2011-11-12T05:25:20Z</time>
  <speed>1.730000</speed>
</trkpt>
<trkpt lat="32.864494324" lon="35.249042511">
  <ele>305.752441</ele>
  <time>2011-11-12T05:25:22Z</time>
  <speed>2.070000</speed>
</trkpt>
<trkpt lat="32.864452362" lon="35.249057770">
  <ele>305.721191</ele>
  <time>2011-11-12T05:25:24Z</time>
  <speed>2.330000</speed>
</trkpt>
<trkpt lat="32.864406586" lon="35.249080658">
  <ele>304.963379</ele>
  <time>2011-11-12T05:25:26Z</time>
  <speed>2.720000</speed>
</trkpt>
<trkpt lat="32.864360809" lon="35.249088287">
  <ele>304.588379</ele>
  <time>2011-11-12T05:25:28Z</time>
  <speed>2.580000</speed>
</trkpt>
<trkpt lat="32.864311218" lon="35.249095917">
  <ele>304.799316</ele>
  <time>2011-11-12T05:25:30Z</time>
  <speed>2.610000</speed>
</trkpt>
<trkpt lat="32.864273071" lon="35.249111176">
  <ele>304.658691</ele>
  <time>2011-11-12T05:25:32Z</time>
  <speed>1.710000</speed>
</trkpt>
<trkpt lat="32.864234924" lon="35.249111176">
  <ele>305.900879</ele>
  <time>2011-11-12T05:25:34Z</time>
  <speed>1.380000</speed>
</trkpt>
<trkpt lat="32.864261627" lon="35.249126434">
  <ele>305.502441</ele>
  <time>2011-11-12T05:25:46Z</time>
  <speed>0.060000</speed>
</trkpt>
<trkpt lat="32.864295959" lon="35.249107361">
  <ele>303.752441</ele>
  <time>2011-11-12T05:26:15Z</time>
  <speed>1.320000</speed>
</trkpt>
<trkpt lat="32.864341736" lon="35.249088287">
  <ele>304.580566</ele>
  <time>2011-11-12T05:26:17Z</time>
  <speed>3.270000</speed>
</trkpt>
<trkpt lat="32.864368439" lon="35.249065399">
  <ele>304.354004</ele>
  <time>2011-11-12T05:26:18Z</time>
  <speed>3.380000</speed>
</trkpt>
<trkpt lat="32.864395142" lon="35.249023438">
  <ele>303.525879</ele>
  <time>2011-11-12T05:26:19Z</time>
  <speed>4.820000</speed>
</trkpt>
<trkpt lat="32.864429474" lon="35.248970032">
  <ele>303.432129</ele>
  <time>2011-11-12T05:26:20Z</time>
  <speed>5.760000</speed>
</trkpt>
<trkpt lat="32.864467621" lon="35.248920441">
  <ele>302.885254</ele>
  <time>2011-11-12T05:26:21Z</time>
  <speed>6.120000</speed>
</trkpt>
<trkpt lat="32.864505768" lon="35.248874664">
  <ele>302.838379</ele>
  <time>2011-11-12T05:26:22Z</time>
  <speed>5.180000</speed>
</trkpt>
<trkpt lat="32.864532471" lon="35.248821259">
  <ele>302.658691</ele>
  <time>2011-11-12T05:26:23Z</time>
  <speed>6.030000</speed>
</trkpt>
<trkpt lat="32.864574432" lon="35.248779297">
  <ele>301.861816</ele>
  <time>2011-11-12T05:26:24Z</time>
  <speed>5.350000</speed>
</trkpt>
<trkpt lat="32.864604950" lon="35.248744965">
  <ele>303.635254</ele>
  <time>2011-11-12T05:26:25Z</time>
  <speed>3.210000</speed>
</trkpt>
<trkpt lat="32.864631653" lon="35.248737335">
  <ele>303.994629</ele>
  <time>2011-11-12T05:26:26Z</time>
  <speed>3.010000</speed>
</trkpt>
<trkpt lat="32.864665985" lon="35.248722076">
  <ele>302.963379</ele>
  <time>2011-11-12T05:26:27Z</time>
  <speed>4.010000</speed>
</trkpt>
<trkpt lat="32.864696503" lon="35.248703003">
  <ele>301.979004</ele>
  <time>2011-11-12T05:26:28Z</time>
  <speed>3.770000</speed>
</trkpt>
<trkpt lat="32.864711761" lon="35.248664856">
  <ele>300.713379</ele>
  <time>2011-11-12T05:26:29Z</time>
  <speed>3.540000</speed>
</trkpt>
<trkpt lat="32.864696503" lon="35.248619080">
  <ele>300.205566</ele>
  <time>2011-11-12T05:26:30Z</time>
  <speed>4.360000</speed>
</trkpt>
<trkpt lat="32.864662170" lon="35.248584747">
  <ele>300.244629</ele>
  <time>2011-11-12T05:26:31Z</time>
  <speed>3.810000</speed>
</trkpt>
<trkpt lat="32.864631653" lon="35.248573303">
  <ele>299.768066</ele>
  <time>2011-11-12T05:26:32Z</time>
  <speed>3.730000</speed>
</trkpt>
<trkpt lat="32.864597321" lon="35.248584747">
  <ele>298.463379</ele>
  <time>2011-11-12T05:26:33Z</time>
  <speed>3.510000</speed>
</trkpt>
<trkpt lat="32.864566803" lon="35.248596191">
  <ele>297.455566</ele>
  <time>2011-11-12T05:26:34Z</time>
  <speed>3.480000</speed>
</trkpt>
<trkpt lat="32.864528656" lon="35.248611450">
  <ele>297.283691</ele>
  <time>2011-11-12T05:26:35Z</time>
  <speed>3.610000</speed>
</trkpt>
<trkpt lat="32.864494324" lon="35.248615265">
  <ele>296.721191</ele>
  <time>2011-11-12T05:26:36Z</time>
  <speed>3.190000</speed>
</trkpt>
<trkpt lat="32.864467621" lon="35.248600006">
  <ele>296.643066</ele>
  <time>2011-11-12T05:26:37Z</time>
  <speed>2.180000</speed>
</trkpt>
<trkpt lat="32.864475250" lon="35.248565674">
  <ele>296.002441</ele>
  <time>2011-11-12T05:26:39Z</time>
  <speed>2.720000</speed>
</trkpt>
<trkpt lat="32.864501953" lon="35.248550415">
  <ele>295.377441</ele>
  <time>2011-11-12T05:26:40Z</time>
  <speed>3.480000</speed>
</trkpt>
<trkpt lat="32.864536285" lon="35.248527527">
  <ele>295.502441</ele>
  <time>2011-11-12T05:26:41Z</time>
  <speed>4.090000</speed>
</trkpt>
<trkpt lat="32.864566803" lon="35.248508453">
  <ele>294.697754</ele>
  <time>2011-11-12T05:26:42Z</time>
  <speed>4.510000</speed>
</trkpt>
<trkpt lat="32.864612579" lon="35.248481750">
  <ele>294.674316</ele>
  <time>2011-11-12T05:26:43Z</time>
  <speed>5.020000</speed>
</trkpt>
<trkpt lat="32.864658356" lon="35.248477936">
  <ele>294.635254</ele>
  <time>2011-11-12T05:26:44Z</time>
  <speed>5.320000</speed>
</trkpt>
<trkpt lat="32.864707947" lon="35.248481750">
  <ele>294.416504</ele>
  <time>2011-11-12T05:26:45Z</time>
  <speed>5.350000</speed>
</trkpt>
<trkpt lat="32.864753723" lon="35.248485565">
  <ele>293.096191</ele>
  <time>2011-11-12T05:26:46Z</time>
  <speed>3.720000</speed>
</trkpt>
<trkpt lat="32.864780426" lon="35.248474121">
  <ele>291.916504</ele>
  <time>2011-11-12T05:26:47Z</time>
  <speed>2.620000</speed>
</trkpt>
<trkpt lat="32.864791870" lon="35.248413086">
  <ele>289.619629</ele>
  <time>2011-11-12T05:26:49Z</time>
  <speed>3.230000</speed>
</trkpt>
<trkpt lat="32.864776611" lon="35.248374939">
  <ele>288.346191</ele>
  <time>2011-11-12T05:26:50Z</time>
  <speed>4.260000</speed>
</trkpt>
<trkpt lat="32.864753723" lon="35.248321533">
  <ele>287.377441</ele>
  <time>2011-11-12T05:26:51Z</time>
  <speed>4.980000</speed>
</trkpt>
<trkpt lat="32.864734650" lon="35.248271942">
  <ele>286.525879</ele>
  <time>2011-11-12T05:26:52Z</time>
  <speed>4.980000</speed>
</trkpt>
<trkpt lat="32.864719391" lon="35.248222351">
  <ele>285.041504</ele>
  <time>2011-11-12T05:26:53Z</time>
  <speed>4.420000</speed>
</trkpt>
<trkpt lat="32.864711761" lon="35.248184204">
  <ele>283.994629</ele>
  <time>2011-11-12T05:26:54Z</time>
  <speed>3.110000</speed>
</trkpt>
<trkpt lat="32.864711761" lon="35.248146057">
  <ele>283.010254</ele>
  <time>2011-11-12T05:26:55Z</time>
  <speed>3.480000</speed>
</trkpt>
<trkpt lat="32.864719391" lon="35.248119354">
  <ele>281.510254</ele>
  <time>2011-11-12T05:26:56Z</time>
  <speed>2.630000</speed>
</trkpt>
<trkpt lat="32.864734650" lon="35.248081207">
  <ele>282.854004</ele>
  <time>2011-11-12T05:26:57Z</time>
  <speed>3.360000</speed>
</trkpt>
<trkpt lat="32.864765167" lon="35.248069763">
  <ele>282.619629</ele>
  <time>2011-11-12T05:26:58Z</time>
  <speed>3.850000</speed>
</trkpt>
<trkpt lat="32.864799500" lon="35.248065948">
  <ele>282.432129</ele>
  <time>2011-11-12T05:26:59Z</time>
  <speed>4.100000</speed>
</trkpt>
<trkpt lat="32.864837646" lon="35.248073578">
  <ele>282.275879</ele>
  <time>2011-11-12T05:27:00Z</time>
  <speed>3.730000</speed>
</trkpt>
<trkpt lat="32.864868164" lon="35.248085022">
  <ele>281.869629</ele>
  <time>2011-11-12T05:27:01Z</time>
  <speed>3.710000</speed>
</trkpt>
<trkpt lat="32.864898682" lon="35.248081207">
  <ele>281.900879</ele>
  <time>2011-11-12T05:27:02Z</time>
  <speed>3.360000</speed>
</trkpt>
<trkpt lat="32.864936829" lon="35.248081207">
  <ele>282.666504</ele>
  <time>2011-11-12T05:27:03Z</time>
  <speed>3.710000</speed>
</trkpt>
<trkpt lat="32.864971161" lon="35.248081207">
  <ele>283.104004</ele>
  <time>2011-11-12T05:27:04Z</time>
  <speed>3.360000</speed>
</trkpt>
<trkpt lat="32.865001678" lon="35.248088837">
  <ele>282.299316</ele>
  <time>2011-11-12T05:27:05Z</time>
  <speed>3.180000</speed>
</trkpt>
<trkpt lat="32.865036011" lon="35.248096466">
  <ele>282.088379</ele>
  <time>2011-11-12T05:27:06Z</time>
  <speed>3.560000</speed>
</trkpt>
<trkpt lat="32.865070343" lon="35.248096466">
  <ele>283.564941</ele>
  <time>2011-11-12T05:27:07Z</time>
  <speed>3.630000</speed>
</trkpt>
<trkpt lat="32.865108490" lon="35.248096466">
  <ele>283.080566</ele>
  <time>2011-11-12T05:27:08Z</time>
  <speed>3.360000</speed>
</trkpt>
<trkpt lat="32.865146637" lon="35.248092651">
  <ele>283.822754</ele>
  <time>2011-11-12T05:27:09Z</time>
  <speed>4.480000</speed>
</trkpt>
<trkpt lat="32.865192413" lon="35.248081207">
  <ele>283.229004</ele>
  <time>2011-11-12T05:27:10Z</time>
  <speed>4.200000</speed>
</trkpt>
<trkpt lat="32.865230560" lon="35.248054504">
  <ele>283.135254</ele>
  <time>2011-11-12T05:27:11Z</time>
  <speed>4.930000</speed>
</trkpt>
<trkpt lat="32.865276337" lon="35.248020172">
  <ele>282.807129</ele>
  <time>2011-11-12T05:27:12Z</time>
  <speed>6.290000</speed>
</trkpt>
<trkpt lat="32.865333557" lon="35.247993469">
  <ele>282.525879</ele>
  <time>2011-11-12T05:27:13Z</time>
  <speed>6.990000</speed>
</trkpt>
<trkpt lat="32.865402222" lon="35.247966766">
  <ele>281.143066</ele>
  <time>2011-11-12T05:27:14Z</time>
  <speed>6.730000</speed>
</trkpt>
<trkpt lat="32.865455627" lon="35.247924805">
  <ele>281.088379</ele>
  <time>2011-11-12T05:27:15Z</time>
  <speed>6.340000</speed>
</trkpt>
<trkpt lat="32.865501404" lon="35.247879028">
  <ele>280.619629</ele>
  <time>2011-11-12T05:27:16Z</time>
  <speed>7.110000</speed>
</trkpt>
<trkpt lat="32.865558624" lon="35.247837067">
  <ele>279.775879</ele>
  <time>2011-11-12T05:27:17Z</time>
  <speed>7.130000</speed>
</trkpt>
<trkpt lat="32.865608215" lon="35.247806549">
  <ele>278.932129</ele>
  <time>2011-11-12T05:27:18Z</time>
  <speed>5.290000</speed>
</trkpt>
<trkpt lat="32.865657806" lon="35.247798920">
  <ele>278.322754</ele>
  <time>2011-11-12T05:27:19Z</time>
  <speed>4.370000</speed>
</trkpt>
<trkpt lat="32.865699768" lon="35.247798920">
  <ele>277.721191</ele>
  <time>2011-11-12T05:27:20Z</time>
  <speed>4.510000</speed>
</trkpt>
<trkpt lat="32.865737915" lon="35.247798920">
  <ele>277.033691</ele>
  <time>2011-11-12T05:27:21Z</time>
  <speed>4.670000</speed>
</trkpt>
<trkpt lat="32.865783691" lon="35.247795105">
  <ele>276.588379</ele>
  <time>2011-11-12T05:27:22Z</time>
  <speed>4.990000</speed>
</trkpt>
<trkpt lat="32.865833282" lon="35.247791290">
  <ele>276.119629</ele>
  <time>2011-11-12T05:27:23Z</time>
  <speed>4.620000</speed>
</trkpt>
<trkpt lat="32.865871429" lon="35.247783661">
  <ele>276.611816</ele>
  <time>2011-11-12T05:27:24Z</time>
  <speed>3.570000</speed>
</trkpt>
<trkpt lat="32.865898132" lon="35.247772217">
  <ele>276.510254</ele>
  <time>2011-11-12T05:27:26Z</time>
  <speed>0.280000</speed>
</trkpt>
<trkpt lat="32.865924835" lon="35.247753143">
  <ele>276.736816</ele>
  <time>2011-11-12T05:27:31Z</time>
  <speed>1.030000</speed>
</trkpt>
<trkpt lat="32.865932465" lon="35.247714996">
  <ele>276.338379</ele>
  <time>2011-11-12T05:27:32Z</time>
  <speed>1.460000</speed>
</trkpt>
<trkpt lat="32.865943909" lon="35.247638702">
  <ele>275.111816</ele>
  <time>2011-11-12T05:27:33Z</time>
  <speed>5.300000</speed>
</trkpt>
<trkpt lat="32.865959167" lon="35.247573853">
  <ele>274.330566</ele>
  <time>2011-11-12T05:27:34Z</time>
  <speed>5.140000</speed>
</trkpt>
<trkpt lat="32.865966797" lon="35.247512817">
  <ele>273.494629</ele>
  <time>2011-11-12T05:27:35Z</time>
  <speed>5.960000</speed>
</trkpt>
<trkpt lat="32.865978241" lon="35.247444153">
  <ele>272.814941</ele>
  <time>2011-11-12T05:27:36Z</time>
  <speed>6.710000</speed>
</trkpt>
<trkpt lat="32.865993500" lon="35.247364044">
  <ele>271.455566</ele>
  <time>2011-11-12T05:27:37Z</time>
  <speed>6.950000</speed>
</trkpt>
<trkpt lat="32.866012573" lon="35.247291565">
  <ele>270.557129</ele>
  <time>2011-11-12T05:27:38Z</time>
  <speed>6.580000</speed>
</trkpt>
<trkpt lat="32.866020203" lon="35.247219086">
  <ele>270.252441</ele>
  <time>2011-11-12T05:27:39Z</time>
  <speed>5.880000</speed>
</trkpt>
<trkpt lat="32.866024017" lon="35.247158051">
  <ele>269.854004</ele>
  <time>2011-11-12T05:27:40Z</time>
  <speed>5.580000</speed>
</trkpt>
<trkpt lat="32.866016388" lon="35.247104645">
  <ele>269.135254</ele>
  <time>2011-11-12T05:27:41Z</time>
  <speed>4.830000</speed>
</trkpt>
<trkpt lat="32.866008759" lon="35.247055054">
  <ele>268.213379</ele>
  <time>2011-11-12T05:27:42Z</time>
  <speed>4.620000</speed>
</trkpt>
<trkpt lat="32.866008759" lon="35.247001648">
  <ele>267.697754</ele>
  <time>2011-11-12T05:27:43Z</time>
  <speed>4.400000</speed>
</trkpt>
<trkpt lat="32.866016388" lon="35.246974945">
  <ele>266.799316</ele>
  <time>2011-11-12T05:27:44Z</time>
  <speed>3.700000</speed>
</trkpt>
<trkpt lat="32.866027832" lon="35.246936798">
  <ele>266.236816</ele>
  <time>2011-11-12T05:27:45Z</time>
  <speed>3.470000</speed>
</trkpt>
<trkpt lat="32.866031647" lon="35.246898651">
  <ele>265.705566</ele>
  <time>2011-11-12T05:27:46Z</time>
  <speed>3.210000</speed>
</trkpt>
<trkpt lat="32.866024017" lon="35.246845245">
  <ele>263.869629</ele>
  <time>2011-11-12T05:27:47Z</time>
  <speed>4.090000</speed>
</trkpt>
<trkpt lat="32.866008759" lon="35.246795654">
  <ele>263.002441</ele>
  <time>2011-11-12T05:27:48Z</time>
  <speed>4.810000</speed>
</trkpt>
<trkpt lat="32.865985870" lon="35.246742249">
  <ele>261.924316</ele>
  <time>2011-11-12T05:27:49Z</time>
  <speed>4.580000</speed>
</trkpt>
<trkpt lat="32.865959167" lon="35.246700287">
  <ele>261.244629</ele>
  <time>2011-11-12T05:27:50Z</time>
  <speed>5.260000</speed>
</trkpt>
<trkpt lat="32.865932465" lon="35.246654510">
  <ele>260.447754</ele>
  <time>2011-11-12T05:27:51Z</time>
  <speed>5.010000</speed>
</trkpt>
<trkpt lat="32.865894318" lon="35.246608734">
  <ele>259.291504</ele>
  <time>2011-11-12T05:27:52Z</time>
  <speed>5.990000</speed>
</trkpt>
<trkpt lat="32.865852356" lon="35.246555328">
  <ele>257.908691</ele>
  <time>2011-11-12T05:27:53Z</time>
  <speed>5.980000</speed>
</trkpt>
<trkpt lat="32.865821838" lon="35.246501923">
  <ele>257.908691</ele>
  <time>2011-11-12T05:27:54Z</time>
  <speed>4.400000</speed>
</trkpt>
<trkpt lat="32.865814209" lon="35.246467590">
  <ele>257.439941</ele>
  <time>2011-11-12T05:27:55Z</time>
  <speed>2.730000</speed>
</trkpt>
<trkpt lat="32.865825653" lon="35.246437073">
  <ele>256.791504</ele>
  <time>2011-11-12T05:27:56Z</time>
  <speed>3.330000</speed>
</trkpt>
<trkpt lat="32.865840912" lon="35.246406555">
  <ele>256.416504</ele>
  <time>2011-11-12T05:27:57Z</time>
  <speed>3.420000</speed>
</trkpt>
<trkpt lat="32.865852356" lon="35.246372223">
  <ele>256.143066</ele>
  <time>2011-11-12T05:27:58Z</time>
  <speed>3.450000</speed>
</trkpt>
<trkpt lat="32.865871429" lon="35.246349335">
  <ele>255.368408</ele>
  <time>2011-11-12T05:27:59Z</time>
  <speed>3.570000</speed>
</trkpt>
<trkpt lat="32.865898132" lon="35.246311188">
  <ele>254.591064</ele>
  <time>2011-11-12T05:28:00Z</time>
  <speed>4.360000</speed>
</trkpt>
<trkpt lat="32.865928650" lon="35.246273041">
  <ele>254.469971</ele>
  <time>2011-11-12T05:28:01Z</time>
  <speed>3.970000</speed>
</trkpt>
<trkpt lat="32.865951538" lon="35.246246338">
  <ele>254.380127</ele>
  <time>2011-11-12T05:28:02Z</time>
  <speed>3.050000</speed>
</trkpt>
<trkpt lat="32.865982056" lon="35.246223450">
  <ele>254.282471</ele>
  <time>2011-11-12T05:28:03Z</time>
  <speed>3.470000</speed>
</trkpt>
<trkpt lat="32.866008759" lon="35.246212006">
  <ele>254.778564</ele>
  <time>2011-11-12T05:28:04Z</time>
  <speed>2.770000</speed>
</trkpt>
<trkpt lat="32.866043091" lon="35.246200562">
  <ele>256.260254</ele>
  <time>2011-11-12T05:28:06Z</time>
  <speed>2.060000</speed>
</trkpt>
<trkpt lat="32.866081238" lon="35.246181488">
  <ele>257.104004</ele>
  <time>2011-11-12T05:28:08Z</time>
  <speed>2.030000</speed>
</trkpt>
<trkpt lat="32.866111755" lon="35.246147156">
  <ele>257.588379</ele>
  <time>2011-11-12T05:28:10Z</time>
  <speed>2.440000</speed>
</trkpt>
<trkpt lat="32.866153717" lon="35.246109009">
  <ele>258.119629</ele>
  <time>2011-11-12T05:28:12Z</time>
  <speed>3.080000</speed>
</trkpt>
<trkpt lat="32.866180420" lon="35.246089935">
  <ele>258.916504</ele>
  <time>2011-11-12T05:28:13Z</time>
  <speed>2.870000</speed>
</trkpt>
<trkpt lat="32.866222382" lon="35.246067047">
  <ele>259.236816</ele>
  <time>2011-11-12T05:28:15Z</time>
  <speed>1.680000</speed>
</trkpt>
<trkpt lat="32.866249084" lon="35.246044159">
  <ele>259.971191</ele>
  <time>2011-11-12T05:28:17Z</time>
  <speed>1.200000</speed>
</trkpt>
<trkpt lat="32.866271973" lon="35.246028900">
  <ele>259.010254</ele>
  <time>2011-11-12T05:28:22Z</time>
  <speed>0.180000</speed>
</trkpt>
<trkpt lat="32.866302490" lon="35.245986938">
  <ele>259.494629</ele>
  <time>2011-11-12T05:28:27Z</time>
  <speed>1.510000</speed>
</trkpt>
<trkpt lat="32.866333008" lon="35.245971680">
  <ele>258.674316</ele>
  <time>2011-11-12T05:28:29Z</time>
  <speed>2.360000</speed>
</trkpt>
<trkpt lat="32.866374969" lon="35.245922089">
  <ele>258.135254</ele>
  <time>2011-11-12T05:28:31Z</time>
  <speed>3.770000</speed>
</trkpt>
<trkpt lat="32.866401672" lon="35.245883942">
  <ele>257.393066</ele>
  <time>2011-11-12T05:28:32Z</time>
  <speed>4.850000</speed>
</trkpt>
<trkpt lat="32.866424561" lon="35.245838165">
  <ele>256.275879</ele>
  <time>2011-11-12T05:28:33Z</time>
  <speed>4.720000</speed>
</trkpt>
<trkpt lat="32.866451263" lon="35.245800018">
  <ele>255.118408</ele>
  <time>2011-11-12T05:28:34Z</time>
  <speed>4.200000</speed>
</trkpt>
<trkpt lat="32.866470337" lon="35.245754242">
  <ele>254.110596</ele>
  <time>2011-11-12T05:28:35Z</time>
  <speed>4.380000</speed>
</trkpt>
<trkpt lat="32.866489410" lon="35.245712280">
  <ele>252.966064</ele>
  <time>2011-11-12T05:28:36Z</time>
  <speed>3.910000</speed>
</trkpt>
<trkpt lat="32.866504669" lon="35.245666504">
  <ele>252.430908</ele>
  <time>2011-11-12T05:28:37Z</time>
  <speed>4.200000</speed>
</trkpt>
<trkpt lat="32.866519928" lon="35.245609283">
  <ele>252.344971</ele>
  <time>2011-11-12T05:28:38Z</time>
  <speed>4.610000</speed>
</trkpt>
<trkpt lat="32.866542816" lon="35.245571136">
  <ele>250.727783</ele>
  <time>2011-11-12T05:28:39Z</time>
  <speed>4.250000</speed>
</trkpt>
<trkpt lat="32.866573334" lon="35.245529175">
  <ele>249.591064</ele>
  <time>2011-11-12T05:28:40Z</time>
  <speed>4.540000</speed>
</trkpt>
<trkpt lat="32.866607666" lon="35.245487213">
  <ele>248.864502</ele>
  <time>2011-11-12T05:28:41Z</time>
  <speed>5.130000</speed>
</trkpt>
<trkpt lat="32.866641998" lon="35.245449066">
  <ele>248.016846</ele>
  <time>2011-11-12T05:28:42Z</time>
  <speed>5.370000</speed>
</trkpt>
<trkpt lat="32.866680145" lon="35.245407104">
  <ele>247.419189</ele>
  <time>2011-11-12T05:28:43Z</time>
  <speed>5.560000</speed>
</trkpt>
<trkpt lat="32.866718292" lon="35.245368958">
  <ele>246.583252</ele>
  <time>2011-11-12T05:28:44Z</time>
  <speed>5.880000</speed>
</trkpt>
<trkpt lat="32.866756439" lon="35.245296478">
  <ele>249.106689</ele>
  <time>2011-11-12T05:28:45Z</time>
  <speed>5.010000</speed>
</trkpt>
<trkpt lat="32.866794586" lon="35.245277405">
  <ele>248.391846</ele>
  <time>2011-11-12T05:28:46Z</time>
  <speed>4.450000</speed>
</trkpt>
<trkpt lat="32.866828918" lon="35.245262146">
  <ele>247.645752</ele>
  <time>2011-11-12T05:28:47Z</time>
  <speed>3.320000</speed>
</trkpt>
<trkpt lat="32.866851807" lon="35.245235443">
  <ele>246.290283</ele>
  <time>2011-11-12T05:28:48Z</time>
  <speed>3.880000</speed>
</trkpt>
<trkpt lat="32.866851807" lon="35.245182037">
  <ele>245.059814</ele>
  <time>2011-11-12T05:28:49Z</time>
  <speed>5.520000</speed>
</trkpt>
<trkpt lat="32.866844177" lon="35.245121002">
  <ele>243.868408</ele>
  <time>2011-11-12T05:28:50Z</time>
  <speed>6.400000</speed>
</trkpt>
<trkpt lat="32.866836548" lon="35.245056152">
  <ele>242.594971</ele>
  <time>2011-11-12T05:28:51Z</time>
  <speed>5.670000</speed>
</trkpt>
<trkpt lat="32.866847992" lon="35.244998932">
  <ele>241.614502</ele>
  <time>2011-11-12T05:28:52Z</time>
  <speed>4.900000</speed>
</trkpt>
<trkpt lat="32.866870880" lon="35.244945526">
  <ele>240.329346</ele>
  <time>2011-11-12T05:28:53Z</time>
  <speed>5.340000</speed>
</trkpt>
<trkpt lat="32.866882324" lon="35.244876862">
  <ele>239.649658</ele>
  <time>2011-11-12T05:28:54Z</time>
  <speed>7.060000</speed>
</trkpt>
<trkpt lat="32.866886139" lon="35.244792938">
  <ele>238.360596</ele>
  <time>2011-11-12T05:28:55Z</time>
  <speed>7.550000</speed>
</trkpt>
<trkpt lat="32.866874695" lon="35.244724274">
  <ele>236.020752</ele>
  <time>2011-11-12T05:28:56Z</time>
  <speed>7.160000</speed>
</trkpt>
<trkpt lat="32.866836548" lon="35.244655609">
  <ele>235.657471</ele>
  <time>2011-11-12T05:28:57Z</time>
  <speed>6.680000</speed>
</trkpt>
<trkpt lat="32.866783142" lon="35.244586945">
  <ele>238.075439</ele>
  <time>2011-11-12T05:28:58Z</time>
  <speed>6.770000</speed>
</trkpt>
<trkpt lat="32.866725922" lon="35.244537354">
  <ele>238.516846</ele>
  <time>2011-11-12T05:28:59Z</time>
  <speed>6.760000</speed>
</trkpt>
<trkpt lat="32.866668701" lon="35.244503021">
  <ele>238.012939</ele>
  <time>2011-11-12T05:29:00Z</time>
  <speed>6.750000</speed>
</trkpt>
<trkpt lat="32.866611481" lon="35.244464874">
  <ele>238.223877</ele>
  <time>2011-11-12T05:29:01Z</time>
  <speed>6.720000</speed>
</trkpt>
<trkpt lat="32.866550446" lon="35.244445801">
  <ele>237.368408</ele>
  <time>2011-11-12T05:29:02Z</time>
  <speed>6.770000</speed>
</trkpt>
<trkpt lat="32.866485596" lon="35.244434357">
  <ele>237.723877</ele>
  <time>2011-11-12T05:29:03Z</time>
  <speed>6.810000</speed>
</trkpt>
<trkpt lat="32.866424561" lon="35.244426727">
  <ele>238.075439</ele>
  <time>2011-11-12T05:29:04Z</time>
  <speed>6.170000</speed>
</trkpt>
<trkpt lat="32.866374969" lon="35.244430542">
  <ele>238.290283</ele>
  <time>2011-11-12T05:29:05Z</time>
  <speed>4.790000</speed>
</trkpt>
<trkpt lat="32.866329193" lon="35.244430542">
  <ele>237.985596</ele>
  <time>2011-11-12T05:29:06Z</time>
  <speed>4.200000</speed>
</trkpt>
<trkpt lat="32.866287231" lon="35.244411469">
  <ele>237.989502</ele>
  <time>2011-11-12T05:29:07Z</time>
  <speed>4.660000</speed>
</trkpt>
<trkpt lat="32.866241455" lon="35.244384766">
  <ele>237.602783</ele>
  <time>2011-11-12T05:29:08Z</time>
  <speed>4.310000</speed>
</trkpt>
<trkpt lat="32.866230011" lon="35.244350433">
  <ele>236.985596</ele>
  <time>2011-11-12T05:29:09Z</time>
  <speed>4.420000</speed>
</trkpt>
<trkpt lat="32.866245270" lon="35.244308472">
  <ele>236.450439</ele>
  <time>2011-11-12T05:29:10Z</time>
  <speed>4.510000</speed>
</trkpt>
<trkpt lat="32.866275787" lon="35.244266510">
  <ele>236.403564</ele>
  <time>2011-11-12T05:29:11Z</time>
  <speed>5.320000</speed>
</trkpt>
<trkpt lat="32.866298676" lon="35.244216919">
  <ele>235.716064</ele>
  <time>2011-11-12T05:29:12Z</time>
  <speed>5.640000</speed>
</trkpt>
<trkpt lat="32.866325378" lon="35.244167328">
  <ele>235.106689</ele>
  <time>2011-11-12T05:29:13Z</time>
  <speed>5.260000</speed>
</trkpt>
<trkpt lat="32.866344452" lon="35.244106293">
  <ele>234.712158</ele>
  <time>2011-11-12T05:29:14Z</time>
  <speed>5.990000</speed>
</trkpt>
<trkpt lat="32.866352081" lon="35.244033813">
  <ele>233.884033</ele>
  <time>2011-11-12T05:29:15Z</time>
  <speed>6.850000</speed>
</trkpt>
<trkpt lat="32.866352081" lon="35.243957520">
  <ele>233.368408</ele>
  <time>2011-11-12T05:29:16Z</time>
  <speed>7.100000</speed>
</trkpt>
<trkpt lat="32.866340637" lon="35.243881226">
  <ele>232.759033</ele>
  <time>2011-11-12T05:29:17Z</time>
  <speed>7.310000</speed>
</trkpt>
<trkpt lat="32.866336823" lon="35.243808746">
  <ele>232.071533</ele>
  <time>2011-11-12T05:29:18Z</time>
  <speed>6.450000</speed>
</trkpt>
<trkpt lat="32.866340637" lon="35.243751526">
  <ele>231.489502</ele>
  <time>2011-11-12T05:29:19Z</time>
  <speed>5.480000</speed>
</trkpt>
<trkpt lat="32.866363525" lon="35.243701935">
  <ele>230.719971</ele>
  <time>2011-11-12T05:29:20Z</time>
  <speed>5.490000</speed>
</trkpt>
<trkpt lat="32.866397858" lon="35.243648529">
  <ele>229.950439</ele>
  <time>2011-11-12T05:29:21Z</time>
  <speed>5.640000</speed>
</trkpt>
<trkpt lat="32.866413116" lon="35.243572235">
  <ele>228.872314</ele>
  <time>2011-11-12T05:29:22Z</time>
  <speed>6.180000</speed>
</trkpt>
<trkpt lat="32.866443634" lon="35.243518829">
  <ele>228.169189</ele>
  <time>2011-11-12T05:29:23Z</time>
  <speed>5.650000</speed>
</trkpt>
<trkpt lat="32.866489410" lon="35.243469238">
  <ele>227.259033</ele>
  <time>2011-11-12T05:29:24Z</time>
  <speed>6.170000</speed>
</trkpt>
<trkpt lat="32.866542816" lon="35.243339539">
  <ele>227.180908</ele>
  <time>2011-11-12T05:29:25Z</time>
  <speed>7.330000</speed>
</trkpt>
<trkpt lat="32.866580963" lon="35.243267059">
  <ele>226.516846</ele>
  <time>2011-11-12T05:29:26Z</time>
  <speed>6.890000</speed>
</trkpt>
<trkpt lat="32.866622925" lon="35.243221283">
  <ele>225.540283</ele>
  <time>2011-11-12T05:29:27Z</time>
  <speed>6.210000</speed>
</trkpt>
<trkpt lat="32.866676331" lon="35.243194580">
  <ele>225.208252</ele>
  <time>2011-11-12T05:29:28Z</time>
  <speed>5.600000</speed>
</trkpt>
<trkpt lat="32.866718292" lon="35.243175507">
  <ele>224.548096</ele>
  <time>2011-11-12T05:29:29Z</time>
  <speed>5.170000</speed>
</trkpt>
<trkpt lat="32.866756439" lon="35.243152618">
  <ele>224.126221</ele>
  <time>2011-11-12T05:29:30Z</time>
  <speed>4.110000</speed>
</trkpt>
<trkpt lat="32.866790771" lon="35.243118286">
  <ele>223.387939</ele>
  <time>2011-11-12T05:29:31Z</time>
  <speed>5.100000</speed>
</trkpt>
<trkpt lat="32.866832733" lon="35.243080139">
  <ele>222.321533</ele>
  <time>2011-11-12T05:29:32Z</time>
  <speed>5.410000</speed>
</trkpt>
<trkpt lat="32.866878510" lon="35.243049622">
  <ele>221.052002</ele>
  <time>2011-11-12T05:29:33Z</time>
  <speed>5.090000</speed>
</trkpt>
<trkpt lat="32.866912842" lon="35.243003845">
  <ele>219.880127</ele>
  <time>2011-11-12T05:29:34Z</time>
  <speed>5.480000</speed>
</trkpt>
<trkpt lat="32.866947174" lon="35.242946625">
  <ele>218.989502</ele>
  <time>2011-11-12T05:29:35Z</time>
  <speed>6.090000</speed>
</trkpt>
<trkpt lat="32.866973877" lon="35.242889404">
  <ele>218.216064</ele>
  <time>2011-11-12T05:29:36Z</time>
  <speed>6.490000</speed>
</trkpt>
<trkpt lat="32.866996765" lon="35.242824554">
  <ele>217.477783</ele>
  <time>2011-11-12T05:29:37Z</time>
  <speed>5.840000</speed>
</trkpt>
<trkpt lat="32.867012024" lon="35.242759705">
  <ele>216.743408</ele>
  <time>2011-11-12T05:29:38Z</time>
  <speed>5.600000</speed>
</trkpt>
<trkpt lat="32.867027283" lon="35.242717743">
  <ele>215.844971</ele>
  <time>2011-11-12T05:29:39Z</time>
  <speed>5.180000</speed>
</trkpt>
<trkpt lat="32.867061615" lon="35.242675781">
  <ele>215.235596</ele>
  <time>2011-11-12T05:29:40Z</time>
  <speed>4.880000</speed>
</trkpt>
<trkpt lat="32.867095947" lon="35.242637634">
  <ele>214.606689</ele>
  <time>2011-11-12T05:29:41Z</time>
  <speed>5.120000</speed>
</trkpt>
<trkpt lat="32.867149353" lon="35.242591858">
  <ele>213.161377</ele>
  <time>2011-11-12T05:29:42Z</time>
  <speed>5.960000</speed>
</trkpt>
<trkpt lat="32.867206573" lon="35.242546082">
  <ele>212.391846</ele>
  <time>2011-11-12T05:29:43Z</time>
  <speed>6.250000</speed>
</trkpt>
<trkpt lat="32.867252350" lon="35.242507935">
  <ele>211.477783</ele>
  <time>2011-11-12T05:29:44Z</time>
  <speed>5.830000</speed>
</trkpt>
<trkpt lat="32.867347717" lon="35.242462158">
  <ele>210.356689</ele>
  <time>2011-11-12T05:29:45Z</time>
  <speed>6.940000</speed>
</trkpt>
<trkpt lat="32.867401123" lon="35.242420197">
  <ele>209.665283</ele>
  <time>2011-11-12T05:29:46Z</time>
  <speed>7.000000</speed>
</trkpt>
<trkpt lat="32.867458344" lon="35.242378235">
  <ele>208.145752</ele>
  <time>2011-11-12T05:29:47Z</time>
  <speed>6.560000</speed>
</trkpt>
<trkpt lat="32.867511749" lon="35.242343903">
  <ele>207.458252</ele>
  <time>2011-11-12T05:29:48Z</time>
  <speed>6.120000</speed>
</trkpt>
<trkpt lat="32.867568970" lon="35.242309570">
  <ele>206.317627</ele>
  <time>2011-11-12T05:29:49Z</time>
  <speed>4.770000</speed>
</trkpt>
<trkpt lat="32.867652893" lon="35.242279053">
  <ele>204.747314</ele>
  <time>2011-11-12T05:29:50Z</time>
  <speed>3.900000</speed>
</trkpt>
<trkpt lat="32.867671967" lon="35.242240906">
  <ele>203.696533</ele>
  <time>2011-11-12T05:29:51Z</time>
  <speed>3.350000</speed>
</trkpt>
<trkpt lat="32.867687225" lon="35.242198944">
  <ele>203.614502</ele>
  <time>2011-11-12T05:29:52Z</time>
  <speed>2.750000</speed>
</trkpt>
<trkpt lat="32.867671967" lon="35.242134094">
  <ele>201.075439</ele>
  <time>2011-11-12T05:29:54Z</time>
  <speed>1.800000</speed>
</trkpt>
<trkpt lat="32.867683411" lon="35.242099762">
  <ele>199.505127</ele>
  <time>2011-11-12T05:29:56Z</time>
  <speed>1.130000</speed>
</trkpt>
<trkpt lat="32.867710114" lon="35.242065430">
  <ele>198.555908</ele>
  <time>2011-11-12T05:29:58Z</time>
  <speed>2.570000</speed>
</trkpt>
<trkpt lat="32.867729187" lon="35.242038727">
  <ele>197.856689</ele>
  <time>2011-11-12T05:29:59Z</time>
  <speed>3.180000</speed>
</trkpt>
<trkpt lat="32.867771149" lon="35.241989136">
  <ele>196.173096</ele>
  <time>2011-11-12T05:30:00Z</time>
  <speed>3.890000</speed>
</trkpt>
<trkpt lat="32.867797852" lon="35.241950989">
  <ele>195.290283</ele>
  <time>2011-11-12T05:30:01Z</time>
  <speed>3.660000</speed>
</trkpt>
<trkpt lat="32.867820740" lon="35.241912842">
  <ele>194.407471</ele>
  <time>2011-11-12T05:30:02Z</time>
  <speed>4.040000</speed>
</trkpt>
<trkpt lat="32.867839813" lon="35.241874695">
  <ele>193.696533</ele>
  <time>2011-11-12T05:30:03Z</time>
  <speed>3.640000</speed>
</trkpt>
<trkpt lat="32.867858887" lon="35.241844177">
  <ele>192.602783</ele>
  <time>2011-11-12T05:30:04Z</time>
  <speed>3.700000</speed>
</trkpt>
<trkpt lat="32.867885590" lon="35.241809845">
  <ele>191.305908</ele>
  <time>2011-11-12T05:30:05Z</time>
  <speed>4.000000</speed>
</trkpt>
<trkpt lat="32.867923737" lon="35.241764069">
  <ele>189.985596</ele>
  <time>2011-11-12T05:30:06Z</time>
  <speed>4.760000</speed>
</trkpt>
<trkpt lat="32.867954254" lon="35.241729736">
  <ele>188.907471</ele>
  <time>2011-11-12T05:30:07Z</time>
  <speed>4.610000</speed>
</trkpt>
<trkpt lat="32.867973328" lon="35.241668701">
  <ele>188.235596</ele>
  <time>2011-11-12T05:30:08Z</time>
  <speed>5.130000</speed>
</trkpt>
<trkpt lat="32.868003845" lon="35.241630554">
  <ele>186.903564</ele>
  <time>2011-11-12T05:30:09Z</time>
  <speed>5.150000</speed>
</trkpt>
<trkpt lat="32.868026733" lon="35.241565704">
  <ele>185.376221</ele>
  <time>2011-11-12T05:30:10Z</time>
  <speed>5.100000</speed>
</trkpt>
<trkpt lat="32.868045807" lon="35.241500854">
  <ele>184.384033</ele>
  <time>2011-11-12T05:30:11Z</time>
  <speed>4.800000</speed>
</trkpt>
<trkpt lat="32.868061066" lon="35.241458893">
  <ele>183.302002</ele>
  <time>2011-11-12T05:30:12Z</time>
  <speed>4.320000</speed>
</trkpt>
<trkpt lat="32.868072510" lon="35.241424561">
  <ele>182.337158</ele>
  <time>2011-11-12T05:30:13Z</time>
  <speed>3.060000</speed>
</trkpt>
<trkpt lat="32.868072510" lon="35.241378784">
  <ele>181.462158</ele>
  <time>2011-11-12T05:30:14Z</time>
  <speed>3.210000</speed>
</trkpt>
<trkpt lat="32.868083954" lon="35.241344452">
  <ele>180.469971</ele>
  <time>2011-11-12T05:30:15Z</time>
  <speed>3.750000</speed>
</trkpt>
<trkpt lat="32.868103027" lon="35.241302490">
  <ele>179.145752</ele>
  <time>2011-11-12T05:30:16Z</time>
  <speed>4.390000</speed>
</trkpt>
<trkpt lat="32.868125916" lon="35.241260529">
  <ele>178.134033</ele>
  <time>2011-11-12T05:30:17Z</time>
  <speed>5.440000</speed>
</trkpt>
<trkpt lat="32.868160248" lon="35.241207123">
  <ele>176.864502</ele>
  <time>2011-11-12T05:30:18Z</time>
  <speed>4.530000</speed>
</trkpt>
<trkpt lat="32.868156433" lon="35.241138458">
  <ele>175.313721</ele>
  <time>2011-11-12T05:30:19Z</time>
  <speed>4.540000</speed>
</trkpt>
<trkpt lat="32.868156433" lon="35.241077423">
  <ele>174.255127</ele>
  <time>2011-11-12T05:30:20Z</time>
  <speed>5.030000</speed>
</trkpt>
<trkpt lat="32.868156433" lon="35.241004944">
  <ele>172.950439</ele>
  <time>2011-11-12T05:30:21Z</time>
  <speed>5.660000</speed>
</trkpt>
<trkpt lat="32.868175507" lon="35.240909576">
  <ele>172.794189</ele>
  <time>2011-11-12T05:30:22Z</time>
  <speed>5.750000</speed>
</trkpt>
<trkpt lat="32.868179321" lon="35.240840912">
  <ele>171.837158</ele>
  <time>2011-11-12T05:30:23Z</time>
  <speed>4.530000</speed>
</trkpt>
<trkpt lat="32.868179321" lon="35.240791321">
  <ele>170.872314</ele>
  <time>2011-11-12T05:30:24Z</time>
  <speed>3.670000</speed>
</trkpt>
<trkpt lat="32.868164063" lon="35.240760803">
  <ele>169.723877</ele>
  <time>2011-11-12T05:30:25Z</time>
  <speed>2.820000</speed>
</trkpt>
<trkpt lat="32.868152618" lon="35.240726471">
  <ele>168.700439</ele>
  <time>2011-11-12T05:30:26Z</time>
  <speed>2.590000</speed>
</trkpt>
<trkpt lat="32.868137360" lon="35.240695953">
  <ele>168.141846</ele>
  <time>2011-11-12T05:30:27Z</time>
  <speed>2.220000</speed>
</trkpt>
<trkpt lat="32.868129730" lon="35.240650177">
  <ele>167.274658</ele>
  <time>2011-11-12T05:30:29Z</time>
  <speed>1.430000</speed>
</trkpt>
<trkpt lat="32.868110657" lon="35.240612030">
  <ele>165.923096</ele>
  <time>2011-11-12T05:30:31Z</time>
  <speed>1.670000</speed>
</trkpt>
<trkpt lat="32.868099213" lon="35.240581512">
  <ele>164.208252</ele>
  <time>2011-11-12T05:30:33Z</time>
  <speed>1.580000</speed>
</trkpt>
<trkpt lat="32.868080139" lon="35.240543365">
  <ele>162.731689</ele>
  <time>2011-11-12T05:30:35Z</time>
  <speed>1.470000</speed>
</trkpt>
<trkpt lat="32.868061066" lon="35.240516663">
  <ele>162.762939</ele>
  <time>2011-11-12T05:30:36Z</time>
  <speed>2.130000</speed>
</trkpt>
<trkpt lat="32.868041992" lon="35.240470886">
  <ele>161.571533</ele>
  <time>2011-11-12T05:30:38Z</time>
  <speed>1.980000</speed>
</trkpt>
<trkpt lat="32.868064880" lon="35.240444183">
  <ele>160.559814</ele>
  <time>2011-11-12T05:30:40Z</time>
  <speed>2.160000</speed>
</trkpt>
<trkpt lat="32.868110657" lon="35.240417480">
  <ele>160.087158</ele>
  <time>2011-11-12T05:30:42Z</time>
  <speed>2.810000</speed>
</trkpt>
<trkpt lat="32.868137360" lon="35.240398407">
  <ele>159.985596</ele>
  <time>2011-11-12T05:30:43Z</time>
  <speed>2.830000</speed>
</trkpt>
<trkpt lat="32.868167877" lon="35.240379333">
  <ele>160.380127</ele>
  <time>2011-11-12T05:30:44Z</time>
  <speed>4.350000</speed>
</trkpt>
<trkpt lat="32.868217468" lon="35.240345001">
  <ele>160.376221</ele>
  <time>2011-11-12T05:30:45Z</time>
  <speed>4.930000</speed>
</trkpt>
<trkpt lat="32.868259430" lon="35.240314484">
  <ele>159.891846</ele>
  <time>2011-11-12T05:30:46Z</time>
  <speed>4.750000</speed>
</trkpt>
<trkpt lat="32.868289948" lon="35.240242004">
  <ele>161.294189</ele>
  <time>2011-11-12T05:30:47Z</time>
  <speed>4.780000</speed>
</trkpt>
<trkpt lat="32.868328094" lon="35.240238190">
  <ele>161.348877</ele>
  <time>2011-11-12T05:30:48Z</time>
  <speed>3.430000</speed>
</trkpt>
<trkpt lat="32.868354797" lon="35.240245819">
  <ele>160.872314</ele>
  <time>2011-11-12T05:30:49Z</time>
  <speed>2.550000</speed>
</trkpt>
<trkpt lat="32.868350983" lon="35.240215302">
  <ele>162.688721</ele>
  <time>2011-11-12T05:30:51Z</time>
  <speed>1.120000</speed>
</trkpt>
<trkpt lat="32.868362427" lon="35.240242004">
  <ele>161.485596</ele>
  <time>2011-11-12T05:30:53Z</time>
  <speed>1.320000</speed>
</trkpt>
<trkpt lat="32.868328094" lon="35.240253448">
  <ele>161.579346</ele>
  <time>2011-11-12T05:30:56Z</time>
  <speed>1.070000</speed>
</trkpt>
<trkpt lat="32.868324280" lon="35.240291595">
  <ele>162.137939</ele>
  <time>2011-11-12T05:30:58Z</time>
  <speed>0.910000</speed>
</trkpt>
<trkpt lat="32.868339539" lon="35.240314484">
  <ele>161.442627</ele>
  <time>2011-11-12T05:31:26Z</time>
  <speed>0.040000</speed>
</trkpt>
<trkpt lat="32.868354797" lon="35.240345001">
  <ele>163.098877</ele>
  <time>2011-11-12T05:32:57Z</time>
  <speed>1.430000</speed>
</trkpt>
<trkpt lat="32.868354797" lon="35.240386963">
  <ele>163.024658</ele>
  <time>2011-11-12T05:32:59Z</time>
  <speed>2.180000</speed>
</trkpt>
<trkpt lat="32.868366241" lon="35.240425110">
  <ele>163.067627</ele>
  <time>2011-11-12T05:33:01Z</time>
  <speed>1.970000</speed>
</trkpt>
<trkpt lat="32.868373871" lon="35.240474701">
  <ele>162.950439</ele>
  <time>2011-11-12T05:33:03Z</time>
  <speed>2.140000</speed>
</trkpt>
<trkpt lat="32.868373871" lon="35.240524292">
  <ele>162.591064</ele>
  <time>2011-11-12T05:33:05Z</time>
  <speed>2.500000</speed>
</trkpt>
<trkpt lat="32.868381500" lon="35.240554810">
  <ele>162.782471</ele>
  <time>2011-11-12T05:33:06Z</time>
  <speed>2.900000</speed>
</trkpt>
<trkpt lat="32.868362427" lon="35.240589142">
  <ele>162.747314</ele>
  <time>2011-11-12T05:33:07Z</time>
  <speed>2.850000</speed>
</trkpt>
<trkpt lat="32.868350983" lon="35.240623474">
  <ele>163.149658</ele>
  <time>2011-11-12T05:33:08Z</time>
  <speed>3.440000</speed>
</trkpt>
<trkpt lat="32.868362427" lon="35.240665436">
  <ele>162.696533</ele>
  <time>2011-11-12T05:33:09Z</time>
  <speed>3.590000</speed>
</trkpt>
<trkpt lat="32.868370056" lon="35.240711212">
  <ele>162.286377</ele>
  <time>2011-11-12T05:33:10Z</time>
  <speed>3.780000</speed>
</trkpt>
<trkpt lat="32.868377686" lon="35.240756989">
  <ele>161.911377</ele>
  <time>2011-11-12T05:33:11Z</time>
  <speed>4.230000</speed>
</trkpt>
<trkpt lat="32.868385315" lon="35.240806580">
  <ele>161.411377</ele>
  <time>2011-11-12T05:33:12Z</time>
  <speed>4.170000</speed>
</trkpt>
<trkpt lat="32.868389130" lon="35.240856171">
  <ele>160.950439</ele>
  <time>2011-11-12T05:33:13Z</time>
  <speed>4.030000</speed>
</trkpt>
<trkpt lat="32.868392944" lon="35.240905762">
  <ele>160.438721</ele>
  <time>2011-11-12T05:33:14Z</time>
  <speed>4.050000</speed>
</trkpt>
<trkpt lat="32.868396759" lon="35.240959167">
  <ele>159.915283</ele>
  <time>2011-11-12T05:33:15Z</time>
  <speed>4.520000</speed>
</trkpt>
<trkpt lat="32.868396759" lon="35.241012573">
  <ele>159.782471</ele>
  <time>2011-11-12T05:33:16Z</time>
  <speed>4.680000</speed>
</trkpt>
<trkpt lat="32.868404388" lon="35.241069794">
  <ele>159.446533</ele>
  <time>2011-11-12T05:33:17Z</time>
  <speed>5.200000</speed>
</trkpt>
<trkpt lat="32.868408203" lon="35.241127014">
  <ele>158.989502</ele>
  <time>2011-11-12T05:33:18Z</time>
  <speed>5.350000</speed>
</trkpt>
<trkpt lat="32.868419647" lon="35.241184235">
  <ele>158.837158</ele>
  <time>2011-11-12T05:33:19Z</time>
  <speed>5.020000</speed>
</trkpt>
<trkpt lat="32.868423462" lon="35.241245270">
  <ele>158.094971</ele>
  <time>2011-11-12T05:33:20Z</time>
  <speed>5.720000</speed>
</trkpt>
<trkpt lat="32.868438721" lon="35.241310120">
  <ele>157.325439</ele>
  <time>2011-11-12T05:33:21Z</time>
  <speed>6.090000</speed>
</trkpt>
<trkpt lat="32.868438721" lon="35.241378784">
  <ele>156.731689</ele>
  <time>2011-11-12T05:33:22Z</time>
  <speed>6.680000</speed>
</trkpt>
<trkpt lat="32.868450165" lon="35.241451263">
  <ele>156.005127</ele>
  <time>2011-11-12T05:33:23Z</time>
  <speed>6.680000</speed>
</trkpt>
<trkpt lat="32.868461609" lon="35.241527557">
  <ele>155.501221</ele>
  <time>2011-11-12T05:33:24Z</time>
  <speed>6.560000</speed>
</trkpt>
<trkpt lat="32.868476868" lon="35.241596222">
  <ele>156.177002</ele>
  <time>2011-11-12T05:33:25Z</time>
  <speed>6.140000</speed>
</trkpt>
<trkpt lat="32.868495941" lon="35.241653442">
  <ele>156.825439</ele>
  <time>2011-11-12T05:33:26Z</time>
  <speed>5.510000</speed>
</trkpt>
<trkpt lat="32.868511200" lon="35.241706848">
  <ele>156.403564</ele>
  <time>2011-11-12T05:33:27Z</time>
  <speed>5.040000</speed>
</trkpt>
<trkpt lat="32.868553162" lon="35.241752625">
  <ele>155.817627</ele>
  <time>2011-11-12T05:33:28Z</time>
  <speed>5.300000</speed>
</trkpt>
<trkpt lat="32.868595123" lon="35.241786957">
  <ele>155.348877</ele>
  <time>2011-11-12T05:33:29Z</time>
  <speed>5.430000</speed>
</trkpt>
<trkpt lat="32.868652344" lon="35.241809845">
  <ele>156.180908</ele>
  <time>2011-11-12T05:33:30Z</time>
  <speed>5.430000</speed>
</trkpt>
<trkpt lat="32.868755341" lon="35.241836548">
  <ele>157.942627</ele>
  <time>2011-11-12T05:33:31Z</time>
  <speed>5.760000</speed>
</trkpt>
<trkpt lat="32.868812561" lon="35.241828918">
  <ele>158.200439</ele>
  <time>2011-11-12T05:33:32Z</time>
  <speed>5.820000</speed>
</trkpt>
<trkpt lat="32.868869781" lon="35.241806030">
  <ele>157.907471</ele>
  <time>2011-11-12T05:33:33Z</time>
  <speed>5.580000</speed>
</trkpt>
<trkpt lat="32.868934631" lon="35.241779327">
  <ele>158.012939</ele>
  <time>2011-11-12T05:33:34Z</time>
  <speed>5.680000</speed>
</trkpt>
<trkpt lat="32.868980408" lon="35.241741180">
  <ele>157.766846</ele>
  <time>2011-11-12T05:33:35Z</time>
  <speed>6.170000</speed>
</trkpt>
<trkpt lat="32.869026184" lon="35.241691589">
  <ele>158.130127</ele>
  <time>2011-11-12T05:33:36Z</time>
  <speed>6.210000</speed>
</trkpt>
<trkpt lat="32.869071960" lon="35.241634369">
  <ele>158.571533</ele>
  <time>2011-11-12T05:33:37Z</time>
  <speed>6.700000</speed>
</trkpt>
<trkpt lat="32.869110107" lon="35.241577148">
  <ele>158.505127</ele>
  <time>2011-11-12T05:33:38Z</time>
  <speed>6.790000</speed>
</trkpt>
<trkpt lat="32.869152069" lon="35.241519928">
  <ele>158.387939</ele>
  <time>2011-11-12T05:33:39Z</time>
  <speed>7.090000</speed>
</trkpt>
<trkpt lat="32.869201660" lon="35.241462708">
  <ele>158.516846</ele>
  <time>2011-11-12T05:33:40Z</time>
  <speed>7.670000</speed>
</trkpt>
<trkpt lat="32.869258881" lon="35.241409302">
  <ele>158.688721</ele>
  <time>2011-11-12T05:33:41Z</time>
  <speed>7.600000</speed>
</trkpt>
<trkpt lat="32.869312286" lon="35.241348267">
  <ele>158.696533</ele>
  <time>2011-11-12T05:33:42Z</time>
  <speed>8.400000</speed>
</trkpt>
<trkpt lat="32.869369507" lon="35.241283417">
  <ele>158.212158</ele>
  <time>2011-11-12T05:33:43Z</time>
  <speed>8.980000</speed>
</trkpt>
<trkpt lat="32.869426727" lon="35.241214752">
  <ele>158.087158</ele>
  <time>2011-11-12T05:33:44Z</time>
  <speed>8.920000</speed>
</trkpt>
<trkpt lat="32.869480133" lon="35.241146088">
  <ele>157.708252</ele>
  <time>2011-11-12T05:33:45Z</time>
  <speed>8.830000</speed>
</trkpt>
<trkpt lat="32.869544983" lon="35.241085052">
  <ele>157.149658</ele>
  <time>2011-11-12T05:33:46Z</time>
  <speed>8.730000</speed>
</trkpt>
<trkpt lat="32.869602203" lon="35.241020203">
  <ele>157.114502</ele>
  <time>2011-11-12T05:33:47Z</time>
  <speed>8.960000</speed>
</trkpt>
<trkpt lat="32.869655609" lon="35.240951538">
  <ele>157.087158</ele>
  <time>2011-11-12T05:33:48Z</time>
  <speed>8.890000</speed>
</trkpt>
<trkpt lat="32.869712830" lon="35.240882874">
  <ele>157.001221</ele>
  <time>2011-11-12T05:33:49Z</time>
  <speed>8.650000</speed>
</trkpt>
<trkpt lat="32.869770050" lon="35.240814209">
  <ele>156.567627</ele>
  <time>2011-11-12T05:33:50Z</time>
  <speed>8.580000</speed>
</trkpt>
<trkpt lat="32.869823456" lon="35.240745544">
  <ele>156.337158</ele>
  <time>2011-11-12T05:33:51Z</time>
  <speed>8.610000</speed>
</trkpt>
<trkpt lat="32.869880676" lon="35.240680695">
  <ele>156.216064</ele>
  <time>2011-11-12T05:33:52Z</time>
  <speed>8.680000</speed>
</trkpt>
<trkpt lat="32.869937897" lon="35.240615845">
  <ele>156.075439</ele>
  <time>2011-11-12T05:33:53Z</time>
  <speed>8.700000</speed>
</trkpt>
<trkpt lat="32.869995117" lon="35.240550995">
  <ele>155.673096</ele>
  <time>2011-11-12T05:33:54Z</time>
  <speed>8.950000</speed>
</trkpt>
<trkpt lat="32.870056152" lon="35.240482330">
  <ele>154.993408</ele>
  <time>2011-11-12T05:33:55Z</time>
  <speed>9.390000</speed>
</trkpt>
<trkpt lat="32.870121002" lon="35.240402222">
  <ele>153.950439</ele>
  <time>2011-11-12T05:33:56Z</time>
  <speed>9.830000</speed>
</trkpt>
<trkpt lat="32.870189667" lon="35.240325928">
  <ele>153.290283</ele>
  <time>2011-11-12T05:33:57Z</time>
  <speed>10.240000</speed>
</trkpt>
<trkpt lat="32.870258331" lon="35.240257263">
  <ele>152.837158</ele>
  <time>2011-11-12T05:33:58Z</time>
  <speed>10.110000</speed>
</trkpt>
<trkpt lat="32.870330811" lon="35.240184784">
  <ele>153.071533</ele>
  <time>2011-11-12T05:33:59Z</time>
  <speed>10.380000</speed>
</trkpt>
<trkpt lat="32.870399475" lon="35.240123749">
  <ele>152.915283</ele>
  <time>2011-11-12T05:34:00Z</time>
  <speed>9.110000</speed>
</trkpt>
<trkpt lat="32.870456696" lon="35.240062714">
  <ele>153.012939</ele>
  <time>2011-11-12T05:34:01Z</time>
  <speed>8.110000</speed>
</trkpt>
<trkpt lat="32.870513916" lon="35.239997864">
  <ele>152.739502</ele>
  <time>2011-11-12T05:34:02Z</time>
  <speed>7.620000</speed>
</trkpt>
<trkpt lat="32.870552063" lon="35.239921570">
  <ele>152.419189</ele>
  <time>2011-11-12T05:34:03Z</time>
  <speed>7.350000</speed>
</trkpt>
<trkpt lat="32.870574951" lon="35.239852905">
  <ele>151.884033</ele>
  <time>2011-11-12T05:34:04Z</time>
  <speed>6.600000</speed>
</trkpt>
<trkpt lat="32.870590210" lon="35.239788055">
  <ele>151.813721</ele>
  <time>2011-11-12T05:34:05Z</time>
  <speed>6.330000</speed>
</trkpt>
<trkpt lat="32.870597839" lon="35.239711761">
  <ele>152.641846</ele>
  <time>2011-11-12T05:34:06Z</time>
  <speed>5.970000</speed>
</trkpt>
<trkpt lat="32.870582581" lon="35.239650726">
  <ele>152.766846</ele>
  <time>2011-11-12T05:34:07Z</time>
  <speed>5.510000</speed>
</trkpt>
<trkpt lat="32.870555878" lon="35.239604950">
  <ele>152.184814</ele>
  <time>2011-11-12T05:34:08Z</time>
  <speed>5.170000</speed>
</trkpt>
<trkpt lat="32.870532990" lon="35.239566803">
  <ele>151.798096</ele>
  <time>2011-11-12T05:34:09Z</time>
  <speed>4.160000</speed>
</trkpt>
<trkpt lat="32.870506287" lon="35.239532471">
  <ele>152.079346</ele>
  <time>2011-11-12T05:34:10Z</time>
  <speed>3.480000</speed>
</trkpt>
<trkpt lat="32.870487213" lon="35.239494324">
  <ele>152.040283</ele>
  <time>2011-11-12T05:34:11Z</time>
  <speed>3.800000</speed>
</trkpt>
<trkpt lat="32.870464325" lon="35.239452362">
  <ele>152.180908</ele>
  <time>2011-11-12T05:34:12Z</time>
  <speed>4.310000</speed>
</trkpt>
<trkpt lat="32.870437622" lon="35.239410400">
  <ele>152.134033</ele>
  <time>2011-11-12T05:34:13Z</time>
  <speed>4.600000</speed>
</trkpt>
<trkpt lat="32.870407104" lon="35.239368439">
  <ele>151.942627</ele>
  <time>2011-11-12T05:34:14Z</time>
  <speed>5.320000</speed>
</trkpt>
<trkpt lat="32.870368958" lon="35.239326477">
  <ele>151.798096</ele>
  <time>2011-11-12T05:34:15Z</time>
  <speed>5.470000</speed>
</trkpt>
<trkpt lat="32.870334625" lon="35.239276886">
  <ele>151.798096</ele>
  <time>2011-11-12T05:34:16Z</time>
  <speed>5.170000</speed>
</trkpt>
<trkpt lat="32.870304108" lon="35.239227295">
  <ele>151.743408</ele>
  <time>2011-11-12T05:34:17Z</time>
  <speed>4.740000</speed>
</trkpt>
<trkpt lat="32.870273590" lon="35.239181519">
  <ele>151.286377</ele>
  <time>2011-11-12T05:34:18Z</time>
  <speed>5.390000</speed>
</trkpt>
<trkpt lat="32.870246887" lon="35.239128113">
  <ele>151.434814</ele>
  <time>2011-11-12T05:34:19Z</time>
  <speed>5.640000</speed>
</trkpt>
<trkpt lat="32.870189667" lon="35.239078522">
  <ele>150.895752</ele>
  <time>2011-11-12T05:34:20Z</time>
  <speed>6.340000</speed>
</trkpt>
<trkpt lat="32.870155334" lon="35.239028931">
  <ele>150.735596</ele>
  <time>2011-11-12T05:34:21Z</time>
  <speed>5.340000</speed>
</trkpt>
<trkpt lat="32.870136261" lon="35.238975525">
  <ele>150.544189</ele>
  <time>2011-11-12T05:34:22Z</time>
  <speed>5.850000</speed>
</trkpt>
<trkpt lat="32.870124817" lon="35.238918304">
  <ele>150.481689</ele>
  <time>2011-11-12T05:34:23Z</time>
  <speed>5.430000</speed>
</trkpt>
<trkpt lat="32.870128632" lon="35.238861084">
  <ele>149.927002</ele>
  <time>2011-11-12T05:34:24Z</time>
  <speed>4.620000</speed>
</trkpt>
<trkpt lat="32.870140076" lon="35.238819122">
  <ele>149.669189</ele>
  <time>2011-11-12T05:34:25Z</time>
  <speed>4.000000</speed>
</trkpt>
<trkpt lat="32.870162964" lon="35.238788605">
  <ele>149.520752</ele>
  <time>2011-11-12T05:34:26Z</time>
  <speed>3.310000</speed>
</trkpt>
<trkpt lat="32.870178223" lon="35.238758087">
  <ele>149.524658</ele>
  <time>2011-11-12T05:34:27Z</time>
  <speed>3.790000</speed>
</trkpt>
<trkpt lat="32.870182037" lon="35.238716125">
  <ele>149.247314</ele>
  <time>2011-11-12T05:34:28Z</time>
  <speed>3.840000</speed>
</trkpt>
<trkpt lat="32.870189667" lon="35.238681793">
  <ele>149.122314</ele>
  <time>2011-11-12T05:34:29Z</time>
  <speed>3.340000</speed>
</trkpt>
<trkpt lat="32.870197296" lon="35.238647461">
  <ele>149.110596</ele>
  <time>2011-11-12T05:34:30Z</time>
  <speed>3.120000</speed>
</trkpt>
<trkpt lat="32.870208740" lon="35.238616943">
  <ele>149.364502</ele>
  <time>2011-11-12T05:34:31Z</time>
  <speed>3.250000</speed>
</trkpt>
<trkpt lat="32.870231628" lon="35.238563538">
  <ele>148.282471</ele>
  <time>2011-11-12T05:34:33Z</time>
  <speed>2.330000</speed>
</trkpt>
<trkpt lat="32.870239258" lon="35.238529205">
  <ele>148.610596</ele>
  <time>2011-11-12T05:34:34Z</time>
  <speed>2.930000</speed>
</trkpt>
<trkpt lat="32.870250702" lon="35.238502502">
  <ele>148.169189</ele>
  <time>2011-11-12T05:34:35Z</time>
  <speed>3.180000</speed>
</trkpt>
<trkpt lat="32.870265961" lon="35.238441467">
  <ele>147.704346</ele>
  <time>2011-11-12T05:34:37Z</time>
  <speed>3.380000</speed>
</trkpt>
<trkpt lat="32.870281219" lon="35.238399506">
  <ele>147.587158</ele>
  <time>2011-11-12T05:34:38Z</time>
  <speed>3.540000</speed>
</trkpt>
<trkpt lat="32.870296478" lon="35.238368988">
  <ele>147.372314</ele>
  <time>2011-11-12T05:34:39Z</time>
  <speed>3.350000</speed>
</trkpt>
<trkpt lat="32.870315552" lon="35.238334656">
  <ele>146.899658</ele>
  <time>2011-11-12T05:34:40Z</time>
  <speed>3.240000</speed>
</trkpt>
<trkpt lat="32.870330811" lon="35.238296509">
  <ele>146.520752</ele>
  <time>2011-11-12T05:34:41Z</time>
  <speed>3.420000</speed>
</trkpt>
<trkpt lat="32.870346069" lon="35.238262177">
  <ele>146.145752</ele>
  <time>2011-11-12T05:34:42Z</time>
  <speed>3.280000</speed>
</trkpt>
<trkpt lat="32.870361328" lon="35.238212585">
  <ele>145.485596</ele>
  <time>2011-11-12T05:34:43Z</time>
  <speed>4.100000</speed>
</trkpt>
<trkpt lat="32.870380402" lon="35.238166809">
  <ele>145.352783</ele>
  <time>2011-11-12T05:34:44Z</time>
  <speed>4.410000</speed>
</trkpt>
<trkpt lat="32.870399475" lon="35.238098145">
  <ele>147.958252</ele>
  <time>2011-11-12T05:34:45Z</time>
  <speed>3.700000</speed>
</trkpt>
<trkpt lat="32.870437622" lon="35.238079071">
  <ele>147.895752</ele>
  <time>2011-11-12T05:34:46Z</time>
  <speed>4.130000</speed>
</trkpt>
<trkpt lat="32.870468140" lon="35.238059998">
  <ele>148.083252</ele>
  <time>2011-11-12T05:34:47Z</time>
  <speed>3.450000</speed>
</trkpt>
<trkpt lat="32.870498657" lon="35.238037109">
  <ele>147.477783</ele>
  <time>2011-11-12T05:34:48Z</time>
  <speed>4.280000</speed>
</trkpt>
<trkpt lat="32.870529175" lon="35.238014221">
  <ele>147.325439</ele>
  <time>2011-11-12T05:34:49Z</time>
  <speed>4.010000</speed>
</trkpt>
<trkpt lat="32.870563507" lon="35.237979889">
  <ele>147.161377</ele>
  <time>2011-11-12T05:34:50Z</time>
  <speed>4.600000</speed>
</trkpt>
<trkpt lat="32.870597839" lon="35.237945557">
  <ele>147.262939</ele>
  <time>2011-11-12T05:34:51Z</time>
  <speed>4.720000</speed>
</trkpt>
<trkpt lat="32.870628357" lon="35.237911224">
  <ele>147.145752</ele>
  <time>2011-11-12T05:34:52Z</time>
  <speed>4.630000</speed>
</trkpt>
<trkpt lat="32.870655060" lon="35.237873077">
  <ele>146.966064</ele>
  <time>2011-11-12T05:34:53Z</time>
  <speed>4.360000</speed>
</trkpt>
<trkpt lat="32.870693207" lon="35.237827301">
  <ele>146.231689</ele>
  <time>2011-11-12T05:34:54Z</time>
  <speed>5.260000</speed>
</trkpt>
<trkpt lat="32.870723724" lon="35.237762451">
  <ele>145.290283</ele>
  <time>2011-11-12T05:34:55Z</time>
  <speed>6.350000</speed>
</trkpt>
<trkpt lat="32.870761871" lon="35.237701416">
  <ele>144.696533</ele>
  <time>2011-11-12T05:34:56Z</time>
  <speed>6.970000</speed>
</trkpt>
<trkpt lat="32.870811462" lon="35.237636566">
  <ele>143.747314</ele>
  <time>2011-11-12T05:34:57Z</time>
  <speed>6.300000</speed>
</trkpt>
<trkpt lat="32.870849609" lon="35.237583160">
  <ele>143.661377</ele>
  <time>2011-11-12T05:34:58Z</time>
  <speed>7.010000</speed>
</trkpt>
<trkpt lat="32.870895386" lon="35.237537384">
  <ele>143.106689</ele>
  <time>2011-11-12T05:34:59Z</time>
  <speed>5.720000</speed>
</trkpt>
<trkpt lat="32.870925903" lon="35.237487793">
  <ele>142.876221</ele>
  <time>2011-11-12T05:35:00Z</time>
  <speed>4.570000</speed>
</trkpt>
<trkpt lat="32.870933533" lon="35.237442017">
  <ele>143.352783</ele>
  <time>2011-11-12T05:35:01Z</time>
  <speed>3.280000</speed>
</trkpt>
<trkpt lat="32.870944977" lon="35.237407684">
  <ele>143.204346</ele>
  <time>2011-11-12T05:35:02Z</time>
  <speed>3.250000</speed>
</trkpt>
<trkpt lat="32.870964050" lon="35.237350464">
  <ele>143.477783</ele>
  <time>2011-11-12T05:35:04Z</time>
  <speed>2.650000</speed>
</trkpt>
<trkpt lat="32.870956421" lon="35.237308502">
  <ele>143.372314</ele>
  <time>2011-11-12T05:35:05Z</time>
  <speed>2.290000</speed>
</trkpt>
<trkpt lat="32.870960236" lon="35.237255096">
  <ele>143.294189</ele>
  <time>2011-11-12T05:35:07Z</time>
  <speed>2.060000</speed>
</trkpt>
<trkpt lat="32.870956421" lon="35.237220764">
  <ele>143.114502</ele>
  <time>2011-11-12T05:35:08Z</time>
  <speed>2.050000</speed>
</trkpt>
<trkpt lat="32.870944977" lon="35.237186432">
  <ele>143.177002</ele>
  <time>2011-11-12T05:35:09Z</time>
  <speed>2.220000</speed>
</trkpt>
<trkpt lat="32.870941162" lon="35.237140656">
  <ele>143.153564</ele>
  <time>2011-11-12T05:35:11Z</time>
  <speed>1.780000</speed>
</trkpt>
<trkpt lat="32.870937347" lon="35.237102509">
  <ele>142.844971</ele>
  <time>2011-11-12T05:35:13Z</time>
  <speed>1.580000</speed>
</trkpt>
<trkpt lat="32.870937347" lon="35.237064362">
  <ele>142.645752</ele>
  <time>2011-11-12T05:35:15Z</time>
  <speed>1.790000</speed>
</trkpt>
<trkpt lat="32.870933533" lon="35.237010956">
  <ele>142.126221</ele>
  <time>2011-11-12T05:35:17Z</time>
  <speed>2.120000</speed>
</trkpt>
<trkpt lat="32.870929718" lon="35.236980438">
  <ele>141.743408</ele>
  <time>2011-11-12T05:35:18Z</time>
  <speed>1.950000</speed>
</trkpt>
<trkpt lat="32.870914459" lon="35.236934662">
  <ele>141.423096</ele>
  <time>2011-11-12T05:35:20Z</time>
  <speed>1.720000</speed>
</trkpt>
<trkpt lat="32.870937347" lon="35.236896515">
  <ele>141.950439</ele>
  <time>2011-11-12T05:35:22Z</time>
  <speed>1.540000</speed>
</trkpt>
<trkpt lat="32.870933533" lon="35.236846924">
  <ele>141.844971</ele>
  <time>2011-11-12T05:35:24Z</time>
  <speed>2.360000</speed>
</trkpt>
<trkpt lat="32.870941162" lon="35.236812592">
  <ele>142.266846</ele>
  <time>2011-11-12T05:35:25Z</time>
  <speed>2.350000</speed>
</trkpt>
<trkpt lat="32.870944977" lon="35.236763000">
  <ele>143.630127</ele>
  <time>2011-11-12T05:35:27Z</time>
  <speed>2.420000</speed>
</trkpt>
<trkpt lat="32.870948792" lon="35.236728668">
  <ele>144.380127</ele>
  <time>2011-11-12T05:35:28Z</time>
  <speed>2.320000</speed>
</trkpt>
<trkpt lat="32.870948792" lon="35.236663818">
  <ele>145.231689</ele>
  <time>2011-11-12T05:35:30Z</time>
  <speed>2.300000</speed>
</trkpt>
<trkpt lat="32.870941162" lon="35.236606598">
  <ele>145.427002</ele>
  <time>2011-11-12T05:35:32Z</time>
  <speed>2.840000</speed>
</trkpt>
<trkpt lat="32.870944977" lon="35.236568451">
  <ele>146.219971</ele>
  <time>2011-11-12T05:35:33Z</time>
  <speed>3.000000</speed>
</trkpt>
<trkpt lat="32.870948792" lon="35.236534119">
  <ele>147.274658</ele>
  <time>2011-11-12T05:35:34Z</time>
  <speed>2.440000</speed>
</trkpt>
<trkpt lat="32.870960236" lon="35.236480713">
  <ele>148.622314</ele>
  <time>2011-11-12T05:35:36Z</time>
  <speed>2.430000</speed>
</trkpt>
<trkpt lat="32.870971680" lon="35.236431122">
  <ele>149.145752</ele>
  <time>2011-11-12T05:35:38Z</time>
  <speed>2.410000</speed>
</trkpt>
<trkpt lat="32.870971680" lon="35.236366272">
  <ele>150.055908</ele>
  <time>2011-11-12T05:35:40Z</time>
  <speed>2.500000</speed>
</trkpt>
<trkpt lat="32.870983124" lon="35.236305237">
  <ele>150.524658</ele>
  <time>2011-11-12T05:35:42Z</time>
  <speed>2.810000</speed>
</trkpt>
<trkpt lat="32.871006012" lon="35.236248016">
  <ele>150.032471</ele>
  <time>2011-11-12T05:35:44Z</time>
  <speed>2.900000</speed>
</trkpt>
<trkpt lat="32.871009827" lon="35.236217499">
  <ele>150.805908</ele>
  <time>2011-11-12T05:35:45Z</time>
  <speed>3.410000</speed>
</trkpt>
<trkpt lat="32.871009827" lon="35.236175537">
  <ele>151.071533</ele>
  <time>2011-11-12T05:35:46Z</time>
  <speed>3.500000</speed>
</trkpt>
<trkpt lat="32.871017456" lon="35.236137390">
  <ele>151.192627</ele>
  <time>2011-11-12T05:35:47Z</time>
  <speed>3.580000</speed>
</trkpt>
<trkpt lat="32.871025085" lon="35.236099243">
  <ele>150.727783</ele>
  <time>2011-11-12T05:35:48Z</time>
  <speed>3.500000</speed>
</trkpt>
<trkpt lat="32.871036530" lon="35.236064911">
  <ele>150.719971</ele>
  <time>2011-11-12T05:35:49Z</time>
  <speed>3.230000</speed>
</trkpt>
<trkpt lat="32.871047974" lon="35.236030579">
  <ele>150.259033</ele>
  <time>2011-11-12T05:35:50Z</time>
  <speed>2.970000</speed>
</trkpt>
<trkpt lat="32.871059418" lon="35.235992432">
  <ele>150.309814</ele>
  <time>2011-11-12T05:35:51Z</time>
  <speed>3.300000</speed>
</trkpt>
<trkpt lat="32.871070862" lon="35.235954285">
  <ele>149.442627</ele>
  <time>2011-11-12T05:35:52Z</time>
  <speed>3.770000</speed>
</trkpt>
<trkpt lat="32.871082306" lon="35.235919952">
  <ele>148.856689</ele>
  <time>2011-11-12T05:35:53Z</time>
  <speed>3.770000</speed>
</trkpt>
<trkpt lat="32.871097565" lon="35.235881805">
  <ele>148.493408</ele>
  <time>2011-11-12T05:35:54Z</time>
  <speed>3.780000</speed>
</trkpt>
<trkpt lat="32.871120453" lon="35.235855103">
  <ele>147.645752</ele>
  <time>2011-11-12T05:35:55Z</time>
  <speed>4.180000</speed>
</trkpt>
<trkpt lat="32.871147156" lon="35.235816956">
  <ele>147.364502</ele>
  <time>2011-11-12T05:35:56Z</time>
  <speed>4.150000</speed>
</trkpt>
<trkpt lat="32.871170044" lon="35.235774994">
  <ele>148.227783</ele>
  <time>2011-11-12T05:35:57Z</time>
  <speed>4.050000</speed>
</trkpt>
<trkpt lat="32.871192932" lon="35.235740662">
  <ele>148.790283</ele>
  <time>2011-11-12T05:35:58Z</time>
  <speed>3.930000</speed>
</trkpt>
<trkpt lat="32.871219635" lon="35.235710144">
  <ele>148.473877</ele>
  <time>2011-11-12T05:35:59Z</time>
  <speed>3.780000</speed>
</trkpt>
<trkpt lat="32.871246338" lon="35.235687256">
  <ele>148.423096</ele>
  <time>2011-11-12T05:36:00Z</time>
  <speed>3.690000</speed>
</trkpt>
<trkpt lat="32.871276855" lon="35.235660553">
  <ele>148.180908</ele>
  <time>2011-11-12T05:36:01Z</time>
  <speed>3.910000</speed>
</trkpt>
<trkpt lat="32.871303558" lon="35.235633850">
  <ele>147.587158</ele>
  <time>2011-11-12T05:36:02Z</time>
  <speed>4.190000</speed>
</trkpt>
<trkpt lat="32.871330261" lon="35.235599518">
  <ele>146.782471</ele>
  <time>2011-11-12T05:36:03Z</time>
  <speed>4.820000</speed>
</trkpt>
<trkpt lat="32.871353149" lon="35.235546112">
  <ele>147.352783</ele>
  <time>2011-11-12T05:36:04Z</time>
  <speed>5.310000</speed>
</trkpt>
<trkpt lat="32.871364594" lon="35.235481262">
  <ele>148.122314</ele>
  <time>2011-11-12T05:36:05Z</time>
  <speed>5.280000</speed>
</trkpt>
<trkpt lat="32.871372223" lon="35.235416412">
  <ele>147.591064</ele>
  <time>2011-11-12T05:36:06Z</time>
  <speed>5.670000</speed>
</trkpt>
<trkpt lat="32.871368408" lon="35.235351563">
  <ele>146.071533</ele>
  <time>2011-11-12T05:36:07Z</time>
  <speed>6.250000</speed>
</trkpt>
<trkpt lat="32.871360779" lon="35.235286713">
  <ele>145.802002</ele>
  <time>2011-11-12T05:36:08Z</time>
  <speed>5.800000</speed>
</trkpt>
<trkpt lat="32.871337891" lon="35.235229492">
  <ele>145.614502</ele>
  <time>2011-11-12T05:36:09Z</time>
  <speed>6.030000</speed>
</trkpt>
<trkpt lat="32.871311188" lon="35.235168457">
  <ele>145.634033</ele>
  <time>2011-11-12T05:36:10Z</time>
  <speed>5.730000</speed>
</trkpt>
<trkpt lat="32.871284485" lon="35.235107422">
  <ele>146.294189</ele>
  <time>2011-11-12T05:36:11Z</time>
  <speed>5.310000</speed>
</trkpt>
<trkpt lat="32.871250153" lon="35.235061646">
  <ele>145.977783</ele>
  <time>2011-11-12T05:36:12Z</time>
  <speed>5.030000</speed>
</trkpt>
<trkpt lat="32.871200562" lon="35.235023499">
  <ele>146.395752</ele>
  <time>2011-11-12T05:36:13Z</time>
  <speed>6.100000</speed>
</trkpt>
<trkpt lat="32.871143341" lon="35.234970093">
  <ele>148.618408</ele>
  <time>2011-11-12T05:36:14Z</time>
  <speed>6.000000</speed>
</trkpt>
<trkpt lat="32.871089935" lon="35.234935760">
  <ele>149.020752</ele>
  <time>2011-11-12T05:36:15Z</time>
  <speed>6.100000</speed>
</trkpt>
<trkpt lat="32.871040344" lon="35.234901428">
  <ele>148.364502</ele>
  <time>2011-11-12T05:36:16Z</time>
  <speed>6.310000</speed>
</trkpt>
<trkpt lat="32.870994568" lon="35.234863281">
  <ele>147.680908</ele>
  <time>2011-11-12T05:36:17Z</time>
  <speed>6.300000</speed>
</trkpt>
<trkpt lat="32.870944977" lon="35.234817505">
  <ele>147.118408</ele>
  <time>2011-11-12T05:36:18Z</time>
  <speed>6.800000</speed>
</trkpt>
<trkpt lat="32.870876312" lon="35.234779358">
  <ele>146.313721</ele>
  <time>2011-11-12T05:36:19Z</time>
  <speed>6.560000</speed>
</trkpt>
<trkpt lat="32.870826721" lon="35.234733582">
  <ele>145.942627</ele>
  <time>2011-11-12T05:36:20Z</time>
  <speed>7.120000</speed>
</trkpt>
<trkpt lat="32.870777130" lon="35.234680176">
  <ele>145.825439</ele>
  <time>2011-11-12T05:36:21Z</time>
  <speed>7.000000</speed>
</trkpt>
<trkpt lat="32.870719910" lon="35.234630585">
  <ele>146.270752</ele>
  <time>2011-11-12T05:36:22Z</time>
  <speed>6.490000</speed>
</trkpt>
<trkpt lat="32.870670319" lon="35.234588623">
  <ele>145.743408</ele>
  <time>2011-11-12T05:36:23Z</time>
  <speed>6.520000</speed>
</trkpt>
<trkpt lat="32.870624542" lon="35.234550476">
  <ele>145.727783</ele>
  <time>2011-11-12T05:36:24Z</time>
  <speed>5.380000</speed>
</trkpt>
<trkpt lat="32.870571136" lon="35.234512329">
  <ele>145.688721</ele>
  <time>2011-11-12T05:36:25Z</time>
  <speed>6.260000</speed>
</trkpt>
<trkpt lat="32.870517731" lon="35.234474182">
  <ele>145.094971</ele>
  <time>2011-11-12T05:36:26Z</time>
  <speed>6.970000</speed>
</trkpt>
<trkpt lat="32.870449066" lon="35.234439850">
  <ele>144.774658</ele>
  <time>2011-11-12T05:36:27Z</time>
  <speed>6.900000</speed>
</trkpt>
<trkpt lat="32.870388031" lon="35.234401703">
  <ele>144.884033</ele>
  <time>2011-11-12T05:36:28Z</time>
  <speed>7.260000</speed>
</trkpt>
<trkpt lat="32.870288849" lon="35.234378815">
  <ele>143.270752</ele>
  <time>2011-11-12T05:36:29Z</time>
  <speed>8.540000</speed>
</trkpt>
<trkpt lat="32.870212555" lon="35.234340668">
  <ele>142.559814</ele>
  <time>2011-11-12T05:36:30Z</time>
  <speed>8.990000</speed>
</trkpt>
<trkpt lat="32.870132446" lon="35.234298706">
  <ele>142.598877</ele>
  <time>2011-11-12T05:36:31Z</time>
  <speed>9.220000</speed>
</trkpt>
<trkpt lat="32.870052338" lon="35.234249115">
  <ele>142.575439</ele>
  <time>2011-11-12T05:36:32Z</time>
  <speed>9.280000</speed>
</trkpt>
<trkpt lat="32.869987488" lon="35.234195709">
  <ele>142.079346</ele>
  <time>2011-11-12T05:36:33Z</time>
  <speed>8.560000</speed>
</trkpt>
<trkpt lat="32.869960785" lon="35.234119415">
  <ele>142.329346</ele>
  <time>2011-11-12T05:36:34Z</time>
  <speed>8.180000</speed>
</trkpt>
<trkpt lat="32.869918823" lon="35.234046936">
  <ele>142.137939</ele>
  <time>2011-11-12T05:36:35Z</time>
  <speed>7.600000</speed>
</trkpt>
<trkpt lat="32.869918823" lon="35.233974457">
  <ele>142.829346</ele>
  <time>2011-11-12T05:36:36Z</time>
  <speed>5.820000</speed>
</trkpt>
<trkpt lat="32.869930267" lon="35.233917236">
  <ele>143.204346</ele>
  <time>2011-11-12T05:36:37Z</time>
  <speed>4.700000</speed>
</trkpt>
<trkpt lat="32.869934082" lon="35.233871460">
  <ele>143.305908</ele>
  <time>2011-11-12T05:36:38Z</time>
  <speed>3.660000</speed>
</trkpt>
<trkpt lat="32.869941711" lon="35.233833313">
  <ele>143.454346</ele>
  <time>2011-11-12T05:36:39Z</time>
  <speed>3.320000</speed>
</trkpt>
<trkpt lat="32.869956970" lon="35.233798981">
  <ele>144.302002</ele>
  <time>2011-11-12T05:36:40Z</time>
  <speed>2.840000</speed>
</trkpt>
<trkpt lat="32.869987488" lon="35.233741760">
  <ele>143.821533</ele>
  <time>2011-11-12T05:36:42Z</time>
  <speed>2.730000</speed>
</trkpt>
<trkpt lat="32.869991302" lon="35.233688354">
  <ele>142.825439</ele>
  <time>2011-11-12T05:36:44Z</time>
  <speed>2.170000</speed>
</trkpt>
<trkpt lat="32.869983673" lon="35.233646393">
  <ele>142.071533</ele>
  <time>2011-11-12T05:36:46Z</time>
  <speed>2.450000</speed>
</trkpt>
<trkpt lat="32.869979858" lon="35.233592987">
  <ele>141.930908</ele>
  <time>2011-11-12T05:36:48Z</time>
  <speed>2.210000</speed>
</trkpt>
<trkpt lat="32.869976044" lon="35.233543396">
  <ele>142.415283</ele>
  <time>2011-11-12T05:36:50Z</time>
  <speed>1.850000</speed>
</trkpt>
<trkpt lat="32.869979858" lon="35.233497620">
  <ele>141.895752</ele>
  <time>2011-11-12T05:36:52Z</time>
  <speed>2.450000</speed>
</trkpt>
<trkpt lat="32.869983673" lon="35.233459473">
  <ele>142.540283</ele>
  <time>2011-11-12T05:36:53Z</time>
  <speed>2.470000</speed>
</trkpt>
<trkpt lat="32.869995117" lon="35.233402252">
  <ele>142.536377</ele>
  <time>2011-11-12T05:36:55Z</time>
  <speed>2.540000</speed>
</trkpt>
<trkpt lat="32.870010376" lon="35.233371735">
  <ele>142.469971</ele>
  <time>2011-11-12T05:36:56Z</time>
  <speed>2.260000</speed>
</trkpt>
<trkpt lat="32.870033264" lon="35.233337402">
  <ele>142.661377</ele>
  <time>2011-11-12T05:36:58Z</time>
  <speed>1.710000</speed>
</trkpt>
<trkpt lat="32.870056152" lon="35.233310699">
  <ele>143.544189</ele>
  <time>2011-11-12T05:37:00Z</time>
  <speed>1.900000</speed>
</trkpt>
<trkpt lat="32.870090485" lon="35.233268738">
  <ele>146.016846</ele>
  <time>2011-11-12T05:37:02Z</time>
  <speed>2.240000</speed>
</trkpt>
<trkpt lat="32.870121002" lon="35.233272552">
  <ele>145.923096</ele>
  <time>2011-11-12T05:37:04Z</time>
  <speed>1.590000</speed>
</trkpt>
<trkpt lat="32.870147705" lon="35.233272552">
  <ele>147.376221</ele>
  <time>2011-11-12T05:37:06Z</time>
  <speed>1.880000</speed>
</trkpt>
<trkpt lat="32.870174408" lon="35.233295441">
  <ele>150.516846</ele>
  <time>2011-11-12T05:37:08Z</time>
  <speed>2.390000</speed>
</trkpt>
<trkpt lat="32.870201111" lon="35.233329773">
  <ele>150.462158</ele>
  <time>2011-11-12T05:37:10Z</time>
  <speed>1.910000</speed>
</trkpt>
<trkpt lat="32.870223999" lon="35.233364105">
  <ele>151.716064</ele>
  <time>2011-11-12T05:37:12Z</time>
  <speed>1.540000</speed>
</trkpt>
<trkpt lat="32.870239258" lon="35.233394623">
  <ele>153.184814</ele>
  <time>2011-11-12T05:37:14Z</time>
  <speed>1.560000</speed>
</trkpt>
<trkpt lat="32.870262146" lon="35.233425140">
  <ele>154.169189</ele>
  <time>2011-11-12T05:37:16Z</time>
  <speed>1.530000</speed>
</trkpt>
<trkpt lat="32.870285034" lon="35.233451843">
  <ele>154.391846</ele>
  <time>2011-11-12T05:37:18Z</time>
  <speed>1.290000</speed>
</trkpt>
<trkpt lat="32.870296478" lon="35.233482361">
  <ele>154.466064</ele>
  <time>2011-11-12T05:37:20Z</time>
  <speed>2.180000</speed>
</trkpt>
<trkpt lat="32.870304108" lon="35.233539581">
  <ele>154.739502</ele>
  <time>2011-11-12T05:37:22Z</time>
  <speed>2.320000</speed>
</trkpt>
<trkpt lat="32.870326996" lon="35.233585358">
  <ele>154.751221</ele>
  <time>2011-11-12T05:37:24Z</time>
  <speed>2.270000</speed>
</trkpt>
<trkpt lat="32.870349884" lon="35.233627319">
  <ele>155.591064</ele>
  <time>2011-11-12T05:37:26Z</time>
  <speed>1.620000</speed>
</trkpt>
<trkpt lat="32.870380402" lon="35.233665466">
  <ele>155.579346</ele>
  <time>2011-11-12T05:37:28Z</time>
  <speed>1.220000</speed>
</trkpt>
<trkpt lat="32.870407104" lon="35.233688354">
  <ele>156.700439</ele>
  <time>2011-11-12T05:37:30Z</time>
  <speed>1.640000</speed>
</trkpt>
<trkpt lat="32.870437622" lon="35.233703613">
  <ele>155.700439</ele>
  <time>2011-11-12T05:37:32Z</time>
  <speed>1.460000</speed>
</trkpt>
<trkpt lat="32.870479584" lon="35.233715057">
  <ele>156.243408</ele>
  <time>2011-11-12T05:37:34Z</time>
  <speed>1.390000</speed>
</trkpt>
<trkpt lat="32.870494843" lon="35.233676910">
  <ele>156.423096</ele>
  <time>2011-11-12T05:37:38Z</time>
  <speed>1.240000</speed>
</trkpt>
<trkpt lat="32.870494843" lon="35.233638763">
  <ele>155.708252</ele>
  <time>2011-11-12T05:37:40Z</time>
  <speed>1.490000</speed>
</trkpt>
<trkpt lat="32.870483398" lon="35.233596802">
  <ele>155.083252</ele>
  <time>2011-11-12T05:37:42Z</time>
  <speed>1.750000</speed>
</trkpt>
<trkpt lat="32.870460510" lon="35.233554840">
  <ele>153.821533</ele>
  <time>2011-11-12T05:37:44Z</time>
  <speed>2.460000</speed>
</trkpt>
<trkpt lat="32.870452881" lon="35.233501434">
  <ele>153.282471</ele>
  <time>2011-11-12T05:37:46Z</time>
  <speed>2.720000</speed>
</trkpt>
<trkpt lat="32.870449066" lon="35.233448029">
  <ele>152.368408</ele>
  <time>2011-11-12T05:37:48Z</time>
  <speed>1.730000</speed>
</trkpt>
<trkpt lat="32.870452881" lon="35.233406067">
  <ele>151.958252</ele>
  <time>2011-11-12T05:37:50Z</time>
  <speed>1.790000</speed>
</trkpt>
<trkpt lat="32.870464325" lon="35.233364105">
  <ele>151.259033</ele>
  <time>2011-11-12T05:37:52Z</time>
  <speed>1.870000</speed>
</trkpt>
<trkpt lat="32.870471954" lon="35.233325958">
  <ele>150.587158</ele>
  <time>2011-11-12T05:37:54Z</time>
  <speed>1.810000</speed>
</trkpt>
<trkpt lat="32.870487213" lon="35.233261108">
  <ele>151.739502</ele>
  <time>2011-11-12T05:37:57Z</time>
  <speed>1.320000</speed>
</trkpt>
<trkpt lat="32.870502472" lon="35.233226776">
  <ele>151.071533</ele>
  <time>2011-11-12T05:37:59Z</time>
  <speed>1.740000</speed>
</trkpt>
<trkpt lat="32.870521545" lon="35.233196259">
  <ele>150.790283</ele>
  <time>2011-11-12T05:38:01Z</time>
  <speed>1.570000</speed>
</trkpt>
<trkpt lat="32.870544434" lon="35.233165741">
  <ele>150.938721</ele>
  <time>2011-11-12T05:38:03Z</time>
  <speed>1.260000</speed>
</trkpt>
<trkpt lat="32.870555878" lon="35.233139038">
  <ele>150.680908</ele>
  <time>2011-11-12T05:38:05Z</time>
  <speed>1.100000</speed>
</trkpt>
<trkpt lat="32.870567322" lon="35.233100891">
  <ele>150.325439</ele>
  <time>2011-11-12T05:38:08Z</time>
  <speed>1.130000</speed>
</trkpt>
<trkpt lat="32.870563507" lon="35.233055115">
  <ele>149.723877</ele>
  <time>2011-11-12T05:38:10Z</time>
  <speed>2.410000</speed>
</trkpt>
<trkpt lat="32.870552063" lon="35.233020782">
  <ele>149.270752</ele>
  <time>2011-11-12T05:38:11Z</time>
  <speed>3.020000</speed>
</trkpt>
<trkpt lat="32.870544434" lon="35.232982635">
  <ele>148.427002</ele>
  <time>2011-11-12T05:38:12Z</time>
  <speed>3.490000</speed>
</trkpt>
<trkpt lat="32.870525360" lon="35.232933044">
  <ele>148.981689</ele>
  <time>2011-11-12T05:38:13Z</time>
  <speed>4.070000</speed>
</trkpt>
<trkpt lat="32.870498657" lon="35.232887268">
  <ele>149.294189</ele>
  <time>2011-11-12T05:38:14Z</time>
  <speed>3.790000</speed>
</trkpt>
<trkpt lat="32.870475769" lon="35.232852936">
  <ele>149.454346</ele>
  <time>2011-11-12T05:38:15Z</time>
  <speed>3.360000</speed>
</trkpt>
<trkpt lat="32.870464325" lon="35.232818604">
  <ele>149.544189</ele>
  <time>2011-11-12T05:38:16Z</time>
  <speed>3.050000</speed>
</trkpt>
<trkpt lat="32.870456696" lon="35.232776642">
  <ele>150.559814</ele>
  <time>2011-11-12T05:38:18Z</time>
  <speed>1.890000</speed>
</trkpt>
<trkpt lat="32.870449066" lon="35.232727051">
  <ele>150.684814</ele>
  <time>2011-11-12T05:38:20Z</time>
  <speed>2.220000</speed>
</trkpt>
<trkpt lat="32.870437622" lon="35.232688904">
  <ele>151.887939</ele>
  <time>2011-11-12T05:38:21Z</time>
  <speed>2.200000</speed>
</trkpt>
<trkpt lat="32.870429993" lon="35.232643127">
  <ele>152.083252</ele>
  <time>2011-11-12T05:38:23Z</time>
  <speed>1.950000</speed>
</trkpt>
<trkpt lat="32.870407104" lon="35.232612610">
  <ele>152.149658</ele>
  <time>2011-11-12T05:38:25Z</time>
  <speed>2.040000</speed>
</trkpt>
<trkpt lat="32.870391846" lon="35.232582092">
  <ele>152.149658</ele>
  <time>2011-11-12T05:38:27Z</time>
  <speed>1.520000</speed>
</trkpt>
<trkpt lat="32.870372772" lon="35.232543945">
  <ele>154.473877</ele>
  <time>2011-11-12T05:38:28Z</time>
  <speed>1.910000</speed>
</trkpt>
<trkpt lat="32.870376587" lon="35.232490540">
  <ele>155.837158</ele>
  <time>2011-11-12T05:38:30Z</time>
  <speed>1.850000</speed>
</trkpt>
<trkpt lat="32.870372772" lon="35.232444763">
  <ele>156.712158</ele>
  <time>2011-11-12T05:38:32Z</time>
  <speed>1.660000</speed>
</trkpt>
<trkpt lat="32.870346069" lon="35.232406616">
  <ele>156.977783</ele>
  <time>2011-11-12T05:38:34Z</time>
  <speed>1.940000</speed>
</trkpt>
<trkpt lat="32.870330811" lon="35.232360840">
  <ele>156.973877</ele>
  <time>2011-11-12T05:38:36Z</time>
  <speed>1.890000</speed>
</trkpt>
<trkpt lat="32.870296478" lon="35.232322693">
  <ele>156.473877</ele>
  <time>2011-11-12T05:38:38Z</time>
  <speed>1.880000</speed>
</trkpt>
<trkpt lat="32.870315552" lon="35.232288361">
  <ele>157.669189</ele>
  <time>2011-11-12T05:38:40Z</time>
  <speed>1.730000</speed>
</trkpt>
<trkpt lat="32.870330811" lon="35.232254028">
  <ele>158.759033</ele>
  <time>2011-11-12T05:38:42Z</time>
  <speed>1.880000</speed>
</trkpt>
<trkpt lat="32.870361328" lon="35.232219696">
  <ele>159.251221</ele>
  <time>2011-11-12T05:38:44Z</time>
  <speed>1.650000</speed>
</trkpt>
<trkpt lat="32.870372772" lon="35.232192993">
  <ele>159.477783</ele>
  <time>2011-11-12T05:38:46Z</time>
  <speed>1.480000</speed>
</trkpt>
<trkpt lat="32.870368958" lon="35.232139587">
  <ele>159.282471</ele>
  <time>2011-11-12T05:38:49Z</time>
  <speed>1.830000</speed>
</trkpt>
<trkpt lat="32.870357513" lon="35.232097626">
  <ele>159.149658</ele>
  <time>2011-11-12T05:38:51Z</time>
  <speed>1.530000</speed>
</trkpt>
<trkpt lat="32.870353699" lon="35.232063293">
  <ele>158.981689</ele>
  <time>2011-11-12T05:38:53Z</time>
  <speed>1.760000</speed>
</trkpt>
<trkpt lat="32.870338440" lon="35.232025146">
  <ele>159.805908</ele>
  <time>2011-11-12T05:38:55Z</time>
  <speed>2.080000</speed>
</trkpt>
<trkpt lat="32.870338440" lon="35.231990814">
  <ele>159.606689</ele>
  <time>2011-11-12T05:38:57Z</time>
  <speed>1.440000</speed>
</trkpt>
<trkpt lat="32.870326996" lon="35.231945038">
  <ele>159.622314</ele>
  <time>2011-11-12T05:38:59Z</time>
  <speed>1.830000</speed>
</trkpt>
<trkpt lat="32.870334625" lon="35.231903076">
  <ele>160.673096</ele>
  <time>2011-11-12T05:39:01Z</time>
  <speed>1.310000</speed>
</trkpt>
<trkpt lat="32.870330811" lon="35.231868744">
  <ele>160.692627</ele>
  <time>2011-11-12T05:39:03Z</time>
  <speed>1.470000</speed>
</trkpt>
<trkpt lat="32.870330811" lon="35.231838226">
  <ele>160.325439</ele>
  <time>2011-11-12T05:39:05Z</time>
  <speed>1.240000</speed>
</trkpt>
<trkpt lat="32.870311737" lon="35.231792450">
  <ele>160.626221</ele>
  <time>2011-11-12T05:39:07Z</time>
  <speed>1.480000</speed>
</trkpt>
<trkpt lat="32.870300293" lon="35.231742859">
  <ele>160.591064</ele>
  <time>2011-11-12T05:39:09Z</time>
  <speed>1.760000</speed>
</trkpt>
<trkpt lat="32.870292664" lon="35.231700897">
  <ele>161.016846</ele>
  <time>2011-11-12T05:39:11Z</time>
  <speed>1.670000</speed>
</trkpt>
<trkpt lat="32.870273590" lon="35.231658936">
  <ele>161.145752</ele>
  <time>2011-11-12T05:39:13Z</time>
  <speed>1.600000</speed>
</trkpt>
<trkpt lat="32.870262146" lon="35.231616974">
  <ele>160.493408</ele>
  <time>2011-11-12T05:39:15Z</time>
  <speed>1.890000</speed>
</trkpt>
<trkpt lat="32.870243073" lon="35.231578827">
  <ele>160.770752</ele>
  <time>2011-11-12T05:39:17Z</time>
  <speed>1.280000</speed>
</trkpt>
<trkpt lat="32.870243073" lon="35.231544495">
  <ele>161.219971</ele>
  <time>2011-11-12T05:39:19Z</time>
  <speed>1.360000</speed>
</trkpt>
<trkpt lat="32.870239258" lon="35.231506348">
  <ele>161.415283</ele>
  <time>2011-11-12T05:39:21Z</time>
  <speed>1.960000</speed>
</trkpt>
<trkpt lat="32.870235443" lon="35.231456757">
  <ele>162.016846</ele>
  <time>2011-11-12T05:39:23Z</time>
  <speed>1.970000</speed>
</trkpt>
<trkpt lat="32.870254517" lon="35.231418610">
  <ele>162.450439</ele>
  <time>2011-11-12T05:39:25Z</time>
  <speed>1.630000</speed>
</trkpt>
<trkpt lat="32.870269775" lon="35.231361389">
  <ele>165.766846</ele>
  <time>2011-11-12T05:39:27Z</time>
  <speed>1.380000</speed>
</trkpt>
<trkpt lat="32.870300293" lon="35.231342316">
  <ele>168.005127</ele>
  <time>2011-11-12T05:39:29Z</time>
  <speed>2.050000</speed>
</trkpt>
<trkpt lat="32.870330811" lon="35.231319427">
  <ele>170.548096</ele>
  <time>2011-11-12T05:39:31Z</time>
  <speed>1.960000</speed>
</trkpt>
<trkpt lat="32.870365143" lon="35.231304169">
  <ele>171.141846</ele>
  <time>2011-11-12T05:39:33Z</time>
  <speed>1.230000</speed>
</trkpt>
<trkpt lat="32.870391846" lon="35.231285095">
  <ele>171.618408</ele>
  <time>2011-11-12T05:39:35Z</time>
  <speed>1.590000</speed>
</trkpt>
<trkpt lat="32.870410919" lon="35.231246948">
  <ele>171.501221</ele>
  <time>2011-11-12T05:39:37Z</time>
  <speed>2.050000</speed>
</trkpt>
<trkpt lat="32.870426178" lon="35.231197357">
  <ele>171.149658</ele>
  <time>2011-11-12T05:39:39Z</time>
  <speed>2.410000</speed>
</trkpt>
<trkpt lat="32.870441437" lon="35.231151581">
  <ele>170.977783</ele>
  <time>2011-11-12T05:39:41Z</time>
  <speed>2.280000</speed>
</trkpt>
<trkpt lat="32.870468140" lon="35.231117249">
  <ele>169.778564</ele>
  <time>2011-11-12T05:39:43Z</time>
  <speed>2.430000</speed>
</trkpt>
<trkpt lat="32.870498657" lon="35.231079102">
  <ele>168.731689</ele>
  <time>2011-11-12T05:39:45Z</time>
  <speed>2.330000</speed>
</trkpt>
<trkpt lat="32.870525360" lon="35.231052399">
  <ele>168.770752</ele>
  <time>2011-11-12T05:39:47Z</time>
  <speed>2.050000</speed>
</trkpt>
<trkpt lat="32.870552063" lon="35.231018066">
  <ele>169.411377</ele>
  <time>2011-11-12T05:39:49Z</time>
  <speed>2.600000</speed>
</trkpt>
<trkpt lat="32.870597839" lon="35.230998993">
  <ele>169.137939</ele>
  <time>2011-11-12T05:39:51Z</time>
  <speed>2.470000</speed>
</trkpt>
<trkpt lat="32.870628357" lon="35.230960846">
  <ele>169.333252</ele>
  <time>2011-11-12T05:39:53Z</time>
  <speed>2.390000</speed>
</trkpt>
<trkpt lat="32.870662689" lon="35.230922699">
  <ele>169.512939</ele>
  <time>2011-11-12T05:39:55Z</time>
  <speed>2.360000</speed>
</trkpt>
<trkpt lat="32.870693207" lon="35.230892181">
  <ele>169.130127</ele>
  <time>2011-11-12T05:39:57Z</time>
  <speed>2.110000</speed>
</trkpt>
<trkpt lat="32.870727539" lon="35.230869293">
  <ele>168.528564</ele>
  <time>2011-11-12T05:39:59Z</time>
  <speed>2.090000</speed>
</trkpt>
<trkpt lat="32.870754242" lon="35.230842590">
  <ele>168.196533</ele>
  <time>2011-11-12T05:40:01Z</time>
  <speed>1.740000</speed>
</trkpt>
<trkpt lat="32.870765686" lon="35.230812073">
  <ele>169.759033</ele>
  <time>2011-11-12T05:40:04Z</time>
  <speed>0.060000</speed>
</trkpt>
<trkpt lat="32.870761871" lon="35.230785370">
  <ele>171.087158</ele>
  <time>2011-11-12T05:41:18Z</time>
</trkpt>
<trkpt lat="32.870773315" lon="35.230743408">
  <ele>172.516846</ele>
  <time>2011-11-12T05:43:59Z</time>
  <speed>1.520000</speed>
</trkpt>
<trkpt lat="32.870765686" lon="35.230701447">
  <ele>173.954346</ele>
  <time>2011-11-12T05:44:01Z</time>
  <speed>2.070000</speed>
</trkpt>
<trkpt lat="32.870773315" lon="35.230640411">
  <ele>173.958252</ele>
  <time>2011-11-12T05:44:03Z</time>
  <speed>2.760000</speed>
</trkpt>
<trkpt lat="32.870777130" lon="35.230606079">
  <ele>173.602783</ele>
  <time>2011-11-12T05:44:04Z</time>
  <speed>3.500000</speed>
</trkpt>
<trkpt lat="32.870788574" lon="35.230560303">
  <ele>173.208252</ele>
  <time>2011-11-12T05:44:05Z</time>
  <speed>4.820000</speed>
</trkpt>
<trkpt lat="32.870803833" lon="35.230506897">
  <ele>173.137939</ele>
  <time>2011-11-12T05:44:06Z</time>
  <speed>5.430000</speed>
</trkpt>
<trkpt lat="32.870803833" lon="35.230457306">
  <ele>172.962158</ele>
  <time>2011-11-12T05:44:07Z</time>
  <speed>4.880000</speed>
</trkpt>
<trkpt lat="32.870807648" lon="35.230400085">
  <ele>172.337158</ele>
  <time>2011-11-12T05:44:08Z</time>
  <speed>5.230000</speed>
</trkpt>
<trkpt lat="32.870811462" lon="35.230346680">
  <ele>172.044189</ele>
  <time>2011-11-12T05:44:09Z</time>
  <speed>6.340000</speed>
</trkpt>
<trkpt lat="32.870815277" lon="35.230285645">
  <ele>171.192627</ele>
  <time>2011-11-12T05:44:10Z</time>
  <speed>5.340000</speed>
</trkpt>
<trkpt lat="32.870807648" lon="35.230236053">
  <ele>170.485596</ele>
  <time>2011-11-12T05:44:11Z</time>
  <speed>4.240000</speed>
</trkpt>
<trkpt lat="32.870792389" lon="35.230197906">
  <ele>169.837158</ele>
  <time>2011-11-12T05:44:12Z</time>
  <speed>3.560000</speed>
</trkpt>
<trkpt lat="32.870784760" lon="35.230159760">
  <ele>168.993408</ele>
  <time>2011-11-12T05:44:13Z</time>
  <speed>2.880000</speed>
</trkpt>
<trkpt lat="32.870777130" lon="35.230121613">
  <ele>168.407471</ele>
  <time>2011-11-12T05:44:14Z</time>
  <speed>3.440000</speed>
</trkpt>
<trkpt lat="32.870765686" lon="35.230083466">
  <ele>167.708252</ele>
  <time>2011-11-12T05:44:15Z</time>
  <speed>3.500000</speed>
</trkpt>
<trkpt lat="32.870754242" lon="35.230045319">
  <ele>167.071533</ele>
  <time>2011-11-12T05:44:16Z</time>
  <speed>3.140000</speed>
</trkpt>
<trkpt lat="32.870735168" lon="35.230007172">
  <ele>166.329346</ele>
  <time>2011-11-12T05:44:17Z</time>
  <speed>2.090000</speed>
</trkpt>
<trkpt lat="32.870719910" lon="35.229972839">
  <ele>164.884033</ele>
  <time>2011-11-12T05:44:19Z</time>
  <speed>0.500000</speed>
</trkpt>
<trkpt lat="32.870704651" lon="35.229949951">
  <ele>164.165283</ele>
  <time>2011-11-12T05:44:25Z</time>
  <speed>0.240000</speed>
</trkpt>
<trkpt lat="32.870677948" lon="35.229911804">
  <ele>164.110596</ele>
  <time>2011-11-12T05:44:28Z</time>
  <speed>1.730000</speed>
</trkpt>
<trkpt lat="32.870662689" lon="35.229881287">
  <ele>164.126221</ele>
  <time>2011-11-12T05:44:29Z</time>
  <speed>3.500000</speed>
</trkpt>
<trkpt lat="32.870670319" lon="35.229831696">
  <ele>163.997314</ele>
  <time>2011-11-12T05:44:30Z</time>
  <speed>3.900000</speed>
</trkpt>
<trkpt lat="32.870658875" lon="35.229774475">
  <ele>163.973877</ele>
  <time>2011-11-12T05:44:31Z</time>
  <speed>4.340000</speed>
</trkpt>
<trkpt lat="32.870643616" lon="35.229713440">
  <ele>163.680908</ele>
  <time>2011-11-12T05:44:32Z</time>
  <speed>5.120000</speed>
</trkpt>
<trkpt lat="32.870635986" lon="35.229640961">
  <ele>163.364502</ele>
  <time>2011-11-12T05:44:33Z</time>
  <speed>5.550000</speed>
</trkpt>
<trkpt lat="32.870628357" lon="35.229560852">
  <ele>163.016846</ele>
  <time>2011-11-12T05:44:34Z</time>
  <speed>5.530000</speed>
</trkpt>
<trkpt lat="32.870628357" lon="35.229492188">
  <ele>162.794189</ele>
  <time>2011-11-12T05:44:35Z</time>
  <speed>5.630000</speed>
</trkpt>
<trkpt lat="32.870628357" lon="35.229412079">
  <ele>162.450439</ele>
  <time>2011-11-12T05:44:36Z</time>
  <speed>6.690000</speed>
</trkpt>
<trkpt lat="32.870628357" lon="35.229324341">
  <ele>162.079346</ele>
  <time>2011-11-12T05:44:37Z</time>
  <speed>6.590000</speed>
</trkpt>
<trkpt lat="32.870616913" lon="35.229251862">
  <ele>161.762939</ele>
  <time>2011-11-12T05:44:38Z</time>
  <speed>5.640000</speed>
</trkpt>
<trkpt lat="32.870605469" lon="35.229187012">
  <ele>161.673096</ele>
  <time>2011-11-12T05:44:39Z</time>
  <speed>6.150000</speed>
</trkpt>
<trkpt lat="32.870601654" lon="35.229129791">
  <ele>161.407471</ele>
  <time>2011-11-12T05:44:40Z</time>
  <speed>5.350000</speed>
</trkpt>
<trkpt lat="32.870597839" lon="35.229057312">
  <ele>160.985596</ele>
  <time>2011-11-12T05:44:41Z</time>
  <speed>5.490000</speed>
</trkpt>
<trkpt lat="32.870574951" lon="35.228981018">
  <ele>160.708252</ele>
  <time>2011-11-12T05:44:42Z</time>
  <speed>5.190000</speed>
</trkpt>
<trkpt lat="32.870559692" lon="35.228923798">
  <ele>160.208252</ele>
  <time>2011-11-12T05:44:43Z</time>
  <speed>5.320000</speed>
</trkpt>
<trkpt lat="32.870567322" lon="35.228855133">
  <ele>159.872314</ele>
  <time>2011-11-12T05:44:44Z</time>
  <speed>6.200000</speed>
</trkpt>
<trkpt lat="32.870586395" lon="35.228797913">
  <ele>159.485596</ele>
  <time>2011-11-12T05:44:45Z</time>
  <speed>5.380000</speed>
</trkpt>
<trkpt lat="32.870605469" lon="35.228752136">
  <ele>159.247314</ele>
  <time>2011-11-12T05:44:46Z</time>
  <speed>4.890000</speed>
</trkpt>
<trkpt lat="32.870639801" lon="35.228706360">
  <ele>159.387939</ele>
  <time>2011-11-12T05:44:47Z</time>
  <speed>4.880000</speed>
</trkpt>
<trkpt lat="32.870670319" lon="35.228672028">
  <ele>159.567627</ele>
  <time>2011-11-12T05:44:48Z</time>
  <speed>4.570000</speed>
</trkpt>
<trkpt lat="32.870704651" lon="35.228649139">
  <ele>159.098877</ele>
  <time>2011-11-12T05:44:49Z</time>
  <speed>4.740000</speed>
</trkpt>
<trkpt lat="32.870746613" lon="35.228630066">
  <ele>158.645752</ele>
  <time>2011-11-12T05:44:50Z</time>
  <speed>4.670000</speed>
</trkpt>
<trkpt lat="32.870777130" lon="35.228614807">
  <ele>157.727783</ele>
  <time>2011-11-12T05:44:51Z</time>
  <speed>4.000000</speed>
</trkpt>
<trkpt lat="32.870811462" lon="35.228603363">
  <ele>156.950439</ele>
  <time>2011-11-12T05:44:52Z</time>
  <speed>4.160000</speed>
</trkpt>
<trkpt lat="32.870853424" lon="35.228565216">
  <ele>159.036377</ele>
  <time>2011-11-12T05:44:53Z</time>
  <speed>4.730000</speed>
</trkpt>
<trkpt lat="32.870899200" lon="35.228565216">
  <ele>158.391846</ele>
  <time>2011-11-12T05:44:54Z</time>
  <speed>5.470000</speed>
</trkpt>
<trkpt lat="32.870964050" lon="35.228569031">
  <ele>157.512939</ele>
  <time>2011-11-12T05:44:55Z</time>
  <speed>5.520000</speed>
</trkpt>
<trkpt lat="32.871017456" lon="35.228549957">
  <ele>156.813721</ele>
  <time>2011-11-12T05:44:56Z</time>
  <speed>5.840000</speed>
</trkpt>
<trkpt lat="32.871078491" lon="35.228515625">
  <ele>156.645752</ele>
  <time>2011-11-12T05:44:57Z</time>
  <speed>6.750000</speed>
</trkpt>
<trkpt lat="32.871131897" lon="35.228477478">
  <ele>155.587158</ele>
  <time>2011-11-12T05:44:58Z</time>
  <speed>6.510000</speed>
</trkpt>
<trkpt lat="32.871208191" lon="35.228427887">
  <ele>154.044189</ele>
  <time>2011-11-12T05:44:59Z</time>
  <speed>5.600000</speed>
</trkpt>
<trkpt lat="32.871242523" lon="35.228408813">
  <ele>153.360596</ele>
  <time>2011-11-12T05:45:00Z</time>
  <speed>4.250000</speed>
</trkpt>
<trkpt lat="32.871284485" lon="35.228427887">
  <ele>152.352783</ele>
  <time>2011-11-12T05:45:02Z</time>
  <speed>2.750000</speed>
</trkpt>
<trkpt lat="32.871299744" lon="35.228466034">
  <ele>152.278564</ele>
  <time>2011-11-12T05:45:03Z</time>
  <speed>4.330000</speed>
</trkpt>
<trkpt lat="32.871303558" lon="35.228519440">
  <ele>151.348877</ele>
  <time>2011-11-12T05:45:04Z</time>
  <speed>4.280000</speed>
</trkpt>
<trkpt lat="32.871307373" lon="35.228569031">
  <ele>151.157471</ele>
  <time>2011-11-12T05:45:05Z</time>
  <speed>3.620000</speed>
</trkpt>
<trkpt lat="32.871330261" lon="35.228607178">
  <ele>150.790283</ele>
  <time>2011-11-12T05:45:06Z</time>
  <speed>4.250000</speed>
</trkpt>
<trkpt lat="32.871368408" lon="35.228656769">
  <ele>150.200439</ele>
  <time>2011-11-12T05:45:07Z</time>
  <speed>5.480000</speed>
</trkpt>
<trkpt lat="32.871402740" lon="35.228710175">
  <ele>149.520752</ele>
  <time>2011-11-12T05:45:08Z</time>
  <speed>5.980000</speed>
</trkpt>
<trkpt lat="32.871429443" lon="35.228755951">
  <ele>148.895752</ele>
  <time>2011-11-12T05:45:09Z</time>
  <speed>5.280000</speed>
</trkpt>
<trkpt lat="32.871482849" lon="35.228786469">
  <ele>150.739502</ele>
  <time>2011-11-12T05:45:11Z</time>
  <speed>3.400000</speed>
</trkpt>
<trkpt lat="32.871536255" lon="35.228786469">
  <ele>150.516846</ele>
  <time>2011-11-12T05:45:12Z</time>
  <speed>4.590000</speed>
</trkpt>
<trkpt lat="32.871635437" lon="35.228790283">
  <ele>150.341064</ele>
  <time>2011-11-12T05:45:13Z</time>
  <speed>5.700000</speed>
</trkpt>
<trkpt lat="32.871692657" lon="35.228786469">
  <ele>149.813721</ele>
  <time>2011-11-12T05:45:14Z</time>
  <speed>5.150000</speed>
</trkpt>
<trkpt lat="32.871742249" lon="35.228763580">
  <ele>149.204346</ele>
  <time>2011-11-12T05:45:15Z</time>
  <speed>4.070000</speed>
</trkpt>
<trkpt lat="32.871776581" lon="35.228736877">
  <ele>148.134033</ele>
  <time>2011-11-12T05:45:16Z</time>
  <speed>4.120000</speed>
</trkpt>
<trkpt lat="32.871803284" lon="35.228698730">
  <ele>147.067627</ele>
  <time>2011-11-12T05:45:17Z</time>
  <speed>4.200000</speed>
</trkpt>
<trkpt lat="32.871810913" lon="35.228652954">
  <ele>145.704346</ele>
  <time>2011-11-12T05:45:18Z</time>
  <speed>4.660000</speed>
</trkpt>
<trkpt lat="32.871841431" lon="35.228626251">
  <ele>145.618408</ele>
  <time>2011-11-12T05:45:19Z</time>
  <speed>3.360000</speed>
</trkpt>
<trkpt lat="32.871875763" lon="35.228599548">
  <ele>144.509033</ele>
  <time>2011-11-12T05:45:20Z</time>
  <speed>4.010000</speed>
</trkpt>
<trkpt lat="32.871913910" lon="35.228569031">
  <ele>144.040283</ele>
  <time>2011-11-12T05:45:21Z</time>
  <speed>4.410000</speed>
</trkpt>
<trkpt lat="32.871948242" lon="35.228519440">
  <ele>145.684814</ele>
  <time>2011-11-12T05:45:22Z</time>
  <speed>4.460000</speed>
</trkpt>
<trkpt lat="32.871994019" lon="35.228504181">
  <ele>145.364502</ele>
  <time>2011-11-12T05:45:23Z</time>
  <speed>5.170000</speed>
</trkpt>
<trkpt lat="32.872058868" lon="35.228488922">
  <ele>144.684814</ele>
  <time>2011-11-12T05:45:24Z</time>
  <speed>6.960000</speed>
</trkpt>
<trkpt lat="32.872119904" lon="35.228473663">
  <ele>143.884033</ele>
  <time>2011-11-12T05:45:25Z</time>
  <speed>7.440000</speed>
</trkpt>
<trkpt lat="32.872196198" lon="35.228462219">
  <ele>143.696533</ele>
  <time>2011-11-12T05:45:26Z</time>
  <speed>7.220000</speed>
</trkpt>
<trkpt lat="32.872261047" lon="35.228427887">
  <ele>143.005127</ele>
  <time>2011-11-12T05:45:27Z</time>
  <speed>8.290000</speed>
</trkpt>
<trkpt lat="32.872325897" lon="35.228370667">
  <ele>142.759033</ele>
  <time>2011-11-12T05:45:28Z</time>
  <speed>8.560000</speed>
</trkpt>
<trkpt lat="32.872390747" lon="35.228302002">
  <ele>142.188721</ele>
  <time>2011-11-12T05:45:29Z</time>
  <speed>8.660000</speed>
</trkpt>
<trkpt lat="32.872451782" lon="35.228221893">
  <ele>140.434814</ele>
  <time>2011-11-12T05:45:30Z</time>
  <speed>8.800000</speed>
</trkpt>
<trkpt lat="32.872524261" lon="35.228134155">
  <ele>138.524658</ele>
  <time>2011-11-12T05:45:31Z</time>
  <speed>9.070000</speed>
</trkpt>
<trkpt lat="32.872577667" lon="35.228050232">
  <ele>136.930908</ele>
  <time>2011-11-12T05:45:32Z</time>
  <speed>8.700000</speed>
</trkpt>
<trkpt lat="32.872619629" lon="35.227966309">
  <ele>136.251221</ele>
  <time>2011-11-12T05:45:33Z</time>
  <speed>8.370000</speed>
</trkpt>
<trkpt lat="32.872657776" lon="35.227897644">
  <ele>135.180908</ele>
  <time>2011-11-12T05:45:34Z</time>
  <speed>6.940000</speed>
</trkpt>
<trkpt lat="32.872703552" lon="35.227848053">
  <ele>134.376221</ele>
  <time>2011-11-12T05:45:35Z</time>
  <speed>7.060000</speed>
</trkpt>
<trkpt lat="32.872745514" lon="35.227794647">
  <ele>133.747314</ele>
  <time>2011-11-12T05:45:36Z</time>
  <speed>6.700000</speed>
</trkpt>
<trkpt lat="32.872776031" lon="35.227718353">
  <ele>132.645752</ele>
  <time>2011-11-12T05:45:37Z</time>
  <speed>6.830000</speed>
</trkpt>
<trkpt lat="32.872798920" lon="35.227653503">
  <ele>131.719971</ele>
  <time>2011-11-12T05:45:38Z</time>
  <speed>5.820000</speed>
</trkpt>
<trkpt lat="32.872814178" lon="35.227592468">
  <ele>130.895752</ele>
  <time>2011-11-12T05:45:39Z</time>
  <speed>5.450000</speed>
</trkpt>
<trkpt lat="32.872829437" lon="35.227531433">
  <ele>129.739502</ele>
  <time>2011-11-12T05:45:40Z</time>
  <speed>5.810000</speed>
</trkpt>
<trkpt lat="32.872844696" lon="35.227462769">
  <ele>128.626221</ele>
  <time>2011-11-12T05:45:41Z</time>
  <speed>6.000000</speed>
</trkpt>
<trkpt lat="32.872875214" lon="35.227397919">
  <ele>127.748657</ele>
  <time>2011-11-12T05:45:42Z</time>
  <speed>5.910000</speed>
</trkpt>
<trkpt lat="32.872875214" lon="35.227325439">
  <ele>128.622314</ele>
  <time>2011-11-12T05:45:43Z</time>
  <speed>5.630000</speed>
</trkpt>
<trkpt lat="32.872875214" lon="35.227264404">
  <ele>127.793579</ele>
  <time>2011-11-12T05:45:44Z</time>
  <speed>5.440000</speed>
</trkpt>
<trkpt lat="32.872871399" lon="35.227199554">
  <ele>127.361938</ele>
  <time>2011-11-12T05:45:45Z</time>
  <speed>5.270000</speed>
</trkpt>
<trkpt lat="32.872875214" lon="35.227146149">
  <ele>127.012329</ele>
  <time>2011-11-12T05:45:46Z</time>
  <speed>4.590000</speed>
</trkpt>
<trkpt lat="32.872886658" lon="35.227092743">
  <ele>126.315063</ele>
  <time>2011-11-12T05:45:47Z</time>
  <speed>4.360000</speed>
</trkpt>
<trkpt lat="32.872890472" lon="35.227039337">
  <ele>126.473267</ele>
  <time>2011-11-12T05:45:48Z</time>
  <speed>4.290000</speed>
</trkpt>
<trkpt lat="32.872901917" lon="35.226993561">
  <ele>126.156860</ele>
  <time>2011-11-12T05:45:49Z</time>
  <speed>4.200000</speed>
</trkpt>
<trkpt lat="32.872901917" lon="35.226940155">
  <ele>126.213501</ele>
  <time>2011-11-12T05:45:50Z</time>
  <speed>4.270000</speed>
</trkpt>
<trkpt lat="32.872920990" lon="35.226837158">
  <ele>131.438721</ele>
  <time>2011-11-12T05:45:51Z</time>
  <speed>4.750000</speed>
</trkpt>
<trkpt lat="32.872943878" lon="35.226791382">
  <ele>132.348877</ele>
  <time>2011-11-12T05:45:52Z</time>
  <speed>5.200000</speed>
</trkpt>
<trkpt lat="32.872970581" lon="35.226741791">
  <ele>132.098877</ele>
  <time>2011-11-12T05:45:53Z</time>
  <speed>6.020000</speed>
</trkpt>
<trkpt lat="32.873012543" lon="35.226692200">
  <ele>131.368408</ele>
  <time>2011-11-12T05:45:54Z</time>
  <speed>7.430000</speed>
</trkpt>
<trkpt lat="32.873065948" lon="35.226627350">
  <ele>131.098877</ele>
  <time>2011-11-12T05:45:55Z</time>
  <speed>8.500000</speed>
</trkpt>
<trkpt lat="32.873100281" lon="35.226543427">
  <ele>130.743408</ele>
  <time>2011-11-12T05:45:56Z</time>
  <speed>8.140000</speed>
</trkpt>
<trkpt lat="32.873123169" lon="35.226455688">
  <ele>130.348877</ele>
  <time>2011-11-12T05:45:57Z</time>
  <speed>8.740000</speed>
</trkpt>
<trkpt lat="32.873153687" lon="35.226360321">
  <ele>129.618408</ele>
  <time>2011-11-12T05:45:58Z</time>
  <speed>8.590000</speed>
</trkpt>
<trkpt lat="32.873184204" lon="35.226272583">
  <ele>129.329346</ele>
  <time>2011-11-12T05:45:59Z</time>
  <speed>8.560000</speed>
</trkpt>
<trkpt lat="32.873218536" lon="35.226188660">
  <ele>128.520752</ele>
  <time>2011-11-12T05:46:00Z</time>
  <speed>8.460000</speed>
</trkpt>
<trkpt lat="32.873252869" lon="35.226104736">
  <ele>128.598877</ele>
  <time>2011-11-12T05:46:01Z</time>
  <speed>8.510000</speed>
</trkpt>
<trkpt lat="32.873294830" lon="35.226016998">
  <ele>128.423096</ele>
  <time>2011-11-12T05:46:02Z</time>
  <speed>9.400000</speed>
</trkpt>
<trkpt lat="32.873325348" lon="35.225917816">
  <ele>128.052002</ele>
  <time>2011-11-12T05:46:03Z</time>
  <speed>9.660000</speed>
</trkpt>
<trkpt lat="32.873355865" lon="35.225822449">
  <ele>127.818970</ele>
  <time>2011-11-12T05:46:04Z</time>
  <speed>8.820000</speed>
</trkpt>
<trkpt lat="32.873371124" lon="35.225730896">
  <ele>127.588501</ele>
  <time>2011-11-12T05:46:05Z</time>
  <speed>8.830000</speed>
</trkpt>
<trkpt lat="32.873378754" lon="35.225635529">
  <ele>127.416626</ele>
  <time>2011-11-12T05:46:06Z</time>
  <speed>8.490000</speed>
</trkpt>
<trkpt lat="32.873390198" lon="35.225540161">
  <ele>127.647095</ele>
  <time>2011-11-12T05:46:07Z</time>
  <speed>8.630000</speed>
</trkpt>
<trkpt lat="32.873401642" lon="35.225448608">
  <ele>127.496704</ele>
  <time>2011-11-12T05:46:08Z</time>
  <speed>8.180000</speed>
</trkpt>
<trkpt lat="32.873416901" lon="35.225364685">
  <ele>126.996704</ele>
  <time>2011-11-12T05:46:09Z</time>
  <speed>7.770000</speed>
</trkpt>
<trkpt lat="32.873428345" lon="35.225280762">
  <ele>126.856079</ele>
  <time>2011-11-12T05:46:10Z</time>
  <speed>8.070000</speed>
</trkpt>
<trkpt lat="32.873420715" lon="35.225200653">
  <ele>126.621704</ele>
  <time>2011-11-12T05:46:11Z</time>
  <speed>7.880000</speed>
</trkpt>
<trkpt lat="32.873416901" lon="35.225112915">
  <ele>126.070923</ele>
  <time>2011-11-12T05:46:12Z</time>
  <speed>8.400000</speed>
</trkpt>
<trkpt lat="32.873409271" lon="35.225021362">
  <ele>126.096313</ele>
  <time>2011-11-12T05:46:13Z</time>
  <speed>8.740000</speed>
</trkpt>
<trkpt lat="32.873413086" lon="35.224929810">
  <ele>125.684204</ele>
  <time>2011-11-12T05:46:14Z</time>
  <speed>8.120000</speed>
</trkpt>
<trkpt lat="32.873424530" lon="35.224853516">
  <ele>125.070923</ele>
  <time>2011-11-12T05:46:15Z</time>
  <speed>6.980000</speed>
</trkpt>
<trkpt lat="32.873470306" lon="35.224784851">
  <ele>124.426392</ele>
  <time>2011-11-12T05:46:16Z</time>
  <speed>7.520000</speed>
</trkpt>
<trkpt lat="32.873500824" lon="35.224716187">
  <ele>123.830688</ele>
  <time>2011-11-12T05:46:17Z</time>
  <speed>7.560000</speed>
</trkpt>
<trkpt lat="32.873519897" lon="35.224643707">
  <ele>122.815063</ele>
  <time>2011-11-12T05:46:18Z</time>
  <speed>7.090000</speed>
</trkpt>
<trkpt lat="32.873516083" lon="35.224571228">
  <ele>122.248657</ele>
  <time>2011-11-12T05:46:19Z</time>
  <speed>6.610000</speed>
</trkpt>
<trkpt lat="32.873516083" lon="35.224498749">
  <ele>121.897095</ele>
  <time>2011-11-12T05:46:20Z</time>
  <speed>6.580000</speed>
</trkpt>
<trkpt lat="32.873512268" lon="35.224426270">
  <ele>121.563110</ele>
  <time>2011-11-12T05:46:21Z</time>
  <speed>6.670000</speed>
</trkpt>
<trkpt lat="32.873519897" lon="35.224361420">
  <ele>120.766235</ele>
  <time>2011-11-12T05:46:22Z</time>
  <speed>5.230000</speed>
</trkpt>
<trkpt lat="32.873531342" lon="35.224308014">
  <ele>120.026001</ele>
  <time>2011-11-12T05:46:23Z</time>
  <speed>5.130000</speed>
</trkpt>
<trkpt lat="32.873535156" lon="35.224262238">
  <ele>119.166626</ele>
  <time>2011-11-12T05:46:24Z</time>
  <speed>4.150000</speed>
</trkpt>
<trkpt lat="32.873561859" lon="35.224224091">
  <ele>118.895142</ele>
  <time>2011-11-12T05:46:25Z</time>
  <speed>4.780000</speed>
</trkpt>
<trkpt lat="32.873596191" lon="35.224197388">
  <ele>118.020142</ele>
  <time>2011-11-12T05:46:26Z</time>
  <speed>4.560000</speed>
</trkpt>
<trkpt lat="32.873626709" lon="35.224216461">
  <ele>116.283813</ele>
  <time>2011-11-12T05:46:27Z</time>
  <speed>3.910000</speed>
</trkpt>
<trkpt lat="32.873653412" lon="35.224243164">
  <ele>115.652954</ele>
  <time>2011-11-12T05:46:28Z</time>
  <speed>3.850000</speed>
</trkpt>
<trkpt lat="32.873680115" lon="35.224269867">
  <ele>114.910767</ele>
  <time>2011-11-12T05:46:29Z</time>
  <speed>4.180000</speed>
</trkpt>
<trkpt lat="32.873691559" lon="35.224315643">
  <ele>113.395142</ele>
  <time>2011-11-12T05:46:30Z</time>
  <speed>4.150000</speed>
</trkpt>
<trkpt lat="32.873691559" lon="35.224369049">
  <ele>112.608032</ele>
  <time>2011-11-12T05:46:31Z</time>
  <speed>4.660000</speed>
</trkpt>
<trkpt lat="32.873691559" lon="35.224426270">
  <ele>111.906860</ele>
  <time>2011-11-12T05:46:32Z</time>
  <speed>4.780000</speed>
</trkpt>
<trkpt lat="32.873687744" lon="35.224483490">
  <ele>111.090454</ele>
  <time>2011-11-12T05:46:33Z</time>
  <speed>5.030000</speed>
</trkpt>
<trkpt lat="32.873691559" lon="35.224544525">
  <ele>110.926392</ele>
  <time>2011-11-12T05:46:34Z</time>
  <speed>5.410000</speed>
</trkpt>
<trkpt lat="32.873691559" lon="35.224601746">
  <ele>109.930298</ele>
  <time>2011-11-12T05:46:35Z</time>
  <speed>4.450000</speed>
</trkpt>
<trkpt lat="32.873691559" lon="35.224655151">
  <ele>109.303345</ele>
  <time>2011-11-12T05:46:36Z</time>
  <speed>4.220000</speed>
</trkpt>
<trkpt lat="32.873691559" lon="35.224689484">
  <ele>109.600220</ele>
  <time>2011-11-12T05:46:37Z</time>
  <speed>3.570000</speed>
</trkpt>
<trkpt lat="32.873703003" lon="35.224727631">
  <ele>108.902954</ele>
  <time>2011-11-12T05:46:38Z</time>
  <speed>3.160000</speed>
</trkpt>
<trkpt lat="32.873718262" lon="35.224758148">
  <ele>107.965454</ele>
  <time>2011-11-12T05:46:39Z</time>
  <speed>3.590000</speed>
</trkpt>
<trkpt lat="32.873729706" lon="35.224792480">
  <ele>107.899048</ele>
  <time>2011-11-12T05:46:40Z</time>
  <speed>3.190000</speed>
</trkpt>
<trkpt lat="32.873733521" lon="35.224830627">
  <ele>107.086548</ele>
  <time>2011-11-12T05:46:41Z</time>
  <speed>3.770000</speed>
</trkpt>
<trkpt lat="32.873729706" lon="35.224884033">
  <ele>107.379517</ele>
  <time>2011-11-12T05:46:42Z</time>
  <speed>4.080000</speed>
</trkpt>
<trkpt lat="32.873733521" lon="35.224945068">
  <ele>107.111938</ele>
  <time>2011-11-12T05:46:43Z</time>
  <speed>4.170000</speed>
</trkpt>
<trkpt lat="32.873741150" lon="35.224990845">
  <ele>106.096313</ele>
  <time>2011-11-12T05:46:44Z</time>
  <speed>3.910000</speed>
</trkpt>
<trkpt lat="32.873741150" lon="35.225032806">
  <ele>105.986938</ele>
  <time>2011-11-12T05:46:45Z</time>
  <speed>3.520000</speed>
</trkpt>
<trkpt lat="32.873748779" lon="35.225074768">
  <ele>105.156860</ele>
  <time>2011-11-12T05:46:47Z</time>
  <speed>0.700000</speed>
</trkpt>
<trkpt lat="32.873813629" lon="35.225059509">
  <ele>104.051392</ele>
  <time>2011-11-12T05:46:49Z</time>
  <speed>3.440000</speed>
</trkpt>
<trkpt lat="32.873851776" lon="35.225017548">
  <ele>102.635376</ele>
  <time>2011-11-12T05:46:50Z</time>
  <speed>4.240000</speed>
</trkpt>
<trkpt lat="32.873882294" lon="35.224983215">
  <ele>102.295532</ele>
  <time>2011-11-12T05:46:51Z</time>
  <speed>3.970000</speed>
</trkpt>
<trkpt lat="32.873928070" lon="35.224945068">
  <ele>100.338501</ele>
  <time>2011-11-12T05:46:52Z</time>
  <speed>4.160000</speed>
</trkpt>
<trkpt lat="32.873950958" lon="35.224910736">
  <ele>99.131470</ele>
  <time>2011-11-12T05:46:53Z</time>
  <speed>4.090000</speed>
</trkpt>
<trkpt lat="32.873977661" lon="35.224868774">
  <ele>99.055298</ele>
  <time>2011-11-12T05:46:54Z</time>
  <speed>3.850000</speed>
</trkpt>
<trkpt lat="32.874000549" lon="35.224830627">
  <ele>98.322876</ele>
  <time>2011-11-12T05:46:55Z</time>
  <speed>4.400000</speed>
</trkpt>
<trkpt lat="32.874023438" lon="35.224781036">
  <ele>97.590454</ele>
  <time>2011-11-12T05:46:56Z</time>
  <speed>4.490000</speed>
</trkpt>
<trkpt lat="32.874050140" lon="35.224727631">
  <ele>96.053345</ele>
  <time>2011-11-12T05:46:57Z</time>
  <speed>4.890000</speed>
</trkpt>
<trkpt lat="32.874073029" lon="35.224678040">
  <ele>95.395142</ele>
  <time>2011-11-12T05:46:58Z</time>
  <speed>4.930000</speed>
</trkpt>
<trkpt lat="32.874095917" lon="35.224632263">
  <ele>94.346313</ele>
  <time>2011-11-12T05:46:59Z</time>
  <speed>4.580000</speed>
</trkpt>
<trkpt lat="32.874103546" lon="35.224578857">
  <ele>93.996704</ele>
  <time>2011-11-12T05:47:00Z</time>
  <speed>4.890000</speed>
</trkpt>
<trkpt lat="32.874099731" lon="35.224521637">
  <ele>93.143188</ele>
  <time>2011-11-12T05:47:01Z</time>
  <speed>4.910000</speed>
</trkpt>
<trkpt lat="32.874092102" lon="35.224472046">
  <ele>92.473267</ele>
  <time>2011-11-12T05:47:02Z</time>
  <speed>4.590000</speed>
</trkpt>
<trkpt lat="32.874095917" lon="35.224414825">
  <ele>91.899048</ele>
  <time>2011-11-12T05:47:03Z</time>
  <speed>5.100000</speed>
</trkpt>
<trkpt lat="32.874095917" lon="35.224357605">
  <ele>91.442017</ele>
  <time>2011-11-12T05:47:04Z</time>
  <speed>4.810000</speed>
</trkpt>
<trkpt lat="32.874095917" lon="35.224300385">
  <ele>90.859985</ele>
  <time>2011-11-12T05:47:05Z</time>
  <speed>5.120000</speed>
</trkpt>
<trkpt lat="32.874095917" lon="35.224243164">
  <ele>90.340454</ele>
  <time>2011-11-12T05:47:06Z</time>
  <speed>4.800000</speed>
</trkpt>
<trkpt lat="32.874099731" lon="35.224189758">
  <ele>89.791626</ele>
  <time>2011-11-12T05:47:07Z</time>
  <speed>3.880000</speed>
</trkpt>
<trkpt lat="32.874107361" lon="35.224147797">
  <ele>89.649048</ele>
  <time>2011-11-12T05:47:08Z</time>
  <speed>3.040000</speed>
</trkpt>
<trkpt lat="32.874122620" lon="35.224113464">
  <ele>89.391235</ele>
  <time>2011-11-12T05:47:09Z</time>
  <speed>3.460000</speed>
</trkpt>
<trkpt lat="32.874141693" lon="35.224082947">
  <ele>89.188110</ele>
  <time>2011-11-12T05:47:10Z</time>
  <speed>3.800000</speed>
</trkpt>
<trkpt lat="32.874160767" lon="35.224044800">
  <ele>88.555298</ele>
  <time>2011-11-12T05:47:11Z</time>
  <speed>4.710000</speed>
</trkpt>
<trkpt lat="32.874183655" lon="35.223995209">
  <ele>88.494751</ele>
  <time>2011-11-12T05:47:12Z</time>
  <speed>5.200000</speed>
</trkpt>
<trkpt lat="32.874221802" lon="35.223937988">
  <ele>87.578735</ele>
  <time>2011-11-12T05:47:13Z</time>
  <speed>5.930000</speed>
</trkpt>
<trkpt lat="32.874256134" lon="35.223892212">
  <ele>87.221313</ele>
  <time>2011-11-12T05:47:14Z</time>
  <speed>5.500000</speed>
</trkpt>
<trkpt lat="32.874282837" lon="35.223842621">
  <ele>87.022095</ele>
  <time>2011-11-12T05:47:15Z</time>
  <speed>4.520000</speed>
</trkpt>
<trkpt lat="32.874305725" lon="35.223800659">
  <ele>86.713501</ele>
  <time>2011-11-12T05:47:16Z</time>
  <speed>4.160000</speed>
</trkpt>
<trkpt lat="32.874320984" lon="35.223758698">
  <ele>86.195923</ele>
  <time>2011-11-12T05:47:17Z</time>
  <speed>3.850000</speed>
</trkpt>
<trkpt lat="32.874320984" lon="35.223709106">
  <ele>85.205688</ele>
  <time>2011-11-12T05:47:18Z</time>
  <speed>4.690000</speed>
</trkpt>
<trkpt lat="32.874324799" lon="35.223644257">
  <ele>83.797485</ele>
  <time>2011-11-12T05:47:19Z</time>
  <speed>4.330000</speed>
</trkpt>
<trkpt lat="32.874317169" lon="35.223587036">
  <ele>83.303345</ele>
  <time>2011-11-12T05:47:20Z</time>
  <speed>4.940000</speed>
</trkpt>
<trkpt lat="32.874317169" lon="35.223526001">
  <ele>82.813110</ele>
  <time>2011-11-12T05:47:21Z</time>
  <speed>4.340000</speed>
</trkpt>
<trkpt lat="32.874317169" lon="35.223487854">
  <ele>82.024048</ele>
  <time>2011-11-12T05:47:22Z</time>
  <speed>3.460000</speed>
</trkpt>
<trkpt lat="32.874313354" lon="35.223438263">
  <ele>81.568970</ele>
  <time>2011-11-12T05:47:23Z</time>
  <speed>3.620000</speed>
</trkpt>
<trkpt lat="32.874320984" lon="35.223400116">
  <ele>81.231079</ele>
  <time>2011-11-12T05:47:24Z</time>
  <speed>3.720000</speed>
</trkpt>
<trkpt lat="32.874328613" lon="35.223350525">
  <ele>80.693970</ele>
  <time>2011-11-12T05:47:25Z</time>
  <speed>4.140000</speed>
</trkpt>
<trkpt lat="32.874340057" lon="35.223293304">
  <ele>80.252563</ele>
  <time>2011-11-12T05:47:26Z</time>
  <speed>4.480000</speed>
</trkpt>
<trkpt lat="32.874355316" lon="35.223243713">
  <ele>80.170532</ele>
  <time>2011-11-12T05:47:27Z</time>
  <speed>4.200000</speed>
</trkpt>
<trkpt lat="32.874374390" lon="35.223194122">
  <ele>80.320923</ele>
  <time>2011-11-12T05:47:28Z</time>
  <speed>3.430000</speed>
</trkpt>
<trkpt lat="32.874389648" lon="35.223152161">
  <ele>79.572876</ele>
  <time>2011-11-12T05:47:29Z</time>
  <speed>4.210000</speed>
</trkpt>
<trkpt lat="32.874408722" lon="35.223110199">
  <ele>78.645142</ele>
  <time>2011-11-12T05:47:30Z</time>
  <speed>3.860000</speed>
</trkpt>
<trkpt lat="32.874427795" lon="35.223075867">
  <ele>78.506470</ele>
  <time>2011-11-12T05:47:31Z</time>
  <speed>3.830000</speed>
</trkpt>
<trkpt lat="32.874446869" lon="35.223037720">
  <ele>77.846313</ele>
  <time>2011-11-12T05:47:32Z</time>
  <speed>3.540000</speed>
</trkpt>
<trkpt lat="32.874477386" lon="35.222980499">
  <ele>81.193970</ele>
  <time>2011-11-12T05:47:33Z</time>
  <speed>3.780000</speed>
</trkpt>
<trkpt lat="32.874519348" lon="35.223003387">
  <ele>81.526001</ele>
  <time>2011-11-12T05:47:34Z</time>
  <speed>5.500000</speed>
</trkpt>
<trkpt lat="32.874553680" lon="35.223041534">
  <ele>81.260376</ele>
  <time>2011-11-12T05:47:35Z</time>
  <speed>5.290000</speed>
</trkpt>
<trkpt lat="32.874576569" lon="35.223091125">
  <ele>80.748657</ele>
  <time>2011-11-12T05:47:36Z</time>
  <speed>5.410000</speed>
</trkpt>
<trkpt lat="32.874584198" lon="35.223140717">
  <ele>80.988892</ele>
  <time>2011-11-12T05:47:37Z</time>
  <speed>5.950000</speed>
</trkpt>
<trkpt lat="32.874588013" lon="35.223182678">
  <ele>81.895142</ele>
  <time>2011-11-12T05:47:38Z</time>
  <speed>5.410000</speed>
</trkpt>
<trkpt lat="32.874599457" lon="35.223243713">
  <ele>81.461548</ele>
  <time>2011-11-12T05:47:39Z</time>
  <speed>5.520000</speed>
</trkpt>
<trkpt lat="32.874610901" lon="35.223308563">
  <ele>81.168579</ele>
  <time>2011-11-12T05:47:40Z</time>
  <speed>6.110000</speed>
</trkpt>
<trkpt lat="32.874618530" lon="35.223365784">
  <ele>81.061157</ele>
  <time>2011-11-12T05:47:41Z</time>
  <speed>5.840000</speed>
</trkpt>
<trkpt lat="32.874629974" lon="35.223430634">
  <ele>80.506470</ele>
  <time>2011-11-12T05:47:42Z</time>
  <speed>5.580000</speed>
</trkpt>
<trkpt lat="32.874633789" lon="35.223487854">
  <ele>80.420532</ele>
  <time>2011-11-12T05:47:43Z</time>
  <speed>6.400000</speed>
</trkpt>
<trkpt lat="32.874629974" lon="35.223567963">
  <ele>79.449829</ele>
  <time>2011-11-12T05:47:44Z</time>
  <speed>6.610000</speed>
</trkpt>
<trkpt lat="32.874629974" lon="35.223644257">
  <ele>78.969360</ele>
  <time>2011-11-12T05:47:45Z</time>
  <speed>6.840000</speed>
</trkpt>
<trkpt lat="32.874626160" lon="35.223709106">
  <ele>78.387329</ele>
  <time>2011-11-12T05:47:46Z</time>
  <speed>7.500000</speed>
</trkpt>
<trkpt lat="32.874618530" lon="35.223777771">
  <ele>77.621704</ele>
  <time>2011-11-12T05:47:47Z</time>
  <speed>6.470000</speed>
</trkpt>
<trkpt lat="32.874599457" lon="35.223838806">
  <ele>76.961548</ele>
  <time>2011-11-12T05:47:48Z</time>
  <speed>5.610000</speed>
</trkpt>
<trkpt lat="32.874599457" lon="35.223892212">
  <ele>76.408813</ele>
  <time>2011-11-12T05:47:49Z</time>
  <speed>4.930000</speed>
</trkpt>
<trkpt lat="32.874595642" lon="35.223957062">
  <ele>75.953735</ele>
  <time>2011-11-12T05:47:50Z</time>
  <speed>7.130000</speed>
</trkpt>
<trkpt lat="32.874580383" lon="35.224060059">
  <ele>74.131470</ele>
  <time>2011-11-12T05:47:51Z</time>
  <speed>6.650000</speed>
</trkpt>
<trkpt lat="32.874572754" lon="35.224121094">
  <ele>73.942017</ele>
  <time>2011-11-12T05:47:52Z</time>
  <speed>5.620000</speed>
</trkpt>
<trkpt lat="32.874561310" lon="35.224185944">
  <ele>74.176392</ele>
  <time>2011-11-12T05:47:53Z</time>
  <speed>6.470000</speed>
</trkpt>
<trkpt lat="32.874580383" lon="35.224258423">
  <ele>73.438110</ele>
  <time>2011-11-12T05:47:54Z</time>
  <speed>6.820000</speed>
</trkpt>
<trkpt lat="32.874591827" lon="35.224330902">
  <ele>72.768188</ele>
  <time>2011-11-12T05:47:55Z</time>
  <speed>7.040000</speed>
</trkpt>
<trkpt lat="32.874607086" lon="35.224418640">
  <ele>72.010376</ele>
  <time>2011-11-12T05:47:56Z</time>
  <speed>7.900000</speed>
</trkpt>
<trkpt lat="32.874603271" lon="35.224536896">
  <ele>72.406860</ele>
  <time>2011-11-12T05:47:57Z</time>
  <speed>7.930000</speed>
</trkpt>
<trkpt lat="32.874610901" lon="35.224624634">
  <ele>72.557251</ele>
  <time>2011-11-12T05:47:58Z</time>
  <speed>7.370000</speed>
</trkpt>
<trkpt lat="32.874618530" lon="35.224720001">
  <ele>73.111938</ele>
  <time>2011-11-12T05:47:59Z</time>
  <speed>7.450000</speed>
</trkpt>
<trkpt lat="32.874629974" lon="35.224796295">
  <ele>73.276001</ele>
  <time>2011-11-12T05:48:00Z</time>
  <speed>6.800000</speed>
</trkpt>
<trkpt lat="32.874641418" lon="35.224857330">
  <ele>73.344360</ele>
  <time>2011-11-12T05:48:01Z</time>
  <speed>4.660000</speed>
</trkpt>
<trkpt lat="32.874675751" lon="35.224922180">
  <ele>73.967407</ele>
  <time>2011-11-12T05:48:02Z</time>
  <speed>5.700000</speed>
</trkpt>
<trkpt lat="32.874713898" lon="35.224983215">
  <ele>73.135376</ele>
  <time>2011-11-12T05:48:03Z</time>
  <speed>6.650000</speed>
</trkpt>
<trkpt lat="32.874752045" lon="35.225048065">
  <ele>72.469360</ele>
  <time>2011-11-12T05:48:04Z</time>
  <speed>6.930000</speed>
</trkpt>
<trkpt lat="32.874805450" lon="35.225105286">
  <ele>72.022095</ele>
  <time>2011-11-12T05:48:05Z</time>
  <speed>7.890000</speed>
</trkpt>
<trkpt lat="32.874866486" lon="35.225154877">
  <ele>71.430298</ele>
  <time>2011-11-12T05:48:06Z</time>
  <speed>7.000000</speed>
</trkpt>
<trkpt lat="32.874923706" lon="35.225181580">
  <ele>70.889282</ele>
  <time>2011-11-12T05:48:07Z</time>
  <speed>5.940000</speed>
</trkpt>
<trkpt lat="32.874977112" lon="35.225189209">
  <ele>70.514282</ele>
  <time>2011-11-12T05:48:08Z</time>
  <speed>3.980000</speed>
</trkpt>
<trkpt lat="32.875022888" lon="35.225173950">
  <ele>69.180298</ele>
  <time>2011-11-12T05:48:09Z</time>
  <speed>3.950000</speed>
</trkpt>
<trkpt lat="32.875057220" lon="35.225154877">
  <ele>68.555298</ele>
  <time>2011-11-12T05:48:10Z</time>
  <speed>3.240000</speed>
</trkpt>
<trkpt lat="32.875083923" lon="35.225139618">
  <ele>68.272095</ele>
  <time>2011-11-12T05:48:11Z</time>
  <speed>2.640000</speed>
</trkpt>
<trkpt lat="32.875110626" lon="35.225131989">
  <ele>68.006470</ele>
  <time>2011-11-12T05:48:15Z</time>
  <speed>0.080000</speed>
</trkpt>
<trkpt lat="32.875118256" lon="35.225090027">
  <ele>67.576782</ele>
  <time>2011-11-12T05:49:31Z</time>
  <speed>0.980000</speed>
</trkpt>
<trkpt lat="32.875137329" lon="35.225055695">
  <ele>68.475220</ele>
  <time>2011-11-12T05:49:33Z</time>
  <speed>1.780000</speed>
</trkpt>
<trkpt lat="32.875164032" lon="35.225002289">
  <ele>68.477173</ele>
  <time>2011-11-12T05:49:35Z</time>
  <speed>3.620000</speed>
</trkpt>
<trkpt lat="32.875186920" lon="35.224975586">
  <ele>68.719360</ele>
  <time>2011-11-12T05:49:36Z</time>
  <speed>3.890000</speed>
</trkpt>
<trkpt lat="32.875209808" lon="35.224941254">
  <ele>68.951782</ele>
  <time>2011-11-12T05:49:37Z</time>
  <speed>3.770000</speed>
</trkpt>
<trkpt lat="32.875225067" lon="35.224903107">
  <ele>69.234985</ele>
  <time>2011-11-12T05:49:38Z</time>
  <speed>3.860000</speed>
</trkpt>
<trkpt lat="32.875244141" lon="35.224842072">
  <ele>69.000610</ele>
  <time>2011-11-12T05:49:39Z</time>
  <speed>5.080000</speed>
</trkpt>
<trkpt lat="32.875263214" lon="35.224800110">
  <ele>68.908813</ele>
  <time>2011-11-12T05:49:40Z</time>
  <speed>3.960000</speed>
</trkpt>
<trkpt lat="32.875286102" lon="35.224765778">
  <ele>68.746704</ele>
  <time>2011-11-12T05:49:41Z</time>
  <speed>3.630000</speed>
</trkpt>
<trkpt lat="32.875308990" lon="35.224731445">
  <ele>69.012329</ele>
  <time>2011-11-12T05:49:42Z</time>
  <speed>3.460000</speed>
</trkpt>
<trkpt lat="32.875328064" lon="35.224700928">
  <ele>68.996704</ele>
  <time>2011-11-12T05:49:43Z</time>
  <speed>3.590000</speed>
</trkpt>
<trkpt lat="32.875354767" lon="35.224655151">
  <ele>68.949829</ele>
  <time>2011-11-12T05:49:44Z</time>
  <speed>4.230000</speed>
</trkpt>
<trkpt lat="32.875373840" lon="35.224609375">
  <ele>68.891235</ele>
  <time>2011-11-12T05:49:45Z</time>
  <speed>3.880000</speed>
</trkpt>
<trkpt lat="32.875385284" lon="35.224563599">
  <ele>68.766235</ele>
  <time>2011-11-12T05:49:46Z</time>
  <speed>4.370000</speed>
</trkpt>
<trkpt lat="32.875408173" lon="35.224514008">
  <ele>68.785767</ele>
  <time>2011-11-12T05:49:47Z</time>
  <speed>4.480000</speed>
</trkpt>
<trkpt lat="32.875434875" lon="35.224460602">
  <ele>68.340454</ele>
  <time>2011-11-12T05:49:48Z</time>
  <speed>4.590000</speed>
</trkpt>
<trkpt lat="32.875457764" lon="35.224414825">
  <ele>68.299438</ele>
  <time>2011-11-12T05:49:49Z</time>
  <speed>4.650000</speed>
</trkpt>
<trkpt lat="32.875480652" lon="35.224369049">
  <ele>68.067017</ele>
  <time>2011-11-12T05:49:50Z</time>
  <speed>4.210000</speed>
</trkpt>
<trkpt lat="32.875518799" lon="35.224338531">
  <ele>67.553345</ele>
  <time>2011-11-12T05:49:51Z</time>
  <speed>4.680000</speed>
</trkpt>
<trkpt lat="32.875553131" lon="35.224311829">
  <ele>68.516235</ele>
  <time>2011-11-12T05:49:52Z</time>
  <speed>3.310000</speed>
</trkpt>
<trkpt lat="32.875591278" lon="35.224277496">
  <ele>70.086548</ele>
  <time>2011-11-12T05:49:53Z</time>
  <speed>3.740000</speed>
</trkpt>
<trkpt lat="32.875625610" lon="35.224269867">
  <ele>70.217407</ele>
  <time>2011-11-12T05:49:54Z</time>
  <speed>3.840000</speed>
</trkpt>
<trkpt lat="32.875663757" lon="35.224258423">
  <ele>70.201782</ele>
  <time>2011-11-12T05:49:55Z</time>
  <speed>4.380000</speed>
</trkpt>
<trkpt lat="32.875705719" lon="35.224227905">
  <ele>71.268188</ele>
  <time>2011-11-12T05:49:56Z</time>
  <speed>4.550000</speed>
</trkpt>
<trkpt lat="32.875751495" lon="35.224212646">
  <ele>71.789673</ele>
  <time>2011-11-12T05:49:57Z</time>
  <speed>5.320000</speed>
</trkpt>
<trkpt lat="32.875801086" lon="35.224224091">
  <ele>71.975220</ele>
  <time>2011-11-12T05:49:58Z</time>
  <speed>5.220000</speed>
</trkpt>
<trkpt lat="32.875843048" lon="35.224227905">
  <ele>72.113892</ele>
  <time>2011-11-12T05:49:59Z</time>
  <speed>5.030000</speed>
</trkpt>
<trkpt lat="32.875892639" lon="35.224231720">
  <ele>72.502563</ele>
  <time>2011-11-12T05:50:00Z</time>
  <speed>5.110000</speed>
</trkpt>
<trkpt lat="32.875919342" lon="35.224220276">
  <ele>72.572876</ele>
  <time>2011-11-12T05:50:01Z</time>
  <speed>4.350000</speed>
</trkpt>
<trkpt lat="32.875980377" lon="35.224193573">
  <ele>72.129517</ele>
  <time>2011-11-12T05:50:02Z</time>
  <speed>4.960000</speed>
</trkpt>
<trkpt lat="32.876022339" lon="35.224159241">
  <ele>73.598267</ele>
  <time>2011-11-12T05:50:03Z</time>
  <speed>5.100000</speed>
</trkpt>
<trkpt lat="32.876068115" lon="35.224155426">
  <ele>73.809204</ele>
  <time>2011-11-12T05:50:04Z</time>
  <speed>4.600000</speed>
</trkpt>
<trkpt lat="32.876110077" lon="35.224155426">
  <ele>74.399048</ele>
  <time>2011-11-12T05:50:05Z</time>
  <speed>4.240000</speed>
</trkpt>
<trkpt lat="32.876159668" lon="35.224159241">
  <ele>74.635376</ele>
  <time>2011-11-12T05:50:06Z</time>
  <speed>3.650000</speed>
</trkpt>
<trkpt lat="32.876209259" lon="35.224170685">
  <ele>74.777954</ele>
  <time>2011-11-12T05:50:07Z</time>
  <speed>4.060000</speed>
</trkpt>
<trkpt lat="32.876243591" lon="35.224182129">
  <ele>75.135376</ele>
  <time>2011-11-12T05:50:08Z</time>
  <speed>3.440000</speed>
</trkpt>
<trkpt lat="32.876266479" lon="35.224201202">
  <ele>75.143188</ele>
  <time>2011-11-12T05:50:09Z</time>
  <speed>3.260000</speed>
</trkpt>
<trkpt lat="32.876312256" lon="35.224235535">
  <ele>77.240845</ele>
  <time>2011-11-12T05:50:11Z</time>
  <speed>2.280000</speed>
</trkpt>
<trkpt lat="32.876346588" lon="35.224246979">
  <ele>79.621704</ele>
  <time>2011-11-12T05:50:13Z</time>
  <speed>2.120000</speed>
</trkpt>
<trkpt lat="32.876384735" lon="35.224235535">
  <ele>80.680298</ele>
  <time>2011-11-12T05:50:15Z</time>
  <speed>2.810000</speed>
</trkpt>
<trkpt lat="32.876441956" lon="35.224216461">
  <ele>80.406860</ele>
  <time>2011-11-12T05:50:17Z</time>
  <speed>2.430000</speed>
</trkpt>
<trkpt lat="32.876480103" lon="35.224193573">
  <ele>80.740845</ele>
  <time>2011-11-12T05:50:19Z</time>
  <speed>1.700000</speed>
</trkpt>
<trkpt lat="32.876510620" lon="35.224174500">
  <ele>81.619751</ele>
  <time>2011-11-12T05:50:21Z</time>
  <speed>1.430000</speed>
</trkpt>
<trkpt lat="32.876537323" lon="35.224201202">
  <ele>81.274048</ele>
  <time>2011-11-12T05:50:23Z</time>
  <speed>1.750000</speed>
</trkpt>
<trkpt lat="32.876571655" lon="35.224224091">
  <ele>81.856079</ele>
  <time>2011-11-12T05:50:25Z</time>
  <speed>1.590000</speed>
</trkpt>
<trkpt lat="32.876590729" lon="35.224239349">
  <ele>83.201782</ele>
  <time>2011-11-12T05:50:27Z</time>
  <speed>1.730000</speed>
</trkpt>
<trkpt lat="32.876625061" lon="35.224254608">
  <ele>84.184204</ele>
  <time>2011-11-12T05:50:29Z</time>
  <speed>1.920000</speed>
</trkpt>
<trkpt lat="32.876655579" lon="35.224273682">
  <ele>84.908813</ele>
  <time>2011-11-12T05:50:31Z</time>
  <speed>1.840000</speed>
</trkpt>
<trkpt lat="32.876682281" lon="35.224281311">
  <ele>85.959595</ele>
  <time>2011-11-12T05:50:33Z</time>
  <speed>1.650000</speed>
</trkpt>
<trkpt lat="32.876712799" lon="35.224300385">
  <ele>86.526001</ele>
  <time>2011-11-12T05:50:35Z</time>
  <speed>1.600000</speed>
</trkpt>
<trkpt lat="32.876735687" lon="35.224323273">
  <ele>87.596313</ele>
  <time>2011-11-12T05:50:37Z</time>
  <speed>1.630000</speed>
</trkpt>
<trkpt lat="32.876754761" lon="35.224342346">
  <ele>87.815063</ele>
  <time>2011-11-12T05:50:39Z</time>
  <speed>1.580000</speed>
</trkpt>
<trkpt lat="32.876773834" lon="35.224365234">
  <ele>87.871704</ele>
  <time>2011-11-12T05:50:41Z</time>
  <speed>1.660000</speed>
</trkpt>
<trkpt lat="32.876815796" lon="35.224380493">
  <ele>87.906860</ele>
  <time>2011-11-12T05:50:44Z</time>
  <speed>1.590000</speed>
</trkpt>
<trkpt lat="32.876846313" lon="35.224407196">
  <ele>88.520142</ele>
  <time>2011-11-12T05:50:47Z</time>
  <speed>1.340000</speed>
</trkpt>
<trkpt lat="32.876869202" lon="35.224422455">
  <ele>88.803345</ele>
  <time>2011-11-12T05:50:49Z</time>
  <speed>1.140000</speed>
</trkpt>
<trkpt lat="32.876895905" lon="35.224456787">
  <ele>88.834595</ele>
  <time>2011-11-12T05:50:52Z</time>
  <speed>1.040000</speed>
</trkpt>
<trkpt lat="32.876918793" lon="35.224472046">
  <ele>89.098267</ele>
  <time>2011-11-12T05:50:54Z</time>
  <speed>1.110000</speed>
</trkpt>
<trkpt lat="32.876945496" lon="35.224487305">
  <ele>88.688110</ele>
  <time>2011-11-12T05:50:56Z</time>
  <speed>1.330000</speed>
</trkpt>
<trkpt lat="32.876968384" lon="35.224514008">
  <ele>88.949829</ele>
  <time>2011-11-12T05:50:58Z</time>
  <speed>1.420000</speed>
</trkpt>
<trkpt lat="32.876979828" lon="35.224548340">
  <ele>88.912720</ele>
  <time>2011-11-12T05:51:00Z</time>
  <speed>1.580000</speed>
</trkpt>
<trkpt lat="32.876998901" lon="35.224575043">
  <ele>88.543579</ele>
  <time>2011-11-12T05:51:03Z</time>
  <speed>1.130000</speed>
</trkpt>
<trkpt lat="32.877025604" lon="35.224590302">
  <ele>88.553345</ele>
  <time>2011-11-12T05:52:01Z</time>
  <speed>0.380000</speed>
</trkpt>
<trkpt lat="32.877010345" lon="35.224617004">
  <ele>89.031860</ele>
  <time>2011-11-12T05:53:07Z</time>
  <speed>0.240000</speed>
</trkpt>
<trkpt lat="32.877002716" lon="35.224651337">
  <ele>89.330688</ele>
  <time>2011-11-12T05:53:17Z</time>
  <speed>0.880000</speed>
</trkpt>
<trkpt lat="32.876983643" lon="35.224689484">
  <ele>89.373657</ele>
  <time>2011-11-12T05:53:20Z</time>
  <speed>1.550000</speed>
</trkpt>
<trkpt lat="32.876964569" lon="35.224727631">
  <ele>89.799438</ele>
  <time>2011-11-12T05:53:22Z</time>
  <speed>1.760000</speed>
</trkpt>
<trkpt lat="32.876937866" lon="35.224761963">
  <ele>90.008423</ele>
  <time>2011-11-12T05:53:24Z</time>
  <speed>1.910000</speed>
</trkpt>
<trkpt lat="32.876911163" lon="35.224800110">
  <ele>90.877563</ele>
  <time>2011-11-12T05:53:26Z</time>
  <speed>1.800000</speed>
</trkpt>
<trkpt lat="32.876888275" lon="35.224830627">
  <ele>91.143188</ele>
  <time>2011-11-12T05:53:28Z</time>
  <speed>1.850000</speed>
</trkpt>
<trkpt lat="32.876857758" lon="35.224845886">
  <ele>91.317017</ele>
  <time>2011-11-12T05:53:30Z</time>
  <speed>1.700000</speed>
</trkpt>
<trkpt lat="32.876823425" lon="35.224861145">
  <ele>91.447876</ele>
  <time>2011-11-12T05:53:32Z</time>
  <speed>2.010000</speed>
</trkpt>
<trkpt lat="32.876800537" lon="35.224887848">
  <ele>91.533813</ele>
  <time>2011-11-12T05:53:34Z</time>
  <speed>1.750000</speed>
</trkpt>
<trkpt lat="32.876777649" lon="35.224922180">
  <ele>91.481079</ele>
  <time>2011-11-12T05:53:36Z</time>
  <speed>1.740000</speed>
</trkpt>
<trkpt lat="32.876747131" lon="35.224945068">
  <ele>91.369751</ele>
  <time>2011-11-12T05:53:38Z</time>
  <speed>1.860000</speed>
</trkpt>
<trkpt lat="32.876720428" lon="35.224960327">
  <ele>90.666626</ele>
  <time>2011-11-12T05:53:41Z</time>
  <speed>1.070000</speed>
</trkpt>
<trkpt lat="32.876697540" lon="35.224945068">
  <ele>89.395142</ele>
  <time>2011-11-12T05:53:43Z</time>
  <speed>1.410000</speed>
</trkpt>
<trkpt lat="32.876667023" lon="35.224922180">
  <ele>88.158813</ele>
  <time>2011-11-12T05:53:45Z</time>
  <speed>1.560000</speed>
</trkpt>
<trkpt lat="32.876625061" lon="35.224895477">
  <ele>87.459595</ele>
  <time>2011-11-12T05:53:47Z</time>
  <speed>1.940000</speed>
</trkpt>
<trkpt lat="32.876583099" lon="35.224880219">
  <ele>86.086548</ele>
  <time>2011-11-12T05:53:49Z</time>
  <speed>2.020000</speed>
</trkpt>
<trkpt lat="32.876556396" lon="35.224861145">
  <ele>85.184204</ele>
  <time>2011-11-12T05:53:51Z</time>
  <speed>1.800000</speed>
</trkpt>
<trkpt lat="32.876525879" lon="35.224838257">
  <ele>84.410767</ele>
  <time>2011-11-12T05:53:53Z</time>
  <speed>1.820000</speed>
</trkpt>
<trkpt lat="32.876476288" lon="35.224800110">
  <ele>82.734985</ele>
  <time>2011-11-12T05:53:55Z</time>
  <speed>1.960000</speed>
</trkpt>
<trkpt lat="32.876438141" lon="35.224761963">
  <ele>81.504517</ele>
  <time>2011-11-12T05:53:57Z</time>
  <speed>2.160000</speed>
</trkpt>
<trkpt lat="32.876392365" lon="35.224742889">
  <ele>80.953735</ele>
  <time>2011-11-12T05:53:59Z</time>
  <speed>2.290000</speed>
</trkpt>
<trkpt lat="32.876350403" lon="35.224723816">
  <ele>80.340454</ele>
  <time>2011-11-12T05:54:01Z</time>
  <speed>2.660000</speed>
</trkpt>
<trkpt lat="32.876296997" lon="35.224704742">
  <ele>79.711548</ele>
  <time>2011-11-12T05:54:03Z</time>
  <speed>2.890000</speed>
</trkpt>
<trkpt lat="32.876270294" lon="35.224697113">
  <ele>79.412720</ele>
  <time>2011-11-12T05:54:04Z</time>
  <speed>3.340000</speed>
</trkpt>
<trkpt lat="32.876224518" lon="35.224681854">
  <ele>79.213501</ele>
  <time>2011-11-12T05:54:05Z</time>
  <speed>3.720000</speed>
</trkpt>
<trkpt lat="32.876194000" lon="35.224678040">
  <ele>78.813110</ele>
  <time>2011-11-12T05:54:06Z</time>
  <speed>3.520000</speed>
</trkpt>
<trkpt lat="32.876155853" lon="35.224670410">
  <ele>78.580688</ele>
  <time>2011-11-12T05:54:07Z</time>
  <speed>3.880000</speed>
</trkpt>
<trkpt lat="32.876117706" lon="35.224662781">
  <ele>78.266235</ele>
  <time>2011-11-12T05:54:08Z</time>
  <speed>4.020000</speed>
</trkpt>
<trkpt lat="32.876083374" lon="35.224662781">
  <ele>77.918579</ele>
  <time>2011-11-12T05:54:09Z</time>
  <speed>3.670000</speed>
</trkpt>
<trkpt lat="32.876056671" lon="35.224662781">
  <ele>77.383423</ele>
  <time>2011-11-12T05:54:10Z</time>
  <speed>3.030000</speed>
</trkpt>
<trkpt lat="32.876022339" lon="35.224666595">
  <ele>76.889282</ele>
  <time>2011-11-12T05:54:11Z</time>
  <speed>3.630000</speed>
</trkpt>
<trkpt lat="32.875988007" lon="35.224681854">
  <ele>76.180298</ele>
  <time>2011-11-12T05:54:12Z</time>
  <speed>3.470000</speed>
</trkpt>
<trkpt lat="32.875953674" lon="35.224700928">
  <ele>75.703735</ele>
  <time>2011-11-12T05:54:13Z</time>
  <speed>3.590000</speed>
</trkpt>
<trkpt lat="32.875926971" lon="35.224727631">
  <ele>75.121704</ele>
  <time>2011-11-12T05:54:14Z</time>
  <speed>3.600000</speed>
</trkpt>
<trkpt lat="32.875900269" lon="35.224750519">
  <ele>74.660767</ele>
  <time>2011-11-12T05:54:15Z</time>
  <speed>3.600000</speed>
</trkpt>
<trkpt lat="32.875873566" lon="35.224769592">
  <ele>74.313110</ele>
  <time>2011-11-12T05:54:16Z</time>
  <speed>3.820000</speed>
</trkpt>
<trkpt lat="32.875843048" lon="35.224811554">
  <ele>73.440063</ele>
  <time>2011-11-12T05:54:17Z</time>
  <speed>4.040000</speed>
</trkpt>
<trkpt lat="32.875797272" lon="35.224868774">
  <ele>72.469360</ele>
  <time>2011-11-12T05:54:18Z</time>
  <speed>4.290000</speed>
</trkpt>
<trkpt lat="32.875774384" lon="35.224910736">
  <ele>72.848267</ele>
  <time>2011-11-12T05:54:19Z</time>
  <speed>4.660000</speed>
</trkpt>
<trkpt lat="32.875743866" lon="35.224956512">
  <ele>72.656860</ele>
  <time>2011-11-12T05:54:20Z</time>
  <speed>4.700000</speed>
</trkpt>
<trkpt lat="32.875713348" lon="35.225009918">
  <ele>71.943970</ele>
  <time>2011-11-12T05:54:21Z</time>
  <speed>4.680000</speed>
</trkpt>
<trkpt lat="32.875690460" lon="35.225044250">
  <ele>71.324829</ele>
  <time>2011-11-12T05:54:22Z</time>
  <speed>4.170000</speed>
</trkpt>
<trkpt lat="32.875659943" lon="35.225086212">
  <ele>71.340454</ele>
  <time>2011-11-12T05:54:23Z</time>
  <speed>4.240000</speed>
</trkpt>
<trkpt lat="32.875633240" lon="35.225112915">
  <ele>71.920532</ele>
  <time>2011-11-12T05:54:24Z</time>
  <speed>4.500000</speed>
</trkpt>
<trkpt lat="32.875602722" lon="35.225143433">
  <ele>71.617798</ele>
  <time>2011-11-12T05:54:25Z</time>
  <speed>4.330000</speed>
</trkpt>
<trkpt lat="32.875576019" lon="35.225185394">
  <ele>71.443970</ele>
  <time>2011-11-12T05:54:26Z</time>
  <speed>4.330000</speed>
</trkpt>
<trkpt lat="32.875549316" lon="35.225227356">
  <ele>71.803345</ele>
  <time>2011-11-12T05:54:27Z</time>
  <speed>4.390000</speed>
</trkpt>
<trkpt lat="32.875526428" lon="35.225257874">
  <ele>72.887329</ele>
  <time>2011-11-12T05:54:28Z</time>
  <speed>4.170000</speed>
</trkpt>
<trkpt lat="32.875499725" lon="35.225284576">
  <ele>74.174438</ele>
  <time>2011-11-12T05:54:29Z</time>
  <speed>4.210000</speed>
</trkpt>
<trkpt lat="32.875480652" lon="35.225322723">
  <ele>74.608032</ele>
  <time>2011-11-12T05:54:30Z</time>
  <speed>4.110000</speed>
</trkpt>
<trkpt lat="32.875461578" lon="35.225360870">
  <ele>76.024048</ele>
  <time>2011-11-12T05:54:31Z</time>
  <speed>4.030000</speed>
</trkpt>
<trkpt lat="32.875442505" lon="35.225395203">
  <ele>76.020142</ele>
  <time>2011-11-12T05:54:32Z</time>
  <speed>4.030000</speed>
</trkpt>
<trkpt lat="32.875419617" lon="35.225425720">
  <ele>77.063110</ele>
  <time>2011-11-12T05:54:33Z</time>
  <speed>3.930000</speed>
</trkpt>
<trkpt lat="32.875396729" lon="35.225463867">
  <ele>78.334595</ele>
  <time>2011-11-12T05:54:34Z</time>
  <speed>4.300000</speed>
</trkpt>
<trkpt lat="32.875385284" lon="35.225509644">
  <ele>78.750610</ele>
  <time>2011-11-12T05:54:35Z</time>
  <speed>4.640000</speed>
</trkpt>
<trkpt lat="32.875377655" lon="35.225555420">
  <ele>79.809204</ele>
  <time>2011-11-12T05:54:36Z</time>
  <speed>3.870000</speed>
</trkpt>
<trkpt lat="32.875366211" lon="35.225593567">
  <ele>80.442017</ele>
  <time>2011-11-12T05:54:37Z</time>
  <speed>3.750000</speed>
</trkpt>
<trkpt lat="32.875354767" lon="35.225635529">
  <ele>80.443970</ele>
  <time>2011-11-12T05:54:38Z</time>
  <speed>4.080000</speed>
</trkpt>
<trkpt lat="32.875347137" lon="35.225677490">
  <ele>80.742798</ele>
  <time>2011-11-12T05:54:39Z</time>
  <speed>4.210000</speed>
</trkpt>
<trkpt lat="32.875339508" lon="35.225723267">
  <ele>81.272095</ele>
  <time>2011-11-12T05:54:40Z</time>
  <speed>4.350000</speed>
</trkpt>
<trkpt lat="32.875331879" lon="35.225772858">
  <ele>81.918579</ele>
  <time>2011-11-12T05:54:41Z</time>
  <speed>4.550000</speed>
</trkpt>
<trkpt lat="32.875324249" lon="35.225818634">
  <ele>82.602173</ele>
  <time>2011-11-12T05:54:42Z</time>
  <speed>4.660000</speed>
</trkpt>
<trkpt lat="32.875324249" lon="35.225864410">
  <ele>83.139282</ele>
  <time>2011-11-12T05:54:43Z</time>
  <speed>4.320000</speed>
</trkpt>
<trkpt lat="32.875320435" lon="35.225910187">
  <ele>84.088501</ele>
  <time>2011-11-12T05:54:44Z</time>
  <speed>4.210000</speed>
</trkpt>
<trkpt lat="32.875312805" lon="35.225955963">
  <ele>84.391235</ele>
  <time>2011-11-12T05:54:45Z</time>
  <speed>3.890000</speed>
</trkpt>
<trkpt lat="32.875308990" lon="35.225997925">
  <ele>84.729126</ele>
  <time>2011-11-12T05:54:46Z</time>
  <speed>3.780000</speed>
</trkpt>
<trkpt lat="32.875301361" lon="35.226039886">
  <ele>85.434204</ele>
  <time>2011-11-12T05:54:47Z</time>
  <speed>4.050000</speed>
</trkpt>
<trkpt lat="32.875297546" lon="35.226081848">
  <ele>85.922485</ele>
  <time>2011-11-12T05:54:48Z</time>
  <speed>4.020000</speed>
</trkpt>
<trkpt lat="32.875293732" lon="35.226127625">
  <ele>85.922485</ele>
  <time>2011-11-12T05:54:49Z</time>
  <speed>4.130000</speed>
</trkpt>
<trkpt lat="32.875286102" lon="35.226173401">
  <ele>84.891235</ele>
  <time>2011-11-12T05:54:50Z</time>
  <speed>4.290000</speed>
</trkpt>
<trkpt lat="32.875286102" lon="35.226219177">
  <ele>84.776001</ele>
  <time>2011-11-12T05:54:51Z</time>
  <speed>4.560000</speed>
</trkpt>
<trkpt lat="32.875278473" lon="35.226272583">
  <ele>84.666626</ele>
  <time>2011-11-12T05:54:52Z</time>
  <speed>4.770000</speed>
</trkpt>
<trkpt lat="32.875267029" lon="35.226325989">
  <ele>84.938110</ele>
  <time>2011-11-12T05:54:53Z</time>
  <speed>4.800000</speed>
</trkpt>
<trkpt lat="32.875263214" lon="35.226375580">
  <ele>84.996704</ele>
  <time>2011-11-12T05:54:54Z</time>
  <speed>4.670000</speed>
</trkpt>
<trkpt lat="32.875263214" lon="35.226421356">
  <ele>85.844360</ele>
  <time>2011-11-12T05:54:55Z</time>
  <speed>4.590000</speed>
</trkpt>
<trkpt lat="32.875255585" lon="35.226474762">
  <ele>85.959595</ele>
  <time>2011-11-12T05:54:56Z</time>
  <speed>4.420000</speed>
</trkpt>
<trkpt lat="32.875247955" lon="35.226524353">
  <ele>86.221313</ele>
  <time>2011-11-12T05:54:57Z</time>
  <speed>4.360000</speed>
</trkpt>
<trkpt lat="32.875240326" lon="35.226573944">
  <ele>86.342407</ele>
  <time>2011-11-12T05:54:58Z</time>
  <speed>4.580000</speed>
</trkpt>
<trkpt lat="32.875232697" lon="35.226619720">
  <ele>87.193970</ele>
  <time>2011-11-12T05:54:59Z</time>
  <speed>4.630000</speed>
</trkpt>
<trkpt lat="32.875221252" lon="35.226669312">
  <ele>87.242798</ele>
  <time>2011-11-12T05:55:00Z</time>
  <speed>4.600000</speed>
</trkpt>
<trkpt lat="32.875209808" lon="35.226715088">
  <ele>88.149048</ele>
  <time>2011-11-12T05:55:01Z</time>
  <speed>4.540000</speed>
</trkpt>
<trkpt lat="32.875198364" lon="35.226764679">
  <ele>88.473267</ele>
  <time>2011-11-12T05:55:02Z</time>
  <speed>4.490000</speed>
</trkpt>
<trkpt lat="32.875183105" lon="35.226810455">
  <ele>88.664673</ele>
  <time>2011-11-12T05:55:03Z</time>
  <speed>4.390000</speed>
</trkpt>
<trkpt lat="32.875171661" lon="35.226856232">
  <ele>88.604126</ele>
  <time>2011-11-12T05:55:04Z</time>
  <speed>4.400000</speed>
</trkpt>
<trkpt lat="32.875160217" lon="35.226898193">
  <ele>89.666626</ele>
  <time>2011-11-12T05:55:05Z</time>
  <speed>4.370000</speed>
</trkpt>
<trkpt lat="32.875141144" lon="35.226932526">
  <ele>90.215454</ele>
  <time>2011-11-12T05:55:06Z</time>
  <speed>4.420000</speed>
</trkpt>
<trkpt lat="32.875129700" lon="35.226974487">
  <ele>90.963501</ele>
  <time>2011-11-12T05:55:07Z</time>
  <speed>4.040000</speed>
</trkpt>
<trkpt lat="32.875114441" lon="35.227020264">
  <ele>91.158813</ele>
  <time>2011-11-12T05:55:08Z</time>
  <speed>4.240000</speed>
</trkpt>
<trkpt lat="32.875102997" lon="35.227062225">
  <ele>91.649048</ele>
  <time>2011-11-12T05:55:09Z</time>
  <speed>4.000000</speed>
</trkpt>
<trkpt lat="32.875091553" lon="35.227100372">
  <ele>92.799438</ele>
  <time>2011-11-12T05:55:10Z</time>
  <speed>4.290000</speed>
</trkpt>
<trkpt lat="32.875083923" lon="35.227142334">
  <ele>93.154907</ele>
  <time>2011-11-12T05:55:11Z</time>
  <speed>3.950000</speed>
</trkpt>
<trkpt lat="32.875076294" lon="35.227184296">
  <ele>93.152954</ele>
  <time>2011-11-12T05:55:12Z</time>
  <speed>3.820000</speed>
</trkpt>
<trkpt lat="32.875076294" lon="35.227226257">
  <ele>92.483032</ele>
  <time>2011-11-12T05:55:13Z</time>
  <speed>3.630000</speed>
</trkpt>
<trkpt lat="32.875068665" lon="35.227268219">
  <ele>92.877563</ele>
  <time>2011-11-12T05:55:14Z</time>
  <speed>3.850000</speed>
</trkpt>
<trkpt lat="32.875064850" lon="35.227310181">
  <ele>93.164673</ele>
  <time>2011-11-12T05:55:15Z</time>
  <speed>4.180000</speed>
</trkpt>
<trkpt lat="32.875057220" lon="35.227355957">
  <ele>93.293579</ele>
  <time>2011-11-12T05:55:16Z</time>
  <speed>4.360000</speed>
</trkpt>
<trkpt lat="32.875053406" lon="35.227397919">
  <ele>93.352173</ele>
  <time>2011-11-12T05:55:17Z</time>
  <speed>4.300000</speed>
</trkpt>
<trkpt lat="32.875049591" lon="35.227447510">
  <ele>92.619751</ele>
  <time>2011-11-12T05:55:18Z</time>
  <speed>4.280000</speed>
</trkpt>
<trkpt lat="32.875041962" lon="35.227500916">
  <ele>92.318970</ele>
  <time>2011-11-12T05:55:19Z</time>
  <speed>4.470000</speed>
</trkpt>
<trkpt lat="32.875038147" lon="35.227546692">
  <ele>92.002563</ele>
  <time>2011-11-12T05:55:20Z</time>
  <speed>4.410000</speed>
</trkpt>
<trkpt lat="32.875034332" lon="35.227596283">
  <ele>92.080688</ele>
  <time>2011-11-12T05:55:21Z</time>
  <speed>4.470000</speed>
</trkpt>
<trkpt lat="32.875034332" lon="35.227642059">
  <ele>92.102173</ele>
  <time>2011-11-12T05:55:22Z</time>
  <speed>4.400000</speed>
</trkpt>
<trkpt lat="32.875026703" lon="35.227695465">
  <ele>92.727173</ele>
  <time>2011-11-12T05:55:23Z</time>
  <speed>4.430000</speed>
</trkpt>
<trkpt lat="32.875022888" lon="35.227741241">
  <ele>92.651001</ele>
  <time>2011-11-12T05:55:24Z</time>
  <speed>4.360000</speed>
</trkpt>
<trkpt lat="32.875015259" lon="35.227787018">
  <ele>91.906860</ele>
  <time>2011-11-12T05:55:25Z</time>
  <speed>4.290000</speed>
</trkpt>
<trkpt lat="32.875011444" lon="35.227828979">
  <ele>91.289673</ele>
  <time>2011-11-12T05:55:26Z</time>
  <speed>4.140000</speed>
</trkpt>
<trkpt lat="32.875007629" lon="35.227870941">
  <ele>91.008423</ele>
  <time>2011-11-12T05:55:27Z</time>
  <speed>4.430000</speed>
</trkpt>
<trkpt lat="32.875003815" lon="35.227912903">
  <ele>91.123657</ele>
  <time>2011-11-12T05:55:28Z</time>
  <speed>4.410000</speed>
</trkpt>
<trkpt lat="32.875003815" lon="35.227962494">
  <ele>91.276001</ele>
  <time>2011-11-12T05:55:29Z</time>
  <speed>4.320000</speed>
</trkpt>
<trkpt lat="32.875000000" lon="35.228008270">
  <ele>90.899048</ele>
  <time>2011-11-12T05:55:30Z</time>
  <speed>4.080000</speed>
</trkpt>
<trkpt lat="32.874996185" lon="35.228054047">
  <ele>91.340454</ele>
  <time>2011-11-12T05:55:31Z</time>
  <speed>4.380000</speed>
</trkpt>
<trkpt lat="32.874988556" lon="35.228099823">
  <ele>92.127563</ele>
  <time>2011-11-12T05:55:32Z</time>
  <speed>4.230000</speed>
</trkpt>
<trkpt lat="32.874988556" lon="35.228145599">
  <ele>92.020142</ele>
  <time>2011-11-12T05:55:33Z</time>
  <speed>4.390000</speed>
</trkpt>
<trkpt lat="32.874988556" lon="35.228191376">
  <ele>92.729126</ele>
  <time>2011-11-12T05:55:34Z</time>
  <speed>4.110000</speed>
</trkpt>
<trkpt lat="32.874984741" lon="35.228237152">
  <ele>93.229126</ele>
  <time>2011-11-12T05:55:35Z</time>
  <speed>4.030000</speed>
</trkpt>
<trkpt lat="32.874980927" lon="35.228275299">
  <ele>92.391235</ele>
  <time>2011-11-12T05:55:36Z</time>
  <speed>3.720000</speed>
</trkpt>
<trkpt lat="32.874977112" lon="35.228313446">
  <ele>92.162720</ele>
  <time>2011-11-12T05:55:37Z</time>
  <speed>3.800000</speed>
</trkpt>
<trkpt lat="32.874977112" lon="35.228355408">
  <ele>92.219360</ele>
  <time>2011-11-12T05:55:38Z</time>
  <speed>3.790000</speed>
</trkpt>
<trkpt lat="32.874973297" lon="35.228397369">
  <ele>92.305298</ele>
  <time>2011-11-12T05:55:39Z</time>
  <speed>3.800000</speed>
</trkpt>
<trkpt lat="32.874973297" lon="35.228443146">
  <ele>92.002563</ele>
  <time>2011-11-12T05:55:40Z</time>
  <speed>3.910000</speed>
</trkpt>
<trkpt lat="32.874980927" lon="35.228485107">
  <ele>92.018188</ele>
  <time>2011-11-12T05:55:41Z</time>
  <speed>3.800000</speed>
</trkpt>
<trkpt lat="32.874980927" lon="35.228530884">
  <ele>92.738892</ele>
  <time>2011-11-12T05:55:42Z</time>
  <speed>3.790000</speed>
</trkpt>
<trkpt lat="32.874984741" lon="35.228569031">
  <ele>93.309204</ele>
  <time>2011-11-12T05:55:43Z</time>
  <speed>3.750000</speed>
</trkpt>
<trkpt lat="32.874984741" lon="35.228607178">
  <ele>93.438110</ele>
  <time>2011-11-12T05:55:44Z</time>
  <speed>3.590000</speed>
</trkpt>
<trkpt lat="32.874988556" lon="35.228645325">
  <ele>93.582642</ele>
  <time>2011-11-12T05:55:45Z</time>
  <speed>3.460000</speed>
</trkpt>
<trkpt lat="32.874996185" lon="35.228687286">
  <ele>94.541626</ele>
  <time>2011-11-12T05:55:46Z</time>
  <speed>3.690000</speed>
</trkpt>
<trkpt lat="32.875003815" lon="35.228721619">
  <ele>94.701782</ele>
  <time>2011-11-12T05:55:47Z</time>
  <speed>3.790000</speed>
</trkpt>
<trkpt lat="32.875015259" lon="35.228763580">
  <ele>94.779907</ele>
  <time>2011-11-12T05:55:48Z</time>
  <speed>3.530000</speed>
</trkpt>
<trkpt lat="32.875019073" lon="35.228805542">
  <ele>94.744751</ele>
  <time>2011-11-12T05:55:49Z</time>
  <speed>3.540000</speed>
</trkpt>
<trkpt lat="32.875030518" lon="35.228843689">
  <ele>95.024048</ele>
  <time>2011-11-12T05:55:50Z</time>
  <speed>3.550000</speed>
</trkpt>
<trkpt lat="32.875038147" lon="35.228881836">
  <ele>95.695923</ele>
  <time>2011-11-12T05:55:51Z</time>
  <speed>3.660000</speed>
</trkpt>
<trkpt lat="32.875041962" lon="35.228919983">
  <ele>95.586548</ele>
  <time>2011-11-12T05:55:52Z</time>
  <speed>3.580000</speed>
</trkpt>
<trkpt lat="32.875049591" lon="35.228958130">
  <ele>95.080688</ele>
  <time>2011-11-12T05:55:53Z</time>
  <speed>3.810000</speed>
</trkpt>
<trkpt lat="32.875057220" lon="35.229000092">
  <ele>95.725220</ele>
  <time>2011-11-12T05:55:54Z</time>
  <speed>3.570000</speed>
</trkpt>
<trkpt lat="32.875068665" lon="35.229042053">
  <ele>95.922485</ele>
  <time>2011-11-12T05:55:55Z</time>
  <speed>3.540000</speed>
</trkpt>
<trkpt lat="32.875072479" lon="35.229076385">
  <ele>96.047485</ele>
  <time>2011-11-12T05:55:56Z</time>
  <speed>3.790000</speed>
</trkpt>
<trkpt lat="32.875087738" lon="35.229114532">
  <ele>96.709595</ele>
  <time>2011-11-12T05:55:57Z</time>
  <speed>3.610000</speed>
</trkpt>
<trkpt lat="32.875099182" lon="35.229152679">
  <ele>97.158813</ele>
  <time>2011-11-12T05:55:58Z</time>
  <speed>3.720000</speed>
</trkpt>
<trkpt lat="32.875106812" lon="35.229190826">
  <ele>97.518188</ele>
  <time>2011-11-12T05:55:59Z</time>
  <speed>3.670000</speed>
</trkpt>
<trkpt lat="32.875118256" lon="35.229228973">
  <ele>98.260376</ele>
  <time>2011-11-12T05:56:00Z</time>
  <speed>3.850000</speed>
</trkpt>
<trkpt lat="32.875133514" lon="35.229267120">
  <ele>98.649048</ele>
  <time>2011-11-12T05:56:01Z</time>
  <speed>3.770000</speed>
</trkpt>
<trkpt lat="32.875144958" lon="35.229301453">
  <ele>98.869751</ele>
  <time>2011-11-12T05:56:02Z</time>
  <speed>3.550000</speed>
</trkpt>
<trkpt lat="32.875156403" lon="35.229335785">
  <ele>99.100220</ele>
  <time>2011-11-12T05:56:03Z</time>
  <speed>3.280000</speed>
</trkpt>
<trkpt lat="32.875171661" lon="35.229366302">
  <ele>99.627563</ele>
  <time>2011-11-12T05:56:04Z</time>
  <speed>2.900000</speed>
</trkpt>
<trkpt lat="32.875190735" lon="35.229419708">
  <ele>99.576782</ele>
  <time>2011-11-12T05:56:06Z</time>
  <speed>2.600000</speed>
</trkpt>
<trkpt lat="32.875217438" lon="35.229465485">
  <ele>100.145142</ele>
  <time>2011-11-12T05:56:08Z</time>
  <speed>2.350000</speed>
</trkpt>
<trkpt lat="32.875236511" lon="35.229515076">
  <ele>100.227173</ele>
  <time>2011-11-12T05:56:10Z</time>
  <speed>2.500000</speed>
</trkpt>
<trkpt lat="32.875255585" lon="35.229541779">
  <ele>100.475220</ele>
  <time>2011-11-12T05:56:11Z</time>
  <speed>2.870000</speed>
</trkpt>
<trkpt lat="32.875286102" lon="35.229591370">
  <ele>100.524048</ele>
  <time>2011-11-12T05:56:13Z</time>
  <speed>3.130000</speed>
</trkpt>
<trkpt lat="32.875301361" lon="35.229618073">
  <ele>101.379517</ele>
  <time>2011-11-12T05:56:14Z</time>
  <speed>2.930000</speed>
</trkpt>
<trkpt lat="32.875324249" lon="35.229667664">
  <ele>101.399048</ele>
  <time>2011-11-12T05:56:16Z</time>
  <speed>3.100000</speed>
</trkpt>
<trkpt lat="32.875354767" lon="35.229713440">
  <ele>101.041626</ele>
  <time>2011-11-12T05:56:18Z</time>
  <speed>3.090000</speed>
</trkpt>
<trkpt lat="32.875373840" lon="35.229740143">
  <ele>101.449829</ele>
  <time>2011-11-12T05:56:19Z</time>
  <speed>3.060000</speed>
</trkpt>
<trkpt lat="32.875408173" lon="35.229782104">
  <ele>101.818970</ele>
  <time>2011-11-12T05:56:21Z</time>
  <speed>2.870000</speed>
</trkpt>
<trkpt lat="32.875450134" lon="35.229824066">
  <ele>102.498657</ele>
  <time>2011-11-12T05:56:23Z</time>
  <speed>3.160000</speed>
</trkpt>
<trkpt lat="32.875473022" lon="35.229850769">
  <ele>102.992798</ele>
  <time>2011-11-12T05:56:24Z</time>
  <speed>3.230000</speed>
</trkpt>
<trkpt lat="32.875495911" lon="35.229873657">
  <ele>103.865845</ele>
  <time>2011-11-12T05:56:25Z</time>
  <speed>3.270000</speed>
</trkpt>
<trkpt lat="32.875514984" lon="35.229896545">
  <ele>104.526001</ele>
  <time>2011-11-12T05:56:26Z</time>
  <speed>3.040000</speed>
</trkpt>
<trkpt lat="32.875549316" lon="35.229942322">
  <ele>105.147095</ele>
  <time>2011-11-12T05:56:28Z</time>
  <speed>3.130000</speed>
</trkpt>
<trkpt lat="32.875568390" lon="35.229969025">
  <ele>105.309204</ele>
  <time>2011-11-12T05:56:29Z</time>
  <speed>3.100000</speed>
</trkpt>
<trkpt lat="32.875579834" lon="35.229999542">
  <ele>105.613892</ele>
  <time>2011-11-12T05:56:30Z</time>
  <speed>3.270000</speed>
</trkpt>
<trkpt lat="32.875595093" lon="35.230026245">
  <ele>105.840454</ele>
  <time>2011-11-12T05:56:31Z</time>
  <speed>3.140000</speed>
</trkpt>
<trkpt lat="32.875610352" lon="35.230056763">
  <ele>105.551392</ele>
  <time>2011-11-12T05:56:32Z</time>
  <speed>3.240000</speed>
</trkpt>
<trkpt lat="32.875621796" lon="35.230094910">
  <ele>104.803345</ele>
  <time>2011-11-12T05:56:33Z</time>
  <speed>3.230000</speed>
</trkpt>
<trkpt lat="32.875629425" lon="35.230129242">
  <ele>104.756470</ele>
  <time>2011-11-12T05:56:34Z</time>
  <speed>3.330000</speed>
</trkpt>
<trkpt lat="32.875637054" lon="35.230163574">
  <ele>105.123657</ele>
  <time>2011-11-12T05:56:35Z</time>
  <speed>3.440000</speed>
</trkpt>
<trkpt lat="32.875637054" lon="35.230201721">
  <ele>105.772095</ele>
  <time>2011-11-12T05:56:36Z</time>
  <speed>3.530000</speed>
</trkpt>
<trkpt lat="32.875637054" lon="35.230243683">
  <ele>105.418579</ele>
  <time>2011-11-12T05:56:37Z</time>
  <speed>3.480000</speed>
</trkpt>
<trkpt lat="32.875633240" lon="35.230281830">
  <ele>106.283813</ele>
  <time>2011-11-12T05:56:38Z</time>
  <speed>3.160000</speed>
</trkpt>
<trkpt lat="32.875621796" lon="35.230312347">
  <ele>106.430298</ele>
  <time>2011-11-12T05:56:39Z</time>
  <speed>3.530000</speed>
</trkpt>
<trkpt lat="32.875614166" lon="35.230350494">
  <ele>106.625610</ele>
  <time>2011-11-12T05:56:40Z</time>
  <speed>3.310000</speed>
</trkpt>
<trkpt lat="32.875598907" lon="35.230388641">
  <ele>107.381470</ele>
  <time>2011-11-12T05:56:41Z</time>
  <speed>3.230000</speed>
</trkpt>
<trkpt lat="32.875595093" lon="35.230426788">
  <ele>109.494751</ele>
  <time>2011-11-12T05:56:42Z</time>
  <speed>3.190000</speed>
</trkpt>
<trkpt lat="32.875576019" lon="35.230487823">
  <ele>109.359985</ele>
  <time>2011-11-12T05:56:44Z</time>
  <speed>3.350000</speed>
</trkpt>
<trkpt lat="32.875564575" lon="35.230518341">
  <ele>109.635376</ele>
  <time>2011-11-12T05:56:45Z</time>
  <speed>3.050000</speed>
</trkpt>
<trkpt lat="32.875556946" lon="35.230552673">
  <ele>109.442017</ele>
  <time>2011-11-12T05:56:46Z</time>
  <speed>3.200000</speed>
</trkpt>
<trkpt lat="32.875545502" lon="35.230590820">
  <ele>109.502563</ele>
  <time>2011-11-12T05:56:47Z</time>
  <speed>3.160000</speed>
</trkpt>
<trkpt lat="32.875534058" lon="35.230651855">
  <ele>109.276001</ele>
  <time>2011-11-12T05:56:49Z</time>
  <speed>3.350000</speed>
</trkpt>
<trkpt lat="32.875530243" lon="35.230686188">
  <ele>108.973267</ele>
  <time>2011-11-12T05:56:50Z</time>
  <speed>3.240000</speed>
</trkpt>
<trkpt lat="32.875526428" lon="35.230724335">
  <ele>108.885376</ele>
  <time>2011-11-12T05:56:51Z</time>
  <speed>3.170000</speed>
</trkpt>
<trkpt lat="32.875518799" lon="35.230754852">
  <ele>109.160767</ele>
  <time>2011-11-12T05:56:52Z</time>
  <speed>3.270000</speed>
</trkpt>
<trkpt lat="32.875514984" lon="35.230789185">
  <ele>109.256470</ele>
  <time>2011-11-12T05:56:53Z</time>
  <speed>3.240000</speed>
</trkpt>
<trkpt lat="32.875514984" lon="35.230823517">
  <ele>109.070923</ele>
  <time>2011-11-12T05:56:54Z</time>
  <speed>3.030000</speed>
</trkpt>
<trkpt lat="32.875518799" lon="35.230857849">
  <ele>109.666626</ele>
  <time>2011-11-12T05:56:55Z</time>
  <speed>3.020000</speed>
</trkpt>
<trkpt lat="32.875514984" lon="35.230922699">
  <ele>110.426392</ele>
  <time>2011-11-12T05:56:57Z</time>
  <speed>3.060000</speed>
</trkpt>
<trkpt lat="32.875511169" lon="35.230953217">
  <ele>110.250610</ele>
  <time>2011-11-12T05:56:58Z</time>
  <speed>2.950000</speed>
</trkpt>
<trkpt lat="32.875507355" lon="35.231021881">
  <ele>111.625610</ele>
  <time>2011-11-12T05:57:00Z</time>
  <speed>3.040000</speed>
</trkpt>
<trkpt lat="32.875507355" lon="35.231056213">
  <ele>111.760376</ele>
  <time>2011-11-12T05:57:01Z</time>
  <speed>3.010000</speed>
</trkpt>
<trkpt lat="32.875518799" lon="35.231117249">
  <ele>112.406860</ele>
  <time>2011-11-12T05:57:03Z</time>
  <speed>2.750000</speed>
</trkpt>
<trkpt lat="32.875526428" lon="35.231178284">
  <ele>113.184204</ele>
  <time>2011-11-12T05:57:05Z</time>
  <speed>2.950000</speed>
</trkpt>
<trkpt lat="32.875530243" lon="35.231243134">
  <ele>112.746704</ele>
  <time>2011-11-12T05:57:07Z</time>
  <speed>3.150000</speed>
</trkpt>
<trkpt lat="32.875534058" lon="35.231277466">
  <ele>113.414673</ele>
  <time>2011-11-12T05:57:08Z</time>
  <speed>3.080000</speed>
</trkpt>
<trkpt lat="32.875537872" lon="35.231307983">
  <ele>114.068970</ele>
  <time>2011-11-12T05:57:09Z</time>
  <speed>3.150000</speed>
</trkpt>
<trkpt lat="32.875537872" lon="35.231342316">
  <ele>114.670532</ele>
  <time>2011-11-12T05:57:10Z</time>
  <speed>3.210000</speed>
</trkpt>
<trkpt lat="32.875537872" lon="35.231376648">
  <ele>114.442017</ele>
  <time>2011-11-12T05:57:11Z</time>
  <speed>2.950000</speed>
</trkpt>
<trkpt lat="32.875534058" lon="35.231441498">
  <ele>114.402954</ele>
  <time>2011-11-12T05:57:13Z</time>
  <speed>2.850000</speed>
</trkpt>
<trkpt lat="32.875530243" lon="35.231494904">
  <ele>115.621704</ele>
  <time>2011-11-12T05:57:15Z</time>
  <speed>2.430000</speed>
</trkpt>
<trkpt lat="32.875514984" lon="35.231544495">
  <ele>115.459595</ele>
  <time>2011-11-12T05:57:17Z</time>
  <speed>2.540000</speed>
</trkpt>
<trkpt lat="32.875503540" lon="35.231590271">
  <ele>115.848267</ele>
  <time>2011-11-12T05:57:19Z</time>
  <speed>2.540000</speed>
</trkpt>
<trkpt lat="32.875476837" lon="35.231639862">
  <ele>115.514282</ele>
  <time>2011-11-12T05:57:21Z</time>
  <speed>2.600000</speed>
</trkpt>
<trkpt lat="32.875461578" lon="35.231693268">
  <ele>115.680298</ele>
  <time>2011-11-12T05:57:23Z</time>
  <speed>2.460000</speed>
</trkpt>
<trkpt lat="32.875438690" lon="35.231742859">
  <ele>116.774048</ele>
  <time>2011-11-12T05:57:25Z</time>
  <speed>2.410000</speed>
</trkpt>
<trkpt lat="32.875419617" lon="35.231784821">
  <ele>117.754517</ele>
  <time>2011-11-12T05:57:27Z</time>
  <speed>2.400000</speed>
</trkpt>
<trkpt lat="32.875404358" lon="35.231826782">
  <ele>119.678345</ele>
  <time>2011-11-12T05:57:29Z</time>
  <speed>2.240000</speed>
</trkpt>
<trkpt lat="32.875389099" lon="35.231872559">
  <ele>120.074829</ele>
  <time>2011-11-12T05:57:31Z</time>
  <speed>2.180000</speed>
</trkpt>
<trkpt lat="32.875373840" lon="35.231910706">
  <ele>120.613892</ele>
  <time>2011-11-12T05:57:33Z</time>
  <speed>2.030000</speed>
</trkpt>
<trkpt lat="32.875366211" lon="35.231960297">
  <ele>122.652954</ele>
  <time>2011-11-12T05:57:35Z</time>
  <speed>2.260000</speed>
</trkpt>
<trkpt lat="32.875347137" lon="35.232006073">
  <ele>123.039673</ele>
  <time>2011-11-12T05:57:37Z</time>
  <speed>2.440000</speed>
</trkpt>
<trkpt lat="32.875335693" lon="35.232051849">
  <ele>123.641235</ele>
  <time>2011-11-12T05:57:39Z</time>
  <speed>2.350000</speed>
</trkpt>
<trkpt lat="32.875320435" lon="35.232097626">
  <ele>123.449829</ele>
  <time>2011-11-12T05:57:41Z</time>
  <speed>2.090000</speed>
</trkpt>
<trkpt lat="32.875293732" lon="35.232143402">
  <ele>123.205688</ele>
  <time>2011-11-12T05:57:43Z</time>
  <speed>2.300000</speed>
</trkpt>
<trkpt lat="32.875278473" lon="35.232181549">
  <ele>124.022095</ele>
  <time>2011-11-12T05:57:45Z</time>
  <speed>2.080000</speed>
</trkpt>
<trkpt lat="32.875263214" lon="35.232223511">
  <ele>124.115845</ele>
  <time>2011-11-12T05:57:47Z</time>
  <speed>2.100000</speed>
</trkpt>
<trkpt lat="32.875247955" lon="35.232265472">
  <ele>124.838501</ele>
  <time>2011-11-12T05:57:49Z</time>
  <speed>1.980000</speed>
</trkpt>
<trkpt lat="32.875225067" lon="35.232307434">
  <ele>124.942017</ele>
  <time>2011-11-12T05:57:51Z</time>
  <speed>2.240000</speed>
</trkpt>
<trkpt lat="32.875205994" lon="35.232345581">
  <ele>124.932251</ele>
  <time>2011-11-12T05:57:53Z</time>
  <speed>2.160000</speed>
</trkpt>
<trkpt lat="32.875198364" lon="35.232383728">
  <ele>124.986938</ele>
  <time>2011-11-12T05:57:55Z</time>
  <speed>2.260000</speed>
</trkpt>
<trkpt lat="32.875175476" lon="35.232421875">
  <ele>125.420532</ele>
  <time>2011-11-12T05:57:57Z</time>
  <speed>2.020000</speed>
</trkpt>
<trkpt lat="32.875156403" lon="35.232463837">
  <ele>125.102173</ele>
  <time>2011-11-12T05:57:59Z</time>
  <speed>2.110000</speed>
</trkpt>
<trkpt lat="32.875144958" lon="35.232501984">
  <ele>126.143188</ele>
  <time>2011-11-12T05:58:01Z</time>
  <speed>2.040000</speed>
</trkpt>
<trkpt lat="32.875125885" lon="35.232540131">
  <ele>126.654907</ele>
  <time>2011-11-12T05:58:03Z</time>
  <speed>1.910000</speed>
</trkpt>
<trkpt lat="32.875110626" lon="35.232585907">
  <ele>126.526001</ele>
  <time>2011-11-12T05:58:05Z</time>
  <speed>2.190000</speed>
</trkpt>
<trkpt lat="32.875095367" lon="35.232627869">
  <ele>125.840454</ele>
  <time>2011-11-12T05:58:07Z</time>
  <speed>2.120000</speed>
</trkpt>
<trkpt lat="32.875080109" lon="35.232666016">
  <ele>125.322876</ele>
  <time>2011-11-12T05:58:09Z</time>
  <speed>1.960000</speed>
</trkpt>
<trkpt lat="32.875064850" lon="35.232707977">
  <ele>124.875610</ele>
  <time>2011-11-12T05:58:11Z</time>
  <speed>2.210000</speed>
</trkpt>
<trkpt lat="32.875053406" lon="35.232749939">
  <ele>124.699829</ele>
  <time>2011-11-12T05:58:13Z</time>
  <speed>1.930000</speed>
</trkpt>
<trkpt lat="32.875034332" lon="35.232791901">
  <ele>125.313110</ele>
  <time>2011-11-12T05:58:15Z</time>
  <speed>1.950000</speed>
</trkpt>
<trkpt lat="32.875015259" lon="35.232822418">
  <ele>125.697876</ele>
  <time>2011-11-12T05:58:17Z</time>
  <speed>2.050000</speed>
</trkpt>
<trkpt lat="32.874992371" lon="35.232852936">
  <ele>125.043579</ele>
  <time>2011-11-12T05:58:19Z</time>
  <speed>1.900000</speed>
</trkpt>
<trkpt lat="32.874965668" lon="35.232883453">
  <ele>124.674438</ele>
  <time>2011-11-12T05:58:21Z</time>
  <speed>2.050000</speed>
</trkpt>
<trkpt lat="32.874942780" lon="35.232913971">
  <ele>124.586548</ele>
  <time>2011-11-12T05:58:23Z</time>
  <speed>2.180000</speed>
</trkpt>
<trkpt lat="32.874908447" lon="35.232940674">
  <ele>124.856079</ele>
  <time>2011-11-12T05:58:25Z</time>
  <speed>2.250000</speed>
</trkpt>
<trkpt lat="32.874866486" lon="35.232959747">
  <ele>124.649048</ele>
  <time>2011-11-12T05:58:27Z</time>
  <speed>2.050000</speed>
</trkpt>
<trkpt lat="32.874839783" lon="35.232971191">
  <ele>124.652954</ele>
  <time>2011-11-12T05:58:29Z</time>
  <speed>1.730000</speed>
</trkpt>
<trkpt lat="32.874805450" lon="35.232982635">
  <ele>124.955688</ele>
  <time>2011-11-12T05:58:31Z</time>
  <speed>1.670000</speed>
</trkpt>
<trkpt lat="32.874771118" lon="35.232971191">
  <ele>124.861938</ele>
  <time>2011-11-12T05:58:33Z</time>
  <speed>2.160000</speed>
</trkpt>
<trkpt lat="32.874740601" lon="35.232955933">
  <ele>124.651001</ele>
  <time>2011-11-12T05:58:35Z</time>
  <speed>1.850000</speed>
</trkpt>
<trkpt lat="32.874710083" lon="35.232940674">
  <ele>124.600220</ele>
  <time>2011-11-12T05:58:37Z</time>
  <speed>1.730000</speed>
</trkpt>
<trkpt lat="32.874675751" lon="35.232917786">
  <ele>124.760376</ele>
  <time>2011-11-12T05:58:39Z</time>
  <speed>1.580000</speed>
</trkpt>
<trkpt lat="32.874645233" lon="35.232898712">
  <ele>124.879517</ele>
  <time>2011-11-12T05:58:41Z</time>
  <speed>2.070000</speed>
</trkpt>
<trkpt lat="32.874607086" lon="35.232875824">
  <ele>124.934204</ele>
  <time>2011-11-12T05:58:43Z</time>
  <speed>1.730000</speed>
</trkpt>
<trkpt lat="32.874591827" lon="35.232845306">
  <ele>125.197876</ele>
  <time>2011-11-12T05:58:45Z</time>
  <speed>1.520000</speed>
</trkpt>
<trkpt lat="32.874572754" lon="35.232814789">
  <ele>125.822876</ele>
  <time>2011-11-12T05:58:47Z</time>
  <speed>1.430000</speed>
</trkpt>
<trkpt lat="32.874561310" lon="35.232784271">
  <ele>125.854126</ele>
  <time>2011-11-12T05:58:49Z</time>
  <speed>1.400000</speed>
</trkpt>
<trkpt lat="32.874542236" lon="35.232753754">
  <ele>125.840454</ele>
  <time>2011-11-12T05:58:51Z</time>
  <speed>1.460000</speed>
</trkpt>
<trkpt lat="32.874530792" lon="35.232723236">
  <ele>126.674438</ele>
  <time>2011-11-12T05:58:53Z</time>
  <speed>1.570000</speed>
</trkpt>
<trkpt lat="32.874515533" lon="35.232692719">
  <ele>126.701782</ele>
  <time>2011-11-12T05:58:55Z</time>
  <speed>1.610000</speed>
</trkpt>
<trkpt lat="32.874492645" lon="35.232669830">
  <ele>126.592407</ele>
  <time>2011-11-12T05:58:57Z</time>
  <speed>1.600000</speed>
</trkpt>
<trkpt lat="32.874477386" lon="35.232635498">
  <ele>127.572876</ele>
  <time>2011-11-12T05:58:59Z</time>
  <speed>1.480000</speed>
</trkpt>
<trkpt lat="32.874450684" lon="35.232601166">
  <ele>127.229126</ele>
  <time>2011-11-12T05:59:01Z</time>
  <speed>1.910000</speed>
</trkpt>
<trkpt lat="32.874423981" lon="35.232570648">
  <ele>126.617798</ele>
  <time>2011-11-12T05:59:03Z</time>
  <speed>1.940000</speed>
</trkpt>
<trkpt lat="32.874404907" lon="35.232532501">
  <ele>126.674438</ele>
  <time>2011-11-12T05:59:05Z</time>
  <speed>2.060000</speed>
</trkpt>
<trkpt lat="32.874389648" lon="35.232501984">
  <ele>125.848267</ele>
  <time>2011-11-12T05:59:08Z</time>
  <speed>1.900000</speed>
</trkpt>
<trkpt lat="32.874378204" lon="35.232460022">
  <ele>125.363892</ele>
  <time>2011-11-12T05:59:10Z</time>
  <speed>1.920000</speed>
</trkpt>
<trkpt lat="32.874366760" lon="35.232418060">
  <ele>125.193970</ele>
  <time>2011-11-12T05:59:12Z</time>
  <speed>2.110000</speed>
</trkpt>
<trkpt lat="32.874370575" lon="35.232368469">
  <ele>124.955688</ele>
  <time>2011-11-12T05:59:14Z</time>
  <speed>1.870000</speed>
</trkpt>
<trkpt lat="32.874374390" lon="35.232322693">
  <ele>125.858032</ele>
  <time>2011-11-12T05:59:16Z</time>
  <speed>1.800000</speed>
</trkpt>
<trkpt lat="32.874370575" lon="35.232284546">
  <ele>126.611938</ele>
  <time>2011-11-12T05:59:18Z</time>
  <speed>1.650000</speed>
</trkpt>
<trkpt lat="32.874370575" lon="35.232250214">
  <ele>126.438110</ele>
  <time>2011-11-12T05:59:20Z</time>
  <speed>1.450000</speed>
</trkpt>
<trkpt lat="32.874370575" lon="35.232208252">
  <ele>127.858032</ele>
  <time>2011-11-12T05:59:22Z</time>
  <speed>1.700000</speed>
</trkpt>
<trkpt lat="32.874366760" lon="35.232162476">
  <ele>129.212158</ele>
  <time>2011-11-12T05:59:24Z</time>
  <speed>1.650000</speed>
</trkpt>
<trkpt lat="32.874362946" lon="35.232124329">
  <ele>129.985596</ele>
  <time>2011-11-12T05:59:26Z</time>
  <speed>1.530000</speed>
</trkpt>
<trkpt lat="32.874370575" lon="35.232093811">
  <ele>131.403564</ele>
  <time>2011-11-12T05:59:28Z</time>
  <speed>1.570000</speed>
</trkpt>
<trkpt lat="32.874382019" lon="35.232048035">
  <ele>132.098877</ele>
  <time>2011-11-12T05:59:30Z</time>
  <speed>1.620000</speed>
</trkpt>
<trkpt lat="32.874389648" lon="35.232002258">
  <ele>132.962158</ele>
  <time>2011-11-12T05:59:32Z</time>
  <speed>1.720000</speed>
</trkpt>
<trkpt lat="32.874393463" lon="35.231960297">
  <ele>132.649658</ele>
  <time>2011-11-12T05:59:34Z</time>
  <speed>2.050000</speed>
</trkpt>
<trkpt lat="32.874401093" lon="35.231922150">
  <ele>133.645752</ele>
  <time>2011-11-12T05:59:36Z</time>
  <speed>1.810000</speed>
</trkpt>
<trkpt lat="32.874404907" lon="35.231880188">
  <ele>134.602783</ele>
  <time>2011-11-12T05:59:38Z</time>
  <speed>1.760000</speed>
</trkpt>
<trkpt lat="32.874416351" lon="35.231842041">
  <ele>134.930908</ele>
  <time>2011-11-12T05:59:40Z</time>
  <speed>1.800000</speed>
</trkpt>
<trkpt lat="32.874420166" lon="35.231800079">
  <ele>135.110596</ele>
  <time>2011-11-12T05:59:42Z</time>
  <speed>2.030000</speed>
</trkpt>
<trkpt lat="32.874431610" lon="35.231758118">
  <ele>134.809814</ele>
  <time>2011-11-12T05:59:44Z</time>
  <speed>1.860000</speed>
</trkpt>
<trkpt lat="32.874435425" lon="35.231716156">
  <ele>134.387939</ele>
  <time>2011-11-12T05:59:46Z</time>
  <speed>2.210000</speed>
</trkpt>
<trkpt lat="32.874446869" lon="35.231670380">
  <ele>134.802002</ele>
  <time>2011-11-12T05:59:48Z</time>
  <speed>1.480000</speed>
</trkpt>
<trkpt lat="32.874446869" lon="35.231620789">
  <ele>134.825439</ele>
  <time>2011-11-12T05:59:51Z</time>
  <speed>1.720000</speed>
</trkpt>
<trkpt lat="32.874439240" lon="35.231586456">
  <ele>135.411377</ele>
  <time>2011-11-12T05:59:53Z</time>
  <speed>1.910000</speed>
</trkpt>
<trkpt lat="32.874435425" lon="35.231548309">
  <ele>136.368408</ele>
  <time>2011-11-12T05:59:55Z</time>
  <speed>1.810000</speed>
</trkpt>
<trkpt lat="32.874431610" lon="35.231506348">
  <ele>136.602783</ele>
  <time>2011-11-12T05:59:57Z</time>
  <speed>1.630000</speed>
</trkpt>
<trkpt lat="32.874420166" lon="35.231464386">
  <ele>137.298096</ele>
  <time>2011-11-12T05:59:59Z</time>
  <speed>1.700000</speed>
</trkpt>
<trkpt lat="32.874404907" lon="35.231430054">
  <ele>136.399658</ele>
  <time>2011-11-12T06:00:01Z</time>
  <speed>1.680000</speed>
</trkpt>
<trkpt lat="32.874393463" lon="35.231399536">
  <ele>136.063721</ele>
  <time>2011-11-12T06:00:03Z</time>
  <speed>1.780000</speed>
</trkpt>
<trkpt lat="32.874382019" lon="35.231357574">
  <ele>135.786377</ele>
  <time>2011-11-12T06:00:05Z</time>
  <speed>1.700000</speed>
</trkpt>
<trkpt lat="32.874370575" lon="35.231327057">
  <ele>136.024658</ele>
  <time>2011-11-12T06:00:07Z</time>
  <speed>1.720000</speed>
</trkpt>
<trkpt lat="32.874347687" lon="35.231296539">
  <ele>135.544189</ele>
  <time>2011-11-12T06:00:09Z</time>
  <speed>2.040000</speed>
</trkpt>
<trkpt lat="32.874332428" lon="35.231266022">
  <ele>136.403564</ele>
  <time>2011-11-12T06:00:11Z</time>
  <speed>1.290000</speed>
</trkpt>
<trkpt lat="32.874317169" lon="35.231243134">
  <ele>136.618408</ele>
  <time>2011-11-12T06:00:13Z</time>
  <speed>1.600000</speed>
</trkpt>
<trkpt lat="32.874294281" lon="35.231220245">
  <ele>136.122314</ele>
  <time>2011-11-12T06:00:15Z</time>
  <speed>1.860000</speed>
</trkpt>
<trkpt lat="32.874263763" lon="35.231193542">
  <ele>135.481689</ele>
  <time>2011-11-12T06:00:17Z</time>
  <speed>1.790000</speed>
</trkpt>
<trkpt lat="32.874237061" lon="35.231159210">
  <ele>134.430908</ele>
  <time>2011-11-12T06:00:20Z</time>
  <speed>1.620000</speed>
</trkpt>
<trkpt lat="32.874210358" lon="35.231132507">
  <ele>134.759033</ele>
  <time>2011-11-12T06:00:22Z</time>
  <speed>1.940000</speed>
</trkpt>
<trkpt lat="32.874187469" lon="35.231113434">
  <ele>134.950439</ele>
  <time>2011-11-12T06:00:24Z</time>
  <speed>1.730000</speed>
</trkpt>
<trkpt lat="32.874153137" lon="35.231094360">
  <ele>135.219971</ele>
  <time>2011-11-12T06:00:27Z</time>
  <speed>1.850000</speed>
</trkpt>
<trkpt lat="32.874126434" lon="35.231082916">
  <ele>135.614502</ele>
  <time>2011-11-12T06:00:29Z</time>
  <speed>1.790000</speed>
</trkpt>
<trkpt lat="32.874099731" lon="35.231071472">
  <ele>135.208252</ele>
  <time>2011-11-12T06:00:31Z</time>
  <speed>1.830000</speed>
</trkpt>
<trkpt lat="32.874073029" lon="35.231063843">
  <ele>135.317627</ele>
  <time>2011-11-12T06:00:33Z</time>
  <speed>1.630000</speed>
</trkpt>
<trkpt lat="32.874042511" lon="35.231060028">
  <ele>135.344971</ele>
  <time>2011-11-12T06:00:35Z</time>
  <speed>1.720000</speed>
</trkpt>
<trkpt lat="32.874008179" lon="35.231056213">
  <ele>135.118408</ele>
  <time>2011-11-12T06:00:37Z</time>
  <speed>1.970000</speed>
</trkpt>
<trkpt lat="32.873970032" lon="35.231056213">
  <ele>133.985596</ele>
  <time>2011-11-12T06:00:40Z</time>
  <speed>1.840000</speed>
</trkpt>
<trkpt lat="32.873935699" lon="35.231063843">
  <ele>134.395752</ele>
  <time>2011-11-12T06:00:42Z</time>
  <speed>1.540000</speed>
</trkpt>
<trkpt lat="32.873901367" lon="35.231071472">
  <ele>134.579346</ele>
  <time>2011-11-12T06:00:44Z</time>
  <speed>1.820000</speed>
</trkpt>
<trkpt lat="32.873863220" lon="35.231101990">
  <ele>135.219971</ele>
  <time>2011-11-12T06:00:46Z</time>
  <speed>2.090000</speed>
</trkpt>
<trkpt lat="32.873813629" lon="35.231117249">
  <ele>136.059814</ele>
  <time>2011-11-12T06:00:48Z</time>
  <speed>1.970000</speed>
</trkpt>
<trkpt lat="32.873767853" lon="35.231128693">
  <ele>137.001221</ele>
  <time>2011-11-12T06:00:50Z</time>
  <speed>1.940000</speed>
</trkpt>
<trkpt lat="32.873729706" lon="35.231136322">
  <ele>137.837158</ele>
  <time>2011-11-12T06:00:52Z</time>
  <speed>1.750000</speed>
</trkpt>
<trkpt lat="32.873699188" lon="35.231140137">
  <ele>138.438721</ele>
  <time>2011-11-12T06:00:54Z</time>
  <speed>1.660000</speed>
</trkpt>
<trkpt lat="32.873672485" lon="35.231147766">
  <ele>139.622314</ele>
  <time>2011-11-12T06:00:56Z</time>
  <speed>1.350000</speed>
</trkpt>
<trkpt lat="32.873641968" lon="35.231155396">
  <ele>140.122314</ele>
  <time>2011-11-12T06:00:58Z</time>
  <speed>1.330000</speed>
</trkpt>
<trkpt lat="32.873611450" lon="35.231166840">
  <ele>140.481689</ele>
  <time>2011-11-12T06:01:00Z</time>
  <speed>1.730000</speed>
</trkpt>
<trkpt lat="32.873577118" lon="35.231174469">
  <ele>141.180908</ele>
  <time>2011-11-12T06:01:02Z</time>
  <speed>1.330000</speed>
</trkpt>
<trkpt lat="32.873546600" lon="35.231185913">
  <ele>141.669189</ele>
  <time>2011-11-12T06:01:04Z</time>
  <speed>1.600000</speed>
</trkpt>
<trkpt lat="32.873519897" lon="35.231201172">
  <ele>142.012939</ele>
  <time>2011-11-12T06:01:06Z</time>
  <speed>1.590000</speed>
</trkpt>
<trkpt lat="32.873493195" lon="35.231197357">
  <ele>143.321533</ele>
  <time>2011-11-12T06:01:08Z</time>
  <speed>1.700000</speed>
</trkpt>
<trkpt lat="32.873455048" lon="35.231189728">
  <ele>144.032471</ele>
  <time>2011-11-12T06:01:11Z</time>
  <speed>1.310000</speed>
</trkpt>
<trkpt lat="32.873432159" lon="35.231178284">
  <ele>143.598877</ele>
  <time>2011-11-12T06:01:13Z</time>
  <speed>1.520000</speed>
</trkpt>
<trkpt lat="32.873394012" lon="35.231174469">
  <ele>143.981689</ele>
  <time>2011-11-12T06:01:15Z</time>
  <speed>1.910000</speed>
</trkpt>
<trkpt lat="32.873359680" lon="35.231166840">
  <ele>144.661377</ele>
  <time>2011-11-12T06:01:17Z</time>
  <speed>1.650000</speed>
</trkpt>
<trkpt lat="32.873321533" lon="35.231170654">
  <ele>143.704346</ele>
  <time>2011-11-12T06:01:19Z</time>
  <speed>1.760000</speed>
</trkpt>
<trkpt lat="32.873283386" lon="35.231166840">
  <ele>144.169189</ele>
  <time>2011-11-12T06:01:21Z</time>
  <speed>1.630000</speed>
</trkpt>
<trkpt lat="32.873256683" lon="35.231159210">
  <ele>144.337158</ele>
  <time>2011-11-12T06:01:23Z</time>
  <speed>1.740000</speed>
</trkpt>
<trkpt lat="32.873222351" lon="35.231147766">
  <ele>144.384033</ele>
  <time>2011-11-12T06:01:26Z</time>
  <speed>1.620000</speed>
</trkpt>
<trkpt lat="32.873188019" lon="35.231147766">
  <ele>145.094971</ele>
  <time>2011-11-12T06:01:29Z</time>
  <speed>1.440000</speed>
</trkpt>
<trkpt lat="32.873161316" lon="35.231132507">
  <ele>144.391846</ele>
  <time>2011-11-12T06:01:31Z</time>
  <speed>1.350000</speed>
</trkpt>
<trkpt lat="32.873126984" lon="35.231121063">
  <ele>144.790283</ele>
  <time>2011-11-12T06:01:33Z</time>
  <speed>1.560000</speed>
</trkpt>
<trkpt lat="32.873100281" lon="35.231109619">
  <ele>144.833252</ele>
  <time>2011-11-12T06:01:35Z</time>
  <speed>1.690000</speed>
</trkpt>
<trkpt lat="32.873069763" lon="35.231105804">
  <ele>144.727783</ele>
  <time>2011-11-12T06:01:37Z</time>
  <speed>1.540000</speed>
</trkpt>
<trkpt lat="32.873046875" lon="35.231086731">
  <ele>144.407471</ele>
  <time>2011-11-12T06:01:39Z</time>
  <speed>1.520000</speed>
</trkpt>
<trkpt lat="32.873012543" lon="35.231052399">
  <ele>144.544189</ele>
  <time>2011-11-12T06:01:42Z</time>
  <speed>1.790000</speed>
</trkpt>
<trkpt lat="32.872985840" lon="35.231040955">
  <ele>144.395752</ele>
  <time>2011-11-12T06:01:44Z</time>
  <speed>1.650000</speed>
</trkpt>
<trkpt lat="32.872959137" lon="35.231014252">
  <ele>144.864502</ele>
  <time>2011-11-12T06:01:46Z</time>
  <speed>1.820000</speed>
</trkpt>
<trkpt lat="32.872932434" lon="35.230998993">
  <ele>145.110596</ele>
  <time>2011-11-12T06:01:48Z</time>
  <speed>1.600000</speed>
</trkpt>
<trkpt lat="32.872905731" lon="35.230979919">
  <ele>145.384033</ele>
  <time>2011-11-12T06:01:50Z</time>
  <speed>1.790000</speed>
</trkpt>
<trkpt lat="32.872871399" lon="35.230953217">
  <ele>145.825439</ele>
  <time>2011-11-12T06:01:52Z</time>
  <speed>1.990000</speed>
</trkpt>
<trkpt lat="32.872833252" lon="35.230945587">
  <ele>145.575439</ele>
  <time>2011-11-12T06:01:54Z</time>
  <speed>1.910000</speed>
</trkpt>
<trkpt lat="32.872798920" lon="35.230926514">
  <ele>145.989502</ele>
  <time>2011-11-12T06:01:56Z</time>
  <speed>1.870000</speed>
</trkpt>
<trkpt lat="32.872768402" lon="35.230911255">
  <ele>146.024658</ele>
  <time>2011-11-12T06:01:58Z</time>
  <speed>1.950000</speed>
</trkpt>
<trkpt lat="32.872734070" lon="35.230911255">
  <ele>146.813721</ele>
  <time>2011-11-12T06:02:00Z</time>
  <speed>1.560000</speed>
</trkpt>
<trkpt lat="32.872695923" lon="35.230903625">
  <ele>146.380127</ele>
  <time>2011-11-12T06:02:02Z</time>
  <speed>1.770000</speed>
</trkpt>
<trkpt lat="32.872669220" lon="35.230892181">
  <ele>146.946533</ele>
  <time>2011-11-12T06:02:04Z</time>
  <speed>1.410000</speed>
</trkpt>
<trkpt lat="32.872631073" lon="35.230884552">
  <ele>147.649658</ele>
  <time>2011-11-12T06:02:06Z</time>
  <speed>1.840000</speed>
</trkpt>
<trkpt lat="32.872604370" lon="35.230880737">
  <ele>148.536377</ele>
  <time>2011-11-12T06:02:08Z</time>
  <speed>1.590000</speed>
</trkpt>
<trkpt lat="32.872573853" lon="35.230880737">
  <ele>149.145752</ele>
  <time>2011-11-12T06:02:10Z</time>
  <speed>1.770000</speed>
</trkpt>
<trkpt lat="32.872543335" lon="35.230876923">
  <ele>149.165283</ele>
  <time>2011-11-12T06:02:12Z</time>
  <speed>1.700000</speed>
</trkpt>
<trkpt lat="32.872516632" lon="35.230876923">
  <ele>149.684814</ele>
  <time>2011-11-12T06:02:14Z</time>
  <speed>1.570000</speed>
</trkpt>
<trkpt lat="32.872489929" lon="35.230865479">
  <ele>149.544189</ele>
  <time>2011-11-12T06:02:16Z</time>
  <speed>1.610000</speed>
</trkpt>
<trkpt lat="32.872455597" lon="35.230850220">
  <ele>149.598877</ele>
  <time>2011-11-12T06:02:19Z</time>
  <speed>1.400000</speed>
</trkpt>
<trkpt lat="32.872428894" lon="35.230842590">
  <ele>148.872314</ele>
  <time>2011-11-12T06:02:21Z</time>
  <speed>1.610000</speed>
</trkpt>
<trkpt lat="32.872398376" lon="35.230842590">
  <ele>148.794189</ele>
  <time>2011-11-12T06:02:23Z</time>
  <speed>1.860000</speed>
</trkpt>
<trkpt lat="32.872367859" lon="35.230838776">
  <ele>148.212158</ele>
  <time>2011-11-12T06:02:25Z</time>
  <speed>1.780000</speed>
</trkpt>
<trkpt lat="32.872337341" lon="35.230834961">
  <ele>148.555908</ele>
  <time>2011-11-12T06:02:27Z</time>
  <speed>1.740000</speed>
</trkpt>
<trkpt lat="32.872306824" lon="35.230827332">
  <ele>148.231689</ele>
  <time>2011-11-12T06:02:29Z</time>
  <speed>1.700000</speed>
</trkpt>
<trkpt lat="32.872268677" lon="35.230823517">
  <ele>148.532471</ele>
  <time>2011-11-12T06:02:31Z</time>
  <speed>1.970000</speed>
</trkpt>
<trkpt lat="32.872230530" lon="35.230819702">
  <ele>148.755127</ele>
  <time>2011-11-12T06:02:33Z</time>
  <speed>1.910000</speed>
</trkpt>
<trkpt lat="32.872188568" lon="35.230819702">
  <ele>149.458252</ele>
  <time>2011-11-12T06:02:35Z</time>
  <speed>1.760000</speed>
</trkpt>
<trkpt lat="32.872154236" lon="35.230812073">
  <ele>150.344971</ele>
  <time>2011-11-12T06:02:37Z</time>
  <speed>1.840000</speed>
</trkpt>
<trkpt lat="32.872123718" lon="35.230804443">
  <ele>150.872314</ele>
  <time>2011-11-12T06:02:39Z</time>
  <speed>1.580000</speed>
</trkpt>
<trkpt lat="32.872093201" lon="35.230792999">
  <ele>151.059814</ele>
  <time>2011-11-12T06:02:41Z</time>
  <speed>1.690000</speed>
</trkpt>
<trkpt lat="32.872066498" lon="35.230781555">
  <ele>151.622314</ele>
  <time>2011-11-12T06:02:43Z</time>
  <speed>2.010000</speed>
</trkpt>
<trkpt lat="32.872032166" lon="35.230770111">
  <ele>151.903564</ele>
  <time>2011-11-12T06:02:45Z</time>
  <speed>1.770000</speed>
</trkpt>
<trkpt lat="32.871997833" lon="35.230762482">
  <ele>152.317627</ele>
  <time>2011-11-12T06:02:47Z</time>
  <speed>2.110000</speed>
</trkpt>
<trkpt lat="32.871959686" lon="35.230751038">
  <ele>152.708252</ele>
  <time>2011-11-12T06:02:49Z</time>
  <speed>2.060000</speed>
</trkpt>
<trkpt lat="32.871925354" lon="35.230735779">
  <ele>152.598877</ele>
  <time>2011-11-12T06:02:51Z</time>
  <speed>1.860000</speed>
</trkpt>
<trkpt lat="32.871883392" lon="35.230728149">
  <ele>151.837158</ele>
  <time>2011-11-12T06:02:53Z</time>
  <speed>2.060000</speed>
</trkpt>
<trkpt lat="32.871837616" lon="35.230716705">
  <ele>152.489502</ele>
  <time>2011-11-12T06:02:55Z</time>
  <speed>1.680000</speed>
</trkpt>
<trkpt lat="32.871810913" lon="35.230686188">
  <ele>152.583252</ele>
  <time>2011-11-12T06:02:58Z</time>
  <speed>1.570000</speed>
</trkpt>
<trkpt lat="32.871784210" lon="35.230667114">
  <ele>152.833252</ele>
  <time>2011-11-12T06:03:00Z</time>
  <speed>1.770000</speed>
</trkpt>
<trkpt lat="32.871757507" lon="35.230636597">
  <ele>152.844971</ele>
  <time>2011-11-12T06:03:02Z</time>
  <speed>1.780000</speed>
</trkpt>
<trkpt lat="32.871723175" lon="35.230606079">
  <ele>152.145752</ele>
  <time>2011-11-12T06:03:04Z</time>
  <speed>1.950000</speed>
</trkpt>
<trkpt lat="32.871696472" lon="35.230575562">
  <ele>152.778564</ele>
  <time>2011-11-12T06:03:06Z</time>
  <speed>1.810000</speed>
</trkpt>
<trkpt lat="32.871685028" lon="35.230541229">
  <ele>153.005127</ele>
  <time>2011-11-12T06:03:08Z</time>
  <speed>1.510000</speed>
</trkpt>
<trkpt lat="32.871665955" lon="35.230506897">
  <ele>153.364502</ele>
  <time>2011-11-12T06:03:10Z</time>
  <speed>1.490000</speed>
</trkpt>
<trkpt lat="32.871650696" lon="35.230476379">
  <ele>155.657471</ele>
  <time>2011-11-12T06:03:12Z</time>
  <speed>1.430000</speed>
</trkpt>
<trkpt lat="32.871646881" lon="35.230434418">
  <ele>157.075439</ele>
  <time>2011-11-12T06:03:14Z</time>
  <speed>1.710000</speed>
</trkpt>
<trkpt lat="32.871639252" lon="35.230396271">
  <ele>158.376221</ele>
  <time>2011-11-12T06:03:16Z</time>
  <speed>1.850000</speed>
</trkpt>
<trkpt lat="32.871620178" lon="35.230358124">
  <ele>158.743408</ele>
  <time>2011-11-12T06:03:18Z</time>
  <speed>1.680000</speed>
</trkpt>
<trkpt lat="32.871608734" lon="35.230319977">
  <ele>159.419189</ele>
  <time>2011-11-12T06:03:20Z</time>
  <speed>1.550000</speed>
</trkpt>
<trkpt lat="32.871597290" lon="35.230285645">
  <ele>159.606689</ele>
  <time>2011-11-12T06:03:22Z</time>
  <speed>1.670000</speed>
</trkpt>
<trkpt lat="32.871578217" lon="35.230239868">
  <ele>159.727783</ele>
  <time>2011-11-12T06:03:25Z</time>
  <speed>1.870000</speed>
</trkpt>
<trkpt lat="32.871555328" lon="35.230205536">
  <ele>158.911377</ele>
  <time>2011-11-12T06:03:27Z</time>
  <speed>2.180000</speed>
</trkpt>
<trkpt lat="32.871547699" lon="35.230163574">
  <ele>157.923096</ele>
  <time>2011-11-12T06:03:29Z</time>
  <speed>1.780000</speed>
</trkpt>
<trkpt lat="32.871536255" lon="35.230129242">
  <ele>157.696533</ele>
  <time>2011-11-12T06:03:31Z</time>
  <speed>1.960000</speed>
</trkpt>
<trkpt lat="32.871528625" lon="35.230083466">
  <ele>158.559814</ele>
  <time>2011-11-12T06:03:33Z</time>
  <speed>1.450000</speed>
</trkpt>
<trkpt lat="32.871517181" lon="35.230037689">
  <ele>158.915283</ele>
  <time>2011-11-12T06:03:35Z</time>
  <speed>1.980000</speed>
</trkpt>
<trkpt lat="32.871501923" lon="35.229999542">
  <ele>158.481689</ele>
  <time>2011-11-12T06:03:37Z</time>
  <speed>1.260000</speed>
</trkpt>
<trkpt lat="32.871490479" lon="35.229965210">
  <ele>158.825439</ele>
  <time>2011-11-12T06:03:39Z</time>
  <speed>1.550000</speed>
</trkpt>
<trkpt lat="32.871467590" lon="35.229934692">
  <ele>158.137939</ele>
  <time>2011-11-12T06:03:41Z</time>
  <speed>1.740000</speed>
</trkpt>
<trkpt lat="32.871448517" lon="35.229900360">
  <ele>157.114502</ele>
  <time>2011-11-12T06:03:43Z</time>
  <speed>1.540000</speed>
</trkpt>
<trkpt lat="32.871433258" lon="35.229866028">
  <ele>156.407471</ele>
  <time>2011-11-12T06:03:45Z</time>
  <speed>1.680000</speed>
</trkpt>
<trkpt lat="32.871425629" lon="35.229831696">
  <ele>156.950439</ele>
  <time>2011-11-12T06:03:47Z</time>
  <speed>1.200000</speed>
</trkpt>
<trkpt lat="32.871414185" lon="35.229793549">
  <ele>157.610596</ele>
  <time>2011-11-12T06:03:49Z</time>
  <speed>1.450000</speed>
</trkpt>
<trkpt lat="32.871402740" lon="35.229763031">
  <ele>158.575439</ele>
  <time>2011-11-12T06:03:51Z</time>
  <speed>1.270000</speed>
</trkpt>
<trkpt lat="32.871395111" lon="35.229732513">
  <ele>157.512939</ele>
  <time>2011-11-12T06:03:53Z</time>
  <speed>1.760000</speed>
</trkpt>
<trkpt lat="32.871376038" lon="35.229701996">
  <ele>156.743408</ele>
  <time>2011-11-12T06:03:55Z</time>
  <speed>1.790000</speed>
</trkpt>
<trkpt lat="32.871349335" lon="35.229671478">
  <ele>157.622314</ele>
  <time>2011-11-12T06:03:57Z</time>
  <speed>1.790000</speed>
</trkpt>
<trkpt lat="32.871334076" lon="35.229644775">
  <ele>157.380127</ele>
  <time>2011-11-12T06:03:59Z</time>
  <speed>1.340000</speed>
</trkpt>
<trkpt lat="32.871315002" lon="35.229614258">
  <ele>156.016846</ele>
  <time>2011-11-12T06:04:02Z</time>
  <speed>1.580000</speed>
</trkpt>
<trkpt lat="32.871288300" lon="35.229587555">
  <ele>155.079346</ele>
  <time>2011-11-12T06:04:04Z</time>
  <speed>2.050000</speed>
</trkpt>
<trkpt lat="32.871257782" lon="35.229572296">
  <ele>153.997314</ele>
  <time>2011-11-12T06:04:06Z</time>
  <speed>1.750000</speed>
</trkpt>
<trkpt lat="32.871227264" lon="35.229549408">
  <ele>153.712158</ele>
  <time>2011-11-12T06:04:08Z</time>
  <speed>1.890000</speed>
</trkpt>
<trkpt lat="32.871196747" lon="35.229530334">
  <ele>152.493408</ele>
  <time>2011-11-12T06:04:10Z</time>
  <speed>1.910000</speed>
</trkpt>
<trkpt lat="32.871166229" lon="35.229496002">
  <ele>151.880127</ele>
  <time>2011-11-12T06:04:12Z</time>
  <speed>1.880000</speed>
</trkpt>
<trkpt lat="32.871139526" lon="35.229450226">
  <ele>151.571533</ele>
  <time>2011-11-12T06:04:14Z</time>
  <speed>1.990000</speed>
</trkpt>
<trkpt lat="32.871105194" lon="35.229423523">
  <ele>151.286377</ele>
  <time>2011-11-12T06:04:16Z</time>
  <speed>1.650000</speed>
</trkpt>
<trkpt lat="32.871059418" lon="35.229396820">
  <ele>152.684814</ele>
  <time>2011-11-12T06:04:18Z</time>
  <speed>2.140000</speed>
</trkpt>
<trkpt lat="32.871044159" lon="35.229373932">
  <ele>152.243408</ele>
  <time>2011-11-12T06:04:20Z</time>
  <speed>1.220000</speed>
</trkpt>
<trkpt lat="32.871021271" lon="35.229347229">
  <ele>153.743408</ele>
  <time>2011-11-12T06:04:22Z</time>
  <speed>1.300000</speed>
</trkpt>
<trkpt lat="32.871002197" lon="35.229324341">
  <ele>154.872314</ele>
  <time>2011-11-12T06:04:24Z</time>
  <speed>1.640000</speed>
</trkpt>
<trkpt lat="32.870979309" lon="35.229293823">
  <ele>155.895752</ele>
  <time>2011-11-12T06:04:26Z</time>
  <speed>1.780000</speed>
</trkpt>
<trkpt lat="32.870960236" lon="35.229255676">
  <ele>156.087158</ele>
  <time>2011-11-12T06:04:29Z</time>
  <speed>1.360000</speed>
</trkpt>
<trkpt lat="32.870933533" lon="35.229232788">
  <ele>156.036377</ele>
  <time>2011-11-12T06:04:31Z</time>
  <speed>1.510000</speed>
</trkpt>
<trkpt lat="32.870922089" lon="35.229206085">
  <ele>156.473877</ele>
  <time>2011-11-12T06:04:33Z</time>
  <speed>1.450000</speed>
</trkpt>
<trkpt lat="32.870903015" lon="35.229179382">
  <ele>157.274658</ele>
  <time>2011-11-12T06:04:35Z</time>
  <speed>1.260000</speed>
</trkpt>
<trkpt lat="32.870891571" lon="35.229137421">
  <ele>159.001221</ele>
  <time>2011-11-12T06:04:38Z</time>
  <speed>1.570000</speed>
</trkpt>
<trkpt lat="32.870887756" lon="35.229103088">
  <ele>160.302002</ele>
  <time>2011-11-12T06:04:40Z</time>
  <speed>1.680000</speed>
</trkpt>
<trkpt lat="32.870868683" lon="35.229064941">
  <ele>161.102783</ele>
  <time>2011-11-12T06:04:43Z</time>
  <speed>1.860000</speed>
</trkpt>
<trkpt lat="32.870849609" lon="35.229038239">
  <ele>162.298096</ele>
  <time>2011-11-12T06:04:45Z</time>
  <speed>1.490000</speed>
</trkpt>
<trkpt lat="32.870830536" lon="35.229003906">
  <ele>162.993408</ele>
  <time>2011-11-12T06:04:47Z</time>
  <speed>1.730000</speed>
</trkpt>
<trkpt lat="32.870807648" lon="35.228973389">
  <ele>163.563721</ele>
  <time>2011-11-12T06:04:49Z</time>
  <speed>1.550000</speed>
</trkpt>
<trkpt lat="32.870788574" lon="35.228942871">
  <ele>164.302002</ele>
  <time>2011-11-12T06:04:51Z</time>
  <speed>1.710000</speed>
</trkpt>
<trkpt lat="32.870769501" lon="35.228912354">
  <ele>164.251221</ele>
  <time>2011-11-12T06:04:53Z</time>
  <speed>1.620000</speed>
</trkpt>
<trkpt lat="32.870746613" lon="35.228878021">
  <ele>164.173096</ele>
  <time>2011-11-12T06:04:55Z</time>
  <speed>1.990000</speed>
</trkpt>
<trkpt lat="32.870723724" lon="35.228855133">
  <ele>164.497314</ele>
  <time>2011-11-12T06:04:57Z</time>
  <speed>1.250000</speed>
</trkpt>
<trkpt lat="32.870700836" lon="35.228828430">
  <ele>164.302002</ele>
  <time>2011-11-12T06:04:59Z</time>
  <speed>1.710000</speed>
</trkpt>
<trkpt lat="32.870674133" lon="35.228809357">
  <ele>163.985596</ele>
  <time>2011-11-12T06:05:01Z</time>
  <speed>1.530000</speed>
</trkpt>
<trkpt lat="32.870643616" lon="35.228794098">
  <ele>164.102783</ele>
  <time>2011-11-12T06:05:04Z</time>
  <speed>1.360000</speed>
</trkpt>
<trkpt lat="32.870605469" lon="35.228786469">
  <ele>163.251221</ele>
  <time>2011-11-12T06:05:07Z</time>
  <speed>1.540000</speed>
</trkpt>
<trkpt lat="32.870574951" lon="35.228797913">
  <ele>162.114502</ele>
  <time>2011-11-12T06:05:08Z</time>
  <speed>2.060000</speed>
</trkpt>
<trkpt lat="32.870540619" lon="35.228797913">
  <ele>161.692627</ele>
  <time>2011-11-12T06:05:10Z</time>
  <speed>1.830000</speed>
</trkpt>
<trkpt lat="32.870506287" lon="35.228797913">
  <ele>161.641846</ele>
  <time>2011-11-12T06:05:12Z</time>
  <speed>1.700000</speed>
</trkpt>
<trkpt lat="32.870468140" lon="35.228836060">
  <ele>162.290283</ele>
  <time>2011-11-12T06:05:14Z</time>
  <speed>1.650000</speed>
</trkpt>
<trkpt lat="32.870441437" lon="35.228862762">
  <ele>162.184814</ele>
  <time>2011-11-12T06:05:16Z</time>
  <speed>1.650000</speed>
</trkpt>
<trkpt lat="32.870410919" lon="35.228870392">
  <ele>161.923096</ele>
  <time>2011-11-12T06:05:18Z</time>
  <speed>1.930000</speed>
</trkpt>
<trkpt lat="32.870380402" lon="35.228897095">
  <ele>162.372314</ele>
  <time>2011-11-12T06:05:20Z</time>
  <speed>2.010000</speed>
</trkpt>
<trkpt lat="32.870346069" lon="35.228912354">
  <ele>164.817627</ele>
  <time>2011-11-12T06:05:23Z</time>
  <speed>2.130000</speed>
</trkpt>
<trkpt lat="32.870311737" lon="35.228939056">
  <ele>165.915283</ele>
  <time>2011-11-12T06:05:25Z</time>
  <speed>1.700000</speed>
</trkpt>
<trkpt lat="32.870285034" lon="35.228969574">
  <ele>165.997314</ele>
  <time>2011-11-12T06:05:27Z</time>
  <speed>2.110000</speed>
</trkpt>
<trkpt lat="32.870258331" lon="35.229007721">
  <ele>167.423096</ele>
  <time>2011-11-12T06:05:29Z</time>
  <speed>2.510000</speed>
</trkpt>
<trkpt lat="32.870231628" lon="35.229038239">
  <ele>167.360596</ele>
  <time>2011-11-12T06:05:30Z</time>
  <speed>3.080000</speed>
</trkpt>
<trkpt lat="32.870204926" lon="35.229061127">
  <ele>168.415283</ele>
  <time>2011-11-12T06:05:31Z</time>
  <speed>3.260000</speed>
</trkpt>
<trkpt lat="32.870182037" lon="35.229087830">
  <ele>169.653564</ele>
  <time>2011-11-12T06:05:32Z</time>
  <speed>3.840000</speed>
</trkpt>
<trkpt lat="32.870162964" lon="35.229114532">
  <ele>171.594971</ele>
  <time>2011-11-12T06:05:33Z</time>
  <speed>3.740000</speed>
</trkpt>
<trkpt lat="32.870143890" lon="35.229156494">
  <ele>171.239502</ele>
  <time>2011-11-12T06:05:34Z</time>
  <speed>3.860000</speed>
</trkpt>
<trkpt lat="32.870128632" lon="35.229190826">
  <ele>172.114502</ele>
  <time>2011-11-12T06:05:35Z</time>
  <speed>3.900000</speed>
</trkpt>
<trkpt lat="32.870113373" lon="35.229225159">
  <ele>172.809814</ele>
  <time>2011-11-12T06:05:36Z</time>
  <speed>3.700000</speed>
</trkpt>
<trkpt lat="32.870098114" lon="35.229263306">
  <ele>172.704346</ele>
  <time>2011-11-12T06:05:37Z</time>
  <speed>3.570000</speed>
</trkpt>
<trkpt lat="32.870079041" lon="35.229324341">
  <ele>173.356689</ele>
  <time>2011-11-12T06:05:39Z</time>
  <speed>2.750000</speed>
</trkpt>
<trkpt lat="32.870071411" lon="35.229381561">
  <ele>173.098877</ele>
  <time>2011-11-12T06:05:41Z</time>
  <speed>2.690000</speed>
</trkpt>
<trkpt lat="32.870075226" lon="35.229442596">
  <ele>173.712158</ele>
  <time>2011-11-12T06:05:43Z</time>
  <speed>2.340000</speed>
</trkpt>
<trkpt lat="32.870071411" lon="35.229496002">
  <ele>174.567627</ele>
  <time>2011-11-12T06:05:45Z</time>
  <speed>2.430000</speed>
</trkpt>
<trkpt lat="32.870067596" lon="35.229541779">
  <ele>175.255127</ele>
  <time>2011-11-12T06:05:47Z</time>
  <speed>2.270000</speed>
</trkpt>
<trkpt lat="32.870071411" lon="35.229595184">
  <ele>176.302002</ele>
  <time>2011-11-12T06:05:49Z</time>
  <speed>2.560000</speed>
</trkpt>
<trkpt lat="32.870075226" lon="35.229644775">
  <ele>176.907471</ele>
  <time>2011-11-12T06:05:51Z</time>
  <speed>2.490000</speed>
</trkpt>
<trkpt lat="32.870082855" lon="35.229694366">
  <ele>177.673096</ele>
  <time>2011-11-12T06:05:53Z</time>
  <speed>2.350000</speed>
</trkpt>
<trkpt lat="32.870094299" lon="35.229743958">
  <ele>178.637939</ele>
  <time>2011-11-12T06:05:55Z</time>
  <speed>2.230000</speed>
</trkpt>
<trkpt lat="32.870105743" lon="35.229785919">
  <ele>178.665283</ele>
  <time>2011-11-12T06:05:57Z</time>
  <speed>2.140000</speed>
</trkpt>
<trkpt lat="32.870109558" lon="35.229824066">
  <ele>178.579346</ele>
  <time>2011-11-12T06:05:59Z</time>
  <speed>2.040000</speed>
</trkpt>
<trkpt lat="32.870121002" lon="35.229862213">
  <ele>179.552002</ele>
  <time>2011-11-12T06:06:01Z</time>
  <speed>1.780000</speed>
</trkpt>
<trkpt lat="32.870121002" lon="35.229904175">
  <ele>179.309814</ele>
  <time>2011-11-12T06:06:03Z</time>
  <speed>1.770000</speed>
</trkpt>
<trkpt lat="32.870128632" lon="35.229946136">
  <ele>180.200439</ele>
  <time>2011-11-12T06:06:05Z</time>
  <speed>1.800000</speed>
</trkpt>
<trkpt lat="32.870143890" lon="35.229984283">
  <ele>180.372314</ele>
  <time>2011-11-12T06:06:07Z</time>
  <speed>2.260000</speed>
</trkpt>
<trkpt lat="32.870151520" lon="35.230026245">
  <ele>180.739502</ele>
  <time>2011-11-12T06:06:09Z</time>
  <speed>1.900000</speed>
</trkpt>
<trkpt lat="32.870147705" lon="35.230060577">
  <ele>180.708252</ele>
  <time>2011-11-12T06:06:11Z</time>
  <speed>1.790000</speed>
</trkpt>
<trkpt lat="32.870151520" lon="35.230094910">
  <ele>181.087158</ele>
  <time>2011-11-12T06:06:13Z</time>
  <speed>2.030000</speed>
</trkpt>
<trkpt lat="32.870162964" lon="35.230144501">
  <ele>181.786377</ele>
  <time>2011-11-12T06:06:15Z</time>
  <speed>1.990000</speed>
</trkpt>
<trkpt lat="32.870170593" lon="35.230178833">
  <ele>182.235596</ele>
  <time>2011-11-12T06:06:17Z</time>
  <speed>1.570000</speed>
</trkpt>
<trkpt lat="32.870178223" lon="35.230216980">
  <ele>182.012939</ele>
  <time>2011-11-12T06:06:19Z</time>
  <speed>1.600000</speed>
</trkpt>
<trkpt lat="32.870185852" lon="35.230247498">
  <ele>182.891846</ele>
  <time>2011-11-12T06:06:21Z</time>
  <speed>1.830000</speed>
</trkpt>
<trkpt lat="32.870189667" lon="35.230285645">
  <ele>182.841064</ele>
  <time>2011-11-12T06:06:23Z</time>
  <speed>1.590000</speed>
</trkpt>
<trkpt lat="32.870193481" lon="35.230319977">
  <ele>183.305908</ele>
  <time>2011-11-12T06:06:25Z</time>
  <speed>1.740000</speed>
</trkpt>
<trkpt lat="32.870201111" lon="35.230361938">
  <ele>184.075439</ele>
  <time>2011-11-12T06:06:27Z</time>
  <speed>1.700000</speed>
</trkpt>
<trkpt lat="32.870212555" lon="35.230400085">
  <ele>184.591064</ele>
  <time>2011-11-12T06:06:29Z</time>
  <speed>2.190000</speed>
</trkpt>
<trkpt lat="32.870220184" lon="35.230445862">
  <ele>185.122314</ele>
  <time>2011-11-12T06:06:31Z</time>
  <speed>1.850000</speed>
</trkpt>
<trkpt lat="32.870223999" lon="35.230487823">
  <ele>186.286377</ele>
  <time>2011-11-12T06:06:33Z</time>
  <speed>2.260000</speed>
</trkpt>
<trkpt lat="32.870231628" lon="35.230529785">
  <ele>186.981689</ele>
  <time>2011-11-12T06:06:35Z</time>
  <speed>2.000000</speed>
</trkpt>
<trkpt lat="32.870235443" lon="35.230575562">
  <ele>187.192627</ele>
  <time>2011-11-12T06:06:37Z</time>
  <speed>2.240000</speed>
</trkpt>
<trkpt lat="32.870250702" lon="35.230628967">
  <ele>187.130127</ele>
  <time>2011-11-12T06:06:39Z</time>
  <speed>2.200000</speed>
</trkpt>
<trkpt lat="32.870262146" lon="35.230682373">
  <ele>186.727783</ele>
  <time>2011-11-12T06:06:41Z</time>
  <speed>2.340000</speed>
</trkpt>
<trkpt lat="32.870262146" lon="35.230731964">
  <ele>186.055908</ele>
  <time>2011-11-12T06:06:43Z</time>
  <speed>2.690000</speed>
</trkpt>
<trkpt lat="32.870273590" lon="35.230785370">
  <ele>185.731689</ele>
  <time>2011-11-12T06:06:45Z</time>
  <speed>2.420000</speed>
</trkpt>
<trkpt lat="32.870285034" lon="35.230838776">
  <ele>185.723877</ele>
  <time>2011-11-12T06:06:47Z</time>
  <speed>2.640000</speed>
</trkpt>
<trkpt lat="32.870292664" lon="35.230892181">
  <ele>185.520752</ele>
  <time>2011-11-12T06:06:49Z</time>
  <speed>2.580000</speed>
</trkpt>
<trkpt lat="32.870288849" lon="35.230945587">
  <ele>185.251221</ele>
  <time>2011-11-12T06:06:51Z</time>
  <speed>2.780000</speed>
</trkpt>
<trkpt lat="32.870292664" lon="35.230979919">
  <ele>185.348877</ele>
  <time>2011-11-12T06:06:52Z</time>
  <speed>3.160000</speed>
</trkpt>
<trkpt lat="32.870285034" lon="35.231014252">
  <ele>184.938721</ele>
  <time>2011-11-12T06:06:53Z</time>
  <speed>3.380000</speed>
</trkpt>
<trkpt lat="32.870285034" lon="35.231048584">
  <ele>184.477783</ele>
  <time>2011-11-12T06:06:54Z</time>
  <speed>3.820000</speed>
</trkpt>
<trkpt lat="32.870288849" lon="35.231086731">
  <ele>184.126221</ele>
  <time>2011-11-12T06:06:55Z</time>
  <speed>3.370000</speed>
</trkpt>
<trkpt lat="32.870277405" lon="35.231121063">
  <ele>183.177002</ele>
  <time>2011-11-12T06:06:56Z</time>
  <speed>3.260000</speed>
</trkpt>
<trkpt lat="32.870277405" lon="35.231159210">
  <ele>183.157471</ele>
  <time>2011-11-12T06:06:57Z</time>
  <speed>3.520000</speed>
</trkpt>
<trkpt lat="32.870277405" lon="35.231197357">
  <ele>183.079346</ele>
  <time>2011-11-12T06:06:58Z</time>
  <speed>3.720000</speed>
</trkpt>
<trkpt lat="32.870281219" lon="35.231235504">
  <ele>182.735596</ele>
  <time>2011-11-12T06:06:59Z</time>
  <speed>3.590000</speed>
</trkpt>
<trkpt lat="32.870277405" lon="35.231273651">
  <ele>182.134033</ele>
  <time>2011-11-12T06:07:00Z</time>
  <speed>3.390000</speed>
</trkpt>
<trkpt lat="32.870281219" lon="35.231304169">
  <ele>182.020752</ele>
  <time>2011-11-12T06:07:01Z</time>
  <speed>2.650000</speed>
</trkpt>
<trkpt lat="32.870285034" lon="35.231353760">
  <ele>181.856689</ele>
  <time>2011-11-12T06:07:03Z</time>
  <speed>1.680000</speed>
</trkpt>
<trkpt lat="32.870277405" lon="35.231399536">
  <ele>183.450439</ele>
  <time>2011-11-12T06:10:13Z</time>
  <speed>3.040000</speed>
</trkpt>
<trkpt lat="32.870277405" lon="35.231437683">
  <ele>183.169189</ele>
  <time>2011-11-12T06:10:14Z</time>
  <speed>4.000000</speed>
</trkpt>
<trkpt lat="32.870277405" lon="35.231483459">
  <ele>183.274658</ele>
  <time>2011-11-12T06:10:15Z</time>
  <speed>4.100000</speed>
</trkpt>
<trkpt lat="32.870281219" lon="35.231536865">
  <ele>182.977783</ele>
  <time>2011-11-12T06:10:16Z</time>
  <speed>5.120000</speed>
</trkpt>
<trkpt lat="32.870285034" lon="35.231601715">
  <ele>183.130127</ele>
  <time>2011-11-12T06:10:17Z</time>
  <speed>5.490000</speed>
</trkpt>
<trkpt lat="32.870296478" lon="35.231658936">
  <ele>182.969971</ele>
  <time>2011-11-12T06:10:18Z</time>
  <speed>5.610000</speed>
</trkpt>
<trkpt lat="32.870307922" lon="35.231723785">
  <ele>182.774658</ele>
  <time>2011-11-12T06:10:19Z</time>
  <speed>5.760000</speed>
</trkpt>
<trkpt lat="32.870315552" lon="35.231796265">
  <ele>182.227783</ele>
  <time>2011-11-12T06:10:20Z</time>
  <speed>6.190000</speed>
</trkpt>
<trkpt lat="32.870326996" lon="35.231868744">
  <ele>182.149658</ele>
  <time>2011-11-12T06:10:21Z</time>
  <speed>6.840000</speed>
</trkpt>
<trkpt lat="32.870330811" lon="35.231941223">
  <ele>181.661377</ele>
  <time>2011-11-12T06:10:22Z</time>
  <speed>6.540000</speed>
</trkpt>
<trkpt lat="32.870338440" lon="35.232021332">
  <ele>181.739502</ele>
  <time>2011-11-12T06:10:23Z</time>
  <speed>7.470000</speed>
</trkpt>
<trkpt lat="32.870342255" lon="35.232105255">
  <ele>181.251221</ele>
  <time>2011-11-12T06:10:24Z</time>
  <speed>7.710000</speed>
</trkpt>
<trkpt lat="32.870342255" lon="35.232177734">
  <ele>180.919189</ele>
  <time>2011-11-12T06:10:25Z</time>
  <speed>6.290000</speed>
</trkpt>
<trkpt lat="32.870326996" lon="35.232250214">
  <ele>180.169189</ele>
  <time>2011-11-12T06:10:26Z</time>
  <speed>5.450000</speed>
</trkpt>
<trkpt lat="32.870307922" lon="35.232307434">
  <ele>179.602783</ele>
  <time>2011-11-12T06:10:27Z</time>
  <speed>4.220000</speed>
</trkpt>
<trkpt lat="32.870304108" lon="35.232349396">
  <ele>178.954346</ele>
  <time>2011-11-12T06:10:28Z</time>
  <speed>3.070000</speed>
</trkpt>
<trkpt lat="32.870315552" lon="35.232379913">
  <ele>178.532471</ele>
  <time>2011-11-12T06:10:29Z</time>
  <speed>2.830000</speed>
</trkpt>
<trkpt lat="32.870342255" lon="35.232410431">
  <ele>177.923096</ele>
  <time>2011-11-12T06:10:30Z</time>
  <speed>3.790000</speed>
</trkpt>
<trkpt lat="32.870368958" lon="35.232452393">
  <ele>177.645752</ele>
  <time>2011-11-12T06:10:31Z</time>
  <speed>4.720000</speed>
</trkpt>
<trkpt lat="32.870388031" lon="35.232494354">
  <ele>177.274658</ele>
  <time>2011-11-12T06:10:32Z</time>
  <speed>4.590000</speed>
</trkpt>
<trkpt lat="32.870391846" lon="35.232551575">
  <ele>177.692627</ele>
  <time>2011-11-12T06:10:33Z</time>
  <speed>3.390000</speed>
</trkpt>
<trkpt lat="32.870399475" lon="35.232582092">
  <ele>177.712158</ele>
  <time>2011-11-12T06:10:34Z</time>
  <speed>2.320000</speed>
</trkpt>
<trkpt lat="32.870422363" lon="35.232646942">
  <ele>176.532471</ele>
  <time>2011-11-12T06:10:36Z</time>
  <speed>4.550000</speed>
</trkpt>
<trkpt lat="32.870437622" lon="35.232696533">
  <ele>176.032471</ele>
  <time>2011-11-12T06:10:37Z</time>
  <speed>5.280000</speed>
</trkpt>
<trkpt lat="32.870445251" lon="35.232753754">
  <ele>175.719971</ele>
  <time>2011-11-12T06:10:38Z</time>
  <speed>5.480000</speed>
</trkpt>
<trkpt lat="32.870456696" lon="35.232810974">
  <ele>175.200439</ele>
  <time>2011-11-12T06:10:39Z</time>
  <speed>5.130000</speed>
</trkpt>
<trkpt lat="32.870471954" lon="35.232872009">
  <ele>175.052002</ele>
  <time>2011-11-12T06:10:40Z</time>
  <speed>4.810000</speed>
</trkpt>
<trkpt lat="32.870491028" lon="35.232921600">
  <ele>174.723877</ele>
  <time>2011-11-12T06:10:41Z</time>
  <speed>5.100000</speed>
</trkpt>
<trkpt lat="32.870513916" lon="35.232971191">
  <ele>174.583252</ele>
  <time>2011-11-12T06:10:42Z</time>
  <speed>5.220000</speed>
</trkpt>
<trkpt lat="32.870536804" lon="35.233016968">
  <ele>174.173096</ele>
  <time>2011-11-12T06:10:43Z</time>
  <speed>4.960000</speed>
</trkpt>
<trkpt lat="32.870536804" lon="35.233062744">
  <ele>173.923096</ele>
  <time>2011-11-12T06:10:44Z</time>
  <speed>4.180000</speed>
</trkpt>
<trkpt lat="32.870540619" lon="35.233108521">
  <ele>173.782471</ele>
  <time>2011-11-12T06:10:45Z</time>
  <speed>4.150000</speed>
</trkpt>
<trkpt lat="32.870517731" lon="35.233150482">
  <ele>173.286377</ele>
  <time>2011-11-12T06:10:46Z</time>
  <speed>4.710000</speed>
</trkpt>
<trkpt lat="32.870491028" lon="35.233200073">
  <ele>172.762939</ele>
  <time>2011-11-12T06:10:47Z</time>
  <speed>5.350000</speed>
</trkpt>
<trkpt lat="32.870468140" lon="35.233257294">
  <ele>172.005127</ele>
  <time>2011-11-12T06:10:48Z</time>
  <speed>5.760000</speed>
</trkpt>
<trkpt lat="32.870460510" lon="35.233314514">
  <ele>171.805908</ele>
  <time>2011-11-12T06:10:49Z</time>
  <speed>5.760000</speed>
</trkpt>
<trkpt lat="32.870452881" lon="35.233383179">
  <ele>171.278564</ele>
  <time>2011-11-12T06:10:50Z</time>
  <speed>6.420000</speed>
</trkpt>
<trkpt lat="32.870445251" lon="35.233451843">
  <ele>171.188721</ele>
  <time>2011-11-12T06:10:51Z</time>
  <speed>6.270000</speed>
</trkpt>
<trkpt lat="32.870437622" lon="35.233520508">
  <ele>170.868408</ele>
  <time>2011-11-12T06:10:52Z</time>
  <speed>5.890000</speed>
</trkpt>
<trkpt lat="32.870456696" lon="35.233577728">
  <ele>170.641846</ele>
  <time>2011-11-12T06:10:53Z</time>
  <speed>5.140000</speed>
</trkpt>
<trkpt lat="32.870471954" lon="35.233627319">
  <ele>170.098877</ele>
  <time>2011-11-12T06:10:54Z</time>
  <speed>4.970000</speed>
</trkpt>
<trkpt lat="32.870483398" lon="35.233676910">
  <ele>169.384033</ele>
  <time>2011-11-12T06:10:55Z</time>
  <speed>4.430000</speed>
</trkpt>
<trkpt lat="32.870487213" lon="35.233718872">
  <ele>168.723877</ele>
  <time>2011-11-12T06:10:56Z</time>
  <speed>3.230000</speed>
</trkpt>
<trkpt lat="32.870471954" lon="35.233749390">
  <ele>167.848877</ele>
  <time>2011-11-12T06:10:58Z</time>
  <speed>2.320000</speed>
</trkpt>
<trkpt lat="32.870410919" lon="35.233718872">
  <ele>165.856689</ele>
  <time>2011-11-12T06:11:00Z</time>
  <speed>4.000000</speed>
</trkpt>
<trkpt lat="32.870380402" lon="35.233707428">
  <ele>165.235596</ele>
  <time>2011-11-12T06:11:01Z</time>
  <speed>2.720000</speed>
</trkpt>
<trkpt lat="32.870361328" lon="35.233676910">
  <ele>164.130127</ele>
  <time>2011-11-12T06:11:02Z</time>
  <speed>2.560000</speed>
</trkpt>
<trkpt lat="32.870346069" lon="35.233646393">
  <ele>163.751221</ele>
  <time>2011-11-12T06:11:03Z</time>
  <speed>3.450000</speed>
</trkpt>
<trkpt lat="32.870330811" lon="35.233612061">
  <ele>163.048096</ele>
  <time>2011-11-12T06:11:04Z</time>
  <speed>3.160000</speed>
</trkpt>
<trkpt lat="32.870307922" lon="35.233570099">
  <ele>162.048096</ele>
  <time>2011-11-12T06:11:05Z</time>
  <speed>3.630000</speed>
</trkpt>
<trkpt lat="32.870296478" lon="35.233524323">
  <ele>160.977783</ele>
  <time>2011-11-12T06:11:06Z</time>
  <speed>3.490000</speed>
</trkpt>
<trkpt lat="32.870277405" lon="35.233489990">
  <ele>160.052002</ele>
  <time>2011-11-12T06:11:07Z</time>
  <speed>3.100000</speed>
</trkpt>
<trkpt lat="32.870246887" lon="35.233455658">
  <ele>158.872314</ele>
  <time>2011-11-12T06:11:08Z</time>
  <speed>3.140000</speed>
</trkpt>
<trkpt lat="32.870231628" lon="35.233421326">
  <ele>158.110596</ele>
  <time>2011-11-12T06:11:09Z</time>
  <speed>3.740000</speed>
</trkpt>
<trkpt lat="32.870204926" lon="35.233371735">
  <ele>157.700439</ele>
  <time>2011-11-12T06:11:10Z</time>
  <speed>5.380000</speed>
</trkpt>
<trkpt lat="32.870166779" lon="35.233322144">
  <ele>156.993408</ele>
  <time>2011-11-12T06:11:11Z</time>
  <speed>5.770000</speed>
</trkpt>
<trkpt lat="32.870128632" lon="35.233283997">
  <ele>156.231689</ele>
  <time>2011-11-12T06:11:12Z</time>
  <speed>3.840000</speed>
</trkpt>
<trkpt lat="32.870090485" lon="35.233272552">
  <ele>155.454346</ele>
  <time>2011-11-12T06:11:13Z</time>
  <speed>4.330000</speed>
</trkpt>
<trkpt lat="32.870052338" lon="35.233268738">
  <ele>154.719971</ele>
  <time>2011-11-12T06:11:14Z</time>
  <speed>3.800000</speed>
</trkpt>
<trkpt lat="32.870021820" lon="35.233272552">
  <ele>154.020752</ele>
  <time>2011-11-12T06:11:15Z</time>
  <speed>2.450000</speed>
</trkpt>
<trkpt lat="32.870010376" lon="35.233299255">
  <ele>153.137939</ele>
  <time>2011-11-12T06:11:16Z</time>
  <speed>3.570000</speed>
</trkpt>
<trkpt lat="32.869995117" lon="35.233333588">
  <ele>152.969971</ele>
  <time>2011-11-12T06:11:17Z</time>
  <speed>4.740000</speed>
</trkpt>
<trkpt lat="32.869987488" lon="35.233386993">
  <ele>152.575439</ele>
  <time>2011-11-12T06:11:18Z</time>
  <speed>4.920000</speed>
</trkpt>
<trkpt lat="32.869979858" lon="35.233451843">
  <ele>152.094971</ele>
  <time>2011-11-12T06:11:19Z</time>
  <speed>4.970000</speed>
</trkpt>
<trkpt lat="32.869972229" lon="35.233516693">
  <ele>151.712158</ele>
  <time>2011-11-12T06:11:20Z</time>
  <speed>5.520000</speed>
</trkpt>
<trkpt lat="32.869979858" lon="35.233581543">
  <ele>151.419189</ele>
  <time>2011-11-12T06:11:21Z</time>
  <speed>5.600000</speed>
</trkpt>
<trkpt lat="32.869979858" lon="35.233646393">
  <ele>151.352783</ele>
  <time>2011-11-12T06:11:22Z</time>
  <speed>5.910000</speed>
</trkpt>
<trkpt lat="32.869976044" lon="35.233715057">
  <ele>150.755127</ele>
  <time>2011-11-12T06:11:23Z</time>
  <speed>6.010000</speed>
</trkpt>
<trkpt lat="32.869968414" lon="35.233772278">
  <ele>150.567627</ele>
  <time>2011-11-12T06:11:24Z</time>
  <speed>4.840000</speed>
</trkpt>
<trkpt lat="32.869968414" lon="35.233829498">
  <ele>150.782471</ele>
  <time>2011-11-12T06:11:25Z</time>
  <speed>5.160000</speed>
</trkpt>
<trkpt lat="32.869956970" lon="35.233886719">
  <ele>150.934814</ele>
  <time>2011-11-12T06:11:26Z</time>
  <speed>5.220000</speed>
</trkpt>
<trkpt lat="32.869945526" lon="35.233955383">
  <ele>151.407471</ele>
  <time>2011-11-12T06:11:27Z</time>
  <speed>5.820000</speed>
</trkpt>
<trkpt lat="32.869949341" lon="35.234031677">
  <ele>151.309814</ele>
  <time>2011-11-12T06:11:28Z</time>
  <speed>6.820000</speed>
</trkpt>
<trkpt lat="32.869972229" lon="35.234096527">
  <ele>150.997314</ele>
  <time>2011-11-12T06:11:29Z</time>
  <speed>5.890000</speed>
</trkpt>
<trkpt lat="32.870002747" lon="35.234149933">
  <ele>151.430908</ele>
  <time>2011-11-12T06:11:30Z</time>
  <speed>5.550000</speed>
</trkpt>
<trkpt lat="32.870037079" lon="35.234199524">
  <ele>151.216064</ele>
  <time>2011-11-12T06:11:31Z</time>
  <speed>5.820000</speed>
</trkpt>
<trkpt lat="32.870071411" lon="35.234245300">
  <ele>151.079346</ele>
  <time>2011-11-12T06:11:32Z</time>
  <speed>5.090000</speed>
</trkpt>
<trkpt lat="32.870113373" lon="35.234279633">
  <ele>151.106689</ele>
  <time>2011-11-12T06:11:33Z</time>
  <speed>5.450000</speed>
</trkpt>
<trkpt lat="32.870155334" lon="35.234306335">
  <ele>150.798096</ele>
  <time>2011-11-12T06:11:34Z</time>
  <speed>5.600000</speed>
</trkpt>
<trkpt lat="32.870201111" lon="35.234325409">
  <ele>150.778564</ele>
  <time>2011-11-12T06:11:35Z</time>
  <speed>4.520000</speed>
</trkpt>
<trkpt lat="32.870231628" lon="35.234340668">
  <ele>150.798096</ele>
  <time>2011-11-12T06:11:36Z</time>
  <speed>3.200000</speed>
</trkpt>
<trkpt lat="32.870258331" lon="35.234363556">
  <ele>151.427002</ele>
  <time>2011-11-12T06:11:37Z</time>
  <speed>2.590000</speed>
</trkpt>
<trkpt lat="32.870304108" lon="35.234397888">
  <ele>151.489502</ele>
  <time>2011-11-12T06:11:39Z</time>
  <speed>3.280000</speed>
</trkpt>
<trkpt lat="32.870334625" lon="35.234409332">
  <ele>151.387939</ele>
  <time>2011-11-12T06:11:40Z</time>
  <speed>3.510000</speed>
</trkpt>
<trkpt lat="32.870365143" lon="35.234420776">
  <ele>152.231689</ele>
  <time>2011-11-12T06:11:41Z</time>
  <speed>3.430000</speed>
</trkpt>
<trkpt lat="32.870395660" lon="35.234432220">
  <ele>152.727783</ele>
  <time>2011-11-12T06:11:42Z</time>
  <speed>3.230000</speed>
</trkpt>
<trkpt lat="32.870426178" lon="35.234447479">
  <ele>153.290283</ele>
  <time>2011-11-12T06:11:43Z</time>
  <speed>3.320000</speed>
</trkpt>
<trkpt lat="32.870475769" lon="35.234481812">
  <ele>153.571533</ele>
  <time>2011-11-12T06:11:45Z</time>
  <speed>3.210000</speed>
</trkpt>
<trkpt lat="32.870498657" lon="35.234500885">
  <ele>153.618408</ele>
  <time>2011-11-12T06:11:46Z</time>
  <speed>3.160000</speed>
</trkpt>
<trkpt lat="32.870525360" lon="35.234519958">
  <ele>154.087158</ele>
  <time>2011-11-12T06:11:47Z</time>
  <speed>3.700000</speed>
</trkpt>
<trkpt lat="32.870555878" lon="35.234539032">
  <ele>154.407471</ele>
  <time>2011-11-12T06:11:48Z</time>
  <speed>3.640000</speed>
</trkpt>
<trkpt lat="32.870582581" lon="35.234550476">
  <ele>154.509033</ele>
  <time>2011-11-12T06:11:49Z</time>
  <speed>3.050000</speed>
</trkpt>
<trkpt lat="32.870609283" lon="35.234561920">
  <ele>155.528564</ele>
  <time>2011-11-12T06:11:50Z</time>
  <speed>3.050000</speed>
</trkpt>
<trkpt lat="32.870655060" lon="35.234580994">
  <ele>156.774658</ele>
  <time>2011-11-12T06:11:52Z</time>
  <speed>2.660000</speed>
</trkpt>
<trkpt lat="32.870697021" lon="35.234607697">
  <ele>156.993408</ele>
  <time>2011-11-12T06:11:54Z</time>
  <speed>2.790000</speed>
</trkpt>
<trkpt lat="32.870723724" lon="35.234626770">
  <ele>156.833252</ele>
  <time>2011-11-12T06:11:55Z</time>
  <speed>3.160000</speed>
</trkpt>
<trkpt lat="32.870742798" lon="35.234649658">
  <ele>156.778564</ele>
  <time>2011-11-12T06:11:56Z</time>
  <speed>3.320000</speed>
</trkpt>
<trkpt lat="32.870769501" lon="35.234680176">
  <ele>157.208252</ele>
  <time>2011-11-12T06:11:57Z</time>
  <speed>3.550000</speed>
</trkpt>
<trkpt lat="32.870792389" lon="35.234706879">
  <ele>156.993408</ele>
  <time>2011-11-12T06:11:58Z</time>
  <speed>3.580000</speed>
</trkpt>
<trkpt lat="32.870815277" lon="35.234733582">
  <ele>156.692627</ele>
  <time>2011-11-12T06:11:59Z</time>
  <speed>3.600000</speed>
</trkpt>
<trkpt lat="32.870841980" lon="35.234764099">
  <ele>156.653564</ele>
  <time>2011-11-12T06:12:00Z</time>
  <speed>3.680000</speed>
</trkpt>
<trkpt lat="32.870868683" lon="35.234790802">
  <ele>156.829346</ele>
  <time>2011-11-12T06:12:01Z</time>
  <speed>3.570000</speed>
</trkpt>
<trkpt lat="32.870899200" lon="35.234821320">
  <ele>157.399658</ele>
  <time>2011-11-12T06:12:02Z</time>
  <speed>3.720000</speed>
</trkpt>
<trkpt lat="32.870925903" lon="35.234848022">
  <ele>157.665283</ele>
  <time>2011-11-12T06:12:03Z</time>
  <speed>3.460000</speed>
</trkpt>
<trkpt lat="32.870956421" lon="35.234870911">
  <ele>158.403564</ele>
  <time>2011-11-12T06:12:04Z</time>
  <speed>3.490000</speed>
</trkpt>
<trkpt lat="32.870983124" lon="35.234889984">
  <ele>158.755127</ele>
  <time>2011-11-12T06:12:05Z</time>
  <speed>3.510000</speed>
</trkpt>
<trkpt lat="32.871009827" lon="35.234916687">
  <ele>158.895752</ele>
  <time>2011-11-12T06:12:06Z</time>
  <speed>3.530000</speed>
</trkpt>
<trkpt lat="32.871036530" lon="35.234931946">
  <ele>159.024658</ele>
  <time>2011-11-12T06:12:07Z</time>
  <speed>3.870000</speed>
</trkpt>
<trkpt lat="32.871059418" lon="35.234947205">
  <ele>159.239502</ele>
  <time>2011-11-12T06:12:08Z</time>
  <speed>3.160000</speed>
</trkpt>
<trkpt lat="32.871089935" lon="35.234962463">
  <ele>159.552002</ele>
  <time>2011-11-12T06:12:09Z</time>
  <speed>3.230000</speed>
</trkpt>
<trkpt lat="32.871116638" lon="35.234970093">
  <ele>159.934814</ele>
  <time>2011-11-12T06:12:10Z</time>
  <speed>3.520000</speed>
</trkpt>
<trkpt lat="32.871143341" lon="35.234985352">
  <ele>160.177002</ele>
  <time>2011-11-12T06:12:11Z</time>
  <speed>3.460000</speed>
</trkpt>
<trkpt lat="32.871166229" lon="35.235000610">
  <ele>160.184814</ele>
  <time>2011-11-12T06:12:12Z</time>
  <speed>3.120000</speed>
</trkpt>
<trkpt lat="32.871196747" lon="35.235015869">
  <ele>160.657471</ele>
  <time>2011-11-12T06:12:13Z</time>
  <speed>3.470000</speed>
</trkpt>
<trkpt lat="32.871219635" lon="35.235038757">
  <ele>160.825439</ele>
  <time>2011-11-12T06:12:14Z</time>
  <speed>3.340000</speed>
</trkpt>
<trkpt lat="32.871238708" lon="35.235065460">
  <ele>161.161377</ele>
  <time>2011-11-12T06:12:15Z</time>
  <speed>3.280000</speed>
</trkpt>
<trkpt lat="32.871257782" lon="35.235095978">
  <ele>161.372314</ele>
  <time>2011-11-12T06:12:16Z</time>
  <speed>3.440000</speed>
</trkpt>
<trkpt lat="32.871276855" lon="35.235126495">
  <ele>161.825439</ele>
  <time>2011-11-12T06:12:17Z</time>
  <speed>3.470000</speed>
</trkpt>
<trkpt lat="32.871295929" lon="35.235157013">
  <ele>162.567627</ele>
  <time>2011-11-12T06:12:18Z</time>
  <speed>3.520000</speed>
</trkpt>
<trkpt lat="32.871311188" lon="35.235187531">
  <ele>162.665283</ele>
  <time>2011-11-12T06:12:19Z</time>
  <speed>3.310000</speed>
</trkpt>
<trkpt lat="32.871326447" lon="35.235221863">
  <ele>162.548096</ele>
  <time>2011-11-12T06:12:20Z</time>
  <speed>3.450000</speed>
</trkpt>
<trkpt lat="32.871334076" lon="35.235256195">
  <ele>162.798096</ele>
  <time>2011-11-12T06:12:21Z</time>
  <speed>3.380000</speed>
</trkpt>
<trkpt lat="32.871341705" lon="35.235290527">
  <ele>162.809814</ele>
  <time>2011-11-12T06:12:22Z</time>
  <speed>3.210000</speed>
</trkpt>
<trkpt lat="32.871345520" lon="35.235324860">
  <ele>162.587158</ele>
  <time>2011-11-12T06:12:23Z</time>
  <speed>3.510000</speed>
</trkpt>
<trkpt lat="32.871349335" lon="35.235363007">
  <ele>163.055908</ele>
  <time>2011-11-12T06:12:24Z</time>
  <speed>3.480000</speed>
</trkpt>
<trkpt lat="32.871349335" lon="35.235401154">
  <ele>163.403564</ele>
  <time>2011-11-12T06:12:25Z</time>
  <speed>3.710000</speed>
</trkpt>
<trkpt lat="32.871349335" lon="35.235446930">
  <ele>164.130127</ele>
  <time>2011-11-12T06:12:26Z</time>
  <speed>3.570000</speed>
</trkpt>
<trkpt lat="32.871349335" lon="35.235485077">
  <ele>163.716064</ele>
  <time>2011-11-12T06:12:27Z</time>
  <speed>3.500000</speed>
</trkpt>
<trkpt lat="32.871337891" lon="35.235519409">
  <ele>163.485596</ele>
  <time>2011-11-12T06:12:28Z</time>
  <speed>3.090000</speed>
</trkpt>
<trkpt lat="32.871326447" lon="35.235549927">
  <ele>163.270752</ele>
  <time>2011-11-12T06:12:29Z</time>
  <speed>2.900000</speed>
</trkpt>
<trkpt lat="32.871295929" lon="35.235599518">
  <ele>163.856689</ele>
  <time>2011-11-12T06:12:31Z</time>
  <speed>2.650000</speed>
</trkpt>
<trkpt lat="32.871261597" lon="35.235637665">
  <ele>163.052002</ele>
  <time>2011-11-12T06:12:33Z</time>
  <speed>2.740000</speed>
</trkpt>
<trkpt lat="32.871223450" lon="35.235675812">
  <ele>162.673096</ele>
  <time>2011-11-12T06:12:35Z</time>
  <speed>2.820000</speed>
</trkpt>
<trkpt lat="32.871181488" lon="35.235721588">
  <ele>162.516846</ele>
  <time>2011-11-12T06:12:37Z</time>
  <speed>3.370000</speed>
</trkpt>
<trkpt lat="32.871158600" lon="35.235744476">
  <ele>162.766846</ele>
  <time>2011-11-12T06:12:38Z</time>
  <speed>2.860000</speed>
</trkpt>
<trkpt lat="32.871139526" lon="35.235778809">
  <ele>161.915283</ele>
  <time>2011-11-12T06:12:39Z</time>
  <speed>3.270000</speed>
</trkpt>
<trkpt lat="32.871120453" lon="35.235805511">
  <ele>161.985596</ele>
  <time>2011-11-12T06:12:40Z</time>
  <speed>3.180000</speed>
</trkpt>
<trkpt lat="32.871101379" lon="35.235839844">
  <ele>161.958252</ele>
  <time>2011-11-12T06:12:41Z</time>
  <speed>3.420000</speed>
</trkpt>
<trkpt lat="32.871086121" lon="35.235870361">
  <ele>162.208252</ele>
  <time>2011-11-12T06:12:42Z</time>
  <speed>3.640000</speed>
</trkpt>
<trkpt lat="32.871067047" lon="35.235908508">
  <ele>162.118408</ele>
  <time>2011-11-12T06:12:43Z</time>
  <speed>3.700000</speed>
</trkpt>
<trkpt lat="32.871055603" lon="35.235939026">
  <ele>162.774658</ele>
  <time>2011-11-12T06:12:44Z</time>
  <speed>3.670000</speed>
</trkpt>
<trkpt lat="32.871044159" lon="35.235980988">
  <ele>162.723877</ele>
  <time>2011-11-12T06:12:45Z</time>
  <speed>3.530000</speed>
</trkpt>
<trkpt lat="32.871028900" lon="35.236011505">
  <ele>163.071533</ele>
  <time>2011-11-12T06:12:46Z</time>
  <speed>3.520000</speed>
</trkpt>
<trkpt lat="32.871017456" lon="35.236049652">
  <ele>163.278564</ele>
  <time>2011-11-12T06:12:47Z</time>
  <speed>3.420000</speed>
</trkpt>
<trkpt lat="32.871013641" lon="35.236083984">
  <ele>163.747314</ele>
  <time>2011-11-12T06:12:48Z</time>
  <speed>3.260000</speed>
</trkpt>
<trkpt lat="32.871006012" lon="35.236122131">
  <ele>163.977783</ele>
  <time>2011-11-12T06:12:49Z</time>
  <speed>3.660000</speed>
</trkpt>
<trkpt lat="32.871002197" lon="35.236164093">
  <ele>164.102783</ele>
  <time>2011-11-12T06:12:50Z</time>
  <speed>3.920000</speed>
</trkpt>
<trkpt lat="32.870994568" lon="35.236206055">
  <ele>163.973877</ele>
  <time>2011-11-12T06:12:51Z</time>
  <speed>3.780000</speed>
</trkpt>
<trkpt lat="32.870986938" lon="35.236244202">
  <ele>163.872314</ele>
  <time>2011-11-12T06:12:52Z</time>
  <speed>3.860000</speed>
</trkpt>
<trkpt lat="32.870983124" lon="35.236286163">
  <ele>164.020752</ele>
  <time>2011-11-12T06:12:53Z</time>
  <speed>3.990000</speed>
</trkpt>
<trkpt lat="32.870979309" lon="35.236331940">
  <ele>164.005127</ele>
  <time>2011-11-12T06:12:54Z</time>
  <speed>4.160000</speed>
</trkpt>
<trkpt lat="32.870975494" lon="35.236377716">
  <ele>164.024658</ele>
  <time>2011-11-12T06:12:55Z</time>
  <speed>4.160000</speed>
</trkpt>
<trkpt lat="32.870967865" lon="35.236423492">
  <ele>163.919189</ele>
  <time>2011-11-12T06:12:56Z</time>
  <speed>4.420000</speed>
</trkpt>
<trkpt lat="32.870956421" lon="35.236465454">
  <ele>163.387939</ele>
  <time>2011-11-12T06:12:57Z</time>
  <speed>4.960000</speed>
</trkpt>
<trkpt lat="32.870941162" lon="35.236518860">
  <ele>163.622314</ele>
  <time>2011-11-12T06:12:58Z</time>
  <speed>5.160000</speed>
</trkpt>
<trkpt lat="32.870937347" lon="35.236576080">
  <ele>163.981689</ele>
  <time>2011-11-12T06:12:59Z</time>
  <speed>5.450000</speed>
</trkpt>
<trkpt lat="32.870941162" lon="35.236629486">
  <ele>163.575439</ele>
  <time>2011-11-12T06:13:00Z</time>
  <speed>4.910000</speed>
</trkpt>
<trkpt lat="32.870937347" lon="35.236686707">
  <ele>163.606689</ele>
  <time>2011-11-12T06:13:01Z</time>
  <speed>4.880000</speed>
</trkpt>
<trkpt lat="32.870937347" lon="35.236743927">
  <ele>163.165283</ele>
  <time>2011-11-12T06:13:02Z</time>
  <speed>5.080000</speed>
</trkpt>
<trkpt lat="32.870933533" lon="35.236804962">
  <ele>163.106689</ele>
  <time>2011-11-12T06:13:03Z</time>
  <speed>5.250000</speed>
</trkpt>
<trkpt lat="32.870933533" lon="35.236862183">
  <ele>162.700439</ele>
  <time>2011-11-12T06:13:04Z</time>
  <speed>5.200000</speed>
</trkpt>
<trkpt lat="32.870922089" lon="35.236927032">
  <ele>162.579346</ele>
  <time>2011-11-12T06:13:05Z</time>
  <speed>6.430000</speed>
</trkpt>
<trkpt lat="32.870918274" lon="35.236999512">
  <ele>161.903564</ele>
  <time>2011-11-12T06:13:06Z</time>
  <speed>6.730000</speed>
</trkpt>
<trkpt lat="32.870910645" lon="35.237071991">
  <ele>161.591064</ele>
  <time>2011-11-12T06:13:07Z</time>
  <speed>6.530000</speed>
</trkpt>
<trkpt lat="32.870922089" lon="35.237140656">
  <ele>160.809814</ele>
  <time>2011-11-12T06:13:08Z</time>
  <speed>6.370000</speed>
</trkpt>
<trkpt lat="32.870929718" lon="35.237216949">
  <ele>160.536377</ele>
  <time>2011-11-12T06:13:09Z</time>
  <speed>7.370000</speed>
</trkpt>
<trkpt lat="32.870929718" lon="35.237308502">
  <ele>159.743408</ele>
  <time>2011-11-12T06:13:10Z</time>
  <speed>6.880000</speed>
</trkpt>
<trkpt lat="32.870910645" lon="35.237369537">
  <ele>159.477783</ele>
  <time>2011-11-12T06:13:11Z</time>
  <speed>5.420000</speed>
</trkpt>
<trkpt lat="32.870895386" lon="35.237426758">
  <ele>159.540283</ele>
  <time>2011-11-12T06:13:12Z</time>
  <speed>4.780000</speed>
</trkpt>
<trkpt lat="32.870887756" lon="35.237468719">
  <ele>159.661377</ele>
  <time>2011-11-12T06:13:13Z</time>
  <speed>3.850000</speed>
</trkpt>
<trkpt lat="32.870876312" lon="35.237503052">
  <ele>159.505127</ele>
  <time>2011-11-12T06:13:14Z</time>
  <speed>2.850000</speed>
</trkpt>
<trkpt lat="32.870845795" lon="35.237548828">
  <ele>158.880127</ele>
  <time>2011-11-12T06:13:16Z</time>
  <speed>2.050000</speed>
</trkpt>
<trkpt lat="32.870807648" lon="35.237579346">
  <ele>158.341064</ele>
  <time>2011-11-12T06:13:18Z</time>
  <speed>2.040000</speed>
</trkpt>
<trkpt lat="32.870788574" lon="35.237602234">
  <ele>157.880127</ele>
  <time>2011-11-12T06:13:19Z</time>
  <speed>3.560000</speed>
</trkpt>
<trkpt lat="32.870761871" lon="35.237640381">
  <ele>157.161377</ele>
  <time>2011-11-12T06:13:20Z</time>
  <speed>3.990000</speed>
</trkpt>
<trkpt lat="32.870742798" lon="35.237667084">
  <ele>156.723877</ele>
  <time>2011-11-12T06:13:21Z</time>
  <speed>2.800000</speed>
</trkpt>
<trkpt lat="32.870723724" lon="35.237689972">
  <ele>156.430908</ele>
  <time>2011-11-12T06:13:22Z</time>
  <speed>2.890000</speed>
</trkpt>
<trkpt lat="32.870704651" lon="35.237716675">
  <ele>155.962158</ele>
  <time>2011-11-12T06:13:23Z</time>
  <speed>2.690000</speed>
</trkpt>
<trkpt lat="32.870670319" lon="35.237747192">
  <ele>155.223877</ele>
  <time>2011-11-12T06:13:25Z</time>
  <speed>2.080000</speed>
</trkpt>
<trkpt lat="32.870647430" lon="35.237781525">
  <ele>155.997314</ele>
  <time>2011-11-12T06:13:27Z</time>
  <speed>1.940000</speed>
</trkpt>
<trkpt lat="32.870624542" lon="35.237819672">
  <ele>155.966064</ele>
  <time>2011-11-12T06:13:29Z</time>
  <speed>1.470000</speed>
</trkpt>
<trkpt lat="32.870574951" lon="35.237865448">
  <ele>154.950439</ele>
  <time>2011-11-12T06:13:31Z</time>
  <speed>2.740000</speed>
</trkpt>
<trkpt lat="32.870555878" lon="35.237888336">
  <ele>154.516846</ele>
  <time>2011-11-12T06:13:32Z</time>
  <speed>2.720000</speed>
</trkpt>
<trkpt lat="32.870532990" lon="35.237918854">
  <ele>153.618408</ele>
  <time>2011-11-12T06:13:33Z</time>
  <speed>3.070000</speed>
</trkpt>
<trkpt lat="32.870510101" lon="35.237937927">
  <ele>153.727783</ele>
  <time>2011-11-12T06:13:34Z</time>
  <speed>2.980000</speed>
</trkpt>
<trkpt lat="32.870487213" lon="35.237968445">
  <ele>153.048096</ele>
  <time>2011-11-12T06:13:35Z</time>
  <speed>3.080000</speed>
</trkpt>
<trkpt lat="32.870464325" lon="35.237995148">
  <ele>152.704346</ele>
  <time>2011-11-12T06:13:36Z</time>
  <speed>3.110000</speed>
</trkpt>
<trkpt lat="32.870441437" lon="35.238021851">
  <ele>153.091064</ele>
  <time>2011-11-12T06:13:37Z</time>
  <speed>2.210000</speed>
</trkpt>
<trkpt lat="32.870403290" lon="35.238040924">
  <ele>152.962158</ele>
  <time>2011-11-12T06:13:39Z</time>
  <speed>2.460000</speed>
</trkpt>
<trkpt lat="32.870384216" lon="35.238067627">
  <ele>152.302002</ele>
  <time>2011-11-12T06:13:40Z</time>
  <speed>2.550000</speed>
</trkpt>
<trkpt lat="32.870361328" lon="35.238101959">
  <ele>152.368408</ele>
  <time>2011-11-12T06:13:41Z</time>
  <speed>3.090000</speed>
</trkpt>
<trkpt lat="32.870349884" lon="35.238140106">
  <ele>152.212158</ele>
  <time>2011-11-12T06:13:42Z</time>
  <speed>2.510000</speed>
</trkpt>
<trkpt lat="32.870334625" lon="35.238170624">
  <ele>151.622314</ele>
  <time>2011-11-12T06:13:43Z</time>
  <speed>3.050000</speed>
</trkpt>
<trkpt lat="32.870307922" lon="35.238220215">
  <ele>150.969971</ele>
  <time>2011-11-12T06:13:45Z</time>
  <speed>2.380000</speed>
</trkpt>
<trkpt lat="32.870285034" lon="35.238277435">
  <ele>150.450439</ele>
  <time>2011-11-12T06:13:47Z</time>
  <speed>3.740000</speed>
</trkpt>
<trkpt lat="32.870262146" lon="35.238311768">
  <ele>149.821533</ele>
  <time>2011-11-12T06:13:48Z</time>
  <speed>3.700000</speed>
</trkpt>
<trkpt lat="32.870239258" lon="35.238376617">
  <ele>150.036377</ele>
  <time>2011-11-12T06:13:49Z</time>
  <speed>3.900000</speed>
</trkpt>
<trkpt lat="32.870231628" lon="35.238437653">
  <ele>149.759033</ele>
  <time>2011-11-12T06:13:50Z</time>
  <speed>3.710000</speed>
</trkpt>
<trkpt lat="32.870216370" lon="35.238479614">
  <ele>149.575439</ele>
  <time>2011-11-12T06:13:51Z</time>
  <speed>3.780000</speed>
</trkpt>
<trkpt lat="32.870197296" lon="35.238510132">
  <ele>149.204346</ele>
  <time>2011-11-12T06:13:52Z</time>
  <speed>3.070000</speed>
</trkpt>
<trkpt lat="32.870185852" lon="35.238548279">
  <ele>148.790283</ele>
  <time>2011-11-12T06:13:53Z</time>
  <speed>4.310000</speed>
</trkpt>
<trkpt lat="32.870170593" lon="35.238616943">
  <ele>148.993408</ele>
  <time>2011-11-12T06:13:54Z</time>
  <speed>4.400000</speed>
</trkpt>
<trkpt lat="32.870155334" lon="35.238662720">
  <ele>149.048096</ele>
  <time>2011-11-12T06:13:55Z</time>
  <speed>3.480000</speed>
</trkpt>
<trkpt lat="32.870147705" lon="35.238693237">
  <ele>149.028564</ele>
  <time>2011-11-12T06:13:56Z</time>
  <speed>2.060000</speed>
</trkpt>
<trkpt lat="32.870143890" lon="35.238742828">
  <ele>149.532471</ele>
  <time>2011-11-12T06:13:58Z</time>
  <speed>2.420000</speed>
</trkpt>
<trkpt lat="32.870132446" lon="35.238803864">
  <ele>149.067627</ele>
  <time>2011-11-12T06:14:00Z</time>
  <speed>3.300000</speed>
</trkpt>
<trkpt lat="32.870117188" lon="35.238838196">
  <ele>148.536377</ele>
  <time>2011-11-12T06:14:01Z</time>
  <speed>4.020000</speed>
</trkpt>
<trkpt lat="32.870098114" lon="35.238876343">
  <ele>148.512939</ele>
  <time>2011-11-12T06:14:02Z</time>
  <speed>4.040000</speed>
</trkpt>
<trkpt lat="32.870086670" lon="35.238918304">
  <ele>147.813721</ele>
  <time>2011-11-12T06:14:03Z</time>
  <speed>4.040000</speed>
</trkpt>
<trkpt lat="32.870086670" lon="35.238956451">
  <ele>146.973877</ele>
  <time>2011-11-12T06:14:04Z</time>
  <speed>3.200000</speed>
</trkpt>
<trkpt lat="32.870082855" lon="35.238998413">
  <ele>146.626221</ele>
  <time>2011-11-12T06:14:05Z</time>
  <speed>3.340000</speed>
</trkpt>
<trkpt lat="32.870090485" lon="35.239032745">
  <ele>146.423096</ele>
  <time>2011-11-12T06:14:06Z</time>
  <speed>3.350000</speed>
</trkpt>
<trkpt lat="32.870094299" lon="35.239074707">
  <ele>145.786377</ele>
  <time>2011-11-12T06:14:07Z</time>
  <speed>3.420000</speed>
</trkpt>
<trkpt lat="32.870109558" lon="35.239109039">
  <ele>145.782471</ele>
  <time>2011-11-12T06:14:08Z</time>
  <speed>3.420000</speed>
</trkpt>
<trkpt lat="32.870128632" lon="35.239154816">
  <ele>146.333252</ele>
  <time>2011-11-12T06:14:09Z</time>
  <speed>3.840000</speed>
</trkpt>
<trkpt lat="32.870143890" lon="35.239204407">
  <ele>147.630127</ele>
  <time>2011-11-12T06:14:10Z</time>
  <speed>4.140000</speed>
</trkpt>
<trkpt lat="32.870162964" lon="35.239242554">
  <ele>148.165283</ele>
  <time>2011-11-12T06:14:11Z</time>
  <speed>3.270000</speed>
</trkpt>
<trkpt lat="32.870189667" lon="35.239280701">
  <ele>149.692627</ele>
  <time>2011-11-12T06:14:12Z</time>
  <speed>3.540000</speed>
</trkpt>
<trkpt lat="32.870216370" lon="35.239315033">
  <ele>150.899658</ele>
  <time>2011-11-12T06:14:13Z</time>
  <speed>3.190000</speed>
</trkpt>
<trkpt lat="32.870239258" lon="35.239337921">
  <ele>151.227783</ele>
  <time>2011-11-12T06:14:14Z</time>
  <speed>3.030000</speed>
</trkpt>
<trkpt lat="32.870258331" lon="35.239364624">
  <ele>151.290283</ele>
  <time>2011-11-12T06:14:15Z</time>
  <speed>3.200000</speed>
</trkpt>
<trkpt lat="32.870281219" lon="35.239391327">
  <ele>151.860596</ele>
  <time>2011-11-12T06:14:16Z</time>
  <speed>3.300000</speed>
</trkpt>
<trkpt lat="32.870304108" lon="35.239421844">
  <ele>152.227783</ele>
  <time>2011-11-12T06:14:17Z</time>
  <speed>3.960000</speed>
</trkpt>
<trkpt lat="32.870319366" lon="35.239459991">
  <ele>151.641846</ele>
  <time>2011-11-12T06:14:18Z</time>
  <speed>3.720000</speed>
</trkpt>
<trkpt lat="32.870349884" lon="35.239482880">
  <ele>152.251221</ele>
  <time>2011-11-12T06:14:19Z</time>
  <speed>3.370000</speed>
</trkpt>
<trkpt lat="32.870380402" lon="35.239505768">
  <ele>153.141846</ele>
  <time>2011-11-12T06:14:20Z</time>
  <speed>3.080000</speed>
</trkpt>
<trkpt lat="32.870403290" lon="35.239528656">
  <ele>153.208252</ele>
  <time>2011-11-12T06:14:21Z</time>
  <speed>2.490000</speed>
</trkpt>
<trkpt lat="32.870429993" lon="35.239562988">
  <ele>152.884033</ele>
  <time>2011-11-12T06:14:23Z</time>
  <speed>2.020000</speed>
</trkpt>
<trkpt lat="32.870449066" lon="35.239604950">
  <ele>153.563721</ele>
  <time>2011-11-12T06:14:25Z</time>
  <speed>2.320000</speed>
</trkpt>
<trkpt lat="32.870471954" lon="35.239650726">
  <ele>153.755127</ele>
  <time>2011-11-12T06:14:27Z</time>
  <speed>2.370000</speed>
</trkpt>
<trkpt lat="32.870494843" lon="35.239688873">
  <ele>154.180908</ele>
  <time>2011-11-12T06:14:29Z</time>
  <speed>1.700000</speed>
</trkpt>
<trkpt lat="32.870510101" lon="35.239715576">
  <ele>155.563721</ele>
  <time>2011-11-12T06:14:54Z</time>
  <speed>0.020000</speed>
</trkpt>
<trkpt lat="32.870513916" lon="35.239757538">
  <ele>156.329346</ele>
  <time>2011-11-12T06:16:07Z</time>
  <speed>1.930000</speed>
</trkpt>
<trkpt lat="32.870510101" lon="35.239814758">
  <ele>157.575439</ele>
  <time>2011-11-12T06:16:09Z</time>
  <speed>2.910000</speed>
</trkpt>
<trkpt lat="32.870510101" lon="35.239849091">
  <ele>157.661377</ele>
  <time>2011-11-12T06:16:10Z</time>
  <speed>3.450000</speed>
</trkpt>
<trkpt lat="32.870506287" lon="35.239887238">
  <ele>157.735596</ele>
  <time>2011-11-12T06:16:11Z</time>
  <speed>3.740000</speed>
</trkpt>
<trkpt lat="32.870494843" lon="35.239929199">
  <ele>157.813721</ele>
  <time>2011-11-12T06:16:12Z</time>
  <speed>3.710000</speed>
</trkpt>
<trkpt lat="32.870483398" lon="35.239967346">
  <ele>157.829346</ele>
  <time>2011-11-12T06:16:13Z</time>
  <speed>3.910000</speed>
</trkpt>
<trkpt lat="32.870464325" lon="35.240005493">
  <ele>157.938721</ele>
  <time>2011-11-12T06:16:14Z</time>
  <speed>3.650000</speed>
</trkpt>
<trkpt lat="32.870445251" lon="35.240047455">
  <ele>158.583252</ele>
  <time>2011-11-12T06:16:15Z</time>
  <speed>4.120000</speed>
</trkpt>
<trkpt lat="32.870418549" lon="35.240081787">
  <ele>158.802002</ele>
  <time>2011-11-12T06:16:16Z</time>
  <speed>4.040000</speed>
</trkpt>
<trkpt lat="32.870395660" lon="35.240119934">
  <ele>159.286377</ele>
  <time>2011-11-12T06:16:17Z</time>
  <speed>3.860000</speed>
</trkpt>
<trkpt lat="32.870376587" lon="35.240158081">
  <ele>160.204346</ele>
  <time>2011-11-12T06:16:18Z</time>
  <speed>3.690000</speed>
</trkpt>
<trkpt lat="32.870349884" lon="35.240188599">
  <ele>160.387939</ele>
  <time>2011-11-12T06:16:19Z</time>
  <speed>3.330000</speed>
</trkpt>
<trkpt lat="32.870330811" lon="35.240211487">
  <ele>160.665283</ele>
  <time>2011-11-12T06:16:20Z</time>
  <speed>2.770000</speed>
</trkpt>
<trkpt lat="32.870292664" lon="35.240249634">
  <ele>160.591064</ele>
  <time>2011-11-12T06:16:22Z</time>
  <speed>2.910000</speed>
</trkpt>
<trkpt lat="32.870269775" lon="35.240268707">
  <ele>160.645752</ele>
  <time>2011-11-12T06:16:23Z</time>
  <speed>2.980000</speed>
</trkpt>
<trkpt lat="32.870231628" lon="35.240306854">
  <ele>161.239502</ele>
  <time>2011-11-12T06:16:25Z</time>
  <speed>2.700000</speed>
</trkpt>
<trkpt lat="32.870189667" lon="35.240329742">
  <ele>162.255127</ele>
  <time>2011-11-12T06:16:27Z</time>
  <speed>2.600000</speed>
</trkpt>
<trkpt lat="32.870151520" lon="35.240364075">
  <ele>163.052002</ele>
  <time>2011-11-12T06:16:29Z</time>
  <speed>2.600000</speed>
</trkpt>
<trkpt lat="32.870113373" lon="35.240406036">
  <ele>163.641846</ele>
  <time>2011-11-12T06:16:31Z</time>
  <speed>2.810000</speed>
</trkpt>
<trkpt lat="32.870071411" lon="35.240444183">
  <ele>163.848877</ele>
  <time>2011-11-12T06:16:33Z</time>
  <speed>3.050000</speed>
</trkpt>
<trkpt lat="32.870037079" lon="35.240486145">
  <ele>164.677002</ele>
  <time>2011-11-12T06:16:35Z</time>
  <speed>2.430000</speed>
</trkpt>
<trkpt lat="32.870018005" lon="35.240512848">
  <ele>165.153564</ele>
  <time>2011-11-12T06:16:36Z</time>
  <speed>2.670000</speed>
</trkpt>
<trkpt lat="32.869991302" lon="35.240547180">
  <ele>165.204346</ele>
  <time>2011-11-12T06:16:38Z</time>
  <speed>2.390000</speed>
</trkpt>
<trkpt lat="32.869953156" lon="35.240585327">
  <ele>165.337158</ele>
  <time>2011-11-12T06:16:40Z</time>
  <speed>2.100000</speed>
</trkpt>
<trkpt lat="32.869934082" lon="35.240615845">
  <ele>165.341064</ele>
  <time>2011-11-12T06:16:42Z</time>
  <speed>1.860000</speed>
</trkpt>
<trkpt lat="32.869899750" lon="35.240646362">
  <ele>165.384033</ele>
  <time>2011-11-12T06:16:44Z</time>
  <speed>2.200000</speed>
</trkpt>
<trkpt lat="32.869873047" lon="35.240692139">
  <ele>166.122314</ele>
  <time>2011-11-12T06:16:46Z</time>
  <speed>2.450000</speed>
</trkpt>
<trkpt lat="32.869838715" lon="35.240737915">
  <ele>166.450439</ele>
  <time>2011-11-12T06:16:48Z</time>
  <speed>2.520000</speed>
</trkpt>
<trkpt lat="32.869804382" lon="35.240779877">
  <ele>166.802002</ele>
  <time>2011-11-12T06:16:50Z</time>
  <speed>2.630000</speed>
</trkpt>
<trkpt lat="32.869781494" lon="35.240806580">
  <ele>166.942627</ele>
  <time>2011-11-12T06:16:51Z</time>
  <speed>2.720000</speed>
</trkpt>
<trkpt lat="32.869747162" lon="35.240848541">
  <ele>167.290283</ele>
  <time>2011-11-12T06:16:53Z</time>
  <speed>2.990000</speed>
</trkpt>
<trkpt lat="32.869728088" lon="35.240871429">
  <ele>166.985596</ele>
  <time>2011-11-12T06:16:54Z</time>
  <speed>2.880000</speed>
</trkpt>
<trkpt lat="32.869709015" lon="35.240890503">
  <ele>166.587158</ele>
  <time>2011-11-12T06:16:55Z</time>
  <speed>3.000000</speed>
</trkpt>
<trkpt lat="32.869674683" lon="35.240936279">
  <ele>166.696533</ele>
  <time>2011-11-12T06:16:57Z</time>
  <speed>2.890000</speed>
</trkpt>
<trkpt lat="32.869655609" lon="35.240962982">
  <ele>166.294189</ele>
  <time>2011-11-12T06:16:58Z</time>
  <speed>2.750000</speed>
</trkpt>
<trkpt lat="32.869628906" lon="35.240993500">
  <ele>166.634033</ele>
  <time>2011-11-12T06:16:59Z</time>
  <speed>2.840000</speed>
</trkpt>
<trkpt lat="32.869609833" lon="35.241016388">
  <ele>166.052002</ele>
  <time>2011-11-12T06:17:00Z</time>
  <speed>2.900000</speed>
</trkpt>
<trkpt lat="32.869575500" lon="35.241065979">
  <ele>166.501221</ele>
  <time>2011-11-12T06:17:02Z</time>
  <speed>3.200000</speed>
</trkpt>
<trkpt lat="32.869560242" lon="35.241096497">
  <ele>166.188721</ele>
  <time>2011-11-12T06:17:03Z</time>
  <speed>2.960000</speed>
</trkpt>
<trkpt lat="32.869522095" lon="35.241142273">
  <ele>165.954346</ele>
  <time>2011-11-12T06:17:05Z</time>
  <speed>2.770000</speed>
</trkpt>
<trkpt lat="32.869480133" lon="35.241176605">
  <ele>165.438721</ele>
  <time>2011-11-12T06:17:07Z</time>
  <speed>2.590000</speed>
</trkpt>
<trkpt lat="32.869445801" lon="35.241218567">
  <ele>165.274658</ele>
  <time>2011-11-12T06:17:09Z</time>
  <speed>3.100000</speed>
</trkpt>
<trkpt lat="32.869422913" lon="35.241249084">
  <ele>165.110596</ele>
  <time>2011-11-12T06:17:10Z</time>
  <speed>2.950000</speed>
</trkpt>
<trkpt lat="32.869400024" lon="35.241268158">
  <ele>164.696533</ele>
  <time>2011-11-12T06:17:11Z</time>
  <speed>3.300000</speed>
</trkpt>
<trkpt lat="32.869377136" lon="35.241294861">
  <ele>164.075439</ele>
  <time>2011-11-12T06:17:12Z</time>
  <speed>3.110000</speed>
</trkpt>
<trkpt lat="32.869358063" lon="35.241317749">
  <ele>164.110596</ele>
  <time>2011-11-12T06:17:13Z</time>
  <speed>3.560000</speed>
</trkpt>
<trkpt lat="32.869335175" lon="35.241344452">
  <ele>163.989502</ele>
  <time>2011-11-12T06:17:14Z</time>
  <speed>3.730000</speed>
</trkpt>
<trkpt lat="32.869308472" lon="35.241371155">
  <ele>164.790283</ele>
  <time>2011-11-12T06:17:15Z</time>
  <speed>3.920000</speed>
</trkpt>
<trkpt lat="32.869285583" lon="35.241401672">
  <ele>164.837158</ele>
  <time>2011-11-12T06:17:16Z</time>
  <speed>4.020000</speed>
</trkpt>
<trkpt lat="32.869262695" lon="35.241432190">
  <ele>164.485596</ele>
  <time>2011-11-12T06:17:17Z</time>
  <speed>3.420000</speed>
</trkpt>
<trkpt lat="32.869232178" lon="35.241455078">
  <ele>165.012939</ele>
  <time>2011-11-12T06:17:18Z</time>
  <speed>3.520000</speed>
</trkpt>
<trkpt lat="32.869209290" lon="35.241481781">
  <ele>164.837158</ele>
  <time>2011-11-12T06:17:19Z</time>
  <speed>3.230000</speed>
</trkpt>
<trkpt lat="32.869171143" lon="35.241527557">
  <ele>164.848877</ele>
  <time>2011-11-12T06:17:21Z</time>
  <speed>3.340000</speed>
</trkpt>
<trkpt lat="32.869132996" lon="35.241577148">
  <ele>164.805908</ele>
  <time>2011-11-12T06:17:23Z</time>
  <speed>2.930000</speed>
</trkpt>
<trkpt lat="32.869113922" lon="35.241596222">
  <ele>165.282471</ele>
  <time>2011-11-12T06:17:24Z</time>
  <speed>3.100000</speed>
</trkpt>
<trkpt lat="32.869094849" lon="35.241622925">
  <ele>165.274658</ele>
  <time>2011-11-12T06:17:25Z</time>
  <speed>2.970000</speed>
</trkpt>
<trkpt lat="32.869075775" lon="35.241645813">
  <ele>165.212158</ele>
  <time>2011-11-12T06:17:26Z</time>
  <speed>2.930000</speed>
</trkpt>
<trkpt lat="32.869045258" lon="35.241687775">
  <ele>166.731689</ele>
  <time>2011-11-12T06:17:28Z</time>
  <speed>2.900000</speed>
</trkpt>
<trkpt lat="32.869014740" lon="35.241725922">
  <ele>166.833252</ele>
  <time>2011-11-12T06:17:30Z</time>
  <speed>2.580000</speed>
</trkpt>
<trkpt lat="32.868976593" lon="35.241767883">
  <ele>166.649658</ele>
  <time>2011-11-12T06:17:32Z</time>
  <speed>2.460000</speed>
</trkpt>
<trkpt lat="32.868938446" lon="35.241798401">
  <ele>166.891846</ele>
  <time>2011-11-12T06:17:34Z</time>
  <speed>2.840000</speed>
</trkpt>
<trkpt lat="32.868888855" lon="35.241821289">
  <ele>166.653564</ele>
  <time>2011-11-12T06:17:36Z</time>
  <speed>3.060000</speed>
</trkpt>
<trkpt lat="32.868839264" lon="35.241840363">
  <ele>166.673096</ele>
  <time>2011-11-12T06:17:38Z</time>
  <speed>3.030000</speed>
</trkpt>
<trkpt lat="32.868808746" lon="35.241836548">
  <ele>166.493408</ele>
  <time>2011-11-12T06:17:39Z</time>
  <speed>2.860000</speed>
</trkpt>
<trkpt lat="32.868759155" lon="35.241825104">
  <ele>166.930908</ele>
  <time>2011-11-12T06:17:41Z</time>
  <speed>2.650000</speed>
</trkpt>
<trkpt lat="32.868709564" lon="35.241813660">
  <ele>167.286377</ele>
  <time>2011-11-12T06:17:43Z</time>
  <speed>3.080000</speed>
</trkpt>
<trkpt lat="32.868659973" lon="35.241802216">
  <ele>166.954346</ele>
  <time>2011-11-12T06:17:45Z</time>
  <speed>2.520000</speed>
</trkpt>
<trkpt lat="32.868625641" lon="35.241756439">
  <ele>166.227783</ele>
  <time>2011-11-12T06:17:47Z</time>
  <speed>2.780000</speed>
</trkpt>
<trkpt lat="32.868598938" lon="35.241737366">
  <ele>165.098877</ele>
  <time>2011-11-12T06:17:48Z</time>
  <speed>2.560000</speed>
</trkpt>
<trkpt lat="32.868583679" lon="35.241710663">
  <ele>164.505127</ele>
  <time>2011-11-12T06:17:49Z</time>
  <speed>3.170000</speed>
</trkpt>
<trkpt lat="32.868572235" lon="35.241680145">
  <ele>164.130127</ele>
  <time>2011-11-12T06:17:50Z</time>
  <speed>3.250000</speed>
</trkpt>
<trkpt lat="32.868560791" lon="35.241649628">
  <ele>163.673096</ele>
  <time>2011-11-12T06:17:51Z</time>
  <speed>2.970000</speed>
</trkpt>
<trkpt lat="32.868545532" lon="35.241619110">
  <ele>163.102783</ele>
  <time>2011-11-12T06:17:52Z</time>
  <speed>2.890000</speed>
</trkpt>
<trkpt lat="32.868537903" lon="35.241588593">
  <ele>162.501221</ele>
  <time>2011-11-12T06:17:53Z</time>
  <speed>2.630000</speed>
</trkpt>
<trkpt lat="32.868541718" lon="35.241554260">
  <ele>162.165283</ele>
  <time>2011-11-12T06:17:54Z</time>
  <speed>2.840000</speed>
</trkpt>
<trkpt lat="32.868541718" lon="35.241516113">
  <ele>161.630127</ele>
  <time>2011-11-12T06:17:55Z</time>
  <speed>2.750000</speed>
</trkpt>
<trkpt lat="32.868534088" lon="35.241458893">
  <ele>160.872314</ele>
  <time>2011-11-12T06:17:57Z</time>
  <speed>2.860000</speed>
</trkpt>
<trkpt lat="32.868526459" lon="35.241397858">
  <ele>160.634033</ele>
  <time>2011-11-12T06:17:59Z</time>
  <speed>2.860000</speed>
</trkpt>
<trkpt lat="32.868515015" lon="35.241355896">
  <ele>160.930908</ele>
  <time>2011-11-12T06:18:00Z</time>
  <speed>2.990000</speed>
</trkpt>
<trkpt lat="32.868507385" lon="35.241321564">
  <ele>160.841064</ele>
  <time>2011-11-12T06:18:01Z</time>
  <speed>2.560000</speed>
</trkpt>
<trkpt lat="32.868492126" lon="35.241264343">
  <ele>160.684814</ele>
  <time>2011-11-12T06:18:03Z</time>
  <speed>2.640000</speed>
</trkpt>
<trkpt lat="32.868480682" lon="35.241218567">
  <ele>160.403564</ele>
  <time>2011-11-12T06:18:05Z</time>
  <speed>1.980000</speed>
</trkpt>
<trkpt lat="32.868473053" lon="35.241172791">
  <ele>160.884033</ele>
  <time>2011-11-12T06:18:07Z</time>
  <speed>1.780000</speed>
</trkpt>
<trkpt lat="32.868461609" lon="35.241127014">
  <ele>160.872314</ele>
  <time>2011-11-12T06:18:09Z</time>
  <speed>2.040000</speed>
</trkpt>
<trkpt lat="32.868461609" lon="35.241085052">
  <ele>160.247314</ele>
  <time>2011-11-12T06:18:11Z</time>
  <speed>2.060000</speed>
</trkpt>
<trkpt lat="32.868450165" lon="35.241043091">
  <ele>160.462158</ele>
  <time>2011-11-12T06:18:13Z</time>
  <speed>2.020000</speed>
</trkpt>
<trkpt lat="32.868442535" lon="35.241001129">
  <ele>159.852783</ele>
  <time>2011-11-12T06:18:15Z</time>
  <speed>1.520000</speed>
</trkpt>
<trkpt lat="32.868438721" lon="35.240940094">
  <ele>159.177002</ele>
  <time>2011-11-12T06:18:17Z</time>
  <speed>2.280000</speed>
</trkpt>
<trkpt lat="32.868438721" lon="35.240901947">
  <ele>159.700439</ele>
  <time>2011-11-12T06:18:18Z</time>
  <speed>2.520000</speed>
</trkpt>
<trkpt lat="32.868434906" lon="35.240840912">
  <ele>159.634033</ele>
  <time>2011-11-12T06:18:20Z</time>
  <speed>2.220000</speed>
</trkpt>
<trkpt lat="32.868431091" lon="35.240783691">
  <ele>159.579346</ele>
  <time>2011-11-12T06:18:22Z</time>
  <speed>2.360000</speed>
</trkpt>
<trkpt lat="32.868423462" lon="35.240726471">
  <ele>159.661377</ele>
  <time>2011-11-12T06:18:24Z</time>
  <speed>2.480000</speed>
</trkpt>
<trkpt lat="32.868408203" lon="35.240661621">
  <ele>159.630127</ele>
  <time>2011-11-12T06:18:26Z</time>
  <speed>2.420000</speed>
</trkpt>
<trkpt lat="32.868396759" lon="35.240608215">
  <ele>158.497314</ele>
  <time>2011-11-12T06:18:28Z</time>
  <speed>2.530000</speed>
</trkpt>
<trkpt lat="32.868389130" lon="35.240573883">
  <ele>157.868408</ele>
  <time>2011-11-12T06:18:29Z</time>
  <speed>2.610000</speed>
</trkpt>
<trkpt lat="32.868377686" lon="35.240543365">
  <ele>158.380127</ele>
  <time>2011-11-12T06:18:30Z</time>
  <speed>2.490000</speed>
</trkpt>
<trkpt lat="32.868354797" lon="35.240489960">
  <ele>157.782471</ele>
  <time>2011-11-12T06:18:32Z</time>
  <speed>2.670000</speed>
</trkpt>
<trkpt lat="32.868343353" lon="35.240455627">
  <ele>157.348877</ele>
  <time>2011-11-12T06:18:33Z</time>
  <speed>3.040000</speed>
</trkpt>
<trkpt lat="32.868328094" lon="35.240428925">
  <ele>157.641846</ele>
  <time>2011-11-12T06:18:34Z</time>
  <speed>2.550000</speed>
</trkpt>
<trkpt lat="32.868316650" lon="35.240371704">
  <ele>156.325439</ele>
  <time>2011-11-12T06:18:36Z</time>
  <speed>2.570000</speed>
</trkpt>
<trkpt lat="32.868316650" lon="35.240337372">
  <ele>155.692627</ele>
  <time>2011-11-12T06:18:37Z</time>
  <speed>2.500000</speed>
</trkpt>
<trkpt lat="32.868316650" lon="35.240306854">
  <ele>155.286377</ele>
  <time>2011-11-12T06:18:38Z</time>
  <speed>2.380000</speed>
</trkpt>
<trkpt lat="32.868350983" lon="35.240257263">
  <ele>155.212158</ele>
  <time>2011-11-12T06:18:39Z</time>
  <speed>2.130000</speed>
</trkpt>
<trkpt lat="32.868358612" lon="35.240226746">
  <ele>154.766846</ele>
  <time>2011-11-12T06:18:40Z</time>
  <speed>2.080000</speed>
</trkpt>
<trkpt lat="32.868366241" lon="35.240177155">
  <ele>154.380127</ele>
  <time>2011-11-12T06:18:42Z</time>
  <speed>1.910000</speed>
</trkpt>
<trkpt lat="32.868354797" lon="35.240142822">
  <ele>154.216064</ele>
  <time>2011-11-12T06:18:43Z</time>
  <speed>2.030000</speed>
</trkpt>
<trkpt lat="32.868354797" lon="35.240112305">
  <ele>153.618408</ele>
  <time>2011-11-12T06:18:44Z</time>
  <speed>2.390000</speed>
</trkpt>
<trkpt lat="32.868347168" lon="35.240066528">
  <ele>153.524658</ele>
  <time>2011-11-12T06:18:45Z</time>
  <speed>2.760000</speed>
</trkpt>
<trkpt lat="32.868343353" lon="35.240024567">
  <ele>153.427002</ele>
  <time>2011-11-12T06:18:46Z</time>
  <speed>2.850000</speed>
</trkpt>
<trkpt lat="32.868343353" lon="35.239982605">
  <ele>152.981689</ele>
  <time>2011-11-12T06:18:47Z</time>
  <speed>2.910000</speed>
</trkpt>
<trkpt lat="32.868347168" lon="35.239948273">
  <ele>152.680908</ele>
  <time>2011-11-12T06:18:48Z</time>
  <speed>2.980000</speed>
</trkpt>
<trkpt lat="32.868350983" lon="35.239913940">
  <ele>152.716064</ele>
  <time>2011-11-12T06:18:49Z</time>
  <speed>3.340000</speed>
</trkpt>
<trkpt lat="32.868370056" lon="35.239879608">
  <ele>152.481689</ele>
  <time>2011-11-12T06:18:50Z</time>
  <speed>3.510000</speed>
</trkpt>
<trkpt lat="32.868392944" lon="35.239849091">
  <ele>152.344971</ele>
  <time>2011-11-12T06:18:51Z</time>
  <speed>3.730000</speed>
</trkpt>
<trkpt lat="32.868419647" lon="35.239814758">
  <ele>152.466064</ele>
  <time>2011-11-12T06:18:52Z</time>
  <speed>4.000000</speed>
</trkpt>
<trkpt lat="32.868446350" lon="35.239757538">
  <ele>154.055908</ele>
  <time>2011-11-12T06:18:53Z</time>
  <speed>4.270000</speed>
</trkpt>
<trkpt lat="32.868480682" lon="35.239727020">
  <ele>153.930908</ele>
  <time>2011-11-12T06:18:54Z</time>
  <speed>4.400000</speed>
</trkpt>
<trkpt lat="32.868522644" lon="35.239696503">
  <ele>153.501221</ele>
  <time>2011-11-12T06:18:55Z</time>
  <speed>5.060000</speed>
</trkpt>
<trkpt lat="32.868587494" lon="35.239665985">
  <ele>153.735596</ele>
  <time>2011-11-12T06:18:56Z</time>
  <speed>5.010000</speed>
</trkpt>
<trkpt lat="32.868629456" lon="35.239639282">
  <ele>153.813721</ele>
  <time>2011-11-12T06:18:57Z</time>
  <speed>5.360000</speed>
</trkpt>
<trkpt lat="32.868667603" lon="35.239601135">
  <ele>154.415283</ele>
  <time>2011-11-12T06:18:58Z</time>
  <speed>5.420000</speed>
</trkpt>
<trkpt lat="32.868701935" lon="35.239559174">
  <ele>154.223877</ele>
  <time>2011-11-12T06:18:59Z</time>
  <speed>4.850000</speed>
</trkpt>
<trkpt lat="32.868724823" lon="35.239521027">
  <ele>154.040283</ele>
  <time>2011-11-12T06:19:00Z</time>
  <speed>4.330000</speed>
</trkpt>
<trkpt lat="32.868747711" lon="35.239482880">
  <ele>153.821533</ele>
  <time>2011-11-12T06:19:01Z</time>
  <speed>4.220000</speed>
</trkpt>
<trkpt lat="32.868762970" lon="35.239444733">
  <ele>153.852783</ele>
  <time>2011-11-12T06:19:02Z</time>
  <speed>3.910000</speed>
</trkpt>
<trkpt lat="32.868782043" lon="35.239402771">
  <ele>153.762939</ele>
  <time>2011-11-12T06:19:03Z</time>
  <speed>4.110000</speed>
</trkpt>
<trkpt lat="32.868789673" lon="35.239353180">
  <ele>154.606689</ele>
  <time>2011-11-12T06:19:04Z</time>
  <speed>3.780000</speed>
</trkpt>
<trkpt lat="32.868804932" lon="35.239311218">
  <ele>154.700439</ele>
  <time>2011-11-12T06:19:05Z</time>
  <speed>3.570000</speed>
</trkpt>
<trkpt lat="32.868801117" lon="35.239250183">
  <ele>157.134033</ele>
  <time>2011-11-12T06:19:06Z</time>
  <speed>3.570000</speed>
</trkpt>
<trkpt lat="32.868804932" lon="35.239208221">
  <ele>157.184814</ele>
  <time>2011-11-12T06:19:07Z</time>
  <speed>3.480000</speed>
</trkpt>
<trkpt lat="32.868801117" lon="35.239170074">
  <ele>156.880127</ele>
  <time>2011-11-12T06:19:08Z</time>
  <speed>3.810000</speed>
</trkpt>
<trkpt lat="32.868801117" lon="35.239124298">
  <ele>156.497314</ele>
  <time>2011-11-12T06:19:09Z</time>
  <speed>4.050000</speed>
</trkpt>
<trkpt lat="32.868789673" lon="35.239082336">
  <ele>156.380127</ele>
  <time>2011-11-12T06:19:10Z</time>
  <speed>3.650000</speed>
</trkpt>
<trkpt lat="32.868797302" lon="35.239040375">
  <ele>156.860596</ele>
  <time>2011-11-12T06:19:11Z</time>
  <speed>3.540000</speed>
</trkpt>
<trkpt lat="32.868808746" lon="35.238994598">
  <ele>156.798096</ele>
  <time>2011-11-12T06:19:12Z</time>
  <speed>3.680000</speed>
</trkpt>
<trkpt lat="32.868804932" lon="35.238960266">
  <ele>157.134033</ele>
  <time>2011-11-12T06:19:13Z</time>
  <speed>3.580000</speed>
</trkpt>
<trkpt lat="32.868801117" lon="35.238918304">
  <ele>157.344971</ele>
  <time>2011-11-12T06:19:14Z</time>
  <speed>3.780000</speed>
</trkpt>
<trkpt lat="32.868797302" lon="35.238876343">
  <ele>157.188721</ele>
  <time>2011-11-12T06:19:15Z</time>
  <speed>3.690000</speed>
</trkpt>
<trkpt lat="32.868793488" lon="35.238834381">
  <ele>157.481689</ele>
  <time>2011-11-12T06:19:16Z</time>
  <speed>3.340000</speed>
</trkpt>
<trkpt lat="32.868793488" lon="35.238788605">
  <ele>157.665283</ele>
  <time>2011-11-12T06:19:17Z</time>
  <speed>3.610000</speed>
</trkpt>
<trkpt lat="32.868797302" lon="35.238750458">
  <ele>157.587158</ele>
  <time>2011-11-12T06:19:18Z</time>
  <speed>3.200000</speed>
</trkpt>
<trkpt lat="32.868801117" lon="35.238704681">
  <ele>157.591064</ele>
  <time>2011-11-12T06:19:19Z</time>
  <speed>3.460000</speed>
</trkpt>
<trkpt lat="32.868808746" lon="35.238639832">
  <ele>157.516846</ele>
  <time>2011-11-12T06:19:20Z</time>
  <speed>3.180000</speed>
</trkpt>
<trkpt lat="32.868808746" lon="35.238605499">
  <ele>156.880127</ele>
  <time>2011-11-12T06:19:21Z</time>
  <speed>3.170000</speed>
</trkpt>
<trkpt lat="32.868801117" lon="35.238567352">
  <ele>157.555908</ele>
  <time>2011-11-12T06:19:22Z</time>
  <speed>3.160000</speed>
</trkpt>
<trkpt lat="32.868789673" lon="35.238529205">
  <ele>157.802002</ele>
  <time>2011-11-12T06:19:23Z</time>
  <speed>3.370000</speed>
</trkpt>
<trkpt lat="32.868778229" lon="35.238483429">
  <ele>158.161377</ele>
  <time>2011-11-12T06:19:24Z</time>
  <speed>3.880000</speed>
</trkpt>
<trkpt lat="32.868759155" lon="35.238433838">
  <ele>158.075439</ele>
  <time>2011-11-12T06:19:25Z</time>
  <speed>3.840000</speed>
</trkpt>
<trkpt lat="32.868736267" lon="35.238395691">
  <ele>158.587158</ele>
  <time>2011-11-12T06:19:26Z</time>
  <speed>3.690000</speed>
</trkpt>
<trkpt lat="32.868717194" lon="35.238357544">
  <ele>159.134033</ele>
  <time>2011-11-12T06:19:27Z</time>
  <speed>3.250000</speed>
</trkpt>
<trkpt lat="32.868701935" lon="35.238311768">
  <ele>159.462158</ele>
  <time>2011-11-12T06:19:28Z</time>
  <speed>4.200000</speed>
</trkpt>
<trkpt lat="32.868690491" lon="35.238250732">
  <ele>158.813721</ele>
  <time>2011-11-12T06:19:29Z</time>
  <speed>4.380000</speed>
</trkpt>
<trkpt lat="32.868671417" lon="35.238201141">
  <ele>158.501221</ele>
  <time>2011-11-12T06:19:30Z</time>
  <speed>4.300000</speed>
</trkpt>
<trkpt lat="32.868652344" lon="35.238159180">
  <ele>157.966064</ele>
  <time>2011-11-12T06:19:31Z</time>
  <speed>4.050000</speed>
</trkpt>
<trkpt lat="32.868640900" lon="35.238117218">
  <ele>157.411377</ele>
  <time>2011-11-12T06:19:32Z</time>
  <speed>3.510000</speed>
</trkpt>
<trkpt lat="32.868629456" lon="35.238071442">
  <ele>157.317627</ele>
  <time>2011-11-12T06:19:33Z</time>
  <speed>4.450000</speed>
</trkpt>
<trkpt lat="32.868618011" lon="35.238029480">
  <ele>156.923096</ele>
  <time>2011-11-12T06:19:34Z</time>
  <speed>4.150000</speed>
</trkpt>
<trkpt lat="32.868591309" lon="35.237983704">
  <ele>157.032471</ele>
  <time>2011-11-12T06:19:35Z</time>
  <speed>4.490000</speed>
</trkpt>
<trkpt lat="32.868568420" lon="35.237934113">
  <ele>156.919189</ele>
  <time>2011-11-12T06:19:36Z</time>
  <speed>4.330000</speed>
</trkpt>
<trkpt lat="32.868549347" lon="35.237888336">
  <ele>156.454346</ele>
  <time>2011-11-12T06:19:37Z</time>
  <speed>4.060000</speed>
</trkpt>
<trkpt lat="32.868537903" lon="35.237846375">
  <ele>156.520752</ele>
  <time>2011-11-12T06:19:38Z</time>
  <speed>4.120000</speed>
</trkpt>
<trkpt lat="32.868526459" lon="35.237800598">
  <ele>156.927002</ele>
  <time>2011-11-12T06:19:39Z</time>
  <speed>3.430000</speed>
</trkpt>
<trkpt lat="32.868515015" lon="35.237754822">
  <ele>157.411377</ele>
  <time>2011-11-12T06:19:40Z</time>
  <speed>3.610000</speed>
</trkpt>
<trkpt lat="32.868507385" lon="35.237712860">
  <ele>157.536377</ele>
  <time>2011-11-12T06:19:41Z</time>
  <speed>3.270000</speed>
</trkpt>
<trkpt lat="32.868503571" lon="35.237670898">
  <ele>158.188721</ele>
  <time>2011-11-12T06:19:42Z</time>
  <speed>3.240000</speed>
</trkpt>
<trkpt lat="32.868503571" lon="35.237628937">
  <ele>158.571533</ele>
  <time>2011-11-12T06:19:43Z</time>
  <speed>3.310000</speed>
</trkpt>
<trkpt lat="32.868495941" lon="35.237586975">
  <ele>158.512939</ele>
  <time>2011-11-12T06:19:44Z</time>
  <speed>3.570000</speed>
</trkpt>
<trkpt lat="32.868492126" lon="35.237552643">
  <ele>158.876221</ele>
  <time>2011-11-12T06:19:45Z</time>
  <speed>3.250000</speed>
</trkpt>
<trkpt lat="32.868492126" lon="35.237510681">
  <ele>159.122314</ele>
  <time>2011-11-12T06:19:46Z</time>
  <speed>2.970000</speed>
</trkpt>
<trkpt lat="32.868492126" lon="35.237472534">
  <ele>159.352783</ele>
  <time>2011-11-12T06:19:47Z</time>
  <speed>2.650000</speed>
</trkpt>
<trkpt lat="32.868492126" lon="35.237411499">
  <ele>158.821533</ele>
  <time>2011-11-12T06:19:49Z</time>
  <speed>3.410000</speed>
</trkpt>
<trkpt lat="32.868492126" lon="35.237369537">
  <ele>159.219971</ele>
  <time>2011-11-12T06:19:50Z</time>
  <speed>2.770000</speed>
</trkpt>
<trkpt lat="32.868492126" lon="35.237335205">
  <ele>159.204346</ele>
  <time>2011-11-12T06:19:51Z</time>
  <speed>2.600000</speed>
</trkpt>
<trkpt lat="32.868480682" lon="35.237293243">
  <ele>159.993408</ele>
  <time>2011-11-12T06:19:52Z</time>
  <speed>2.050000</speed>
</trkpt>
<trkpt lat="32.868511200" lon="35.237251282">
  <ele>159.911377</ele>
  <time>2011-11-12T06:19:53Z</time>
  <speed>2.570000</speed>
</trkpt>
<trkpt lat="32.868495941" lon="35.237186432">
  <ele>161.704346</ele>
  <time>2011-11-12T06:19:55Z</time>
  <speed>2.540000</speed>
</trkpt>
<trkpt lat="32.868492126" lon="35.237117767">
  <ele>161.114502</ele>
  <time>2011-11-12T06:19:57Z</time>
  <speed>2.950000</speed>
</trkpt>
<trkpt lat="32.868473053" lon="35.237041473">
  <ele>161.923096</ele>
  <time>2011-11-12T06:19:59Z</time>
  <speed>2.410000</speed>
</trkpt>
<trkpt lat="32.868469238" lon="35.236976624">
  <ele>161.259033</ele>
  <time>2011-11-12T06:20:01Z</time>
  <speed>2.510000</speed>
</trkpt>
<trkpt lat="32.868469238" lon="35.236942291">
  <ele>161.001221</ele>
  <time>2011-11-12T06:20:02Z</time>
  <speed>2.840000</speed>
</trkpt>
<trkpt lat="32.868461609" lon="35.236881256">
  <ele>159.852783</ele>
  <time>2011-11-12T06:20:04Z</time>
  <speed>2.630000</speed>
</trkpt>
<trkpt lat="32.868446350" lon="35.236858368">
  <ele>159.126221</ele>
  <time>2011-11-12T06:20:05Z</time>
  <speed>2.820000</speed>
</trkpt>
<trkpt lat="32.868438721" lon="35.236827850">
  <ele>158.305908</ele>
  <time>2011-11-12T06:20:06Z</time>
  <speed>2.810000</speed>
</trkpt>
<trkpt lat="32.868442535" lon="35.236785889">
  <ele>157.747314</ele>
  <time>2011-11-12T06:20:07Z</time>
  <speed>2.730000</speed>
</trkpt>
<trkpt lat="32.868438721" lon="35.236751556">
  <ele>157.665283</ele>
  <time>2011-11-12T06:20:08Z</time>
  <speed>2.780000</speed>
</trkpt>
<trkpt lat="32.868438721" lon="35.236713409">
  <ele>156.985596</ele>
  <time>2011-11-12T06:20:09Z</time>
  <speed>2.990000</speed>
</trkpt>
<trkpt lat="32.868427277" lon="35.236679077">
  <ele>156.739502</ele>
  <time>2011-11-12T06:20:10Z</time>
  <speed>3.230000</speed>
</trkpt>
<trkpt lat="32.868415833" lon="35.236640930">
  <ele>156.446533</ele>
  <time>2011-11-12T06:20:11Z</time>
  <speed>3.380000</speed>
</trkpt>
<trkpt lat="32.868408203" lon="35.236595154">
  <ele>156.997314</ele>
  <time>2011-11-12T06:20:12Z</time>
  <speed>3.650000</speed>
</trkpt>
<trkpt lat="32.868392944" lon="35.236545563">
  <ele>157.743408</ele>
  <time>2011-11-12T06:20:13Z</time>
  <speed>4.250000</speed>
</trkpt>
<trkpt lat="32.868377686" lon="35.236495972">
  <ele>158.469971</ele>
  <time>2011-11-12T06:20:14Z</time>
  <speed>3.810000</speed>
</trkpt>
<trkpt lat="32.868370056" lon="35.236446381">
  <ele>160.208252</ele>
  <time>2011-11-12T06:20:15Z</time>
  <speed>3.750000</speed>
</trkpt>
<trkpt lat="32.868354797" lon="35.236408234">
  <ele>160.454346</ele>
  <time>2011-11-12T06:20:16Z</time>
  <speed>3.520000</speed>
</trkpt>
<trkpt lat="32.868347168" lon="35.236366272">
  <ele>160.458252</ele>
  <time>2011-11-12T06:20:17Z</time>
  <speed>3.620000</speed>
</trkpt>
<trkpt lat="32.868331909" lon="35.236331940">
  <ele>160.677002</ele>
  <time>2011-11-12T06:20:18Z</time>
  <speed>3.790000</speed>
</trkpt>
<trkpt lat="32.868320465" lon="35.236289978">
  <ele>160.696533</ele>
  <time>2011-11-12T06:20:19Z</time>
  <speed>3.490000</speed>
</trkpt>
<trkpt lat="32.868305206" lon="35.236255646">
  <ele>160.844971</ele>
  <time>2011-11-12T06:20:20Z</time>
  <speed>3.350000</speed>
</trkpt>
<trkpt lat="32.868289948" lon="35.236217499">
  <ele>160.860596</ele>
  <time>2011-11-12T06:20:21Z</time>
  <speed>3.510000</speed>
</trkpt>
<trkpt lat="32.868274689" lon="35.236183167">
  <ele>161.259033</ele>
  <time>2011-11-12T06:20:22Z</time>
  <speed>3.380000</speed>
</trkpt>
<trkpt lat="32.868263245" lon="35.236148834">
  <ele>161.399658</ele>
  <time>2011-11-12T06:20:23Z</time>
  <speed>3.350000</speed>
</trkpt>
<trkpt lat="32.868247986" lon="35.236114502">
  <ele>161.829346</ele>
  <time>2011-11-12T06:20:24Z</time>
  <speed>3.080000</speed>
</trkpt>
<trkpt lat="32.868240356" lon="35.236080170">
  <ele>162.048096</ele>
  <time>2011-11-12T06:20:25Z</time>
  <speed>3.310000</speed>
</trkpt>
<trkpt lat="32.868228912" lon="35.236042023">
  <ele>163.157471</ele>
  <time>2011-11-12T06:20:26Z</time>
  <speed>3.210000</speed>
</trkpt>
<trkpt lat="32.868217468" lon="35.236011505">
  <ele>162.829346</ele>
  <time>2011-11-12T06:20:27Z</time>
  <speed>3.330000</speed>
</trkpt>
<trkpt lat="32.868206024" lon="35.235977173">
  <ele>163.942627</ele>
  <time>2011-11-12T06:20:28Z</time>
  <speed>3.300000</speed>
</trkpt>
<trkpt lat="32.868194580" lon="35.235942841">
  <ele>163.993408</ele>
  <time>2011-11-12T06:20:29Z</time>
  <speed>3.350000</speed>
</trkpt>
<trkpt lat="32.868183136" lon="35.235912323">
  <ele>164.563721</ele>
  <time>2011-11-12T06:20:30Z</time>
  <speed>3.390000</speed>
</trkpt>
<trkpt lat="32.868171692" lon="35.235877991">
  <ele>165.387939</ele>
  <time>2011-11-12T06:20:31Z</time>
  <speed>3.640000</speed>
</trkpt>
<trkpt lat="32.868156433" lon="35.235843658">
  <ele>166.020752</ele>
  <time>2011-11-12T06:20:32Z</time>
  <speed>3.520000</speed>
</trkpt>
<trkpt lat="32.868144989" lon="35.235813141">
  <ele>165.759033</ele>
  <time>2011-11-12T06:20:33Z</time>
  <speed>3.220000</speed>
</trkpt>
<trkpt lat="32.868133545" lon="35.235782623">
  <ele>166.091064</ele>
  <time>2011-11-12T06:20:34Z</time>
  <speed>3.260000</speed>
</trkpt>
<trkpt lat="32.868114471" lon="35.235755920">
  <ele>167.477783</ele>
  <time>2011-11-12T06:20:35Z</time>
  <speed>3.430000</speed>
</trkpt>
<trkpt lat="32.868095398" lon="35.235725403">
  <ele>168.122314</ele>
  <time>2011-11-12T06:20:36Z</time>
  <speed>3.260000</speed>
</trkpt>
<trkpt lat="32.868068695" lon="35.235706329">
  <ele>168.563721</ele>
  <time>2011-11-12T06:20:37Z</time>
  <speed>3.230000</speed>
</trkpt>
<trkpt lat="32.868049622" lon="35.235691071">
  <ele>169.657471</ele>
  <time>2011-11-12T06:20:38Z</time>
  <speed>3.380000</speed>
</trkpt>
<trkpt lat="32.868022919" lon="35.235668182">
  <ele>170.567627</ele>
  <time>2011-11-12T06:20:39Z</time>
  <speed>3.610000</speed>
</trkpt>
<trkpt lat="32.867996216" lon="35.235649109">
  <ele>170.880127</ele>
  <time>2011-11-12T06:20:40Z</time>
  <speed>3.540000</speed>
</trkpt>
<trkpt lat="32.867969513" lon="35.235633850">
  <ele>171.594971</ele>
  <time>2011-11-12T06:20:41Z</time>
  <speed>3.460000</speed>
</trkpt>
<trkpt lat="32.867942810" lon="35.235618591">
  <ele>172.645752</ele>
  <time>2011-11-12T06:20:42Z</time>
  <speed>3.490000</speed>
</trkpt>
<trkpt lat="32.867912292" lon="35.235603333">
  <ele>173.282471</ele>
  <time>2011-11-12T06:20:43Z</time>
  <speed>3.570000</speed>
</trkpt>
<trkpt lat="32.867885590" lon="35.235591888">
  <ele>173.563721</ele>
  <time>2011-11-12T06:20:44Z</time>
  <speed>3.360000</speed>
</trkpt>
<trkpt lat="32.867858887" lon="35.235569000">
  <ele>173.895752</ele>
  <time>2011-11-12T06:20:45Z</time>
  <speed>3.580000</speed>
</trkpt>
<trkpt lat="32.867828369" lon="35.235557556">
  <ele>174.239502</ele>
  <time>2011-11-12T06:20:46Z</time>
  <speed>3.360000</speed>
</trkpt>
<trkpt lat="32.867801666" lon="35.235538483">
  <ele>175.016846</ele>
  <time>2011-11-12T06:20:47Z</time>
  <speed>3.550000</speed>
</trkpt>
<trkpt lat="32.867771149" lon="35.235527039">
  <ele>175.782471</ele>
  <time>2011-11-12T06:20:48Z</time>
  <speed>3.400000</speed>
</trkpt>
<trkpt lat="32.867740631" lon="35.235515594">
  <ele>176.286377</ele>
  <time>2011-11-12T06:20:49Z</time>
  <speed>3.340000</speed>
</trkpt>
<trkpt lat="32.867713928" lon="35.235504150">
  <ele>176.594971</ele>
  <time>2011-11-12T06:20:50Z</time>
  <speed>3.440000</speed>
</trkpt>
<trkpt lat="32.867687225" lon="35.235488892">
  <ele>177.520752</ele>
  <time>2011-11-12T06:20:51Z</time>
  <speed>3.380000</speed>
</trkpt>
<trkpt lat="32.867656708" lon="35.235477448">
  <ele>178.157471</ele>
  <time>2011-11-12T06:20:52Z</time>
  <speed>3.360000</speed>
</trkpt>
<trkpt lat="32.867626190" lon="35.235466003">
  <ele>179.227783</ele>
  <time>2011-11-12T06:20:53Z</time>
  <speed>3.470000</speed>
</trkpt>
<trkpt lat="32.867595673" lon="35.235458374">
  <ele>180.137939</ele>
  <time>2011-11-12T06:20:54Z</time>
  <speed>3.510000</speed>
</trkpt>
<trkpt lat="32.867565155" lon="35.235446930">
  <ele>180.743408</ele>
  <time>2011-11-12T06:20:55Z</time>
  <speed>3.240000</speed>
</trkpt>
<trkpt lat="32.867534637" lon="35.235431671">
  <ele>181.329346</ele>
  <time>2011-11-12T06:20:56Z</time>
  <speed>3.320000</speed>
</trkpt>
<trkpt lat="32.867504120" lon="35.235416412">
  <ele>182.235596</ele>
  <time>2011-11-12T06:20:57Z</time>
  <speed>3.400000</speed>
</trkpt>
<trkpt lat="32.867481232" lon="35.235397339">
  <ele>182.555908</ele>
  <time>2011-11-12T06:20:58Z</time>
  <speed>3.530000</speed>
</trkpt>
<trkpt lat="32.867454529" lon="35.235382080">
  <ele>183.208252</ele>
  <time>2011-11-12T06:20:59Z</time>
  <speed>3.640000</speed>
</trkpt>
<trkpt lat="32.867431641" lon="35.235355377">
  <ele>183.278564</ele>
  <time>2011-11-12T06:21:00Z</time>
  <speed>3.430000</speed>
</trkpt>
<trkpt lat="32.867401123" lon="35.235332489">
  <ele>183.075439</ele>
  <time>2011-11-12T06:21:01Z</time>
  <speed>3.580000</speed>
</trkpt>
<trkpt lat="32.867378235" lon="35.235309601">
  <ele>182.708252</ele>
  <time>2011-11-12T06:21:02Z</time>
  <speed>3.500000</speed>
</trkpt>
<trkpt lat="32.867359161" lon="35.235286713">
  <ele>183.391846</ele>
  <time>2011-11-12T06:21:03Z</time>
  <speed>3.060000</speed>
</trkpt>
<trkpt lat="32.867340088" lon="35.235263824">
  <ele>183.259033</ele>
  <time>2011-11-12T06:21:04Z</time>
  <speed>3.220000</speed>
</trkpt>
<trkpt lat="32.867317200" lon="35.235240936">
  <ele>182.907471</ele>
  <time>2011-11-12T06:21:05Z</time>
  <speed>3.160000</speed>
</trkpt>
<trkpt lat="32.867290497" lon="35.235218048">
  <ele>182.841064</ele>
  <time>2011-11-12T06:21:06Z</time>
  <speed>3.060000</speed>
</trkpt>
<trkpt lat="32.867244720" lon="35.235179901">
  <ele>182.977783</ele>
  <time>2011-11-12T06:21:08Z</time>
  <speed>2.960000</speed>
</trkpt>
<trkpt lat="32.867206573" lon="35.235141754">
  <ele>182.481689</ele>
  <time>2011-11-12T06:21:10Z</time>
  <speed>2.570000</speed>
</trkpt>
<trkpt lat="32.867172241" lon="35.235107422">
  <ele>183.309814</ele>
  <time>2011-11-12T06:21:12Z</time>
  <speed>2.670000</speed>
</trkpt>
<trkpt lat="32.867130280" lon="35.235065460">
  <ele>183.786377</ele>
  <time>2011-11-12T06:21:14Z</time>
  <speed>2.760000</speed>
</trkpt>
<trkpt lat="32.867107391" lon="35.235050201">
  <ele>184.985596</ele>
  <time>2011-11-12T06:21:15Z</time>
  <speed>2.820000</speed>
</trkpt>
<trkpt lat="32.867065430" lon="35.235019684">
  <ele>184.915283</ele>
  <time>2011-11-12T06:21:17Z</time>
  <speed>2.820000</speed>
</trkpt>
<trkpt lat="32.867015839" lon="35.235000610">
  <ele>186.208252</ele>
  <time>2011-11-12T06:21:19Z</time>
  <speed>2.820000</speed>
</trkpt>
<trkpt lat="32.866970062" lon="35.234992981">
  <ele>186.403564</ele>
  <time>2011-11-12T06:21:21Z</time>
  <speed>2.830000</speed>
</trkpt>
<trkpt lat="32.866924286" lon="35.234992981">
  <ele>187.231689</ele>
  <time>2011-11-12T06:21:23Z</time>
  <speed>2.670000</speed>
</trkpt>
<trkpt lat="32.866874695" lon="35.234996796">
  <ele>188.024658</ele>
  <time>2011-11-12T06:21:25Z</time>
  <speed>2.540000</speed>
</trkpt>
<trkpt lat="32.866828918" lon="35.234996796">
  <ele>189.286377</ele>
  <time>2011-11-12T06:21:27Z</time>
  <speed>2.160000</speed>
</trkpt>
<trkpt lat="32.866806030" lon="35.235004425">
  <ele>190.653564</ele>
  <time>2011-11-12T06:21:28Z</time>
  <speed>2.600000</speed>
</trkpt>
<trkpt lat="32.866760254" lon="35.235019684">
  <ele>191.903564</ele>
  <time>2011-11-12T06:21:30Z</time>
  <speed>2.500000</speed>
</trkpt>
<trkpt lat="32.866733551" lon="35.235023499">
  <ele>191.743408</ele>
  <time>2011-11-12T06:21:31Z</time>
  <speed>2.670000</speed>
</trkpt>
<trkpt lat="32.866683960" lon="35.235038757">
  <ele>192.231689</ele>
  <time>2011-11-12T06:21:33Z</time>
  <speed>2.860000</speed>
</trkpt>
<trkpt lat="32.866638184" lon="35.235054016">
  <ele>192.645752</ele>
  <time>2011-11-12T06:21:35Z</time>
  <speed>2.690000</speed>
</trkpt>
<trkpt lat="32.866588593" lon="35.235061646">
  <ele>193.469971</ele>
  <time>2011-11-12T06:21:37Z</time>
  <speed>2.620000</speed>
</trkpt>
<trkpt lat="32.866546631" lon="35.235073090">
  <ele>194.446533</ele>
  <time>2011-11-12T06:21:39Z</time>
  <speed>2.590000</speed>
</trkpt>
<trkpt lat="32.866504669" lon="35.235088348">
  <ele>194.505127</ele>
  <time>2011-11-12T06:21:41Z</time>
  <speed>2.450000</speed>
</trkpt>
<trkpt lat="32.866458893" lon="35.235103607">
  <ele>194.911377</ele>
  <time>2011-11-12T06:21:43Z</time>
  <speed>2.650000</speed>
</trkpt>
<trkpt lat="32.866416931" lon="35.235099792">
  <ele>195.348877</ele>
  <time>2011-11-12T06:21:45Z</time>
  <speed>2.540000</speed>
</trkpt>
<trkpt lat="32.866374969" lon="35.235103607">
  <ele>195.833252</ele>
  <time>2011-11-12T06:21:47Z</time>
  <speed>2.650000</speed>
</trkpt>
<trkpt lat="32.866329193" lon="35.235118866">
  <ele>195.587158</ele>
  <time>2011-11-12T06:21:49Z</time>
  <speed>2.260000</speed>
</trkpt>
<trkpt lat="32.866291046" lon="35.235137939">
  <ele>195.743408</ele>
  <time>2011-11-12T06:21:51Z</time>
  <speed>2.480000</speed>
</trkpt>
<trkpt lat="32.866241455" lon="35.235160828">
  <ele>195.727783</ele>
  <time>2011-11-12T06:21:53Z</time>
  <speed>2.420000</speed>
</trkpt>
<trkpt lat="32.866199493" lon="35.235168457">
  <ele>195.778564</ele>
  <time>2011-11-12T06:21:55Z</time>
  <speed>2.170000</speed>
</trkpt>
<trkpt lat="32.866176605" lon="35.235183716">
  <ele>196.868408</ele>
  <time>2011-11-12T06:21:56Z</time>
  <speed>2.560000</speed>
</trkpt>
<trkpt lat="32.866127014" lon="35.235198975">
  <ele>198.247314</ele>
  <time>2011-11-12T06:21:58Z</time>
  <speed>2.380000</speed>
</trkpt>
<trkpt lat="32.866081238" lon="35.235218048">
  <ele>198.759033</ele>
  <time>2011-11-12T06:22:00Z</time>
  <speed>2.430000</speed>
</trkpt>
<trkpt lat="32.866035461" lon="35.235221863">
  <ele>199.458252</ele>
  <time>2011-11-12T06:22:02Z</time>
  <speed>2.290000</speed>
</trkpt>
<trkpt lat="32.866001129" lon="35.235237122">
  <ele>199.637939</ele>
  <time>2011-11-12T06:22:04Z</time>
  <speed>2.070000</speed>
</trkpt>
<trkpt lat="32.865970612" lon="35.235252380">
  <ele>200.325439</ele>
  <time>2011-11-12T06:22:06Z</time>
  <speed>2.150000</speed>
</trkpt>
<trkpt lat="32.865932465" lon="35.235271454">
  <ele>200.954346</ele>
  <time>2011-11-12T06:22:08Z</time>
  <speed>2.090000</speed>
</trkpt>
<trkpt lat="32.865901947" lon="35.235298157">
  <ele>201.348877</ele>
  <time>2011-11-12T06:22:10Z</time>
  <speed>2.310000</speed>
</trkpt>
<trkpt lat="32.865863800" lon="35.235324860">
  <ele>201.602783</ele>
  <time>2011-11-12T06:22:12Z</time>
  <speed>2.410000</speed>
</trkpt>
<trkpt lat="32.865829468" lon="35.235355377">
  <ele>202.302002</ele>
  <time>2011-11-12T06:22:14Z</time>
  <speed>2.490000</speed>
</trkpt>
<trkpt lat="32.865795135" lon="35.235389709">
  <ele>202.450439</ele>
  <time>2011-11-12T06:22:16Z</time>
  <speed>2.690000</speed>
</trkpt>
<trkpt lat="32.865756989" lon="35.235424042">
  <ele>201.813721</ele>
  <time>2011-11-12T06:22:18Z</time>
  <speed>2.930000</speed>
</trkpt>
<trkpt lat="32.865726471" lon="35.235462189">
  <ele>202.012939</ele>
  <time>2011-11-12T06:22:20Z</time>
  <speed>2.600000</speed>
</trkpt>
<trkpt lat="32.865695953" lon="35.235500336">
  <ele>202.329346</ele>
  <time>2011-11-12T06:22:22Z</time>
  <speed>2.630000</speed>
</trkpt>
<trkpt lat="32.865676880" lon="35.235527039">
  <ele>202.466064</ele>
  <time>2011-11-12T06:22:23Z</time>
  <speed>2.540000</speed>
</trkpt>
<trkpt lat="32.865653992" lon="35.235580444">
  <ele>203.466064</ele>
  <time>2011-11-12T06:22:25Z</time>
  <speed>2.920000</speed>
</trkpt>
<trkpt lat="32.865642548" lon="35.235607147">
  <ele>203.278564</ele>
  <time>2011-11-12T06:22:26Z</time>
  <speed>2.690000</speed>
</trkpt>
<trkpt lat="32.865631104" lon="35.235637665">
  <ele>203.930908</ele>
  <time>2011-11-12T06:22:27Z</time>
  <speed>2.870000</speed>
</trkpt>
<trkpt lat="32.865619659" lon="35.235668182">
  <ele>204.001221</ele>
  <time>2011-11-12T06:22:28Z</time>
  <speed>2.890000</speed>
</trkpt>
<trkpt lat="32.865592957" lon="35.235725403">
  <ele>204.223877</ele>
  <time>2011-11-12T06:22:30Z</time>
  <speed>2.980000</speed>
</trkpt>
<trkpt lat="32.865589142" lon="35.235782623">
  <ele>204.544189</ele>
  <time>2011-11-12T06:22:32Z</time>
  <speed>2.530000</speed>
</trkpt>
<trkpt lat="32.865577698" lon="35.235832214">
  <ele>205.384033</ele>
  <time>2011-11-12T06:22:34Z</time>
  <speed>2.290000</speed>
</trkpt>
<trkpt lat="32.865573883" lon="35.235885620">
  <ele>206.251221</ele>
  <time>2011-11-12T06:22:36Z</time>
  <speed>2.130000</speed>
</trkpt>
<trkpt lat="32.865554810" lon="35.235942841">
  <ele>206.899658</ele>
  <time>2011-11-12T06:22:38Z</time>
  <speed>2.400000</speed>
</trkpt>
<trkpt lat="32.865550995" lon="35.235973358">
  <ele>207.591064</ele>
  <time>2011-11-12T06:22:39Z</time>
  <speed>2.600000</speed>
</trkpt>
<trkpt lat="32.865543365" lon="35.236030579">
  <ele>207.969971</ele>
  <time>2011-11-12T06:22:41Z</time>
  <speed>2.280000</speed>
</trkpt>
<trkpt lat="32.865531921" lon="35.236087799">
  <ele>208.438721</ele>
  <time>2011-11-12T06:22:43Z</time>
  <speed>2.320000</speed>
</trkpt>
<trkpt lat="32.865524292" lon="35.236133575">
  <ele>208.665283</ele>
  <time>2011-11-12T06:22:45Z</time>
  <speed>2.620000</speed>
</trkpt>
<trkpt lat="32.865520477" lon="35.236183167">
  <ele>207.930908</ele>
  <time>2011-11-12T06:22:47Z</time>
  <speed>2.520000</speed>
</trkpt>
<trkpt lat="32.865509033" lon="35.236236572">
  <ele>207.380127</ele>
  <time>2011-11-12T06:22:49Z</time>
  <speed>2.590000</speed>
</trkpt>
<trkpt lat="32.865497589" lon="35.236289978">
  <ele>207.270752</ele>
  <time>2011-11-12T06:22:51Z</time>
  <speed>2.650000</speed>
</trkpt>
<trkpt lat="32.865486145" lon="35.236347198">
  <ele>207.387939</ele>
  <time>2011-11-12T06:22:53Z</time>
  <speed>2.690000</speed>
</trkpt>
<trkpt lat="32.865474701" lon="35.236396790">
  <ele>207.161377</ele>
  <time>2011-11-12T06:22:55Z</time>
  <speed>2.540000</speed>
</trkpt>
<trkpt lat="32.865463257" lon="35.236457825">
  <ele>206.868408</ele>
  <time>2011-11-12T06:22:57Z</time>
  <speed>2.850000</speed>
</trkpt>
<trkpt lat="32.865451813" lon="35.236515045">
  <ele>207.067627</ele>
  <time>2011-11-12T06:22:59Z</time>
  <speed>2.690000</speed>
</trkpt>
<trkpt lat="32.865436554" lon="35.236572266">
  <ele>207.137939</ele>
  <time>2011-11-12T06:23:01Z</time>
  <speed>2.730000</speed>
</trkpt>
<trkpt lat="32.865425110" lon="35.236629486">
  <ele>207.005127</ele>
  <time>2011-11-12T06:23:03Z</time>
  <speed>2.860000</speed>
</trkpt>
<trkpt lat="32.865417480" lon="35.236690521">
  <ele>207.610596</ele>
  <time>2011-11-12T06:23:05Z</time>
  <speed>2.840000</speed>
</trkpt>
<trkpt lat="32.865402222" lon="35.236751556">
  <ele>207.966064</ele>
  <time>2011-11-12T06:23:07Z</time>
  <speed>3.040000</speed>
</trkpt>
<trkpt lat="32.865386963" lon="35.236816406">
  <ele>207.821533</ele>
  <time>2011-11-12T06:23:09Z</time>
  <speed>3.290000</speed>
</trkpt>
<trkpt lat="32.865379333" lon="35.236846924">
  <ele>206.743408</ele>
  <time>2011-11-12T06:23:10Z</time>
  <speed>3.180000</speed>
</trkpt>
<trkpt lat="32.865371704" lon="35.236881256">
  <ele>206.989502</ele>
  <time>2011-11-12T06:23:11Z</time>
  <speed>3.280000</speed>
</trkpt>
<trkpt lat="32.865356445" lon="35.236915588">
  <ele>207.329346</ele>
  <time>2011-11-12T06:23:12Z</time>
  <speed>3.250000</speed>
</trkpt>
<trkpt lat="32.865345001" lon="35.236949921">
  <ele>207.497314</ele>
  <time>2011-11-12T06:23:13Z</time>
  <speed>3.260000</speed>
</trkpt>
<trkpt lat="32.865333557" lon="35.236980438">
  <ele>207.516846</ele>
  <time>2011-11-12T06:23:14Z</time>
  <speed>3.240000</speed>
</trkpt>
<trkpt lat="32.865322113" lon="35.237010956">
  <ele>207.243408</ele>
  <time>2011-11-12T06:23:15Z</time>
  <speed>3.290000</speed>
</trkpt>
<trkpt lat="32.865303040" lon="35.237041473">
  <ele>207.180908</ele>
  <time>2011-11-12T06:23:16Z</time>
  <speed>3.200000</speed>
</trkpt>
<trkpt lat="32.865287781" lon="35.237068176">
  <ele>207.231689</ele>
  <time>2011-11-12T06:23:17Z</time>
  <speed>3.240000</speed>
</trkpt>
<trkpt lat="32.865272522" lon="35.237098694">
  <ele>207.309814</ele>
  <time>2011-11-12T06:23:18Z</time>
  <speed>3.220000</speed>
</trkpt>
<trkpt lat="32.865257263" lon="35.237129211">
  <ele>207.719971</ele>
  <time>2011-11-12T06:23:19Z</time>
  <speed>3.210000</speed>
</trkpt>
<trkpt lat="32.865226746" lon="35.237186432">
  <ele>207.434814</ele>
  <time>2011-11-12T06:23:21Z</time>
  <speed>3.350000</speed>
</trkpt>
<trkpt lat="32.865211487" lon="35.237216949">
  <ele>207.458252</ele>
  <time>2011-11-12T06:23:22Z</time>
  <speed>3.110000</speed>
</trkpt>
<trkpt lat="32.865196228" lon="35.237243652">
  <ele>207.423096</ele>
  <time>2011-11-12T06:23:23Z</time>
  <speed>3.130000</speed>
</trkpt>
<trkpt lat="32.865161896" lon="35.237293243">
  <ele>207.223877</ele>
  <time>2011-11-12T06:23:25Z</time>
  <speed>3.240000</speed>
</trkpt>
<trkpt lat="32.865146637" lon="35.237319946">
  <ele>207.321533</ele>
  <time>2011-11-12T06:23:26Z</time>
  <speed>3.120000</speed>
</trkpt>
<trkpt lat="32.865123749" lon="35.237346649">
  <ele>207.274658</ele>
  <time>2011-11-12T06:23:27Z</time>
  <speed>3.280000</speed>
</trkpt>
<trkpt lat="32.865108490" lon="35.237377167">
  <ele>207.493408</ele>
  <time>2011-11-12T06:23:28Z</time>
  <speed>3.360000</speed>
</trkpt>
<trkpt lat="32.865085602" lon="35.237403870">
  <ele>207.884033</ele>
  <time>2011-11-12T06:23:29Z</time>
  <speed>3.140000</speed>
</trkpt>
<trkpt lat="32.865066528" lon="35.237426758">
  <ele>208.427002</ele>
  <time>2011-11-12T06:23:30Z</time>
  <speed>3.070000</speed>
</trkpt>
<trkpt lat="32.865036011" lon="35.237480164">
  <ele>208.919189</ele>
  <time>2011-11-12T06:23:32Z</time>
  <speed>2.890000</speed>
</trkpt>
<trkpt lat="32.865005493" lon="35.237529755">
  <ele>210.059814</ele>
  <time>2011-11-12T06:23:34Z</time>
  <speed>3.040000</speed>
</trkpt>
<trkpt lat="32.864986420" lon="35.237560272">
  <ele>210.364502</ele>
  <time>2011-11-12T06:23:35Z</time>
  <speed>3.200000</speed>
</trkpt>
<trkpt lat="32.864963531" lon="35.237590790">
  <ele>210.485596</ele>
  <time>2011-11-12T06:23:36Z</time>
  <speed>3.190000</speed>
</trkpt>
<trkpt lat="32.864944458" lon="35.237617493">
  <ele>210.735596</ele>
  <time>2011-11-12T06:23:37Z</time>
  <speed>3.410000</speed>
</trkpt>
<trkpt lat="32.864929199" lon="35.237644196">
  <ele>210.833252</ele>
  <time>2011-11-12T06:23:38Z</time>
  <speed>3.280000</speed>
</trkpt>
<trkpt lat="32.864910126" lon="35.237674713">
  <ele>211.052002</ele>
  <time>2011-11-12T06:23:39Z</time>
  <speed>3.380000</speed>
</trkpt>
<trkpt lat="32.864891052" lon="35.237701416">
  <ele>211.212158</ele>
  <time>2011-11-12T06:23:40Z</time>
  <speed>3.370000</speed>
</trkpt>
<trkpt lat="32.864871979" lon="35.237731934">
  <ele>211.266846</ele>
  <time>2011-11-12T06:23:41Z</time>
  <speed>3.220000</speed>
</trkpt>
<trkpt lat="32.864841461" lon="35.237789154">
  <ele>211.157471</ele>
  <time>2011-11-12T06:23:43Z</time>
  <speed>3.420000</speed>
</trkpt>
<trkpt lat="32.864826202" lon="35.237819672">
  <ele>211.321533</ele>
  <time>2011-11-12T06:23:44Z</time>
  <speed>3.390000</speed>
</trkpt>
<trkpt lat="32.864807129" lon="35.237846375">
  <ele>211.227783</ele>
  <time>2011-11-12T06:23:45Z</time>
  <speed>3.390000</speed>
</trkpt>
<trkpt lat="32.864791870" lon="35.237876892">
  <ele>211.227783</ele>
  <time>2011-11-12T06:23:46Z</time>
  <speed>3.150000</speed>
</trkpt>
<trkpt lat="32.864772797" lon="35.237903595">
  <ele>211.290283</ele>
  <time>2011-11-12T06:23:47Z</time>
  <speed>3.240000</speed>
</trkpt>
<trkpt lat="32.864738464" lon="35.237972260">
  <ele>211.708252</ele>
  <time>2011-11-12T06:23:49Z</time>
  <speed>3.570000</speed>
</trkpt>
<trkpt lat="32.864723206" lon="35.237998962">
  <ele>212.360596</ele>
  <time>2011-11-12T06:23:50Z</time>
  <speed>3.100000</speed>
</trkpt>
<trkpt lat="32.864688873" lon="35.238048553">
  <ele>212.887939</ele>
  <time>2011-11-12T06:23:52Z</time>
  <speed>3.170000</speed>
</trkpt>
<trkpt lat="32.864669800" lon="35.238082886">
  <ele>213.380127</ele>
  <time>2011-11-12T06:23:53Z</time>
  <speed>3.380000</speed>
</trkpt>
<trkpt lat="32.864658356" lon="35.238113403">
  <ele>213.594971</ele>
  <time>2011-11-12T06:23:54Z</time>
  <speed>3.570000</speed>
</trkpt>
<trkpt lat="32.864646912" lon="35.238151550">
  <ele>213.469971</ele>
  <time>2011-11-12T06:23:55Z</time>
  <speed>3.680000</speed>
</trkpt>
<trkpt lat="32.864627838" lon="35.238185883">
  <ele>213.884033</ele>
  <time>2011-11-12T06:23:56Z</time>
  <speed>3.580000</speed>
</trkpt>
<trkpt lat="32.864616394" lon="35.238216400">
  <ele>214.169189</ele>
  <time>2011-11-12T06:23:57Z</time>
  <speed>3.260000</speed>
</trkpt>
<trkpt lat="32.864604950" lon="35.238250732">
  <ele>214.399658</ele>
  <time>2011-11-12T06:23:58Z</time>
  <speed>3.390000</speed>
</trkpt>
<trkpt lat="32.864593506" lon="35.238285065">
  <ele>213.903564</ele>
  <time>2011-11-12T06:23:59Z</time>
  <speed>3.360000</speed>
</trkpt>
<trkpt lat="32.864578247" lon="35.238353729">
  <ele>213.938721</ele>
  <time>2011-11-12T06:24:01Z</time>
  <speed>3.310000</speed>
</trkpt>
<trkpt lat="32.864574432" lon="35.238391876">
  <ele>214.161377</ele>
  <time>2011-11-12T06:24:02Z</time>
  <speed>3.240000</speed>
</trkpt>
<trkpt lat="32.864566803" lon="35.238433838">
  <ele>214.614502</ele>
  <time>2011-11-12T06:24:03Z</time>
  <speed>3.310000</speed>
</trkpt>
<trkpt lat="32.864555359" lon="35.238468170">
  <ele>215.235596</ele>
  <time>2011-11-12T06:24:04Z</time>
  <speed>3.300000</speed>
</trkpt>
<trkpt lat="32.864551544" lon="35.238502502">
  <ele>215.348877</ele>
  <time>2011-11-12T06:24:05Z</time>
  <speed>3.120000</speed>
</trkpt>
<trkpt lat="32.864551544" lon="35.238540649">
  <ele>215.130127</ele>
  <time>2011-11-12T06:24:06Z</time>
  <speed>3.130000</speed>
</trkpt>
<trkpt lat="32.864543915" lon="35.238574982">
  <ele>215.255127</ele>
  <time>2011-11-12T06:24:07Z</time>
  <speed>3.050000</speed>
</trkpt>
<trkpt lat="32.864543915" lon="35.238609314">
  <ele>215.110596</ele>
  <time>2011-11-12T06:24:08Z</time>
  <speed>3.260000</speed>
</trkpt>
<trkpt lat="32.864540100" lon="35.238647461">
  <ele>215.282471</ele>
  <time>2011-11-12T06:24:09Z</time>
  <speed>3.360000</speed>
</trkpt>
<trkpt lat="32.864540100" lon="35.238681793">
  <ele>215.645752</ele>
  <time>2011-11-12T06:24:10Z</time>
  <speed>3.190000</speed>
</trkpt>
<trkpt lat="32.864540100" lon="35.238716125">
  <ele>215.833252</ele>
  <time>2011-11-12T06:24:11Z</time>
  <speed>3.180000</speed>
</trkpt>
<trkpt lat="32.864536285" lon="35.238754272">
  <ele>216.219971</ele>
  <time>2011-11-12T06:24:12Z</time>
  <speed>2.880000</speed>
</trkpt>
<trkpt lat="32.864540100" lon="35.238788605">
  <ele>215.989502</ele>
  <time>2011-11-12T06:24:13Z</time>
  <speed>2.930000</speed>
</trkpt>
<trkpt lat="32.864536285" lon="35.238822937">
  <ele>216.391846</ele>
  <time>2011-11-12T06:24:14Z</time>
  <speed>2.840000</speed>
</trkpt>
<trkpt lat="32.864532471" lon="35.238876343">
  <ele>216.516846</ele>
  <time>2011-11-12T06:24:16Z</time>
  <speed>2.520000</speed>
</trkpt>
<trkpt lat="32.864536285" lon="35.238925934">
  <ele>215.677002</ele>
  <time>2011-11-12T06:24:18Z</time>
  <speed>1.900000</speed>
</trkpt>
<trkpt lat="32.864536285" lon="35.238975525">
  <ele>216.411377</ele>
  <time>2011-11-12T06:24:20Z</time>
  <speed>2.480000</speed>
</trkpt>
<trkpt lat="32.864536285" lon="35.239028931">
  <ele>216.841064</ele>
  <time>2011-11-12T06:24:22Z</time>
  <speed>2.670000</speed>
</trkpt>
<trkpt lat="32.864547729" lon="35.239089966">
  <ele>217.473877</ele>
  <time>2011-11-12T06:24:24Z</time>
  <speed>2.540000</speed>
</trkpt>
<trkpt lat="32.864555359" lon="35.239143372">
  <ele>217.692627</ele>
  <time>2011-11-12T06:24:26Z</time>
  <speed>2.420000</speed>
</trkpt>
<trkpt lat="32.864559174" lon="35.239192963">
  <ele>217.829346</ele>
  <time>2011-11-12T06:24:28Z</time>
  <speed>2.420000</speed>
</trkpt>
<trkpt lat="32.864562988" lon="35.239246368">
  <ele>218.352783</ele>
  <time>2011-11-12T06:24:30Z</time>
  <speed>2.450000</speed>
</trkpt>
<trkpt lat="32.864570618" lon="35.239295959">
  <ele>217.907471</ele>
  <time>2011-11-12T06:24:32Z</time>
  <speed>2.790000</speed>
</trkpt>
<trkpt lat="32.864574432" lon="35.239353180">
  <ele>218.341064</ele>
  <time>2011-11-12T06:24:34Z</time>
  <speed>2.890000</speed>
</trkpt>
<trkpt lat="32.864578247" lon="35.239414215">
  <ele>218.626221</ele>
  <time>2011-11-12T06:24:36Z</time>
  <speed>3.130000</speed>
</trkpt>
<trkpt lat="32.864578247" lon="35.239448547">
  <ele>218.626221</ele>
  <time>2011-11-12T06:24:37Z</time>
  <speed>2.890000</speed>
</trkpt>
<trkpt lat="32.864578247" lon="35.239482880">
  <ele>218.555908</ele>
  <time>2011-11-12T06:24:38Z</time>
  <speed>2.840000</speed>
</trkpt>
<trkpt lat="32.864562988" lon="35.239543915">
  <ele>218.673096</ele>
  <time>2011-11-12T06:24:40Z</time>
  <speed>3.100000</speed>
</trkpt>
<trkpt lat="32.864555359" lon="35.239574432">
  <ele>219.055908</ele>
  <time>2011-11-12T06:24:41Z</time>
  <speed>2.980000</speed>
</trkpt>
<trkpt lat="32.864543915" lon="35.239604950">
  <ele>219.286377</ele>
  <time>2011-11-12T06:24:42Z</time>
  <speed>3.130000</speed>
</trkpt>
<trkpt lat="32.864532471" lon="35.239639282">
  <ele>219.501221</ele>
  <time>2011-11-12T06:24:43Z</time>
  <speed>2.900000</speed>
</trkpt>
<trkpt lat="32.864524841" lon="35.239669800">
  <ele>219.341064</ele>
  <time>2011-11-12T06:24:44Z</time>
  <speed>2.780000</speed>
</trkpt>
<trkpt lat="32.864501953" lon="35.239723206">
  <ele>219.872314</ele>
  <time>2011-11-12T06:24:46Z</time>
  <speed>2.600000</speed>
</trkpt>
<trkpt lat="32.864486694" lon="35.239776611">
  <ele>219.731689</ele>
  <time>2011-11-12T06:24:48Z</time>
  <speed>2.900000</speed>
</trkpt>
<trkpt lat="32.864475250" lon="35.239807129">
  <ele>219.184814</ele>
  <time>2011-11-12T06:24:49Z</time>
  <speed>2.980000</speed>
</trkpt>
<trkpt lat="32.864456177" lon="35.239864349">
  <ele>219.774658</ele>
  <time>2011-11-12T06:24:51Z</time>
  <speed>2.960000</speed>
</trkpt>
<trkpt lat="32.864444733" lon="35.239898682">
  <ele>219.387939</ele>
  <time>2011-11-12T06:24:52Z</time>
  <speed>3.090000</speed>
</trkpt>
<trkpt lat="32.864421844" lon="35.239952087">
  <ele>219.665283</ele>
  <time>2011-11-12T06:24:54Z</time>
  <speed>2.940000</speed>
</trkpt>
<trkpt lat="32.864414215" lon="35.239982605">
  <ele>219.848877</ele>
  <time>2011-11-12T06:24:55Z</time>
  <speed>3.110000</speed>
</trkpt>
<trkpt lat="32.864402771" lon="35.240013123">
  <ele>220.137939</ele>
  <time>2011-11-12T06:24:56Z</time>
  <speed>3.210000</speed>
</trkpt>
<trkpt lat="32.864391327" lon="35.240047455">
  <ele>220.473877</ele>
  <time>2011-11-12T06:24:57Z</time>
  <speed>3.380000</speed>
</trkpt>
<trkpt lat="32.864376068" lon="35.240077972">
  <ele>220.903564</ele>
  <time>2011-11-12T06:24:58Z</time>
  <speed>3.300000</speed>
</trkpt>
<trkpt lat="32.864364624" lon="35.240112305">
  <ele>220.751221</ele>
  <time>2011-11-12T06:24:59Z</time>
  <speed>3.310000</speed>
</trkpt>
<trkpt lat="32.864353180" lon="35.240142822">
  <ele>220.563721</ele>
  <time>2011-11-12T06:25:00Z</time>
  <speed>3.210000</speed>
</trkpt>
<trkpt lat="32.864345551" lon="35.240173340">
  <ele>220.067627</ele>
  <time>2011-11-12T06:25:01Z</time>
  <speed>3.260000</speed>
</trkpt>
<trkpt lat="32.864337921" lon="35.240203857">
  <ele>219.872314</ele>
  <time>2011-11-12T06:25:02Z</time>
  <speed>3.170000</speed>
</trkpt>
<trkpt lat="32.864326477" lon="35.240238190">
  <ele>220.079346</ele>
  <time>2011-11-12T06:25:03Z</time>
  <speed>3.210000</speed>
</trkpt>
<trkpt lat="32.864318848" lon="35.240272522">
  <ele>219.880127</ele>
  <time>2011-11-12T06:25:04Z</time>
  <speed>3.230000</speed>
</trkpt>
<trkpt lat="32.864303589" lon="35.240303040">
  <ele>220.294189</ele>
  <time>2011-11-12T06:25:05Z</time>
  <speed>3.350000</speed>
</trkpt>
<trkpt lat="32.864295959" lon="35.240341187">
  <ele>221.012939</ele>
  <time>2011-11-12T06:25:06Z</time>
  <speed>3.240000</speed>
</trkpt>
<trkpt lat="32.864280701" lon="35.240371704">
  <ele>221.360596</ele>
  <time>2011-11-12T06:25:07Z</time>
  <speed>3.100000</speed>
</trkpt>
<trkpt lat="32.864261627" lon="35.240428925">
  <ele>221.337158</ele>
  <time>2011-11-12T06:25:09Z</time>
  <speed>2.790000</speed>
</trkpt>
<trkpt lat="32.864257813" lon="35.240489960">
  <ele>221.559814</ele>
  <time>2011-11-12T06:25:11Z</time>
  <speed>2.720000</speed>
</trkpt>
<trkpt lat="32.864253998" lon="35.240520477">
  <ele>221.430908</ele>
  <time>2011-11-12T06:25:12Z</time>
  <speed>2.680000</speed>
</trkpt>
<trkpt lat="32.864246368" lon="35.240554810">
  <ele>221.262939</ele>
  <time>2011-11-12T06:25:13Z</time>
  <speed>3.050000</speed>
</trkpt>
<trkpt lat="32.864242554" lon="35.240585327">
  <ele>221.091064</ele>
  <time>2011-11-12T06:25:14Z</time>
  <speed>2.890000</speed>
</trkpt>
<trkpt lat="32.864231110" lon="35.240642548">
  <ele>220.891846</ele>
  <time>2011-11-12T06:25:16Z</time>
  <speed>2.320000</speed>
</trkpt>
<trkpt lat="32.864227295" lon="35.240688324">
  <ele>220.434814</ele>
  <time>2011-11-12T06:25:18Z</time>
  <speed>2.150000</speed>
</trkpt>
<trkpt lat="32.864208221" lon="35.240737915">
  <ele>220.571533</ele>
  <time>2011-11-12T06:25:20Z</time>
  <speed>3.010000</speed>
</trkpt>
<trkpt lat="32.864192963" lon="35.240772247">
  <ele>220.755127</ele>
  <time>2011-11-12T06:25:21Z</time>
  <speed>3.150000</speed>
</trkpt>
<trkpt lat="32.864185333" lon="35.240802765">
  <ele>220.473877</ele>
  <time>2011-11-12T06:25:22Z</time>
  <speed>2.680000</speed>
</trkpt>
<trkpt lat="32.864158630" lon="35.240848541">
  <ele>220.344971</ele>
  <time>2011-11-12T06:25:24Z</time>
  <speed>2.020000</speed>
</trkpt>
<trkpt lat="32.864143372" lon="35.240879059">
  <ele>220.466064</ele>
  <time>2011-11-12T06:25:26Z</time>
  <speed>1.760000</speed>
</trkpt>
<trkpt lat="32.864128113" lon="35.240917206">
  <ele>220.762939</ele>
  <time>2011-11-12T06:25:28Z</time>
  <speed>1.480000</speed>
</trkpt>
<trkpt lat="32.864116669" lon="35.240947723">
  <ele>221.325439</ele>
  <time>2011-11-12T06:25:30Z</time>
  <speed>1.540000</speed>
</trkpt>
<trkpt lat="32.864109039" lon="35.240985870">
  <ele>221.411377</ele>
  <time>2011-11-12T06:25:32Z</time>
  <speed>1.230000</speed>
</trkpt>
<trkpt lat="32.864101410" lon="35.241020203">
  <ele>220.704346</ele>
  <time>2011-11-12T06:25:35Z</time>
  <speed>1.090000</speed>
</trkpt>
<trkpt lat="32.864093781" lon="35.241054535">
  <ele>219.954346</ele>
  <time>2011-11-12T06:25:38Z</time>
  <speed>0.950000</speed>
</trkpt>
<trkpt lat="32.864086151" lon="35.241085052">
  <ele>220.282471</ele>
  <time>2011-11-12T06:27:26Z</time>
</trkpt>
<trkpt lat="32.864059448" lon="35.241088867">
  <ele>221.567627</ele>
  <time>2011-11-12T06:27:51Z</time>
  <speed>0.130000</speed>
</trkpt>
<trkpt lat="32.864055634" lon="35.241104126">
  <ele>224.052002</ele>
  <time>2011-11-12T06:28:10Z</time>
  <speed>0.170000</speed>
</trkpt>
<trkpt lat="32.864055634" lon="35.241123199">
  <ele>226.798096</ele>
  <time>2011-11-12T06:28:22Z</time>
  <speed>0.070000</speed>
</trkpt>
<trkpt lat="32.864048004" lon="35.241130829">
  <ele>229.645752</ele>
  <time>2011-11-12T06:28:35Z</time>
  <speed>0.060000</speed>
</trkpt>
<trkpt lat="32.864048004" lon="35.241146088">
  <ele>232.419189</ele>
  <time>2011-11-12T06:28:50Z</time>
  <speed>0.110000</speed>
</trkpt>
<trkpt lat="32.864051819" lon="35.241149902">
  <ele>235.380127</ele>
  <time>2011-11-12T06:29:12Z</time>
  <speed>0.030000</speed>
</trkpt>
<trkpt lat="32.864032745" lon="35.241168976">
  <ele>236.927002</ele>
  <time>2011-11-12T06:30:38Z</time>
  <speed>0.080000</speed>
</trkpt>
<trkpt lat="32.863998413" lon="35.241168976">
  <ele>235.809814</ele>
  <time>2011-11-12T06:31:13Z</time>
  <speed>0.880000</speed>
</trkpt>
<trkpt lat="32.863967896" lon="35.241195679">
  <ele>234.579346</ele>
  <time>2011-11-12T06:31:16Z</time>
  <speed>1.840000</speed>
</trkpt>
<trkpt lat="32.863941193" lon="35.241233826">
  <ele>234.286377</ele>
  <time>2011-11-12T06:31:18Z</time>
  <speed>2.180000</speed>
</trkpt>
<trkpt lat="32.863922119" lon="35.241268158">
  <ele>232.989502</ele>
  <time>2011-11-12T06:31:20Z</time>
  <speed>1.980000</speed>
</trkpt>
<trkpt lat="32.863895416" lon="35.241294861">
  <ele>231.743408</ele>
  <time>2011-11-12T06:31:22Z</time>
  <speed>1.930000</speed>
</trkpt>
<trkpt lat="32.863861084" lon="35.241310120">
  <ele>230.341064</ele>
  <time>2011-11-12T06:31:24Z</time>
  <speed>2.070000</speed>
</trkpt>
<trkpt lat="32.863815308" lon="35.241329193">
  <ele>229.915283</ele>
  <time>2011-11-12T06:31:26Z</time>
  <speed>2.250000</speed>
</trkpt>
<trkpt lat="32.863780975" lon="35.241344452">
  <ele>229.325439</ele>
  <time>2011-11-12T06:31:28Z</time>
  <speed>1.780000</speed>
</trkpt>
<trkpt lat="32.863742828" lon="35.241355896">
  <ele>228.731689</ele>
  <time>2011-11-12T06:31:30Z</time>
  <speed>2.580000</speed>
</trkpt>
<trkpt lat="32.863693237" lon="35.241367340">
  <ele>228.509033</ele>
  <time>2011-11-12T06:31:32Z</time>
  <speed>2.510000</speed>
</trkpt>
<trkpt lat="32.863643646" lon="35.241371155">
  <ele>227.868408</ele>
  <time>2011-11-12T06:31:34Z</time>
  <speed>2.630000</speed>
</trkpt>
<trkpt lat="32.863616943" lon="35.241374969">
  <ele>227.579346</ele>
  <time>2011-11-12T06:31:35Z</time>
  <speed>2.810000</speed>
</trkpt>
<trkpt lat="32.863586426" lon="35.241378784">
  <ele>227.423096</ele>
  <time>2011-11-12T06:31:36Z</time>
  <speed>2.750000</speed>
</trkpt>
<trkpt lat="32.863559723" lon="35.241378784">
  <ele>227.192627</ele>
  <time>2011-11-12T06:31:37Z</time>
  <speed>2.600000</speed>
</trkpt>
<trkpt lat="32.863510132" lon="35.241390228">
  <ele>226.954346</ele>
  <time>2011-11-12T06:31:39Z</time>
  <speed>2.490000</speed>
</trkpt>
<trkpt lat="32.863483429" lon="35.241397858">
  <ele>226.930908</ele>
  <time>2011-11-12T06:31:40Z</time>
  <speed>2.850000</speed>
</trkpt>
<trkpt lat="32.863433838" lon="35.241413116">
  <ele>227.337158</ele>
  <time>2011-11-12T06:31:42Z</time>
  <speed>2.450000</speed>
</trkpt>
<trkpt lat="32.863380432" lon="35.241420746">
  <ele>227.173096</ele>
  <time>2011-11-12T06:31:44Z</time>
  <speed>2.790000</speed>
</trkpt>
<trkpt lat="32.863353729" lon="35.241424561">
  <ele>227.102783</ele>
  <time>2011-11-12T06:31:45Z</time>
  <speed>2.540000</speed>
</trkpt>
<trkpt lat="32.863307953" lon="35.241428375">
  <ele>228.020752</ele>
  <time>2011-11-12T06:31:47Z</time>
  <speed>2.050000</speed>
</trkpt>
<trkpt lat="32.863277435" lon="35.241455078">
  <ele>227.075439</ele>
  <time>2011-11-12T06:31:49Z</time>
  <speed>2.400000</speed>
</trkpt>
<trkpt lat="32.863235474" lon="35.241477966">
  <ele>226.751221</ele>
  <time>2011-11-12T06:31:51Z</time>
  <speed>2.630000</speed>
</trkpt>
<trkpt lat="32.863204956" lon="35.241493225">
  <ele>226.794189</ele>
  <time>2011-11-12T06:31:52Z</time>
  <speed>2.790000</speed>
</trkpt>
<trkpt lat="32.863151550" lon="35.241508484">
  <ele>227.309814</ele>
  <time>2011-11-12T06:31:54Z</time>
  <speed>3.060000</speed>
</trkpt>
<trkpt lat="32.863128662" lon="35.241519928">
  <ele>227.192627</ele>
  <time>2011-11-12T06:31:55Z</time>
  <speed>3.050000</speed>
</trkpt>
<trkpt lat="32.863098145" lon="35.241542816">
  <ele>227.208252</ele>
  <time>2011-11-12T06:31:56Z</time>
  <speed>3.390000</speed>
</trkpt>
<trkpt lat="32.863067627" lon="35.241561890">
  <ele>227.219971</ele>
  <time>2011-11-12T06:31:57Z</time>
  <speed>3.180000</speed>
</trkpt>
<trkpt lat="32.863037109" lon="35.241573334">
  <ele>226.872314</ele>
  <time>2011-11-12T06:31:58Z</time>
  <speed>3.210000</speed>
</trkpt>
<trkpt lat="32.863002777" lon="35.241580963">
  <ele>227.680908</ele>
  <time>2011-11-12T06:31:59Z</time>
  <speed>3.500000</speed>
</trkpt>
<trkpt lat="32.862968445" lon="35.241600037">
  <ele>229.126221</ele>
  <time>2011-11-12T06:32:00Z</time>
  <speed>3.480000</speed>
</trkpt>
<trkpt lat="32.862945557" lon="35.241619110">
  <ele>229.802002</ele>
  <time>2011-11-12T06:32:01Z</time>
  <speed>2.840000</speed>
</trkpt>
<trkpt lat="32.862892151" lon="35.241649628">
  <ele>230.587158</ele>
  <time>2011-11-12T06:32:03Z</time>
  <speed>3.230000</speed>
</trkpt>
<trkpt lat="32.862869263" lon="35.241672516">
  <ele>231.274658</ele>
  <time>2011-11-12T06:32:04Z</time>
  <speed>3.020000</speed>
</trkpt>
<trkpt lat="32.862842560" lon="35.241699219">
  <ele>232.098877</ele>
  <time>2011-11-12T06:32:05Z</time>
  <speed>3.280000</speed>
</trkpt>
<trkpt lat="32.862819672" lon="35.241722107">
  <ele>233.052002</ele>
  <time>2011-11-12T06:32:06Z</time>
  <speed>3.330000</speed>
</trkpt>
<trkpt lat="32.862796783" lon="35.241748810">
  <ele>233.848877</ele>
  <time>2011-11-12T06:32:07Z</time>
  <speed>3.280000</speed>
</trkpt>
<trkpt lat="32.862777710" lon="35.241779327">
  <ele>234.032471</ele>
  <time>2011-11-12T06:32:08Z</time>
  <speed>3.270000</speed>
</trkpt>
<trkpt lat="32.862751007" lon="35.241821289">
  <ele>234.759033</ele>
  <time>2011-11-12T06:32:09Z</time>
  <speed>3.240000</speed>
</trkpt>
<trkpt lat="32.862735748" lon="35.241855621">
  <ele>235.344971</ele>
  <time>2011-11-12T06:32:10Z</time>
  <speed>3.440000</speed>
</trkpt>
<trkpt lat="32.862720490" lon="35.241901398">
  <ele>235.989502</ele>
  <time>2011-11-12T06:32:11Z</time>
  <speed>3.380000</speed>
</trkpt>
<trkpt lat="32.862705231" lon="35.241943359">
  <ele>236.485596</ele>
  <time>2011-11-12T06:32:12Z</time>
  <speed>3.120000</speed>
</trkpt>
<trkpt lat="32.862701416" lon="35.241985321">
  <ele>236.919189</ele>
  <time>2011-11-12T06:32:13Z</time>
  <speed>3.220000</speed>
</trkpt>
<trkpt lat="32.862701416" lon="35.242023468">
  <ele>236.817627</ele>
  <time>2011-11-12T06:32:14Z</time>
  <speed>3.090000</speed>
</trkpt>
<trkpt lat="32.862705231" lon="35.242057800">
  <ele>236.571533</ele>
  <time>2011-11-12T06:32:15Z</time>
  <speed>3.050000</speed>
</trkpt>
<trkpt lat="32.862701416" lon="35.242092133">
  <ele>236.321533</ele>
  <time>2011-11-12T06:32:16Z</time>
  <speed>2.890000</speed>
</trkpt>
<trkpt lat="32.862701416" lon="35.242130280">
  <ele>236.848877</ele>
  <time>2011-11-12T06:32:17Z</time>
  <speed>2.970000</speed>
</trkpt>
<trkpt lat="32.862705231" lon="35.242164612">
  <ele>237.075439</ele>
  <time>2011-11-12T06:32:18Z</time>
  <speed>2.920000</speed>
</trkpt>
<trkpt lat="32.862712860" lon="35.242195129">
  <ele>237.052002</ele>
  <time>2011-11-12T06:32:19Z</time>
  <speed>2.780000</speed>
</trkpt>
<trkpt lat="32.862731934" lon="35.242240906">
  <ele>236.399658</ele>
  <time>2011-11-12T06:32:21Z</time>
  <speed>2.520000</speed>
</trkpt>
<trkpt lat="32.862762451" lon="35.242279053">
  <ele>235.583252</ele>
  <time>2011-11-12T06:32:23Z</time>
  <speed>2.440000</speed>
</trkpt>
<trkpt lat="32.862800598" lon="35.242305756">
  <ele>235.524658</ele>
  <time>2011-11-12T06:32:25Z</time>
  <speed>2.480000</speed>
</trkpt>
<trkpt lat="32.862854004" lon="35.242313385">
  <ele>236.626221</ele>
  <time>2011-11-12T06:32:27Z</time>
  <speed>2.220000</speed>
</trkpt>
<trkpt lat="32.862895966" lon="35.242313385">
  <ele>236.880127</ele>
  <time>2011-11-12T06:32:29Z</time>
  <speed>1.900000</speed>
</trkpt>
<trkpt lat="32.862937927" lon="35.242317200">
  <ele>236.391846</ele>
  <time>2011-11-12T06:32:32Z</time>
  <speed>2.500000</speed>
</trkpt>
<trkpt lat="32.862983704" lon="35.242328644">
  <ele>236.427002</ele>
  <time>2011-11-12T06:32:34Z</time>
  <speed>2.260000</speed>
</trkpt>
<trkpt lat="32.863040924" lon="35.242340088">
  <ele>237.348877</ele>
  <time>2011-11-12T06:32:36Z</time>
  <speed>3.010000</speed>
</trkpt>
<trkpt lat="32.863067627" lon="35.242351532">
  <ele>237.833252</ele>
  <time>2011-11-12T06:32:37Z</time>
  <speed>2.840000</speed>
</trkpt>
<trkpt lat="32.863101959" lon="35.242366791">
  <ele>239.184814</ele>
  <time>2011-11-12T06:32:39Z</time>
  <speed>1.890000</speed>
</trkpt>
<trkpt lat="32.863136292" lon="35.242389679">
  <ele>239.266846</ele>
  <time>2011-11-12T06:32:41Z</time>
  <speed>2.020000</speed>
</trkpt>
<trkpt lat="32.863155365" lon="35.242408752">
  <ele>239.395752</ele>
  <time>2011-11-12T06:32:42Z</time>
  <speed>2.770000</speed>
</trkpt>
<trkpt lat="32.863204956" lon="35.242424011">
  <ele>238.696533</ele>
  <time>2011-11-12T06:32:44Z</time>
  <speed>2.170000</speed>
</trkpt>
<trkpt lat="32.863243103" lon="35.242435455">
  <ele>238.958252</ele>
  <time>2011-11-12T06:32:46Z</time>
  <speed>2.050000</speed>
</trkpt>
<trkpt lat="32.863277435" lon="35.242446899">
  <ele>239.520752</ele>
  <time>2011-11-12T06:32:48Z</time>
  <speed>2.260000</speed>
</trkpt>
<trkpt lat="32.863323212" lon="35.242462158">
  <ele>239.122314</ele>
  <time>2011-11-12T06:32:50Z</time>
  <speed>1.840000</speed>
</trkpt>
<trkpt lat="32.863357544" lon="35.242477417">
  <ele>239.653564</ele>
  <time>2011-11-12T06:32:52Z</time>
  <speed>1.650000</speed>
</trkpt>
<trkpt lat="32.863395691" lon="35.242496490">
  <ele>239.743408</ele>
  <time>2011-11-12T06:32:54Z</time>
  <speed>2.230000</speed>
</trkpt>
<trkpt lat="32.863433838" lon="35.242519379">
  <ele>239.661377</ele>
  <time>2011-11-12T06:32:56Z</time>
  <speed>2.410000</speed>
</trkpt>
<trkpt lat="32.863479614" lon="35.242549896">
  <ele>239.981689</ele>
  <time>2011-11-12T06:32:58Z</time>
  <speed>2.470000</speed>
</trkpt>
<trkpt lat="32.863521576" lon="35.242572784">
  <ele>240.024658</ele>
  <time>2011-11-12T06:33:00Z</time>
  <speed>1.610000</speed>
</trkpt>
<trkpt lat="32.863563538" lon="35.242588043">
  <ele>240.969971</ele>
  <time>2011-11-12T06:33:02Z</time>
  <speed>2.250000</speed>
</trkpt>
<trkpt lat="32.863613129" lon="35.242599487">
  <ele>241.778564</ele>
  <time>2011-11-12T06:33:04Z</time>
  <speed>1.580000</speed>
</trkpt>
<trkpt lat="32.863647461" lon="35.242618561">
  <ele>242.594971</ele>
  <time>2011-11-12T06:33:06Z</time>
  <speed>2.160000</speed>
</trkpt>
<trkpt lat="32.863681793" lon="35.242630005">
  <ele>242.204346</ele>
  <time>2011-11-12T06:33:08Z</time>
  <speed>1.740000</speed>
</trkpt>
<trkpt lat="32.863719940" lon="35.242649078">
  <ele>242.950439</ele>
  <time>2011-11-12T06:33:10Z</time>
  <speed>2.140000</speed>
</trkpt>
<trkpt lat="32.863742828" lon="35.242687225">
  <ele>243.040283</ele>
  <time>2011-11-12T06:33:12Z</time>
  <speed>1.660000</speed>
</trkpt>
<trkpt lat="32.863769531" lon="35.242691040">
  <ele>244.473877</ele>
  <time>2011-11-12T06:33:13Z</time>
  <speed>1.610000</speed>
</trkpt>
<trkpt lat="32.863800049" lon="35.242713928">
  <ele>244.950439</ele>
  <time>2011-11-12T06:33:15Z</time>
  <speed>1.320000</speed>
</trkpt>
<trkpt lat="32.863834381" lon="35.242733002">
  <ele>245.622314</ele>
  <time>2011-11-12T06:33:17Z</time>
  <speed>1.310000</speed>
</trkpt>
<trkpt lat="32.863872528" lon="35.242740631">
  <ele>247.489502</ele>
  <time>2011-11-12T06:33:19Z</time>
  <speed>1.860000</speed>
</trkpt>
<trkpt lat="32.863903046" lon="35.242740631">
  <ele>247.259033</ele>
  <time>2011-11-12T06:33:21Z</time>
  <speed>1.010000</speed>
</trkpt>
<trkpt lat="32.863941193" lon="35.242736816">
  <ele>247.618408</ele>
  <time>2011-11-12T06:33:23Z</time>
  <speed>1.310000</speed>
</trkpt>
<trkpt lat="32.863983154" lon="35.242736816">
  <ele>248.286377</ele>
  <time>2011-11-12T06:33:26Z</time>
  <speed>1.490000</speed>
</trkpt>
<trkpt lat="32.864013672" lon="35.242752075">
  <ele>248.134033</ele>
  <time>2011-11-12T06:33:28Z</time>
  <speed>1.170000</speed>
</trkpt>
<trkpt lat="32.864036560" lon="35.242771149">
  <ele>248.009033</ele>
  <time>2011-11-12T06:33:30Z</time>
  <speed>1.860000</speed>
</trkpt>
<trkpt lat="32.864067078" lon="35.242786407">
  <ele>248.973877</ele>
  <time>2011-11-12T06:33:33Z</time>
  <speed>1.550000</speed>
</trkpt>
<trkpt lat="32.864101410" lon="35.242801666">
  <ele>249.938721</ele>
  <time>2011-11-12T06:33:35Z</time>
  <speed>2.260000</speed>
</trkpt>
<trkpt lat="32.864135742" lon="35.242816925">
  <ele>250.266846</ele>
  <time>2011-11-12T06:33:38Z</time>
  <speed>1.520000</speed>
</trkpt>
<trkpt lat="32.864166260" lon="35.242832184">
  <ele>251.298096</ele>
  <time>2011-11-12T06:33:40Z</time>
  <speed>1.690000</speed>
</trkpt>
<trkpt lat="32.864212036" lon="35.242832184">
  <ele>253.165283</ele>
  <time>2011-11-12T06:33:42Z</time>
  <speed>1.380000</speed>
</trkpt>
<trkpt lat="32.864238739" lon="35.242835999">
  <ele>253.864502</ele>
  <time>2011-11-12T06:33:44Z</time>
  <speed>1.310000</speed>
</trkpt>
<trkpt lat="32.864261627" lon="35.242858887">
  <ele>254.802002</ele>
  <time>2011-11-12T06:33:46Z</time>
  <speed>1.300000</speed>
</trkpt>
<trkpt lat="32.864280701" lon="35.242885590">
  <ele>255.157471</ele>
  <time>2011-11-12T06:33:48Z</time>
  <speed>1.700000</speed>
</trkpt>
<trkpt lat="32.864303589" lon="35.242912292">
  <ele>256.330566</ele>
  <time>2011-11-12T06:33:50Z</time>
  <speed>1.510000</speed>
</trkpt>
<trkpt lat="32.864334106" lon="35.242923737">
  <ele>257.916504</ele>
  <time>2011-11-12T06:33:53Z</time>
  <speed>1.550000</speed>
</trkpt>
<trkpt lat="32.864356995" lon="35.242946625">
  <ele>258.354004</ele>
  <time>2011-11-12T06:33:55Z</time>
  <speed>1.370000</speed>
</trkpt>
<trkpt lat="32.864391327" lon="35.242980957">
  <ele>258.963379</ele>
  <time>2011-11-12T06:33:57Z</time>
  <speed>1.900000</speed>
</trkpt>
<trkpt lat="32.864406586" lon="35.243011475">
  <ele>259.330566</ele>
  <time>2011-11-12T06:33:59Z</time>
  <speed>1.340000</speed>
</trkpt>
<trkpt lat="32.864402771" lon="35.243049622">
  <ele>259.385254</ele>
  <time>2011-11-12T06:34:01Z</time>
  <speed>1.780000</speed>
</trkpt>
<trkpt lat="32.864391327" lon="35.243106842">
  <ele>259.807129</ele>
  <time>2011-11-12T06:34:03Z</time>
  <speed>2.200000</speed>
</trkpt>
<trkpt lat="32.864395142" lon="35.243164063">
  <ele>260.611816</ele>
  <time>2011-11-12T06:34:05Z</time>
  <speed>1.950000</speed>
</trkpt>
<trkpt lat="32.864406586" lon="35.243209839">
  <ele>261.408691</ele>
  <time>2011-11-12T06:34:07Z</time>
  <speed>2.370000</speed>
</trkpt>
<trkpt lat="32.864421844" lon="35.243267059">
  <ele>261.393066</ele>
  <time>2011-11-12T06:34:09Z</time>
  <speed>2.450000</speed>
</trkpt>
<trkpt lat="32.864437103" lon="35.243297577">
  <ele>260.838379</ele>
  <time>2011-11-12T06:34:10Z</time>
  <speed>2.090000</speed>
</trkpt>
<trkpt lat="32.864456177" lon="35.243350983">
  <ele>261.135254</ele>
  <time>2011-11-12T06:34:12Z</time>
  <speed>2.050000</speed>
</trkpt>
<trkpt lat="32.864467621" lon="35.243392944">
  <ele>261.361816</ele>
  <time>2011-11-12T06:34:14Z</time>
  <speed>2.000000</speed>
</trkpt>
<trkpt lat="32.864479065" lon="35.243442535">
  <ele>260.752441</ele>
  <time>2011-11-12T06:34:16Z</time>
  <speed>2.100000</speed>
</trkpt>
<trkpt lat="32.864475250" lon="35.243511200">
  <ele>260.338379</ele>
  <time>2011-11-12T06:34:18Z</time>
  <speed>3.360000</speed>
</trkpt>
<trkpt lat="32.864471436" lon="35.243545532">
  <ele>260.096191</ele>
  <time>2011-11-12T06:34:19Z</time>
  <speed>3.040000</speed>
</trkpt>
<trkpt lat="32.864471436" lon="35.243583679">
  <ele>259.189941</ele>
  <time>2011-11-12T06:34:20Z</time>
  <speed>2.260000</speed>
</trkpt>
<trkpt lat="32.864490509" lon="35.243625641">
  <ele>258.807129</ele>
  <time>2011-11-12T06:34:22Z</time>
  <speed>1.910000</speed>
</trkpt>
<trkpt lat="32.864517212" lon="35.243659973">
  <ele>259.104004</ele>
  <time>2011-11-12T06:34:24Z</time>
  <speed>1.430000</speed>
</trkpt>
<trkpt lat="32.864547729" lon="35.243690491">
  <ele>259.439941</ele>
  <time>2011-11-12T06:34:26Z</time>
  <speed>2.360000</speed>
</trkpt>
<trkpt lat="32.864566803" lon="35.243709564">
  <ele>259.314941</ele>
  <time>2011-11-12T06:34:27Z</time>
  <speed>2.210000</speed>
</trkpt>
<trkpt lat="32.864574432" lon="35.243743896">
  <ele>259.947754</ele>
  <time>2011-11-12T06:34:28Z</time>
  <speed>2.800000</speed>
</trkpt>
<trkpt lat="32.864585876" lon="35.243797302">
  <ele>260.119629</ele>
  <time>2011-11-12T06:34:30Z</time>
  <speed>3.040000</speed>
</trkpt>
<trkpt lat="32.864593506" lon="35.243831635">
  <ele>259.486816</ele>
  <time>2011-11-12T06:34:31Z</time>
  <speed>2.900000</speed>
</trkpt>
<trkpt lat="32.864608765" lon="35.243869781">
  <ele>259.689941</ele>
  <time>2011-11-12T06:34:32Z</time>
  <speed>3.340000</speed>
</trkpt>
<trkpt lat="32.864627838" lon="35.243900299">
  <ele>259.596191</ele>
  <time>2011-11-12T06:34:33Z</time>
  <speed>2.160000</speed>
</trkpt>
<trkpt lat="32.864654541" lon="35.243953705">
  <ele>259.002441</ele>
  <time>2011-11-12T06:34:35Z</time>
  <speed>2.660000</speed>
</trkpt>
<trkpt lat="32.864665985" lon="35.243988037">
  <ele>259.580566</ele>
  <time>2011-11-12T06:34:36Z</time>
  <speed>3.060000</speed>
</trkpt>
<trkpt lat="32.864677429" lon="35.244018555">
  <ele>259.369629</ele>
  <time>2011-11-12T06:34:37Z</time>
  <speed>3.190000</speed>
</trkpt>
<trkpt lat="32.864685059" lon="35.244056702">
  <ele>259.221191</ele>
  <time>2011-11-12T06:34:38Z</time>
  <speed>3.620000</speed>
</trkpt>
<trkpt lat="32.864692688" lon="35.244094849">
  <ele>258.955566</ele>
  <time>2011-11-12T06:34:39Z</time>
  <speed>3.570000</speed>
</trkpt>
<trkpt lat="32.864707947" lon="35.244140625">
  <ele>258.744629</ele>
  <time>2011-11-12T06:34:40Z</time>
  <speed>3.770000</speed>
</trkpt>
<trkpt lat="32.864715576" lon="35.244178772">
  <ele>258.338379</ele>
  <time>2011-11-12T06:34:41Z</time>
  <speed>2.750000</speed>
</trkpt>
<trkpt lat="32.864723206" lon="35.244239807">
  <ele>257.596191</ele>
  <time>2011-11-12T06:34:43Z</time>
  <speed>3.280000</speed>
</trkpt>
<trkpt lat="32.864738464" lon="35.244277954">
  <ele>257.057129</ele>
  <time>2011-11-12T06:34:44Z</time>
  <speed>3.340000</speed>
</trkpt>
<trkpt lat="32.864753723" lon="35.244304657">
  <ele>257.354004</ele>
  <time>2011-11-12T06:34:45Z</time>
  <speed>2.810000</speed>
</trkpt>
<trkpt lat="32.864768982" lon="35.244335175">
  <ele>257.283691</ele>
  <time>2011-11-12T06:34:46Z</time>
  <speed>2.370000</speed>
</trkpt>
<trkpt lat="32.864803314" lon="35.244377136">
  <ele>257.986816</ele>
  <time>2011-11-12T06:34:48Z</time>
  <speed>2.170000</speed>
</trkpt>
<trkpt lat="32.864837646" lon="35.244403839">
  <ele>257.354004</ele>
  <time>2011-11-12T06:34:50Z</time>
  <speed>1.910000</speed>
</trkpt>
<trkpt lat="32.864871979" lon="35.244441986">
  <ele>257.182129</ele>
  <time>2011-11-12T06:34:52Z</time>
  <speed>2.910000</speed>
</trkpt>
<trkpt lat="32.864887238" lon="35.244472504">
  <ele>257.111816</ele>
  <time>2011-11-12T06:34:53Z</time>
  <speed>3.210000</speed>
</trkpt>
<trkpt lat="32.864902496" lon="35.244503021">
  <ele>257.049316</ele>
  <time>2011-11-12T06:34:54Z</time>
  <speed>2.580000</speed>
</trkpt>
<trkpt lat="32.864917755" lon="35.244529724">
  <ele>256.611816</ele>
  <time>2011-11-12T06:34:55Z</time>
  <speed>2.720000</speed>
</trkpt>
<trkpt lat="32.864940643" lon="35.244552612">
  <ele>257.189941</ele>
  <time>2011-11-12T06:34:56Z</time>
  <speed>3.180000</speed>
</trkpt>
<trkpt lat="32.864955902" lon="35.244579315">
  <ele>257.354004</ele>
  <time>2011-11-12T06:34:57Z</time>
  <speed>2.430000</speed>
</trkpt>
<trkpt lat="32.864982605" lon="35.244621277">
  <ele>257.424316</ele>
  <time>2011-11-12T06:34:59Z</time>
  <speed>2.790000</speed>
</trkpt>
<trkpt lat="32.864997864" lon="35.244667053">
  <ele>257.314941</ele>
  <time>2011-11-12T06:35:01Z</time>
  <speed>2.240000</speed>
</trkpt>
<trkpt lat="32.865016937" lon="35.244709015">
  <ele>257.596191</ele>
  <time>2011-11-12T06:35:03Z</time>
  <speed>2.190000</speed>
</trkpt>
<trkpt lat="32.865032196" lon="35.244766235">
  <ele>258.174316</ele>
  <time>2011-11-12T06:35:05Z</time>
  <speed>2.950000</speed>
</trkpt>
<trkpt lat="32.865047455" lon="35.244823456">
  <ele>258.486816</ele>
  <time>2011-11-12T06:35:07Z</time>
  <speed>2.870000</speed>
</trkpt>
<trkpt lat="32.865074158" lon="35.244873047">
  <ele>259.432129</ele>
  <time>2011-11-12T06:35:09Z</time>
  <speed>2.620000</speed>
</trkpt>
<trkpt lat="32.865112305" lon="35.244915009">
  <ele>257.432129</ele>
  <time>2011-11-12T06:35:11Z</time>
  <speed>1.900000</speed>
</trkpt>
<trkpt lat="32.865131378" lon="35.244945526">
  <ele>257.799316</ele>
  <time>2011-11-12T06:35:13Z</time>
  <speed>2.350000</speed>
</trkpt>
<trkpt lat="32.865150452" lon="35.244976044">
  <ele>258.666504</ele>
  <time>2011-11-12T06:35:15Z</time>
  <speed>1.950000</speed>
</trkpt>
<trkpt lat="32.865180969" lon="35.245025635">
  <ele>258.236816</ele>
  <time>2011-11-12T06:35:17Z</time>
  <speed>2.120000</speed>
</trkpt>
<trkpt lat="32.865188599" lon="35.245067596">
  <ele>258.291504</ele>
  <time>2011-11-12T06:35:19Z</time>
  <speed>1.610000</speed>
</trkpt>
<trkpt lat="32.865203857" lon="35.245105743">
  <ele>257.354004</ele>
  <time>2011-11-12T06:35:21Z</time>
  <speed>1.830000</speed>
</trkpt>
<trkpt lat="32.865211487" lon="35.245140076">
  <ele>257.080566</ele>
  <time>2011-11-12T06:35:23Z</time>
  <speed>1.650000</speed>
</trkpt>
<trkpt lat="32.865230560" lon="35.245170593">
  <ele>256.791504</ele>
  <time>2011-11-12T06:35:25Z</time>
  <speed>1.650000</speed>
</trkpt>
<trkpt lat="32.865253448" lon="35.245193481">
  <ele>256.361816</ele>
  <time>2011-11-12T06:35:27Z</time>
  <speed>1.800000</speed>
</trkpt>
<trkpt lat="32.865272522" lon="35.245231628">
  <ele>256.814941</ele>
  <time>2011-11-12T06:35:29Z</time>
  <speed>1.590000</speed>
</trkpt>
<trkpt lat="32.865280151" lon="35.245277405">
  <ele>256.002441</ele>
  <time>2011-11-12T06:35:31Z</time>
  <speed>2.590000</speed>
</trkpt>
<trkpt lat="32.865303040" lon="35.245330811">
  <ele>255.446533</ele>
  <time>2011-11-12T06:35:33Z</time>
  <speed>2.260000</speed>
</trkpt>
<trkpt lat="32.865341187" lon="35.245368958">
  <ele>255.259033</ele>
  <time>2011-11-12T06:35:35Z</time>
  <speed>2.030000</speed>
</trkpt>
<trkpt lat="32.865367889" lon="35.245422363">
  <ele>255.759033</ele>
  <time>2011-11-12T06:35:37Z</time>
  <speed>1.990000</speed>
</trkpt>
<trkpt lat="32.865398407" lon="35.245468140">
  <ele>255.173096</ele>
  <time>2011-11-12T06:35:39Z</time>
  <speed>2.990000</speed>
</trkpt>
<trkpt lat="32.865417480" lon="35.245525360">
  <ele>255.079346</ele>
  <time>2011-11-12T06:35:41Z</time>
  <speed>1.920000</speed>
</trkpt>
<trkpt lat="32.865444183" lon="35.245548248">
  <ele>255.536377</ele>
  <time>2011-11-12T06:35:43Z</time>
  <speed>1.130000</speed>
</trkpt>
<trkpt lat="32.865478516" lon="35.245532990">
  <ele>255.790283</ele>
  <time>2011-11-12T06:35:45Z</time>
  <speed>1.350000</speed>
</trkpt>
<trkpt lat="32.865497589" lon="35.245506287">
  <ele>255.594971</ele>
  <time>2011-11-12T06:35:47Z</time>
  <speed>1.690000</speed>
</trkpt>
<trkpt lat="32.865516663" lon="35.245468140">
  <ele>255.137939</ele>
  <time>2011-11-12T06:35:49Z</time>
  <speed>1.610000</speed>
</trkpt>
<trkpt lat="32.865539551" lon="35.245433807">
  <ele>255.317627</ele>
  <time>2011-11-12T06:35:51Z</time>
  <speed>1.680000</speed>
</trkpt>
<trkpt lat="32.865550995" lon="35.245407104">
  <ele>255.520752</ele>
  <time>2011-11-12T06:35:53Z</time>
  <speed>1.280000</speed>
</trkpt>
<trkpt lat="32.865577698" lon="35.245380402">
  <ele>255.087158</ele>
  <time>2011-11-12T06:35:55Z</time>
  <speed>1.570000</speed>
</trkpt>
<trkpt lat="32.865592957" lon="35.245349884">
  <ele>255.341064</ele>
  <time>2011-11-12T06:35:57Z</time>
  <speed>1.700000</speed>
</trkpt>
<trkpt lat="32.865619659" lon="35.245311737">
  <ele>255.126221</ele>
  <time>2011-11-12T06:35:59Z</time>
  <speed>1.700000</speed>
</trkpt>
<trkpt lat="32.865634918" lon="35.245273590">
  <ele>255.852783</ele>
  <time>2011-11-12T06:36:02Z</time>
  <speed>1.360000</speed>
</trkpt>
<trkpt lat="32.865653992" lon="35.245235443">
  <ele>256.291504</ele>
  <time>2011-11-12T06:36:05Z</time>
  <speed>1.380000</speed>
</trkpt>
<trkpt lat="32.865661621" lon="35.245189667">
  <ele>256.799316</ele>
  <time>2011-11-12T06:36:08Z</time>
  <speed>0.850000</speed>
</trkpt>
<trkpt lat="32.865657806" lon="35.245159149">
  <ele>256.932129</ele>
  <time>2011-11-12T06:36:37Z</time>
  <speed>0.990000</speed>
</trkpt>
<trkpt lat="32.865665436" lon="35.245113373">
  <ele>257.213379</ele>
  <time>2011-11-12T06:36:40Z</time>
  <speed>1.150000</speed>
</trkpt>
<trkpt lat="32.865673065" lon="35.245067596">
  <ele>257.588379</ele>
  <time>2011-11-12T06:36:43Z</time>
  <speed>1.720000</speed>
</trkpt>
<trkpt lat="32.865703583" lon="35.245044708">
  <ele>257.299316</ele>
  <time>2011-11-12T06:36:45Z</time>
  <speed>2.020000</speed>
</trkpt>
<trkpt lat="32.865745544" lon="35.245018005">
  <ele>257.619629</ele>
  <time>2011-11-12T06:36:47Z</time>
  <speed>2.620000</speed>
</trkpt>
<trkpt lat="32.865802765" lon="35.245018005">
  <ele>257.729004</ele>
  <time>2011-11-12T06:36:49Z</time>
  <speed>3.530000</speed>
</trkpt>
<trkpt lat="32.865856171" lon="35.245029449">
  <ele>258.354004</ele>
  <time>2011-11-12T06:36:50Z</time>
  <speed>5.200000</speed>
</trkpt>
<trkpt lat="32.865905762" lon="35.245059967">
  <ele>258.760254</ele>
  <time>2011-11-12T06:36:51Z</time>
  <speed>6.280000</speed>
</trkpt>
<trkpt lat="32.865943909" lon="35.245090485">
  <ele>258.588379</ele>
  <time>2011-11-12T06:36:52Z</time>
  <speed>6.340000</speed>
</trkpt>
<trkpt lat="32.865962982" lon="35.245147705">
  <ele>258.744629</ele>
  <time>2011-11-12T06:36:53Z</time>
  <speed>4.820000</speed>
</trkpt>
<trkpt lat="32.865974426" lon="35.245189667">
  <ele>259.307129</ele>
  <time>2011-11-12T06:36:54Z</time>
  <speed>3.350000</speed>
</trkpt>
<trkpt lat="32.865974426" lon="35.245223999">
  <ele>259.158691</ele>
  <time>2011-11-12T06:36:55Z</time>
  <speed>2.830000</speed>
</trkpt>
<trkpt lat="32.865985870" lon="35.245265961">
  <ele>258.033691</ele>
  <time>2011-11-12T06:36:57Z</time>
  <speed>1.450000</speed>
</trkpt>
<trkpt lat="32.866035461" lon="35.245288849">
  <ele>257.611816</ele>
  <time>2011-11-12T06:37:00Z</time>
  <speed>1.590000</speed>
</trkpt>
<trkpt lat="32.866073608" lon="35.245319366">
  <ele>257.533691</ele>
  <time>2011-11-12T06:37:02Z</time>
  <speed>1.830000</speed>
</trkpt>
<trkpt lat="32.866085052" lon="35.245368958">
  <ele>257.291504</ele>
  <time>2011-11-12T06:37:04Z</time>
  <speed>2.040000</speed>
</trkpt>
<trkpt lat="32.866092682" lon="35.245414734">
  <ele>258.236816</ele>
  <time>2011-11-12T06:37:06Z</time>
  <speed>1.720000</speed>
</trkpt>
<trkpt lat="32.866119385" lon="35.245456696">
  <ele>258.666504</ele>
  <time>2011-11-12T06:37:08Z</time>
  <speed>1.630000</speed>
</trkpt>
<trkpt lat="32.866134644" lon="35.245491028">
  <ele>260.377441</ele>
  <time>2011-11-12T06:37:10Z</time>
  <speed>1.840000</speed>
</trkpt>
<trkpt lat="32.866146088" lon="35.245536804">
  <ele>260.674316</ele>
  <time>2011-11-12T06:37:12Z</time>
  <speed>1.840000</speed>
</trkpt>
<trkpt lat="32.866161346" lon="35.245574951">
  <ele>261.697754</ele>
  <time>2011-11-12T06:37:14Z</time>
  <speed>2.020000</speed>
</trkpt>
<trkpt lat="32.866180420" lon="35.245601654">
  <ele>262.760254</ele>
  <time>2011-11-12T06:37:16Z</time>
  <speed>1.880000</speed>
</trkpt>
<trkpt lat="32.866191864" lon="35.245635986">
  <ele>263.283691</ele>
  <time>2011-11-12T06:37:18Z</time>
  <speed>1.480000</speed>
</trkpt>
<trkpt lat="32.866203308" lon="35.245677948">
  <ele>263.736816</ele>
  <time>2011-11-12T06:37:21Z</time>
  <speed>1.550000</speed>
</trkpt>
<trkpt lat="32.866218567" lon="35.245719910">
  <ele>264.174316</ele>
  <time>2011-11-12T06:37:24Z</time>
  <speed>1.540000</speed>
</trkpt>
<trkpt lat="32.866237640" lon="35.245754242">
  <ele>265.361816</ele>
  <time>2011-11-12T06:37:26Z</time>
  <speed>1.530000</speed>
</trkpt>
<trkpt lat="32.866252899" lon="35.245784760">
  <ele>266.424316</ele>
  <time>2011-11-12T06:37:28Z</time>
  <speed>1.670000</speed>
</trkpt>
<trkpt lat="32.866271973" lon="35.245807648">
  <ele>267.283691</ele>
  <time>2011-11-12T06:37:30Z</time>
  <speed>1.370000</speed>
</trkpt>
<trkpt lat="32.866279602" lon="35.245853424">
  <ele>267.705566</ele>
  <time>2011-11-12T06:37:33Z</time>
  <speed>1.500000</speed>
</trkpt>
<trkpt lat="32.866306305" lon="35.245887756">
  <ele>268.205566</ele>
  <time>2011-11-12T06:37:36Z</time>
  <speed>1.460000</speed>
</trkpt>
<trkpt lat="32.866329193" lon="35.245914459">
  <ele>268.533691</ele>
  <time>2011-11-12T06:37:39Z</time>
  <speed>1.290000</speed>
</trkpt>
<trkpt lat="32.866333008" lon="35.245960236">
  <ele>268.729004</ele>
  <time>2011-11-12T06:37:42Z</time>
  <speed>1.070000</speed>
</trkpt>
<trkpt lat="32.866336823" lon="35.246002197">
  <ele>270.049316</ele>
  <time>2011-11-12T06:37:45Z</time>
  <speed>1.250000</speed>
</trkpt>
<trkpt lat="32.866367340" lon="35.246032715">
  <ele>270.893066</ele>
  <time>2011-11-12T06:37:48Z</time>
  <speed>1.140000</speed>
</trkpt>
<trkpt lat="32.866378784" lon="35.246063232">
  <ele>271.432129</ele>
  <time>2011-11-12T06:37:51Z</time>
  <speed>1.280000</speed>
</trkpt>
<trkpt lat="32.866401672" lon="35.246101379">
  <ele>272.580566</ele>
  <time>2011-11-12T06:37:54Z</time>
  <speed>1.500000</speed>
</trkpt>
<trkpt lat="32.866420746" lon="35.246131897">
  <ele>273.791504</ele>
  <time>2011-11-12T06:37:56Z</time>
  <speed>1.350000</speed>
</trkpt>
<trkpt lat="32.866443634" lon="35.246150970">
  <ele>273.588379</ele>
  <time>2011-11-12T06:37:58Z</time>
  <speed>1.190000</speed>
</trkpt>
<trkpt lat="32.866458893" lon="35.246177673">
  <ele>273.643066</ele>
  <time>2011-11-12T06:38:00Z</time>
  <speed>1.140000</speed>
</trkpt>
<trkpt lat="32.866485596" lon="35.246200562">
  <ele>273.752441</ele>
  <time>2011-11-12T06:38:02Z</time>
  <speed>1.500000</speed>
</trkpt>
<trkpt lat="32.866500854" lon="35.246238708">
  <ele>273.580566</ele>
  <time>2011-11-12T06:38:05Z</time>
  <speed>1.450000</speed>
</trkpt>
<trkpt lat="32.866519928" lon="35.246261597">
  <ele>273.283691</ele>
  <time>2011-11-12T06:38:07Z</time>
  <speed>1.490000</speed>
</trkpt>
<trkpt lat="32.866539001" lon="35.246288300">
  <ele>273.260254</ele>
  <time>2011-11-12T06:38:10Z</time>
  <speed>1.310000</speed>
</trkpt>
<trkpt lat="32.866577148" lon="35.246303558">
  <ele>272.721191</ele>
  <time>2011-11-12T06:38:13Z</time>
  <speed>1.470000</speed>
</trkpt>
<trkpt lat="32.866607666" lon="35.246318817">
  <ele>272.994629</ele>
  <time>2011-11-12T06:38:15Z</time>
  <speed>1.730000</speed>
</trkpt>
<trkpt lat="32.866641998" lon="35.246360779">
  <ele>274.088379</ele>
  <time>2011-11-12T06:38:18Z</time>
  <speed>1.450000</speed>
</trkpt>
<trkpt lat="32.866645813" lon="35.246398926">
  <ele>274.541504</ele>
  <time>2011-11-12T06:38:20Z</time>
  <speed>1.670000</speed>
</trkpt>
<trkpt lat="32.866630554" lon="35.246429443">
  <ele>274.900879</ele>
  <time>2011-11-12T06:38:22Z</time>
  <speed>1.680000</speed>
</trkpt>
<trkpt lat="32.866607666" lon="35.246467590">
  <ele>275.830566</ele>
  <time>2011-11-12T06:38:24Z</time>
  <speed>2.100000</speed>
</trkpt>
<trkpt lat="32.866588593" lon="35.246517181">
  <ele>277.080566</ele>
  <time>2011-11-12T06:38:26Z</time>
  <speed>1.880000</speed>
</trkpt>
<trkpt lat="32.866573334" lon="35.246555328">
  <ele>278.096191</ele>
  <time>2011-11-12T06:38:28Z</time>
  <speed>1.170000</speed>
</trkpt>
<trkpt lat="32.866573334" lon="35.246604919">
  <ele>279.768066</ele>
  <time>2011-11-12T06:38:31Z</time>
  <speed>1.360000</speed>
</trkpt>
<trkpt lat="32.866580963" lon="35.246639252">
  <ele>280.307129</ele>
  <time>2011-11-12T06:38:33Z</time>
  <speed>1.280000</speed>
</trkpt>
<trkpt lat="32.866580963" lon="35.246677399">
  <ele>280.275879</ele>
  <time>2011-11-12T06:38:36Z</time>
  <speed>1.440000</speed>
</trkpt>
<trkpt lat="32.866588593" lon="35.246726990">
  <ele>281.104004</ele>
  <time>2011-11-12T06:38:39Z</time>
  <speed>1.460000</speed>
</trkpt>
<trkpt lat="32.866592407" lon="35.246768951">
  <ele>281.111816</ele>
  <time>2011-11-12T06:38:41Z</time>
  <speed>1.600000</speed>
</trkpt>
<trkpt lat="32.866603851" lon="35.246807098">
  <ele>280.291504</ele>
  <time>2011-11-12T06:38:44Z</time>
  <speed>1.400000</speed>
</trkpt>
<trkpt lat="32.866615295" lon="35.246841431">
  <ele>280.518066</ele>
  <time>2011-11-12T06:38:47Z</time>
  <speed>1.410000</speed>
</trkpt>
<trkpt lat="32.866630554" lon="35.246883392">
  <ele>281.330566</ele>
  <time>2011-11-12T06:38:50Z</time>
  <speed>1.460000</speed>
</trkpt>
<trkpt lat="32.866657257" lon="35.246913910">
  <ele>281.525879</ele>
  <time>2011-11-12T06:38:53Z</time>
  <speed>1.390000</speed>
</trkpt>
<trkpt lat="32.866672516" lon="35.246948242">
  <ele>281.486816</ele>
  <time>2011-11-12T06:38:56Z</time>
  <speed>1.270000</speed>
</trkpt>
<trkpt lat="32.866710663" lon="35.246963501">
  <ele>281.479004</ele>
  <time>2011-11-12T06:39:00Z</time>
  <speed>1.120000</speed>
</trkpt>
<trkpt lat="32.866737366" lon="35.246997833">
  <ele>282.025879</ele>
  <time>2011-11-12T06:39:03Z</time>
  <speed>1.350000</speed>
</trkpt>
<trkpt lat="32.866744995" lon="35.247039795">
  <ele>282.377441</ele>
  <time>2011-11-12T06:39:07Z</time>
  <speed>1.910000</speed>
</trkpt>
<trkpt lat="32.866756439" lon="35.247077942">
  <ele>282.814941</ele>
  <time>2011-11-12T06:39:09Z</time>
  <speed>1.620000</speed>
</trkpt>
<trkpt lat="32.866756439" lon="35.247116089">
  <ele>282.768066</ele>
  <time>2011-11-12T06:39:11Z</time>
  <speed>1.810000</speed>
</trkpt>
<trkpt lat="32.866756439" lon="35.247154236">
  <ele>283.096191</ele>
  <time>2011-11-12T06:39:13Z</time>
  <speed>1.840000</speed>
</trkpt>
<trkpt lat="32.866756439" lon="35.247196198">
  <ele>284.463379</ele>
  <time>2011-11-12T06:39:15Z</time>
  <speed>1.590000</speed>
</trkpt>
<trkpt lat="32.866752625" lon="35.247241974">
  <ele>285.291504</ele>
  <time>2011-11-12T06:39:18Z</time>
  <speed>1.480000</speed>
</trkpt>
<trkpt lat="32.866748810" lon="35.247276306">
  <ele>285.619629</ele>
  <time>2011-11-12T06:39:20Z</time>
  <speed>1.460000</speed>
</trkpt>
<trkpt lat="32.866744995" lon="35.247318268">
  <ele>285.674316</ele>
  <time>2011-11-12T06:39:22Z</time>
  <speed>1.510000</speed>
</trkpt>
<trkpt lat="32.866744995" lon="35.247352600">
  <ele>286.611816</ele>
  <time>2011-11-12T06:39:24Z</time>
  <speed>1.390000</speed>
</trkpt>
<trkpt lat="32.866744995" lon="35.247386932">
  <ele>287.244629</ele>
  <time>2011-11-12T06:39:26Z</time>
  <speed>1.720000</speed>
</trkpt>
<trkpt lat="32.866744995" lon="35.247425079">
  <ele>287.205566</ele>
  <time>2011-11-12T06:39:28Z</time>
  <speed>1.500000</speed>
</trkpt>
<trkpt lat="32.866752625" lon="35.247459412">
  <ele>288.033691</ele>
  <time>2011-11-12T06:39:30Z</time>
  <speed>1.540000</speed>
</trkpt>
<trkpt lat="32.866741180" lon="35.247501373">
  <ele>290.174316</ele>
  <time>2011-11-12T06:39:33Z</time>
  <speed>1.470000</speed>
</trkpt>
<trkpt lat="32.866748810" lon="35.247543335">
  <ele>291.072754</ele>
  <time>2011-11-12T06:39:35Z</time>
  <speed>1.410000</speed>
</trkpt>
<trkpt lat="32.866744995" lon="35.247577667">
  <ele>291.955566</ele>
  <time>2011-11-12T06:39:37Z</time>
  <speed>1.450000</speed>
</trkpt>
<trkpt lat="32.866752625" lon="35.247623444">
  <ele>291.549316</ele>
  <time>2011-11-12T06:39:40Z</time>
  <speed>1.000000</speed>
</trkpt>
<trkpt lat="32.866744995" lon="35.247657776">
  <ele>291.377441</ele>
  <time>2011-11-12T06:39:43Z</time>
  <speed>1.250000</speed>
</trkpt>
<trkpt lat="32.866729736" lon="35.247695923">
  <ele>290.682129</ele>
  <time>2011-11-12T06:39:47Z</time>
  <speed>1.280000</speed>
</trkpt>
<trkpt lat="32.866710663" lon="35.247737885">
  <ele>290.049316</ele>
  <time>2011-11-12T06:39:50Z</time>
  <speed>1.150000</speed>
</trkpt>
<trkpt lat="32.866691589" lon="35.247776031">
  <ele>289.619629</ele>
  <time>2011-11-12T06:39:53Z</time>
  <speed>1.220000</speed>
</trkpt>
<trkpt lat="32.866706848" lon="35.247806549">
  <ele>290.314941</ele>
  <time>2011-11-12T06:39:55Z</time>
  <speed>1.150000</speed>
</trkpt>
<trkpt lat="32.866699219" lon="35.247837067">
  <ele>290.838379</ele>
  <time>2011-11-12T06:39:57Z</time>
  <speed>1.130000</speed>
</trkpt>
<trkpt lat="32.866695404" lon="35.247879028">
  <ele>291.893066</ele>
  <time>2011-11-12T06:40:00Z</time>
  <speed>1.230000</speed>
</trkpt>
<trkpt lat="32.866680145" lon="35.247924805">
  <ele>292.369629</ele>
  <time>2011-11-12T06:40:03Z</time>
  <speed>1.460000</speed>
</trkpt>
<trkpt lat="32.866668701" lon="35.247959137">
  <ele>292.650879</ele>
  <time>2011-11-12T06:40:05Z</time>
  <speed>1.460000</speed>
</trkpt>
<trkpt lat="32.866649628" lon="35.247985840">
  <ele>291.932129</ele>
  <time>2011-11-12T06:40:08Z</time>
  <speed>1.400000</speed>
</trkpt>
<trkpt lat="32.866634369" lon="35.248016357">
  <ele>292.814941</ele>
  <time>2011-11-12T06:40:10Z</time>
  <speed>1.350000</speed>
</trkpt>
<trkpt lat="32.866619110" lon="35.248046875">
  <ele>293.150879</ele>
  <time>2011-11-12T06:40:12Z</time>
  <speed>1.640000</speed>
</trkpt>
<trkpt lat="32.866592407" lon="35.248077393">
  <ele>294.877441</ele>
  <time>2011-11-12T06:40:15Z</time>
  <speed>1.250000</speed>
</trkpt>
<trkpt lat="32.866577148" lon="35.248107910">
  <ele>296.471191</ele>
  <time>2011-11-12T06:40:19Z</time>
  <speed>1.640000</speed>
</trkpt>
<trkpt lat="32.866546631" lon="35.248130798">
  <ele>297.104004</ele>
  <time>2011-11-12T06:40:21Z</time>
  <speed>1.690000</speed>
</trkpt>
<trkpt lat="32.866523743" lon="35.248153687">
  <ele>298.049316</ele>
  <time>2011-11-12T06:40:23Z</time>
  <speed>1.070000</speed>
</trkpt>
<trkpt lat="32.866489410" lon="35.248165131">
  <ele>298.447754</ele>
  <time>2011-11-12T06:40:26Z</time>
  <speed>1.360000</speed>
</trkpt>
<trkpt lat="32.866458893" lon="35.248180389">
  <ele>298.854004</ele>
  <time>2011-11-12T06:40:28Z</time>
  <speed>1.780000</speed>
</trkpt>
<trkpt lat="32.866424561" lon="35.248199463">
  <ele>299.010254</ele>
  <time>2011-11-12T06:40:30Z</time>
  <speed>2.120000</speed>
</trkpt>
<trkpt lat="32.866374969" lon="35.248226166">
  <ele>298.939941</ele>
  <time>2011-11-12T06:40:32Z</time>
  <speed>2.980000</speed>
</trkpt>
<trkpt lat="32.866344452" lon="35.248237610">
  <ele>298.877441</ele>
  <time>2011-11-12T06:40:33Z</time>
  <speed>3.480000</speed>
</trkpt>
<trkpt lat="32.866317749" lon="35.248260498">
  <ele>299.041504</ele>
  <time>2011-11-12T06:40:34Z</time>
  <speed>3.560000</speed>
</trkpt>
<trkpt lat="32.866283417" lon="35.248271942">
  <ele>299.018066</ele>
  <time>2011-11-12T06:40:35Z</time>
  <speed>3.830000</speed>
</trkpt>
<trkpt lat="32.866249084" lon="35.248294830">
  <ele>299.158691</ele>
  <time>2011-11-12T06:40:36Z</time>
  <speed>4.190000</speed>
</trkpt>
<trkpt lat="32.866214752" lon="35.248317719">
  <ele>299.150879</ele>
  <time>2011-11-12T06:40:37Z</time>
  <speed>3.760000</speed>
</trkpt>
<trkpt lat="32.866176605" lon="35.248352051">
  <ele>298.893066</ele>
  <time>2011-11-12T06:40:38Z</time>
  <speed>4.400000</speed>
</trkpt>
<trkpt lat="32.866149902" lon="35.248382568">
  <ele>298.822754</ele>
  <time>2011-11-12T06:40:39Z</time>
  <speed>3.780000</speed>
</trkpt>
<trkpt lat="32.866127014" lon="35.248401642">
  <ele>299.088379</ele>
  <time>2011-11-12T06:40:40Z</time>
  <speed>3.270000</speed>
</trkpt>
<trkpt lat="32.866100311" lon="35.248462677">
  <ele>299.838379</ele>
  <time>2011-11-12T06:40:41Z</time>
  <speed>2.690000</speed>
</trkpt>
<trkpt lat="32.866092682" lon="35.248493195">
  <ele>299.854004</ele>
  <time>2011-11-12T06:40:42Z</time>
  <speed>2.060000</speed>
</trkpt>
<trkpt lat="32.866085052" lon="35.248531342">
  <ele>299.385254</ele>
  <time>2011-11-12T06:40:44Z</time>
  <speed>2.040000</speed>
</trkpt>
<trkpt lat="32.866081238" lon="35.248573303">
  <ele>300.064941</ele>
  <time>2011-11-12T06:40:46Z</time>
  <speed>1.530000</speed>
</trkpt>
<trkpt lat="32.866065979" lon="35.248615265">
  <ele>300.463379</ele>
  <time>2011-11-12T06:40:48Z</time>
  <speed>1.570000</speed>
</trkpt>
<trkpt lat="32.866065979" lon="35.248649597">
  <ele>300.932129</ele>
  <time>2011-11-12T06:40:50Z</time>
  <speed>1.480000</speed>
</trkpt>
<trkpt lat="32.866054535" lon="35.248680115">
  <ele>301.611816</ele>
  <time>2011-11-12T06:40:52Z</time>
  <speed>1.380000</speed>
</trkpt>
<trkpt lat="32.866027832" lon="35.248710632">
  <ele>301.783691</ele>
  <time>2011-11-12T06:40:55Z</time>
  <speed>1.590000</speed>
</trkpt>
<trkpt lat="32.865997314" lon="35.248722076">
  <ele>302.455566</ele>
  <time>2011-11-12T06:40:58Z</time>
  <speed>1.130000</speed>
</trkpt>
<trkpt lat="32.865966797" lon="35.248722076">
  <ele>303.377441</ele>
  <time>2011-11-12T06:41:01Z</time>
  <speed>1.550000</speed>
</trkpt>
<trkpt lat="32.865936279" lon="35.248733521">
  <ele>303.604004</ele>
  <time>2011-11-12T06:41:03Z</time>
  <speed>1.590000</speed>
</trkpt>
<trkpt lat="32.865901947" lon="35.248752594">
  <ele>304.018066</ele>
  <time>2011-11-12T06:41:05Z</time>
  <speed>1.560000</speed>
</trkpt>
<trkpt lat="32.865875244" lon="35.248760223">
  <ele>304.166504</ele>
  <time>2011-11-12T06:41:07Z</time>
  <speed>1.340000</speed>
</trkpt>
<trkpt lat="32.865840912" lon="35.248771667">
  <ele>305.010254</ele>
  <time>2011-11-12T06:41:10Z</time>
  <speed>1.560000</speed>
</trkpt>
<trkpt lat="32.865810394" lon="35.248786926">
  <ele>305.322754</ele>
  <time>2011-11-12T06:41:12Z</time>
  <speed>1.300000</speed>
</trkpt>
<trkpt lat="32.865768433" lon="35.248798370">
  <ele>305.174316</ele>
  <time>2011-11-12T06:41:15Z</time>
  <speed>1.510000</speed>
</trkpt>
<trkpt lat="32.865737915" lon="35.248809814">
  <ele>305.432129</ele>
  <time>2011-11-12T06:41:17Z</time>
  <speed>1.560000</speed>
</trkpt>
<trkpt lat="32.865699768" lon="35.248809814">
  <ele>306.494629</ele>
  <time>2011-11-12T06:41:20Z</time>
  <speed>1.380000</speed>
</trkpt>
<trkpt lat="32.865669250" lon="35.248817444">
  <ele>305.307129</ele>
  <time>2011-11-12T06:41:23Z</time>
  <speed>1.570000</speed>
</trkpt>
<trkpt lat="32.865638733" lon="35.248813629">
  <ele>305.643066</ele>
  <time>2011-11-12T06:41:25Z</time>
  <speed>1.460000</speed>
</trkpt>
<trkpt lat="32.865600586" lon="35.248821259">
  <ele>306.471191</ele>
  <time>2011-11-12T06:41:28Z</time>
  <speed>1.310000</speed>
</trkpt>
<trkpt lat="32.865570068" lon="35.248844147">
  <ele>306.635254</ele>
  <time>2011-11-12T06:41:30Z</time>
  <speed>1.680000</speed>
</trkpt>
<trkpt lat="32.865539551" lon="35.248867035">
  <ele>306.533691</ele>
  <time>2011-11-12T06:41:32Z</time>
  <speed>1.500000</speed>
</trkpt>
<trkpt lat="32.865509033" lon="35.248882294">
  <ele>305.955566</ele>
  <time>2011-11-12T06:41:34Z</time>
  <speed>1.530000</speed>
</trkpt>
<trkpt lat="32.865482330" lon="35.248882294">
  <ele>306.838379</ele>
  <time>2011-11-12T06:41:36Z</time>
  <speed>1.520000</speed>
</trkpt>
<trkpt lat="32.865451813" lon="35.248882294">
  <ele>308.369629</ele>
  <time>2011-11-12T06:41:38Z</time>
  <speed>1.590000</speed>
</trkpt>
<trkpt lat="32.865413666" lon="35.248878479">
  <ele>308.908691</ele>
  <time>2011-11-12T06:41:41Z</time>
  <speed>1.420000</speed>
</trkpt>
<trkpt lat="32.865390778" lon="35.248859406">
  <ele>309.791504</ele>
  <time>2011-11-12T06:41:43Z</time>
  <speed>1.340000</speed>
</trkpt>
<trkpt lat="32.865356445" lon="35.248863220">
  <ele>309.072754</ele>
  <time>2011-11-12T06:41:46Z</time>
  <speed>1.380000</speed>
</trkpt>
<trkpt lat="32.865325928" lon="35.248870850">
  <ele>309.994629</ele>
  <time>2011-11-12T06:41:48Z</time>
  <speed>1.450000</speed>
</trkpt>
<trkpt lat="32.865295410" lon="35.248870850">
  <ele>310.900879</ele>
  <time>2011-11-12T06:41:50Z</time>
  <speed>1.560000</speed>
</trkpt>
<trkpt lat="32.865257263" lon="35.248870850">
  <ele>310.447754</ele>
  <time>2011-11-12T06:41:53Z</time>
  <speed>1.420000</speed>
</trkpt>
<trkpt lat="32.865234375" lon="35.248859406">
  <ele>311.307129</ele>
  <time>2011-11-12T06:41:55Z</time>
  <speed>1.290000</speed>
</trkpt>
<trkpt lat="32.865200043" lon="35.248855591">
  <ele>309.932129</ele>
  <time>2011-11-12T06:41:58Z</time>
  <speed>1.340000</speed>
</trkpt>
<trkpt lat="32.865169525" lon="35.248851776">
  <ele>310.299316</ele>
  <time>2011-11-12T06:42:00Z</time>
  <speed>1.410000</speed>
</trkpt>
<trkpt lat="32.865135193" lon="35.248847961">
  <ele>309.893066</ele>
  <time>2011-11-12T06:42:03Z</time>
  <speed>1.220000</speed>
</trkpt>
<trkpt lat="32.865100861" lon="35.248847961">
  <ele>310.111816</ele>
  <time>2011-11-12T06:42:06Z</time>
  <speed>1.340000</speed>
</trkpt>
<trkpt lat="32.865070343" lon="35.248859406">
  <ele>311.229004</ele>
  <time>2011-11-12T06:42:08Z</time>
  <speed>1.270000</speed>
</trkpt>
<trkpt lat="32.865032196" lon="35.248855591">
  <ele>310.752441</ele>
  <time>2011-11-12T06:42:11Z</time>
  <speed>1.180000</speed>
</trkpt>
<trkpt lat="32.864994049" lon="35.248859406">
  <ele>311.479004</ele>
  <time>2011-11-12T06:42:14Z</time>
  <speed>1.520000</speed>
</trkpt>
<trkpt lat="32.864955902" lon="35.248859406">
  <ele>312.096191</ele>
  <time>2011-11-12T06:42:17Z</time>
  <speed>1.510000</speed>
</trkpt>
<trkpt lat="32.864929199" lon="35.248867035">
  <ele>313.111816</ele>
  <time>2011-11-12T06:42:19Z</time>
  <speed>1.240000</speed>
</trkpt>
<trkpt lat="32.864902496" lon="35.248874664">
  <ele>313.166504</ele>
  <time>2011-11-12T06:42:21Z</time>
  <speed>1.070000</speed>
</trkpt>
<trkpt lat="32.864871979" lon="35.248893738">
  <ele>313.838379</ele>
  <time>2011-11-12T06:42:23Z</time>
  <speed>1.560000</speed>
</trkpt>
<trkpt lat="32.864845276" lon="35.248908997">
  <ele>314.111816</ele>
  <time>2011-11-12T06:42:25Z</time>
  <speed>1.510000</speed>
</trkpt>
<trkpt lat="32.864814758" lon="35.248924255">
  <ele>314.049316</ele>
  <time>2011-11-12T06:42:27Z</time>
  <speed>1.360000</speed>
</trkpt>
<trkpt lat="32.864776611" lon="35.248931885">
  <ele>314.252441</ele>
  <time>2011-11-12T06:42:30Z</time>
  <speed>1.770000</speed>
</trkpt>
<trkpt lat="32.864742279" lon="35.248958588">
  <ele>313.924316</ele>
  <time>2011-11-12T06:42:32Z</time>
  <speed>2.360000</speed>
</trkpt>
<trkpt lat="32.864711761" lon="35.248981476">
  <ele>314.002441</ele>
  <time>2011-11-12T06:42:34Z</time>
  <speed>1.510000</speed>
</trkpt>
<trkpt lat="32.864685059" lon="35.248996735">
  <ele>314.854004</ele>
  <time>2011-11-12T06:42:36Z</time>
  <speed>1.580000</speed>
</trkpt>
<trkpt lat="32.864643097" lon="35.249004364">
  <ele>316.221191</ele>
  <time>2011-11-12T06:42:38Z</time>
  <speed>1.680000</speed>
</trkpt>
<trkpt lat="32.864608765" lon="35.249000549">
  <ele>315.791504</ele>
  <time>2011-11-12T06:42:40Z</time>
  <speed>2.230000</speed>
</trkpt>
<trkpt lat="32.864562988" lon="35.249019623">
  <ele>316.143066</ele>
  <time>2011-11-12T06:42:42Z</time>
  <speed>2.610000</speed>
</trkpt>
<trkpt lat="32.864536285" lon="35.249031067">
  <ele>316.338379</ele>
  <time>2011-11-12T06:42:43Z</time>
  <speed>3.020000</speed>
</trkpt>
<trkpt lat="32.864509583" lon="35.249042511">
  <ele>316.197754</ele>
  <time>2011-11-12T06:42:44Z</time>
  <speed>3.340000</speed>
</trkpt>
<trkpt lat="32.864475250" lon="35.249050140">
  <ele>316.400879</ele>
  <time>2011-11-12T06:42:45Z</time>
  <speed>3.480000</speed>
</trkpt>
<trkpt lat="32.864440918" lon="35.249050140">
  <ele>316.604004</ele>
  <time>2011-11-12T06:42:46Z</time>
  <speed>3.850000</speed>
</trkpt>
<trkpt lat="32.864410400" lon="35.249057770">
  <ele>316.799316</ele>
  <time>2011-11-12T06:42:47Z</time>
  <speed>3.850000</speed>
</trkpt>
<trkpt lat="32.864376068" lon="35.249065399">
  <ele>316.643066</ele>
  <time>2011-11-12T06:42:48Z</time>
  <speed>3.770000</speed>
</trkpt>
<trkpt lat="32.864345551" lon="35.249073029">
  <ele>317.049316</ele>
  <time>2011-11-12T06:42:49Z</time>
  <speed>3.230000</speed>
</trkpt>
<trkpt lat="32.864315033" lon="35.249088287">
  <ele>317.025879</ele>
  <time>2011-11-12T06:42:50Z</time>
  <speed>3.110000</speed>
</trkpt>
<trkpt lat="32.864269257" lon="35.249092102">
  <ele>315.814941</ele>
  <time>2011-11-12T06:42:52Z</time>
  <speed>1.500000</speed>
</trkpt>
<trkpt lat="32.864292145" lon="35.249076843">
  <ele>314.158691</ele>
  <time>2011-11-12T06:43:00Z</time>
  <speed>0.150000</speed>
</trkpt>
<trkpt lat="32.864311218" lon="35.249088287">
  <ele>311.768066</ele>
  <time>2011-11-12T06:43:05Z</time>
  <speed>0.160000</speed>
</trkpt>
<trkpt lat="32.864315033" lon="35.249084473">
  <ele>308.189941</ele>
  <time>2011-11-12T06:43:13Z</time>
  <speed>0.120000</speed>
</trkpt>
<trkpt lat="32.864295959" lon="35.249069214">
  <ele>310.541504</ele>
  <time>2011-11-12T06:43:16Z</time>
  <speed>0.080000</speed>
</trkpt>
<trkpt lat="32.864334106" lon="35.249050140">
  <ele>309.400879</ele>
  <time>2011-11-12T06:43:19Z</time>
  <speed>0.040000</speed>
</trkpt>
<trkpt lat="32.864353180" lon="35.249080658">
  <ele>307.322754</ele>
  <time>2011-11-12T06:43:22Z</time>
  <speed>0.040000</speed>
</trkpt>
<trkpt lat="32.864372253" lon="35.249088287">
  <ele>304.986816</ele>
  <time>2011-11-12T06:43:25Z</time>
  <speed>0.050000</speed>
</trkpt>
<trkpt lat="32.864356995" lon="35.249076843">
  <ele>307.869629</ele>
  <time>2011-11-12T06:43:42Z</time>
</trkpt>
<trkpt lat="32.864322662" lon="35.249073029">
  <ele>312.541504</ele>
  <time>2011-11-12T06:43:55Z</time>
</trkpt>
<trkpt lat="32.864295959" lon="35.249069214">
  <ele>315.838379</ele>
  <time>2011-11-12T06:43:57Z</time>
</trkpt>
<trkpt lat="32.864303589" lon="35.249057770">
  <ele>318.846191</ele>
  <time>2011-11-12T06:44:03Z</time>
</trkpt>
<trkpt lat="32.864307404" lon="35.249027252">
  <ele>320.064941</ele>
  <time>2011-11-12T06:44:08Z</time>
</trkpt>
<trkpt lat="32.864334106" lon="35.249000549">
  <ele>320.057129</ele>
  <time>2011-11-12T06:47:07Z</time>
  <speed>3.270000</speed>
</trkpt>
<trkpt lat="32.864356995" lon="35.248962402">
  <ele>319.541504</ele>
  <time>2011-11-12T06:47:08Z</time>
  <speed>4.990000</speed>
</trkpt>
<trkpt lat="32.864387512" lon="35.248912811">
  <ele>318.939941</ele>
  <time>2011-11-12T06:47:09Z</time>
  <speed>5.020000</speed>
</trkpt>
<trkpt lat="32.864421844" lon="35.248874664">
  <ele>318.229004</ele>
  <time>2011-11-12T06:47:10Z</time>
  <speed>5.210000</speed>
</trkpt>
<trkpt lat="32.864456177" lon="35.248828888">
  <ele>317.557129</ele>
  <time>2011-11-12T06:47:11Z</time>
  <speed>5.190000</speed>
</trkpt>
<trkpt lat="32.864494324" lon="35.248783112">
  <ele>316.627441</ele>
  <time>2011-11-12T06:47:12Z</time>
  <speed>5.670000</speed>
</trkpt>
<trkpt lat="32.864524841" lon="35.248733521">
  <ele>315.768066</ele>
  <time>2011-11-12T06:47:13Z</time>
  <speed>5.520000</speed>
</trkpt>
<trkpt lat="32.864562988" lon="35.248695374">
  <ele>315.244629</ele>
  <time>2011-11-12T06:47:14Z</time>
  <speed>5.010000</speed>
</trkpt>
<trkpt lat="32.864604950" lon="35.248672485">
  <ele>314.111816</ele>
  <time>2011-11-12T06:47:15Z</time>
  <speed>5.090000</speed>
</trkpt>
<trkpt lat="32.864643097" lon="35.248645782">
  <ele>312.541504</ele>
  <time>2011-11-12T06:47:16Z</time>
  <speed>4.910000</speed>
</trkpt>
<trkpt lat="32.864665985" lon="35.248615265">
  <ele>311.861816</ele>
  <time>2011-11-12T06:47:17Z</time>
  <speed>2.950000</speed>
</trkpt>
<trkpt lat="32.864665985" lon="35.248580933">
  <ele>310.854004</ele>
  <time>2011-11-12T06:47:18Z</time>
  <speed>3.440000</speed>
</trkpt>
<trkpt lat="32.864643097" lon="35.248550415">
  <ele>310.166504</ele>
  <time>2011-11-12T06:47:19Z</time>
  <speed>3.980000</speed>
</trkpt>
<trkpt lat="32.864612579" lon="35.248550415">
  <ele>309.244629</ele>
  <time>2011-11-12T06:47:20Z</time>
  <speed>3.550000</speed>
</trkpt>
<trkpt lat="32.864574432" lon="35.248561859">
  <ele>308.166504</ele>
  <time>2011-11-12T06:47:21Z</time>
  <speed>3.920000</speed>
</trkpt>
<trkpt lat="32.864547729" lon="35.248569489">
  <ele>307.104004</ele>
  <time>2011-11-12T06:47:22Z</time>
  <speed>3.030000</speed>
</trkpt>
<trkpt lat="32.864521027" lon="35.248584747">
  <ele>306.424316</ele>
  <time>2011-11-12T06:47:23Z</time>
  <speed>3.020000</speed>
</trkpt>
<trkpt lat="32.864490509" lon="35.248592377">
  <ele>305.588379</ele>
  <time>2011-11-12T06:47:24Z</time>
  <speed>3.270000</speed>
</trkpt>
<trkpt lat="32.864459991" lon="35.248592377">
  <ele>304.846191</ele>
  <time>2011-11-12T06:47:25Z</time>
  <speed>3.160000</speed>
</trkpt>
<trkpt lat="32.864444733" lon="35.248558044">
  <ele>303.096191</ele>
  <time>2011-11-12T06:47:27Z</time>
  <speed>2.860000</speed>
</trkpt>
<trkpt lat="32.864456177" lon="35.248527527">
  <ele>302.869629</ele>
  <time>2011-11-12T06:47:28Z</time>
  <speed>3.000000</speed>
</trkpt>
<trkpt lat="32.864475250" lon="35.248500824">
  <ele>302.346191</ele>
  <time>2011-11-12T06:47:29Z</time>
  <speed>3.440000</speed>
</trkpt>
<trkpt lat="32.864509583" lon="35.248477936">
  <ele>301.674316</ele>
  <time>2011-11-12T06:47:30Z</time>
  <speed>4.290000</speed>
</trkpt>
<trkpt lat="32.864543915" lon="35.248462677">
  <ele>301.111816</ele>
  <time>2011-11-12T06:47:31Z</time>
  <speed>3.810000</speed>
</trkpt>
<trkpt lat="32.864582062" lon="35.248451233">
  <ele>300.650879</ele>
  <time>2011-11-12T06:47:32Z</time>
  <speed>4.280000</speed>
</trkpt>
<trkpt lat="32.864624023" lon="35.248447418">
  <ele>300.127441</ele>
  <time>2011-11-12T06:47:33Z</time>
  <speed>4.890000</speed>
</trkpt>
<trkpt lat="32.864662170" lon="35.248455048">
  <ele>300.119629</ele>
  <time>2011-11-12T06:47:34Z</time>
  <speed>3.730000</speed>
</trkpt>
<trkpt lat="32.864692688" lon="35.248458862">
  <ele>298.986816</ele>
  <time>2011-11-12T06:47:35Z</time>
  <speed>2.900000</speed>
</trkpt>
<trkpt lat="32.864738464" lon="35.248394012">
  <ele>298.604004</ele>
  <time>2011-11-12T06:47:37Z</time>
  <speed>3.080000</speed>
</trkpt>
<trkpt lat="32.864734650" lon="35.248348236">
  <ele>297.783691</ele>
  <time>2011-11-12T06:47:38Z</time>
  <speed>3.780000</speed>
</trkpt>
<trkpt lat="32.864723206" lon="35.248302460">
  <ele>296.994629</ele>
  <time>2011-11-12T06:47:39Z</time>
  <speed>4.120000</speed>
</trkpt>
<trkpt lat="32.864707947" lon="35.248245239">
  <ele>296.549316</ele>
  <time>2011-11-12T06:47:40Z</time>
  <speed>4.830000</speed>
</trkpt>
<trkpt lat="32.864685059" lon="35.248188019">
  <ele>295.119629</ele>
  <time>2011-11-12T06:47:41Z</time>
  <speed>5.110000</speed>
</trkpt>
<trkpt lat="32.864662170" lon="35.248146057">
  <ele>294.502441</ele>
  <time>2011-11-12T06:47:42Z</time>
  <speed>3.990000</speed>
</trkpt>
<trkpt lat="32.864643097" lon="35.248115540">
  <ele>293.861816</ele>
  <time>2011-11-12T06:47:43Z</time>
  <speed>3.220000</speed>
</trkpt>
<trkpt lat="32.864616394" lon="35.248096466">
  <ele>293.799316</ele>
  <time>2011-11-12T06:47:44Z</time>
  <speed>2.780000</speed>
</trkpt>
<trkpt lat="32.864578247" lon="35.248065948">
  <ele>293.736816</ele>
  <time>2011-11-12T06:47:46Z</time>
  <speed>2.430000</speed>
</trkpt>
<trkpt lat="32.864532471" lon="35.248035431">
  <ele>292.814941</ele>
  <time>2011-11-12T06:47:48Z</time>
  <speed>3.220000</speed>
</trkpt>
<trkpt lat="32.864509583" lon="35.248012543">
  <ele>292.104004</ele>
  <time>2011-11-12T06:47:49Z</time>
  <speed>3.630000</speed>
</trkpt>
<trkpt lat="32.864486694" lon="35.247985840">
  <ele>291.377441</ele>
  <time>2011-11-12T06:47:50Z</time>
  <speed>3.790000</speed>
</trkpt>
<trkpt lat="32.864456177" lon="35.247955322">
  <ele>291.244629</ele>
  <time>2011-11-12T06:47:51Z</time>
  <speed>3.690000</speed>
</trkpt>
<trkpt lat="32.864429474" lon="35.247928619">
  <ele>290.416504</ele>
  <time>2011-11-12T06:47:52Z</time>
  <speed>3.700000</speed>
</trkpt>
<trkpt lat="32.864395142" lon="35.247909546">
  <ele>289.619629</ele>
  <time>2011-11-12T06:47:53Z</time>
  <speed>4.240000</speed>
</trkpt>
<trkpt lat="32.864356995" lon="35.247909546">
  <ele>288.705566</ele>
  <time>2011-11-12T06:47:54Z</time>
  <speed>4.550000</speed>
</trkpt>
<trkpt lat="32.864295959" lon="35.247905731">
  <ele>288.471191</ele>
  <time>2011-11-12T06:47:55Z</time>
  <speed>5.620000</speed>
</trkpt>
<trkpt lat="32.864253998" lon="35.247898102">
  <ele>287.729004</ele>
  <time>2011-11-12T06:47:56Z</time>
  <speed>4.290000</speed>
</trkpt>
<trkpt lat="32.864212036" lon="35.247886658">
  <ele>287.432129</ele>
  <time>2011-11-12T06:47:57Z</time>
  <speed>3.930000</speed>
</trkpt>
<trkpt lat="32.864173889" lon="35.247871399">
  <ele>286.244629</ele>
  <time>2011-11-12T06:47:58Z</time>
  <speed>3.600000</speed>
</trkpt>
<trkpt lat="32.864143372" lon="35.247863770">
  <ele>285.596191</ele>
  <time>2011-11-12T06:47:59Z</time>
  <speed>3.410000</speed>
</trkpt>
<trkpt lat="32.864109039" lon="35.247856140">
  <ele>285.479004</ele>
  <time>2011-11-12T06:48:00Z</time>
  <speed>4.180000</speed>
</trkpt>
<trkpt lat="32.864055634" lon="35.247840881">
  <ele>284.924316</ele>
  <time>2011-11-12T06:48:01Z</time>
  <speed>5.480000</speed>
</trkpt>
<trkpt lat="32.864002228" lon="35.247844696">
  <ele>284.361816</ele>
  <time>2011-11-12T06:48:02Z</time>
  <speed>5.110000</speed>
</trkpt>
<trkpt lat="32.863952637" lon="35.247844696">
  <ele>283.494629</ele>
  <time>2011-11-12T06:48:03Z</time>
  <speed>5.280000</speed>
</trkpt>
<trkpt lat="32.863903046" lon="35.247833252">
  <ele>282.400879</ele>
  <time>2011-11-12T06:48:04Z</time>
  <speed>5.230000</speed>
</trkpt>
<trkpt lat="32.863861084" lon="35.247821808">
  <ele>281.400879</ele>
  <time>2011-11-12T06:48:05Z</time>
  <speed>5.150000</speed>
</trkpt>
<trkpt lat="32.863819122" lon="35.247802734">
  <ele>280.408691</ele>
  <time>2011-11-12T06:48:06Z</time>
  <speed>4.510000</speed>
</trkpt>
<trkpt lat="32.863777161" lon="35.247783661">
  <ele>281.010254</ele>
  <time>2011-11-12T06:48:07Z</time>
  <speed>3.870000</speed>
</trkpt>
<trkpt lat="32.863746643" lon="35.247756958">
  <ele>280.768066</ele>
  <time>2011-11-12T06:48:08Z</time>
  <speed>4.270000</speed>
</trkpt>
<trkpt lat="32.863727570" lon="35.247726440">
  <ele>279.713379</ele>
  <time>2011-11-12T06:48:09Z</time>
  <speed>2.730000</speed>
</trkpt>
<trkpt lat="32.863723755" lon="35.247669220">
  <ele>278.674316</ele>
  <time>2011-11-12T06:48:11Z</time>
  <speed>2.720000</speed>
</trkpt>
<trkpt lat="32.863739014" lon="35.247623444">
  <ele>278.010254</ele>
  <time>2011-11-12T06:48:13Z</time>
  <speed>1.850000</speed>
</trkpt>
<trkpt lat="32.863769531" lon="35.247608185">
  <ele>277.252441</ele>
  <time>2011-11-12T06:48:16Z</time>
  <speed>1.450000</speed>
</trkpt>
<trkpt lat="32.863811493" lon="35.247600555">
  <ele>276.400879</ele>
  <time>2011-11-12T06:48:18Z</time>
  <speed>1.490000</speed>
</trkpt>
<trkpt lat="32.863838196" lon="35.247589111">
  <ele>276.486816</ele>
  <time>2011-11-12T06:48:19Z</time>
  <speed>2.230000</speed>
</trkpt>
<trkpt lat="32.863872528" lon="35.247570038">
  <ele>276.447754</ele>
  <time>2011-11-12T06:48:21Z</time>
  <speed>1.980000</speed>
</trkpt>
<trkpt lat="32.863903046" lon="35.247535706">
  <ele>276.963379</ele>
  <time>2011-11-12T06:48:23Z</time>
  <speed>2.460000</speed>
</trkpt>
<trkpt lat="32.863929749" lon="35.247478485">
  <ele>276.924316</ele>
  <time>2011-11-12T06:48:25Z</time>
  <speed>3.550000</speed>
</trkpt>
<trkpt lat="32.863948822" lon="35.247444153">
  <ele>276.525879</ele>
  <time>2011-11-12T06:48:26Z</time>
  <speed>3.630000</speed>
</trkpt>
<trkpt lat="32.863956451" lon="35.247402191">
  <ele>276.432129</ele>
  <time>2011-11-12T06:48:27Z</time>
  <speed>4.020000</speed>
</trkpt>
<trkpt lat="32.863960266" lon="35.247356415">
  <ele>276.432129</ele>
  <time>2011-11-12T06:48:28Z</time>
  <speed>4.060000</speed>
</trkpt>
<trkpt lat="32.863960266" lon="35.247310638">
  <ele>276.213379</ele>
  <time>2011-11-12T06:48:29Z</time>
  <speed>4.190000</speed>
</trkpt>
<trkpt lat="32.863956451" lon="35.247264862">
  <ele>275.682129</ele>
  <time>2011-11-12T06:48:30Z</time>
  <speed>4.030000</speed>
</trkpt>
<trkpt lat="32.863945007" lon="35.247226715">
  <ele>275.463379</ele>
  <time>2011-11-12T06:48:31Z</time>
  <speed>3.680000</speed>
</trkpt>
<trkpt lat="32.863914490" lon="35.247200012">
  <ele>274.955566</ele>
  <time>2011-11-12T06:48:33Z</time>
  <speed>1.630000</speed>
</trkpt>
<trkpt lat="32.863864899" lon="35.247211456">
  <ele>273.846191</ele>
  <time>2011-11-12T06:48:35Z</time>
  <speed>2.460000</speed>
</trkpt>
<trkpt lat="32.863830566" lon="35.247211456">
  <ele>271.729004</ele>
  <time>2011-11-12T06:48:37Z</time>
  <speed>1.640000</speed>
</trkpt>
<trkpt lat="32.863815308" lon="35.247169495">
  <ele>271.158691</ele>
  <time>2011-11-12T06:48:39Z</time>
  <speed>2.610000</speed>
</trkpt>
<trkpt lat="32.863815308" lon="35.247135162">
  <ele>270.604004</ele>
  <time>2011-11-12T06:48:40Z</time>
  <speed>3.340000</speed>
</trkpt>
<trkpt lat="32.863830566" lon="35.247089386">
  <ele>269.369629</ele>
  <time>2011-11-12T06:48:41Z</time>
  <speed>4.660000</speed>
</trkpt>
<trkpt lat="32.863849640" lon="35.247035980">
  <ele>268.689941</ele>
  <time>2011-11-12T06:48:42Z</time>
  <speed>6.220000</speed>
</trkpt>
<trkpt lat="32.863887787" lon="35.246986389">
  <ele>268.205566</ele>
  <time>2011-11-12T06:48:43Z</time>
  <speed>5.660000</speed>
</trkpt>
<trkpt lat="32.863922119" lon="35.246963501">
  <ele>267.893066</ele>
  <time>2011-11-12T06:48:44Z</time>
  <speed>5.010000</speed>
</trkpt>
<trkpt lat="32.863960266" lon="35.246955872">
  <ele>267.588379</ele>
  <time>2011-11-12T06:48:46Z</time>
  <speed>1.650000</speed>
</trkpt>
<trkpt lat="32.863990784" lon="35.246944427">
  <ele>266.111816</ele>
  <time>2011-11-12T06:48:48Z</time>
  <speed>2.140000</speed>
</trkpt>
<trkpt lat="32.864021301" lon="35.246921539">
  <ele>266.135254</ele>
  <time>2011-11-12T06:48:49Z</time>
  <speed>1.720000</speed>
</trkpt>
<trkpt lat="32.864013672" lon="35.246891022">
  <ele>265.439941</ele>
  <time>2011-11-12T06:48:51Z</time>
  <speed>1.860000</speed>
</trkpt>
<trkpt lat="32.863990784" lon="35.246875763">
  <ele>266.189941</ele>
  <time>2011-11-12T06:48:52Z</time>
  <speed>2.750000</speed>
</trkpt>
<trkpt lat="32.863975525" lon="35.246841431">
  <ele>265.979004</ele>
  <time>2011-11-12T06:48:53Z</time>
  <speed>3.060000</speed>
</trkpt>
<trkpt lat="32.863967896" lon="35.246795654">
  <ele>265.854004</ele>
  <time>2011-11-12T06:48:54Z</time>
  <speed>3.530000</speed>
</trkpt>
<trkpt lat="32.863967896" lon="35.246753693">
  <ele>265.252441</ele>
  <time>2011-11-12T06:48:55Z</time>
  <speed>3.610000</speed>
</trkpt>
<trkpt lat="32.863979340" lon="35.246704102">
  <ele>264.283691</ele>
  <time>2011-11-12T06:48:56Z</time>
  <speed>4.060000</speed>
</trkpt>
<trkpt lat="32.864002228" lon="35.246669769">
  <ele>263.479004</ele>
  <time>2011-11-12T06:48:57Z</time>
  <speed>4.310000</speed>
</trkpt>
<trkpt lat="32.864048004" lon="35.246643066">
  <ele>261.729004</ele>
  <time>2011-11-12T06:48:58Z</time>
  <speed>4.630000</speed>
</trkpt>
<trkpt lat="32.864082336" lon="35.246620178">
  <ele>261.002441</ele>
  <time>2011-11-12T06:48:59Z</time>
  <speed>4.400000</speed>
</trkpt>
<trkpt lat="32.864112854" lon="35.246604919">
  <ele>259.900879</ele>
  <time>2011-11-12T06:49:00Z</time>
  <speed>3.410000</speed>
</trkpt>
<trkpt lat="32.864147186" lon="35.246597290">
  <ele>258.572754</ele>
  <time>2011-11-12T06:49:01Z</time>
  <speed>4.300000</speed>
</trkpt>
<trkpt lat="32.864185333" lon="35.246589661">
  <ele>258.143066</ele>
  <time>2011-11-12T06:49:02Z</time>
  <speed>4.820000</speed>
</trkpt>
<trkpt lat="32.864219666" lon="35.246559143">
  <ele>256.846191</ele>
  <time>2011-11-12T06:49:03Z</time>
  <speed>3.530000</speed>
</trkpt>
<trkpt lat="32.864284515" lon="35.246547699">
  <ele>254.833252</ele>
  <time>2011-11-12T06:49:04Z</time>
  <speed>6.120000</speed>
</trkpt>
<trkpt lat="32.864326477" lon="35.246517181">
  <ele>254.020752</ele>
  <time>2011-11-12T06:49:05Z</time>
  <speed>6.030000</speed>
</trkpt>
<trkpt lat="32.864379883" lon="35.246486664">
  <ele>252.227783</ele>
  <time>2011-11-12T06:49:06Z</time>
  <speed>4.190000</speed>
</trkpt>
<trkpt lat="32.864456177" lon="35.246429443">
  <ele>252.708252</ele>
  <time>2011-11-12T06:49:07Z</time>
  <speed>2.410000</speed>
</trkpt>
<trkpt lat="32.864440918" lon="35.246379852">
  <ele>251.278564</ele>
  <time>2011-11-12T06:49:09Z</time>
  <speed>2.940000</speed>
</trkpt>
<trkpt lat="32.864414215" lon="35.246360779">
  <ele>250.594971</ele>
  <time>2011-11-12T06:49:10Z</time>
  <speed>3.640000</speed>
</trkpt>
<trkpt lat="32.864398956" lon="35.246322632">
  <ele>250.134033</ele>
  <time>2011-11-12T06:49:11Z</time>
  <speed>4.700000</speed>
</trkpt>
<trkpt lat="32.864376068" lon="35.246284485">
  <ele>249.266846</ele>
  <time>2011-11-12T06:49:12Z</time>
  <speed>4.910000</speed>
</trkpt>
<trkpt lat="32.864349365" lon="35.246242523">
  <ele>248.587158</ele>
  <time>2011-11-12T06:49:13Z</time>
  <speed>4.360000</speed>
</trkpt>
<trkpt lat="32.864318848" lon="35.246196747">
  <ele>247.661377</ele>
  <time>2011-11-12T06:49:14Z</time>
  <speed>4.860000</speed>
</trkpt>
<trkpt lat="32.864276886" lon="35.246162415">
  <ele>246.887939</ele>
  <time>2011-11-12T06:49:15Z</time>
  <speed>6.710000</speed>
</trkpt>
<trkpt lat="32.864227295" lon="35.246120453">
  <ele>246.052002</ele>
  <time>2011-11-12T06:49:16Z</time>
  <speed>5.890000</speed>
</trkpt>
<trkpt lat="32.864200592" lon="35.246089935">
  <ele>245.302002</ele>
  <time>2011-11-12T06:49:17Z</time>
  <speed>3.900000</speed>
</trkpt>
<trkpt lat="32.864173889" lon="35.246055603">
  <ele>244.469971</ele>
  <time>2011-11-12T06:49:18Z</time>
  <speed>3.580000</speed>
</trkpt>
<trkpt lat="32.864135742" lon="35.246021271">
  <ele>243.442627</ele>
  <time>2011-11-12T06:49:19Z</time>
  <speed>5.230000</speed>
</trkpt>
<trkpt lat="32.864097595" lon="35.245983124">
  <ele>242.712158</ele>
  <time>2011-11-12T06:49:20Z</time>
  <speed>4.840000</speed>
</trkpt>
<trkpt lat="32.864070892" lon="35.245952606">
  <ele>241.946533</ele>
  <time>2011-11-12T06:49:21Z</time>
  <speed>3.960000</speed>
</trkpt>
<trkpt lat="32.864059448" lon="35.245910645">
  <ele>241.637939</ele>
  <time>2011-11-12T06:49:22Z</time>
  <speed>3.120000</speed>
</trkpt>
<trkpt lat="32.864040375" lon="35.245864868">
  <ele>240.559814</ele>
  <time>2011-11-12T06:49:23Z</time>
  <speed>3.840000</speed>
</trkpt>
<trkpt lat="32.864009857" lon="35.245807648">
  <ele>238.841064</ele>
  <time>2011-11-12T06:49:24Z</time>
  <speed>4.470000</speed>
</trkpt>
<trkpt lat="32.863983154" lon="35.245761871">
  <ele>238.036377</ele>
  <time>2011-11-12T06:49:25Z</time>
  <speed>4.250000</speed>
</trkpt>
<trkpt lat="32.863945007" lon="35.245697021">
  <ele>237.141846</ele>
  <time>2011-11-12T06:49:26Z</time>
  <speed>4.440000</speed>
</trkpt>
<trkpt lat="32.863925934" lon="35.245639801">
  <ele>236.012939</ele>
  <time>2011-11-12T06:49:27Z</time>
  <speed>3.610000</speed>
</trkpt>
<trkpt lat="32.863918304" lon="35.245586395">
  <ele>235.071533</ele>
  <time>2011-11-12T06:49:28Z</time>
  <speed>4.030000</speed>
</trkpt>
<trkpt lat="32.863914490" lon="35.245544434">
  <ele>234.223877</ele>
  <time>2011-11-12T06:49:29Z</time>
  <speed>3.180000</speed>
</trkpt>
<trkpt lat="32.863899231" lon="35.245510101">
  <ele>233.399658</ele>
  <time>2011-11-12T06:49:30Z</time>
  <speed>2.710000</speed>
</trkpt>
<trkpt lat="32.863880157" lon="35.245475769">
  <ele>232.493408</ele>
  <time>2011-11-12T06:49:31Z</time>
  <speed>2.960000</speed>
</trkpt>
<trkpt lat="32.863857269" lon="35.245441437">
  <ele>231.634033</ele>
  <time>2011-11-12T06:49:32Z</time>
  <speed>3.500000</speed>
</trkpt>
<trkpt lat="32.863822937" lon="35.245395660">
  <ele>230.837158</ele>
  <time>2011-11-12T06:49:33Z</time>
  <speed>4.820000</speed>
</trkpt>
<trkpt lat="32.863796234" lon="35.245357513">
  <ele>230.052002</ele>
  <time>2011-11-12T06:49:34Z</time>
  <speed>4.170000</speed>
</trkpt>
<trkpt lat="32.863765717" lon="35.245319366">
  <ele>228.696533</ele>
  <time>2011-11-12T06:49:35Z</time>
  <speed>4.510000</speed>
</trkpt>
<trkpt lat="32.863754272" lon="35.245273590">
  <ele>227.969971</ele>
  <time>2011-11-12T06:49:36Z</time>
  <speed>4.600000</speed>
</trkpt>
<trkpt lat="32.863742828" lon="35.245227814">
  <ele>227.387939</ele>
  <time>2011-11-12T06:49:37Z</time>
  <speed>4.350000</speed>
</trkpt>
<trkpt lat="32.863716125" lon="35.245170593">
  <ele>226.641846</ele>
  <time>2011-11-12T06:49:38Z</time>
  <speed>4.110000</speed>
</trkpt>
<trkpt lat="32.863704681" lon="35.245132446">
  <ele>225.966064</ele>
  <time>2011-11-12T06:49:39Z</time>
  <speed>2.890000</speed>
</trkpt>
<trkpt lat="32.863674164" lon="35.245109558">
  <ele>225.239502</ele>
  <time>2011-11-12T06:49:40Z</time>
  <speed>3.110000</speed>
</trkpt>
<trkpt lat="32.863639832" lon="35.245105743">
  <ele>223.969971</ele>
  <time>2011-11-12T06:49:41Z</time>
  <speed>2.720000</speed>
</trkpt>
<trkpt lat="32.863609314" lon="35.245075226">
  <ele>222.512939</ele>
  <time>2011-11-12T06:49:43Z</time>
  <speed>1.730000</speed>
</trkpt>
<trkpt lat="32.863582611" lon="35.245056152">
  <ele>221.762939</ele>
  <time>2011-11-12T06:49:44Z</time>
  <speed>4.130000</speed>
</trkpt>
<trkpt lat="32.863548279" lon="35.245033264">
  <ele>221.020752</ele>
  <time>2011-11-12T06:49:45Z</time>
  <speed>4.130000</speed>
</trkpt>
<trkpt lat="32.863506317" lon="35.245006561">
  <ele>220.341064</ele>
  <time>2011-11-12T06:49:46Z</time>
  <speed>3.930000</speed>
</trkpt>
<trkpt lat="32.863475800" lon="35.244987488">
  <ele>219.665283</ele>
  <time>2011-11-12T06:49:47Z</time>
  <speed>3.700000</speed>
</trkpt>
<trkpt lat="32.863449097" lon="35.244972229">
  <ele>218.786377</ele>
  <time>2011-11-12T06:49:48Z</time>
  <speed>3.430000</speed>
</trkpt>
<trkpt lat="32.863426208" lon="35.244941711">
  <ele>217.630127</ele>
  <time>2011-11-12T06:49:49Z</time>
  <speed>2.470000</speed>
</trkpt>
<trkpt lat="32.863395691" lon="35.244926453">
  <ele>216.762939</ele>
  <time>2011-11-12T06:49:50Z</time>
  <speed>2.490000</speed>
</trkpt>
<trkpt lat="32.863349915" lon="35.244880676">
  <ele>216.091064</ele>
  <time>2011-11-12T06:49:51Z</time>
  <speed>3.590000</speed>
</trkpt>
<trkpt lat="32.863311768" lon="35.244850159">
  <ele>215.337158</ele>
  <time>2011-11-12T06:49:52Z</time>
  <speed>3.550000</speed>
</trkpt>
<trkpt lat="32.863292694" lon="35.244827271">
  <ele>214.630127</ele>
  <time>2011-11-12T06:49:53Z</time>
  <speed>3.190000</speed>
</trkpt>
<trkpt lat="32.863265991" lon="35.244812012">
  <ele>213.817627</ele>
  <time>2011-11-12T06:49:54Z</time>
  <speed>3.130000</speed>
</trkpt>
<trkpt lat="32.863243103" lon="35.244789124">
  <ele>212.813721</ele>
  <time>2011-11-12T06:49:55Z</time>
  <speed>3.150000</speed>
</trkpt>
<trkpt lat="32.863220215" lon="35.244758606">
  <ele>211.864502</ele>
  <time>2011-11-12T06:49:56Z</time>
  <speed>3.470000</speed>
</trkpt>
<trkpt lat="32.863185883" lon="35.244716644">
  <ele>210.919189</ele>
  <time>2011-11-12T06:49:57Z</time>
  <speed>3.940000</speed>
</trkpt>
<trkpt lat="32.863159180" lon="35.244682312">
  <ele>210.243408</ele>
  <time>2011-11-12T06:49:58Z</time>
  <speed>4.420000</speed>
</trkpt>
<trkpt lat="32.863113403" lon="35.244644165">
  <ele>209.430908</ele>
  <time>2011-11-12T06:49:59Z</time>
  <speed>5.570000</speed>
</trkpt>
<trkpt lat="32.863063812" lon="35.244606018">
  <ele>208.680908</ele>
  <time>2011-11-12T06:50:00Z</time>
  <speed>6.000000</speed>
</trkpt>
<trkpt lat="32.863010406" lon="35.244556427">
  <ele>207.680908</ele>
  <time>2011-11-12T06:50:01Z</time>
  <speed>6.930000</speed>
</trkpt>
<trkpt lat="32.862945557" lon="35.244491577">
  <ele>206.532471</ele>
  <time>2011-11-12T06:50:02Z</time>
  <speed>6.510000</speed>
</trkpt>
<trkpt lat="32.862895966" lon="35.244449615">
  <ele>205.809814</ele>
  <time>2011-11-12T06:50:03Z</time>
  <speed>5.230000</speed>
</trkpt>
<trkpt lat="32.862846375" lon="35.244430542">
  <ele>205.044189</ele>
  <time>2011-11-12T06:50:04Z</time>
  <speed>4.460000</speed>
</trkpt>
<trkpt lat="32.862804413" lon="35.244415283">
  <ele>204.235596</ele>
  <time>2011-11-12T06:50:05Z</time>
  <speed>4.170000</speed>
</trkpt>
<trkpt lat="32.862770081" lon="35.244384766">
  <ele>202.821533</ele>
  <time>2011-11-12T06:50:07Z</time>
  <speed>2.840000</speed>
</trkpt>
<trkpt lat="32.862743378" lon="35.244369507">
  <ele>202.223877</ele>
  <time>2011-11-12T06:50:08Z</time>
  <speed>4.010000</speed>
</trkpt>
<trkpt lat="32.862693787" lon="35.244377136">
  <ele>201.559814</ele>
  <time>2011-11-12T06:50:09Z</time>
  <speed>5.760000</speed>
</trkpt>
<trkpt lat="32.862644196" lon="35.244350433">
  <ele>200.860596</ele>
  <time>2011-11-12T06:50:10Z</time>
  <speed>5.960000</speed>
</trkpt>
<trkpt lat="32.862606049" lon="35.244319916">
  <ele>200.337158</ele>
  <time>2011-11-12T06:50:11Z</time>
  <speed>3.750000</speed>
</trkpt>
<trkpt lat="32.862594604" lon="35.244289398">
  <ele>199.481689</ele>
  <time>2011-11-12T06:50:12Z</time>
  <speed>2.240000</speed>
</trkpt>
<trkpt lat="32.862575531" lon="35.244258881">
  <ele>198.239502</ele>
  <time>2011-11-12T06:50:14Z</time>
  <speed>0.220000</speed>
</trkpt>
<trkpt lat="32.862545013" lon="35.244255066">
  <ele>198.594971</ele>
  <time>2011-11-12T06:51:00Z</time>
  <speed>0.160000</speed>
</trkpt>
<trkpt lat="32.862575531" lon="35.244274139">
  <ele>199.313721</ele>
  <time>2011-11-12T06:52:14Z</time>
  <speed>1.100000</speed>
</trkpt>
<trkpt lat="32.862609863" lon="35.244308472">
  <ele>199.411377</ele>
  <time>2011-11-12T06:52:16Z</time>
  <speed>1.280000</speed>
</trkpt>
<trkpt lat="32.862640381" lon="35.244327545">
  <ele>200.173096</ele>
  <time>2011-11-12T06:52:18Z</time>
  <speed>1.220000</speed>
</trkpt>
<trkpt lat="32.862674713" lon="35.244354248">
  <ele>201.075439</ele>
  <time>2011-11-12T06:52:21Z</time>
  <speed>0.490000</speed>
</trkpt>
<trkpt lat="32.862705231" lon="35.244354248">
  <ele>201.032471</ele>
  <time>2011-11-12T06:52:25Z</time>
  <speed>0.460000</speed>
</trkpt>
<trkpt lat="32.862731934" lon="35.244338989">
  <ele>200.989502</ele>
  <time>2011-11-12T06:52:29Z</time>
  <speed>0.570000</speed>
</trkpt>
<trkpt lat="32.862758636" lon="35.244312286">
  <ele>201.173096</ele>
  <time>2011-11-12T06:52:32Z</time>
  <speed>0.630000</speed>
</trkpt>
<trkpt lat="32.862770081" lon="35.244274139">
  <ele>201.278564</ele>
  <time>2011-11-12T06:52:36Z</time>
  <speed>0.760000</speed>
</trkpt>
<trkpt lat="32.862785339" lon="35.244243622">
  <ele>201.747314</ele>
  <time>2011-11-12T06:52:39Z</time>
  <speed>0.730000</speed>
</trkpt>
<trkpt lat="32.862796783" lon="35.244216919">
  <ele>202.848877</ele>
  <time>2011-11-12T06:52:42Z</time>
  <speed>0.470000</speed>
</trkpt>
<trkpt lat="32.862823486" lon="35.244201660">
  <ele>203.372314</ele>
  <time>2011-11-12T06:52:45Z</time>
  <speed>0.410000</speed>
</trkpt>
<trkpt lat="32.862854004" lon="35.244235992">
  <ele>203.469971</ele>
  <time>2011-11-12T06:52:48Z</time>
  <speed>0.660000</speed>
</trkpt>
<trkpt lat="32.862884521" lon="35.244258881">
  <ele>203.798096</ele>
  <time>2011-11-12T06:52:51Z</time>
  <speed>0.880000</speed>
</trkpt>
<trkpt lat="32.862918854" lon="35.244277954">
  <ele>204.001221</ele>
  <time>2011-11-12T06:52:54Z</time>
  <speed>1.010000</speed>
</trkpt>
<trkpt lat="32.862945557" lon="35.244297028">
  <ele>204.540283</ele>
  <time>2011-11-12T06:52:56Z</time>
  <speed>1.120000</speed>
</trkpt>
<trkpt lat="32.862968445" lon="35.244331360">
  <ele>204.579346</ele>
  <time>2011-11-12T06:52:57Z</time>
  <speed>1.490000</speed>
</trkpt>
<trkpt lat="32.863002777" lon="35.244358063">
  <ele>205.083252</ele>
  <time>2011-11-12T06:53:00Z</time>
  <speed>1.510000</speed>
</trkpt>
<trkpt lat="32.863029480" lon="35.244388580">
  <ele>205.262939</ele>
  <time>2011-11-12T06:53:02Z</time>
  <speed>1.940000</speed>
</trkpt>
<trkpt lat="32.863063812" lon="35.244407654">
  <ele>205.270752</ele>
  <time>2011-11-12T06:53:04Z</time>
  <speed>1.730000</speed>
</trkpt>
<trkpt lat="32.863094330" lon="35.244453430">
  <ele>205.571533</ele>
  <time>2011-11-12T06:53:06Z</time>
  <speed>2.640000</speed>
</trkpt>
<trkpt lat="32.863121033" lon="35.244483948">
  <ele>205.649658</ele>
  <time>2011-11-12T06:53:07Z</time>
  <speed>3.040000</speed>
</trkpt>
<trkpt lat="32.863147736" lon="35.244514465">
  <ele>206.594971</ele>
  <time>2011-11-12T06:53:09Z</time>
  <speed>2.840000</speed>
</trkpt>
<trkpt lat="32.863174438" lon="35.244541168">
  <ele>206.852783</ele>
  <time>2011-11-12T06:53:10Z</time>
  <speed>2.320000</speed>
</trkpt>
<trkpt lat="32.863197327" lon="35.244564056">
  <ele>207.887939</ele>
  <time>2011-11-12T06:53:12Z</time>
  <speed>1.550000</speed>
</trkpt>
<trkpt lat="32.863216400" lon="35.244586945">
  <ele>208.032471</ele>
  <time>2011-11-12T06:53:14Z</time>
  <speed>1.100000</speed>
</trkpt>
<trkpt lat="32.863235474" lon="35.244613647">
  <ele>208.259033</ele>
  <time>2011-11-12T06:53:16Z</time>
  <speed>1.520000</speed>
</trkpt>
<trkpt lat="32.863292694" lon="35.244632721">
  <ele>209.118408</ele>
  <time>2011-11-12T06:53:18Z</time>
  <speed>1.570000</speed>
</trkpt>
<trkpt lat="32.863327026" lon="35.244640350">
  <ele>209.805908</ele>
  <time>2011-11-12T06:53:19Z</time>
  <speed>1.740000</speed>
</trkpt>
<trkpt lat="32.863342285" lon="35.244663239">
  <ele>211.075439</ele>
  <time>2011-11-12T06:53:21Z</time>
  <speed>1.800000</speed>
</trkpt>
<trkpt lat="32.863361359" lon="35.244709015">
  <ele>211.255127</ele>
  <time>2011-11-12T06:53:23Z</time>
  <speed>1.610000</speed>
</trkpt>
<trkpt lat="32.863391876" lon="35.244735718">
  <ele>211.348877</ele>
  <time>2011-11-12T06:53:25Z</time>
  <speed>1.360000</speed>
</trkpt>
<trkpt lat="32.863418579" lon="35.244762421">
  <ele>212.114502</ele>
  <time>2011-11-12T06:53:27Z</time>
  <speed>1.610000</speed>
</trkpt>
<trkpt lat="32.863452911" lon="35.244800568">
  <ele>213.305908</ele>
  <time>2011-11-12T06:53:30Z</time>
  <speed>1.860000</speed>
</trkpt>
<trkpt lat="32.863471985" lon="35.244831085">
  <ele>213.583252</ele>
  <time>2011-11-12T06:53:32Z</time>
  <speed>1.720000</speed>
</trkpt>
<trkpt lat="32.863494873" lon="35.244873047">
  <ele>214.294189</ele>
  <time>2011-11-12T06:53:34Z</time>
  <speed>1.490000</speed>
</trkpt>
<trkpt lat="32.863513947" lon="35.244895935">
  <ele>214.204346</ele>
  <time>2011-11-12T06:53:36Z</time>
  <speed>1.320000</speed>
</trkpt>
<trkpt lat="32.863548279" lon="35.244922638">
  <ele>213.895752</ele>
  <time>2011-11-12T06:53:38Z</time>
  <speed>1.600000</speed>
</trkpt>
<trkpt lat="32.863578796" lon="35.244956970">
  <ele>213.887939</ele>
  <time>2011-11-12T06:53:41Z</time>
  <speed>1.630000</speed>
</trkpt>
<trkpt lat="32.863594055" lon="35.244987488">
  <ele>213.665283</ele>
  <time>2011-11-12T06:53:43Z</time>
  <speed>1.810000</speed>
</trkpt>
<trkpt lat="32.863613129" lon="35.245021820">
  <ele>213.626221</ele>
  <time>2011-11-12T06:53:45Z</time>
  <speed>1.480000</speed>
</trkpt>
<trkpt lat="32.863636017" lon="35.245037079">
  <ele>213.950439</ele>
  <time>2011-11-12T06:53:46Z</time>
  <speed>2.110000</speed>
</trkpt>
<trkpt lat="32.863677979" lon="35.245044708">
  <ele>214.723877</ele>
  <time>2011-11-12T06:53:48Z</time>
  <speed>1.490000</speed>
</trkpt>
<trkpt lat="32.863697052" lon="35.245071411">
  <ele>215.294189</ele>
  <time>2011-11-12T06:53:50Z</time>
  <speed>1.480000</speed>
</trkpt>
<trkpt lat="32.863712311" lon="35.245105743">
  <ele>215.208252</ele>
  <time>2011-11-12T06:53:53Z</time>
  <speed>1.630000</speed>
</trkpt>
<trkpt lat="32.863750458" lon="35.245128632">
  <ele>214.243408</ele>
  <time>2011-11-12T06:53:55Z</time>
  <speed>1.520000</speed>
</trkpt>
<trkpt lat="32.863780975" lon="35.245140076">
  <ele>215.196533</ele>
  <time>2011-11-12T06:53:56Z</time>
  <speed>2.150000</speed>
</trkpt>
<trkpt lat="32.863803864" lon="35.245166779">
  <ele>215.458252</ele>
  <time>2011-11-12T06:53:58Z</time>
  <speed>1.360000</speed>
</trkpt>
<trkpt lat="32.863826752" lon="35.245201111">
  <ele>215.634033</ele>
  <time>2011-11-12T06:54:00Z</time>
  <speed>1.660000</speed>
</trkpt>
<trkpt lat="32.863842010" lon="35.245235443">
  <ele>216.356689</ele>
  <time>2011-11-12T06:54:02Z</time>
  <speed>1.940000</speed>
</trkpt>
<trkpt lat="32.863880157" lon="35.245265961">
  <ele>215.489502</ele>
  <time>2011-11-12T06:54:04Z</time>
  <speed>1.810000</speed>
</trkpt>
<trkpt lat="32.863903046" lon="35.245292664">
  <ele>216.505127</ele>
  <time>2011-11-12T06:54:07Z</time>
  <speed>1.000000</speed>
</trkpt>
<trkpt lat="32.863933563" lon="35.245323181">
  <ele>216.829346</ele>
  <time>2011-11-12T06:54:11Z</time>
  <speed>1.500000</speed>
</trkpt>
<trkpt lat="32.863964081" lon="35.245346069">
  <ele>216.762939</ele>
  <time>2011-11-12T06:54:13Z</time>
  <speed>1.190000</speed>
</trkpt>
<trkpt lat="32.863979340" lon="35.245368958">
  <ele>215.774658</ele>
  <time>2011-11-12T06:54:15Z</time>
  <speed>0.780000</speed>
</trkpt>
<trkpt lat="32.864013672" lon="35.245384216">
  <ele>216.559814</ele>
  <time>2011-11-12T06:54:19Z</time>
  <speed>0.740000</speed>
</trkpt>
<trkpt lat="32.864028931" lon="35.245414734">
  <ele>216.735596</ele>
  <time>2011-11-12T06:54:22Z</time>
  <speed>0.960000</speed>
</trkpt>
<trkpt lat="32.864067078" lon="35.245449066">
  <ele>216.864502</ele>
  <time>2011-11-12T06:54:24Z</time>
  <speed>1.190000</speed>
</trkpt>
<trkpt lat="32.864120483" lon="35.245483398">
  <ele>217.048096</ele>
  <time>2011-11-12T06:54:27Z</time>
  <speed>1.540000</speed>
</trkpt>
<trkpt lat="32.864139557" lon="35.245525360">
  <ele>218.091064</ele>
  <time>2011-11-12T06:54:31Z</time>
  <speed>1.290000</speed>
</trkpt>
<trkpt lat="32.864151001" lon="35.245563507">
  <ele>218.407471</ele>
  <time>2011-11-12T06:54:34Z</time>
  <speed>1.200000</speed>
</trkpt>
<trkpt lat="32.864158630" lon="35.245594025">
  <ele>218.028564</ele>
  <time>2011-11-12T06:54:37Z</time>
  <speed>1.110000</speed>
</trkpt>
<trkpt lat="32.864158630" lon="35.245628357">
  <ele>218.442627</ele>
  <time>2011-11-12T06:54:40Z</time>
  <speed>1.380000</speed>
</trkpt>
<trkpt lat="32.864177704" lon="35.245655060">
  <ele>219.294189</ele>
  <time>2011-11-12T06:54:42Z</time>
  <speed>1.200000</speed>
</trkpt>
<trkpt lat="32.864242554" lon="35.245693207">
  <ele>220.802002</ele>
  <time>2011-11-12T06:54:44Z</time>
  <speed>1.550000</speed>
</trkpt>
<trkpt lat="32.864311218" lon="35.245693207">
  <ele>221.649658</ele>
  <time>2011-11-12T06:54:45Z</time>
  <speed>1.260000</speed>
</trkpt>
<trkpt lat="32.864337921" lon="35.245727539">
  <ele>221.985596</ele>
  <time>2011-11-12T06:54:47Z</time>
  <speed>1.620000</speed>
</trkpt>
<trkpt lat="32.864353180" lon="35.245769501">
  <ele>221.579346</ele>
  <time>2011-11-12T06:54:48Z</time>
  <speed>1.360000</speed>
</trkpt>
<trkpt lat="32.864372253" lon="35.245796204">
  <ele>221.661377</ele>
  <time>2011-11-12T06:54:50Z</time>
  <speed>1.720000</speed>
</trkpt>
<trkpt lat="32.864379883" lon="35.245826721">
  <ele>223.583252</ele>
  <time>2011-11-12T06:54:54Z</time>
  <speed>1.300000</speed>
</trkpt>
<trkpt lat="32.864387512" lon="35.245868683">
  <ele>223.231689</ele>
  <time>2011-11-12T06:54:57Z</time>
  <speed>1.710000</speed>
</trkpt>
<trkpt lat="32.864414215" lon="35.245883942">
  <ele>223.294189</ele>
  <time>2011-11-12T06:54:59Z</time>
  <speed>1.570000</speed>
</trkpt>
<trkpt lat="32.864440918" lon="35.245899200">
  <ele>223.423096</ele>
  <time>2011-11-12T06:55:01Z</time>
  <speed>1.750000</speed>
</trkpt>
<trkpt lat="32.864452362" lon="35.245922089">
  <ele>224.985596</ele>
  <time>2011-11-12T06:55:04Z</time>
  <speed>1.060000</speed>
</trkpt>
<trkpt lat="32.864475250" lon="35.245952606">
  <ele>225.938721</ele>
  <time>2011-11-12T06:55:10Z</time>
  <speed>0.910000</speed>
</trkpt>
<trkpt lat="32.864498138" lon="35.245967865">
  <ele>226.555908</ele>
  <time>2011-11-12T06:55:12Z</time>
  <speed>0.900000</speed>
</trkpt>
<trkpt lat="32.864532471" lon="35.245983124">
  <ele>226.743408</ele>
  <time>2011-11-12T06:55:14Z</time>
  <speed>0.960000</speed>
</trkpt>
<trkpt lat="32.864570618" lon="35.245979309">
  <ele>227.727783</ele>
  <time>2011-11-12T06:55:20Z</time>
  <speed>0.710000</speed>
</trkpt>
<trkpt lat="32.864597321" lon="35.245967865">
  <ele>228.341064</ele>
  <time>2011-11-12T06:55:22Z</time>
  <speed>0.970000</speed>
</trkpt>
<trkpt lat="32.864616394" lon="35.245986938">
  <ele>229.989502</ele>
  <time>2011-11-12T06:55:25Z</time>
  <speed>0.800000</speed>
</trkpt>
<trkpt lat="32.864654541" lon="35.245971680">
  <ele>231.040283</ele>
  <time>2011-11-12T06:55:29Z</time>
  <speed>0.890000</speed>
</trkpt>
<trkpt lat="32.864673615" lon="35.245952606">
  <ele>232.305908</ele>
  <time>2011-11-12T06:55:32Z</time>
  <speed>0.850000</speed>
</trkpt>
<trkpt lat="32.864685059" lon="35.245990753">
  <ele>233.169189</ele>
  <time>2011-11-12T06:55:37Z</time>
  <speed>0.940000</speed>
</trkpt>
<trkpt lat="32.864719391" lon="35.246006012">
  <ele>233.911377</ele>
  <time>2011-11-12T06:55:39Z</time>
  <speed>0.760000</speed>
</trkpt>
<trkpt lat="32.864765167" lon="35.246017456">
  <ele>234.610596</ele>
  <time>2011-11-12T06:55:41Z</time>
  <speed>0.610000</speed>
</trkpt>
<trkpt lat="32.864803314" lon="35.246013641">
  <ele>235.731689</ele>
  <time>2011-11-12T06:55:44Z</time>
  <speed>0.340000</speed>
</trkpt>
<trkpt lat="32.864822388" lon="35.245998383">
  <ele>237.637939</ele>
  <time>2011-11-12T06:55:48Z</time>
  <speed>0.100000</speed>
</trkpt>
<trkpt lat="32.864822388" lon="35.246025085">
  <ele>239.227783</ele>
  <time>2011-11-12T06:55:55Z</time>
  <speed>0.320000</speed>
</trkpt>
<trkpt lat="32.864826202" lon="35.246051788">
  <ele>241.430908</ele>
  <time>2011-11-12T06:56:00Z</time>
  <speed>0.290000</speed>
</trkpt>
<trkpt lat="32.864818573" lon="35.246082306">
  <ele>242.673096</ele>
  <time>2011-11-12T06:56:16Z</time>
  <speed>0.260000</speed>
</trkpt>
<trkpt lat="32.864818573" lon="35.246109009">
  <ele>244.540283</ele>
  <time>2011-11-12T06:56:26Z</time>
  <speed>0.230000</speed>
</trkpt>
<trkpt lat="32.864795685" lon="35.246089935">
  <ele>245.735596</ele>
  <time>2011-11-12T06:56:39Z</time>
  <speed>0.260000</speed>
</trkpt>
<trkpt lat="32.864788055" lon="35.246059418">
  <ele>246.743408</ele>
  <time>2011-11-12T06:56:50Z</time>
  <speed>0.310000</speed>
</trkpt>
<trkpt lat="32.864784241" lon="35.246017456">
  <ele>247.356689</ele>
  <time>2011-11-12T06:56:53Z</time>
  <speed>0.330000</speed>
</trkpt>
<trkpt lat="32.864776611" lon="35.246002197">
  <ele>249.786377</ele>
  <time>2011-11-12T06:57:15Z</time>
  <speed>0.110000</speed>
</trkpt>
<trkpt lat="32.864761353" lon="35.245986938">
  <ele>252.094971</ele>
  <time>2011-11-12T06:57:29Z</time>
  <speed>0.150000</speed>
</trkpt>
<trkpt lat="32.864738464" lon="35.246006012">
  <ele>253.477783</ele>
  <time>2011-11-12T06:57:37Z</time>
  <speed>0.330000</speed>
</trkpt>
<trkpt lat="32.864730835" lon="35.246036530">
  <ele>254.708252</ele>
  <time>2011-11-12T06:57:42Z</time>
  <speed>0.370000</speed>
</trkpt>
<trkpt lat="32.864734650" lon="35.245998383">
  <ele>256.041504</ele>
  <time>2011-11-12T06:57:47Z</time>
  <speed>0.090000</speed>
</trkpt>
<trkpt lat="32.864727020" lon="35.245998383">
  <ele>259.041504</ele>
  <time>2011-11-12T06:58:09Z</time>
  <speed>0.170000</speed>
</trkpt>
<trkpt lat="32.864715576" lon="35.245990753">
  <ele>261.619629</ele>
  <time>2011-11-12T06:58:25Z</time>
  <speed>0.080000</speed>
</trkpt>
<trkpt lat="32.864719391" lon="35.245983124">
  <ele>264.525879</ele>
  <time>2011-11-12T06:58:48Z</time>
  <speed>0.130000</speed>
</trkpt>
<trkpt lat="32.864711761" lon="35.245956421">
  <ele>266.064941</ele>
  <time>2011-11-12T06:59:02Z</time>
  <speed>0.230000</speed>
</trkpt>
<trkpt lat="32.864719391" lon="35.245925903">
  <ele>267.361816</ele>
  <time>2011-11-12T06:59:15Z</time>
  <speed>0.450000</speed>
</trkpt>
<trkpt lat="32.864723206" lon="35.245891571">
  <ele>267.814941</ele>
  <time>2011-11-12T06:59:17Z</time>
  <speed>0.630000</speed>
</trkpt>
<trkpt lat="32.864719391" lon="35.245861053">
  <ele>267.979004</ele>
  <time>2011-11-12T06:59:19Z</time>
  <speed>0.820000</speed>
</trkpt>
<trkpt lat="32.864719391" lon="35.245826721">
  <ele>267.869629</ele>
  <time>2011-11-12T06:59:21Z</time>
  <speed>1.220000</speed>
</trkpt>
<trkpt lat="32.864707947" lon="35.245792389">
  <ele>268.166504</ele>
  <time>2011-11-12T06:59:23Z</time>
  <speed>1.410000</speed>
</trkpt>
<trkpt lat="32.864685059" lon="35.245773315">
  <ele>268.127441</ele>
  <time>2011-11-12T06:59:25Z</time>
  <speed>1.780000</speed>
</trkpt>
<trkpt lat="32.864654541" lon="35.245727539">
  <ele>267.861816</ele>
  <time>2011-11-12T06:59:27Z</time>
  <speed>1.940000</speed>
</trkpt>
<trkpt lat="32.864631653" lon="35.245689392">
  <ele>267.463379</ele>
  <time>2011-11-12T06:59:29Z</time>
  <speed>1.930000</speed>
</trkpt>
<trkpt lat="32.864631653" lon="35.245635986">
  <ele>267.080566</ele>
  <time>2011-11-12T06:59:31Z</time>
  <speed>2.220000</speed>
</trkpt>
<trkpt lat="32.864654541" lon="35.245609283">
  <ele>267.432129</ele>
  <time>2011-11-12T06:59:33Z</time>
  <speed>1.450000</speed>
</trkpt>
<trkpt lat="32.864685059" lon="35.245616913">
  <ele>267.291504</ele>
  <time>2011-11-12T06:59:35Z</time>
  <speed>0.940000</speed>
</trkpt>
<trkpt lat="32.864700317" lon="35.245647430">
  <ele>266.096191</ele>
  <time>2011-11-12T06:59:36Z</time>
  <speed>1.540000</speed>
</trkpt>
<trkpt lat="32.864727020" lon="35.245685577">
  <ele>266.338379</ele>
  <time>2011-11-12T06:59:38Z</time>
  <speed>1.610000</speed>
</trkpt>
<trkpt lat="32.864753723" lon="35.245708466">
  <ele>265.932129</ele>
  <time>2011-11-12T06:59:41Z</time>
  <speed>1.480000</speed>
</trkpt>
<trkpt lat="32.864788055" lon="35.245719910">
  <ele>265.900879</ele>
  <time>2011-11-12T06:59:44Z</time>
  <speed>1.430000</speed>
</trkpt>
<trkpt lat="32.864810944" lon="35.245735168">
  <ele>265.564941</ele>
  <time>2011-11-12T06:59:46Z</time>
  <speed>1.260000</speed>
</trkpt>
<trkpt lat="32.864852905" lon="35.245746613">
  <ele>263.713379</ele>
  <time>2011-11-12T06:59:48Z</time>
  <speed>1.540000</speed>
</trkpt>
<trkpt lat="32.864891052" lon="35.245758057">
  <ele>263.260254</ele>
  <time>2011-11-12T06:59:50Z</time>
  <speed>1.490000</speed>
</trkpt>
<trkpt lat="32.864933014" lon="35.245777130">
  <ele>262.283691</ele>
  <time>2011-11-12T06:59:53Z</time>
  <speed>1.950000</speed>
</trkpt>
<trkpt lat="32.864986420" lon="35.245792389">
  <ele>260.064941</ele>
  <time>2011-11-12T06:59:55Z</time>
  <speed>1.790000</speed>
</trkpt>
<trkpt lat="32.865016937" lon="35.245803833">
  <ele>258.541504</ele>
  <time>2011-11-12T06:59:56Z</time>
  <speed>1.900000</speed>
</trkpt>
<trkpt lat="32.865058899" lon="35.245849609">
  <ele>257.416504</ele>
  <time>2011-11-12T06:59:58Z</time>
  <speed>1.630000</speed>
</trkpt>
<trkpt lat="32.865074158" lon="35.245880127">
  <ele>256.361816</ele>
  <time>2011-11-12T07:00:00Z</time>
  <speed>1.610000</speed>
</trkpt>
<trkpt lat="32.865089417" lon="35.245922089">
  <ele>255.794189</ele>
  <time>2011-11-12T07:00:02Z</time>
  <speed>2.220000</speed>
</trkpt>
<trkpt lat="32.865097046" lon="35.245975494">
  <ele>255.587158</ele>
  <time>2011-11-12T07:00:04Z</time>
  <speed>2.370000</speed>
</trkpt>
<trkpt lat="32.865112305" lon="35.246025085">
  <ele>254.372314</ele>
  <time>2011-11-12T07:00:06Z</time>
  <speed>1.730000</speed>
</trkpt>
<trkpt lat="32.865112305" lon="35.246067047">
  <ele>253.403564</ele>
  <time>2011-11-12T07:00:08Z</time>
  <speed>2.120000</speed>
</trkpt>
<trkpt lat="32.865127563" lon="35.246105194">
  <ele>253.145752</ele>
  <time>2011-11-12T07:00:10Z</time>
  <speed>1.930000</speed>
</trkpt>
<trkpt lat="32.865142822" lon="35.246135712">
  <ele>253.255127</ele>
  <time>2011-11-12T07:00:12Z</time>
  <speed>1.570000</speed>
</trkpt>
<trkpt lat="32.865169525" lon="35.246170044">
  <ele>253.692627</ele>
  <time>2011-11-12T07:00:14Z</time>
  <speed>1.720000</speed>
</trkpt>
<trkpt lat="32.865177155" lon="35.246208191">
  <ele>253.380127</ele>
  <time>2011-11-12T07:00:16Z</time>
  <speed>1.960000</speed>
</trkpt>
<trkpt lat="32.865192413" lon="35.246246338">
  <ele>253.579346</ele>
  <time>2011-11-12T07:00:18Z</time>
  <speed>1.810000</speed>
</trkpt>
<trkpt lat="32.865211487" lon="35.246284485">
  <ele>253.946533</ele>
  <time>2011-11-12T07:00:20Z</time>
  <speed>1.880000</speed>
</trkpt>
<trkpt lat="32.865226746" lon="35.246326447">
  <ele>253.860596</ele>
  <time>2011-11-12T07:00:22Z</time>
  <speed>1.780000</speed>
</trkpt>
<trkpt lat="32.865242004" lon="35.246376038">
  <ele>254.091064</ele>
  <time>2011-11-12T07:00:24Z</time>
  <speed>2.150000</speed>
</trkpt>
<trkpt lat="32.865253448" lon="35.246425629">
  <ele>253.450439</ele>
  <time>2011-11-12T07:00:26Z</time>
  <speed>2.000000</speed>
</trkpt>
<trkpt lat="32.865257263" lon="35.246479034">
  <ele>253.180908</ele>
  <time>2011-11-12T07:00:28Z</time>
  <speed>1.990000</speed>
</trkpt>
<trkpt lat="32.865257263" lon="35.246532440">
  <ele>252.509033</ele>
  <time>2011-11-12T07:00:30Z</time>
  <speed>1.960000</speed>
</trkpt>
<trkpt lat="32.865249634" lon="35.246585846">
  <ele>252.212158</ele>
  <time>2011-11-12T07:00:32Z</time>
  <speed>2.170000</speed>
</trkpt>
<trkpt lat="32.865226746" lon="35.246620178">
  <ele>252.317627</ele>
  <time>2011-11-12T07:00:34Z</time>
  <speed>2.160000</speed>
</trkpt>
<trkpt lat="32.865207672" lon="35.246658325">
  <ele>251.739502</ele>
  <time>2011-11-12T07:00:36Z</time>
  <speed>2.030000</speed>
</trkpt>
<trkpt lat="32.865192413" lon="35.246700287">
  <ele>251.005127</ele>
  <time>2011-11-12T07:00:38Z</time>
  <speed>1.880000</speed>
</trkpt>
<trkpt lat="32.865158081" lon="35.246726990">
  <ele>249.891846</ele>
  <time>2011-11-12T07:00:41Z</time>
  <speed>1.890000</speed>
</trkpt>
<trkpt lat="32.865131378" lon="35.246746063">
  <ele>250.048096</ele>
  <time>2011-11-12T07:00:43Z</time>
  <speed>1.690000</speed>
</trkpt>
<trkpt lat="32.865097046" lon="35.246768951">
  <ele>249.594971</ele>
  <time>2011-11-12T07:00:46Z</time>
  <speed>1.500000</speed>
</trkpt>
<trkpt lat="32.865066528" lon="35.246788025">
  <ele>248.927002</ele>
  <time>2011-11-12T07:00:48Z</time>
  <speed>1.700000</speed>
</trkpt>
<trkpt lat="32.865032196" lon="35.246803284">
  <ele>248.817627</ele>
  <time>2011-11-12T07:00:50Z</time>
  <speed>1.460000</speed>
</trkpt>
<trkpt lat="32.865009308" lon="35.246822357">
  <ele>248.356689</ele>
  <time>2011-11-12T07:00:52Z</time>
  <speed>1.350000</speed>
</trkpt>
<trkpt lat="32.864971161" lon="35.246829987">
  <ele>248.122314</ele>
  <time>2011-11-12T07:00:54Z</time>
  <speed>1.850000</speed>
</trkpt>
<trkpt lat="32.864933014" lon="35.246849060">
  <ele>247.552002</ele>
  <time>2011-11-12T07:00:56Z</time>
  <speed>1.860000</speed>
</trkpt>
<trkpt lat="32.864894867" lon="35.246860504">
  <ele>246.962158</ele>
  <time>2011-11-12T07:00:58Z</time>
  <speed>1.800000</speed>
</trkpt>
<trkpt lat="32.864860535" lon="35.246829987">
  <ele>247.009033</ele>
  <time>2011-11-12T07:01:00Z</time>
  <speed>1.860000</speed>
</trkpt>
<trkpt lat="32.864814758" lon="35.246810913">
  <ele>247.872314</ele>
  <time>2011-11-12T07:01:02Z</time>
  <speed>1.460000</speed>
</trkpt>
<trkpt lat="32.864780426" lon="35.246810913">
  <ele>248.458252</ele>
  <time>2011-11-12T07:01:04Z</time>
  <speed>1.360000</speed>
</trkpt>
<trkpt lat="32.864749908" lon="35.246803284">
  <ele>250.141846</ele>
  <time>2011-11-12T07:01:06Z</time>
  <speed>1.700000</speed>
</trkpt>
<trkpt lat="32.864711761" lon="35.246803284">
  <ele>252.032471</ele>
  <time>2011-11-12T07:01:08Z</time>
  <speed>1.680000</speed>
</trkpt>
<trkpt lat="32.864681244" lon="35.246807098">
  <ele>252.188721</ele>
  <time>2011-11-12T07:01:10Z</time>
  <speed>1.780000</speed>
</trkpt>
<trkpt lat="32.864635468" lon="35.246822357">
  <ele>253.399658</ele>
  <time>2011-11-12T07:01:13Z</time>
  <speed>1.670000</speed>
</trkpt>
<trkpt lat="32.864604950" lon="35.246822357">
  <ele>254.208252</ele>
  <time>2011-11-12T07:01:15Z</time>
  <speed>1.600000</speed>
</trkpt>
<trkpt lat="32.864570618" lon="35.246837616">
  <ele>254.329346</ele>
  <time>2011-11-12T07:01:17Z</time>
  <speed>1.990000</speed>
</trkpt>
<trkpt lat="32.864532471" lon="35.246856689">
  <ele>254.235596</ele>
  <time>2011-11-12T07:01:19Z</time>
  <speed>1.850000</speed>
</trkpt>
<trkpt lat="32.864505768" lon="35.246879578">
  <ele>254.716064</ele>
  <time>2011-11-12T07:01:21Z</time>
  <speed>2.160000</speed>
</trkpt>
<trkpt lat="32.864479065" lon="35.246913910">
  <ele>254.759033</ele>
  <time>2011-11-12T07:01:23Z</time>
  <speed>1.880000</speed>
</trkpt>
<trkpt lat="32.864459991" lon="35.246952057">
  <ele>254.419189</ele>
  <time>2011-11-12T07:01:25Z</time>
  <speed>1.950000</speed>
</trkpt>
<trkpt lat="32.864433289" lon="35.246978760">
  <ele>255.309814</ele>
  <time>2011-11-12T07:01:27Z</time>
  <speed>1.590000</speed>
</trkpt>
<trkpt lat="32.864395142" lon="35.247013092">
  <ele>256.666504</ele>
  <time>2011-11-12T07:01:30Z</time>
  <speed>1.540000</speed>
</trkpt>
<trkpt lat="32.864360809" lon="35.247043610">
  <ele>258.658691</ele>
  <time>2011-11-12T07:01:32Z</time>
  <speed>1.700000</speed>
</trkpt>
<trkpt lat="32.864341736" lon="35.247070313">
  <ele>260.752441</ele>
  <time>2011-11-12T07:01:34Z</time>
  <speed>1.680000</speed>
</trkpt>
<trkpt lat="32.864311218" lon="35.247108459">
  <ele>261.064941</ele>
  <time>2011-11-12T07:01:37Z</time>
  <speed>1.430000</speed>
</trkpt>
<trkpt lat="32.864295959" lon="35.247138977">
  <ele>261.674316</ele>
  <time>2011-11-12T07:01:39Z</time>
  <speed>1.480000</speed>
</trkpt>
<trkpt lat="32.864273071" lon="35.247158051">
  <ele>261.752441</ele>
  <time>2011-11-12T07:01:41Z</time>
  <speed>1.200000</speed>
</trkpt>
<trkpt lat="32.864250183" lon="35.247173309">
  <ele>262.791504</ele>
  <time>2011-11-12T07:01:43Z</time>
  <speed>1.540000</speed>
</trkpt>
<trkpt lat="32.864227295" lon="35.247196198">
  <ele>262.486816</ele>
  <time>2011-11-12T07:01:45Z</time>
  <speed>1.600000</speed>
</trkpt>
<trkpt lat="32.864200592" lon="35.247207642">
  <ele>263.666504</ele>
  <time>2011-11-12T07:01:47Z</time>
  <speed>1.340000</speed>
</trkpt>
<trkpt lat="32.864170074" lon="35.247211456">
  <ele>264.541504</ele>
  <time>2011-11-12T07:01:49Z</time>
  <speed>1.480000</speed>
</trkpt>
<trkpt lat="32.864151001" lon="35.247234344">
  <ele>265.338379</ele>
  <time>2011-11-12T07:01:51Z</time>
  <speed>1.250000</speed>
</trkpt>
<trkpt lat="32.864124298" lon="35.247264862">
  <ele>265.025879</ele>
  <time>2011-11-12T07:01:54Z</time>
  <speed>1.350000</speed>
</trkpt>
<trkpt lat="32.864105225" lon="35.247295380">
  <ele>265.814941</ele>
  <time>2011-11-12T07:01:56Z</time>
  <speed>1.260000</speed>
</trkpt>
<trkpt lat="32.864089966" lon="35.247329712">
  <ele>266.619629</ele>
  <time>2011-11-12T07:01:58Z</time>
  <speed>1.630000</speed>
</trkpt>
<trkpt lat="32.864067078" lon="35.247360229">
  <ele>267.627441</ele>
  <time>2011-11-12T07:02:00Z</time>
  <speed>1.620000</speed>
</trkpt>
<trkpt lat="32.864040375" lon="35.247390747">
  <ele>268.072754</ele>
  <time>2011-11-12T07:02:02Z</time>
  <speed>1.840000</speed>
</trkpt>
<trkpt lat="32.864028931" lon="35.247428894">
  <ele>269.697754</ele>
  <time>2011-11-12T07:02:04Z</time>
  <speed>1.840000</speed>
</trkpt>
<trkpt lat="32.864006042" lon="35.247463226">
  <ele>271.189941</ele>
  <time>2011-11-12T07:02:07Z</time>
  <speed>1.380000</speed>
</trkpt>
<trkpt lat="32.863986969" lon="35.247486115">
  <ele>271.729004</ele>
  <time>2011-11-12T07:02:09Z</time>
  <speed>1.270000</speed>
</trkpt>
<trkpt lat="32.863975525" lon="35.247524261">
  <ele>272.752441</ele>
  <time>2011-11-12T07:02:12Z</time>
  <speed>1.200000</speed>
</trkpt>
<trkpt lat="32.863975525" lon="35.247558594">
  <ele>272.377441</ele>
  <time>2011-11-12T07:02:14Z</time>
  <speed>1.150000</speed>
</trkpt>
<trkpt lat="32.863948822" lon="35.247596741">
  <ele>272.189941</ele>
  <time>2011-11-12T07:02:17Z</time>
  <speed>1.190000</speed>
</trkpt>
<trkpt lat="32.863922119" lon="35.247615814">
  <ele>272.924316</ele>
  <time>2011-11-12T07:02:20Z</time>
  <speed>1.160000</speed>
</trkpt>
<trkpt lat="32.863910675" lon="35.247665405">
  <ele>273.596191</ele>
  <time>2011-11-12T07:02:23Z</time>
  <speed>1.410000</speed>
</trkpt>
<trkpt lat="32.863887787" lon="35.247695923">
  <ele>273.900879</ele>
  <time>2011-11-12T07:02:26Z</time>
  <speed>1.120000</speed>
</trkpt>
<trkpt lat="32.863876343" lon="35.247734070">
  <ele>272.619629</ele>
  <time>2011-11-12T07:02:29Z</time>
  <speed>1.370000</speed>
</trkpt>
<trkpt lat="32.863849640" lon="35.247764587">
  <ele>272.689941</ele>
  <time>2011-11-12T07:02:32Z</time>
  <speed>1.380000</speed>
</trkpt>
<trkpt lat="32.863819122" lon="35.247787476">
  <ele>273.619629</ele>
  <time>2011-11-12T07:02:35Z</time>
  <speed>1.380000</speed>
</trkpt>
<trkpt lat="32.863792419" lon="35.247798920">
  <ele>274.189941</ele>
  <time>2011-11-12T07:02:37Z</time>
  <speed>1.490000</speed>
</trkpt>
<trkpt lat="32.863769531" lon="35.247825623">
  <ele>274.729004</ele>
  <time>2011-11-12T07:02:40Z</time>
  <speed>1.070000</speed>
</trkpt>
<trkpt lat="32.863761902" lon="35.247871399">
  <ele>274.533691</ele>
  <time>2011-11-12T07:02:43Z</time>
  <speed>0.930000</speed>
</trkpt>
<trkpt lat="32.863727570" lon="35.247852325">
  <ele>275.041504</ele>
  <time>2011-11-12T07:02:46Z</time>
  <speed>1.340000</speed>
</trkpt>
<trkpt lat="32.863697052" lon="35.247844696">
  <ele>274.885254</ele>
  <time>2011-11-12T07:02:49Z</time>
  <speed>0.920000</speed>
</trkpt>
<trkpt lat="32.863723755" lon="35.247863770">
  <ele>275.182129</ele>
  <time>2011-11-12T07:02:53Z</time>
  <speed>1.620000</speed>
</trkpt>
<trkpt lat="32.863750458" lon="35.247837067">
  <ele>274.346191</ele>
  <time>2011-11-12T07:02:55Z</time>
  <speed>2.050000</speed>
</trkpt>
<trkpt lat="32.863773346" lon="35.247817993">
  <ele>275.221191</ele>
  <time>2011-11-12T07:02:57Z</time>
  <speed>1.660000</speed>
</trkpt>
<trkpt lat="32.863807678" lon="35.247814178">
  <ele>276.463379</ele>
  <time>2011-11-12T07:03:00Z</time>
  <speed>1.140000</speed>
</trkpt>
<trkpt lat="32.863830566" lon="35.247802734">
  <ele>277.650879</ele>
  <time>2011-11-12T07:03:03Z</time>
  <speed>1.560000</speed>
</trkpt>
<trkpt lat="32.863861084" lon="35.247806549">
  <ele>278.471191</ele>
  <time>2011-11-12T07:03:05Z</time>
  <speed>1.260000</speed>
</trkpt>
<trkpt lat="32.863899231" lon="35.247806549">
  <ele>278.494629</ele>
  <time>2011-11-12T07:03:08Z</time>
  <speed>1.940000</speed>
</trkpt>
<trkpt lat="32.863929749" lon="35.247806549">
  <ele>279.252441</ele>
  <time>2011-11-12T07:03:09Z</time>
  <speed>1.910000</speed>
</trkpt>
<trkpt lat="32.863964081" lon="35.247795105">
  <ele>280.580566</ele>
  <time>2011-11-12T07:03:11Z</time>
  <speed>1.830000</speed>
</trkpt>
<trkpt lat="32.863998413" lon="35.247787476">
  <ele>281.650879</ele>
  <time>2011-11-12T07:03:13Z</time>
  <speed>1.560000</speed>
</trkpt>
<trkpt lat="32.864025116" lon="35.247772217">
  <ele>280.986816</ele>
  <time>2011-11-12T07:03:16Z</time>
  <speed>1.200000</speed>
</trkpt>
<trkpt lat="32.864055634" lon="35.247772217">
  <ele>280.205566</ele>
  <time>2011-11-12T07:03:19Z</time>
  <speed>1.510000</speed>
</trkpt>
<trkpt lat="32.864097595" lon="35.247779846">
  <ele>280.932129</ele>
  <time>2011-11-12T07:03:22Z</time>
  <speed>1.640000</speed>
</trkpt>
<trkpt lat="32.864128113" lon="35.247783661">
  <ele>280.666504</ele>
  <time>2011-11-12T07:03:24Z</time>
  <speed>1.410000</speed>
</trkpt>
<trkpt lat="32.864162445" lon="35.247779846">
  <ele>280.674316</ele>
  <time>2011-11-12T07:03:26Z</time>
  <speed>1.620000</speed>
</trkpt>
<trkpt lat="32.864189148" lon="35.247783661">
  <ele>280.697754</ele>
  <time>2011-11-12T07:03:28Z</time>
  <speed>1.500000</speed>
</trkpt>
<trkpt lat="32.864219666" lon="35.247787476">
  <ele>280.814941</ele>
  <time>2011-11-12T07:03:30Z</time>
  <speed>1.830000</speed>
</trkpt>
<trkpt lat="32.864257813" lon="35.247779846">
  <ele>280.643066</ele>
  <time>2011-11-12T07:03:32Z</time>
  <speed>1.460000</speed>
</trkpt>
<trkpt lat="32.864284515" lon="35.247779846">
  <ele>281.393066</ele>
  <time>2011-11-12T07:03:34Z</time>
  <speed>1.680000</speed>
</trkpt>
<trkpt lat="32.864315033" lon="35.247783661">
  <ele>281.736816</ele>
  <time>2011-11-12T07:03:36Z</time>
  <speed>1.600000</speed>
</trkpt>
<trkpt lat="32.864345551" lon="35.247783661">
  <ele>281.877441</ele>
  <time>2011-11-12T07:03:38Z</time>
  <speed>1.290000</speed>
</trkpt>
<trkpt lat="32.864387512" lon="35.247776031">
  <ele>282.768066</ele>
  <time>2011-11-12T07:03:41Z</time>
  <speed>1.540000</speed>
</trkpt>
<trkpt lat="32.864421844" lon="35.247779846">
  <ele>282.635254</ele>
  <time>2011-11-12T07:03:44Z</time>
  <speed>1.390000</speed>
</trkpt>
<trkpt lat="32.864448547" lon="35.247787476">
  <ele>283.064941</ele>
  <time>2011-11-12T07:03:46Z</time>
  <speed>1.540000</speed>
</trkpt>
<trkpt lat="32.864490509" lon="35.247795105">
  <ele>282.432129</ele>
  <time>2011-11-12T07:03:49Z</time>
  <speed>1.820000</speed>
</trkpt>
<trkpt lat="32.864528656" lon="35.247806549">
  <ele>282.346191</ele>
  <time>2011-11-12T07:03:51Z</time>
  <speed>1.770000</speed>
</trkpt>
<trkpt lat="32.864562988" lon="35.247825623">
  <ele>281.400879</ele>
  <time>2011-11-12T07:03:53Z</time>
  <speed>1.540000</speed>
</trkpt>
<trkpt lat="32.864597321" lon="35.247817993">
  <ele>281.158691</ele>
  <time>2011-11-12T07:03:55Z</time>
  <speed>2.020000</speed>
</trkpt>
<trkpt lat="32.864631653" lon="35.247829437">
  <ele>280.994629</ele>
  <time>2011-11-12T07:03:57Z</time>
  <speed>1.540000</speed>
</trkpt>
<trkpt lat="32.864669800" lon="35.247837067">
  <ele>280.736816</ele>
  <time>2011-11-12T07:03:59Z</time>
  <speed>2.390000</speed>
</trkpt>
<trkpt lat="32.864707947" lon="35.247844696">
  <ele>280.377441</ele>
  <time>2011-11-12T07:04:01Z</time>
  <speed>1.480000</speed>
</trkpt>
<trkpt lat="32.864738464" lon="35.247852325">
  <ele>279.424316</ele>
  <time>2011-11-12T07:04:03Z</time>
  <speed>1.970000</speed>
</trkpt>
<trkpt lat="32.864776611" lon="35.247856140">
  <ele>279.150879</ele>
  <time>2011-11-12T07:04:05Z</time>
  <speed>2.180000</speed>
</trkpt>
<trkpt lat="32.864830017" lon="35.247863770">
  <ele>278.963379</ele>
  <time>2011-11-12T07:04:07Z</time>
  <speed>2.360000</speed>
</trkpt>
<trkpt lat="32.864875793" lon="35.247871399">
  <ele>277.939941</ele>
  <time>2011-11-12T07:04:09Z</time>
  <speed>2.490000</speed>
</trkpt>
<trkpt lat="32.864921570" lon="35.247875214">
  <ele>277.924316</ele>
  <time>2011-11-12T07:04:11Z</time>
  <speed>2.840000</speed>
</trkpt>
<trkpt lat="32.864967346" lon="35.247871399">
  <ele>278.119629</ele>
  <time>2011-11-12T07:04:13Z</time>
  <speed>1.970000</speed>
</trkpt>
<trkpt lat="32.865005493" lon="35.247867584">
  <ele>277.361816</ele>
  <time>2011-11-12T07:04:15Z</time>
  <speed>2.010000</speed>
</trkpt>
<trkpt lat="32.865047455" lon="35.247859955">
  <ele>277.682129</ele>
  <time>2011-11-12T07:04:17Z</time>
  <speed>1.920000</speed>
</trkpt>
<trkpt lat="32.865081787" lon="35.247871399">
  <ele>279.416504</ele>
  <time>2011-11-12T07:04:20Z</time>
  <speed>2.210000</speed>
</trkpt>
<trkpt lat="32.865119934" lon="35.247886658">
  <ele>279.971191</ele>
  <time>2011-11-12T07:04:22Z</time>
  <speed>1.780000</speed>
</trkpt>
<trkpt lat="32.865169525" lon="35.247894287">
  <ele>279.393066</ele>
  <time>2011-11-12T07:04:24Z</time>
  <speed>1.700000</speed>
</trkpt>
<trkpt lat="32.865196228" lon="35.247913361">
  <ele>279.244629</ele>
  <time>2011-11-12T07:04:26Z</time>
  <speed>1.720000</speed>
</trkpt>
<trkpt lat="32.865215302" lon="35.247943878">
  <ele>280.400879</ele>
  <time>2011-11-12T07:04:29Z</time>
  <speed>1.640000</speed>
</trkpt>
<trkpt lat="32.865249634" lon="35.247978210">
  <ele>280.299316</ele>
  <time>2011-11-12T07:04:31Z</time>
  <speed>1.840000</speed>
</trkpt>
<trkpt lat="32.865280151" lon="35.247989655">
  <ele>280.518066</ele>
  <time>2011-11-12T07:04:32Z</time>
  <speed>1.810000</speed>
</trkpt>
<trkpt lat="32.865306854" lon="35.248023987">
  <ele>280.627441</ele>
  <time>2011-11-12T07:04:34Z</time>
  <speed>1.810000</speed>
</trkpt>
<trkpt lat="32.865310669" lon="35.248058319">
  <ele>281.025879</ele>
  <time>2011-11-12T07:04:36Z</time>
  <speed>1.260000</speed>
</trkpt>
<trkpt lat="32.865341187" lon="35.248065948">
  <ele>282.158691</ele>
  <time>2011-11-12T07:04:39Z</time>
  <speed>1.370000</speed>
</trkpt>
<trkpt lat="32.865367889" lon="35.248096466">
  <ele>282.088379</ele>
  <time>2011-11-12T07:04:42Z</time>
  <speed>1.440000</speed>
</trkpt>
<trkpt lat="32.865383148" lon="35.248123169">
  <ele>282.580566</ele>
  <time>2011-11-12T07:04:44Z</time>
  <speed>1.380000</speed>
</trkpt>
<trkpt lat="32.865409851" lon="35.248161316">
  <ele>283.041504</ele>
  <time>2011-11-12T07:04:46Z</time>
  <speed>1.730000</speed>
</trkpt>
<trkpt lat="32.865428925" lon="35.248184204">
  <ele>283.127441</ele>
  <time>2011-11-12T07:04:47Z</time>
  <speed>1.670000</speed>
</trkpt>
<trkpt lat="32.865455627" lon="35.248203278">
  <ele>283.072754</ele>
  <time>2011-11-12T07:04:48Z</time>
  <speed>1.860000</speed>
</trkpt>
<trkpt lat="32.865493774" lon="35.248226166">
  <ele>283.338379</ele>
  <time>2011-11-12T07:04:49Z</time>
  <speed>1.960000</speed>
</trkpt>
<trkpt lat="32.865524292" lon="35.248260498">
  <ele>283.205566</ele>
  <time>2011-11-12T07:04:50Z</time>
  <speed>2.140000</speed>
</trkpt>
<trkpt lat="32.865547180" lon="35.248279572">
  <ele>283.658691</ele>
  <time>2011-11-12T07:04:51Z</time>
  <speed>1.880000</speed>
</trkpt>
<trkpt lat="32.865589142" lon="35.248294830">
  <ele>283.963379</ele>
  <time>2011-11-12T07:04:53Z</time>
  <speed>1.670000</speed>
</trkpt>
<trkpt lat="32.865612030" lon="35.248310089">
  <ele>284.877441</ele>
  <time>2011-11-12T07:04:55Z</time>
  <speed>1.520000</speed>
</trkpt>
<trkpt lat="32.865642548" lon="35.248336792">
  <ele>285.447754</ele>
  <time>2011-11-12T07:04:57Z</time>
  <speed>1.650000</speed>
</trkpt>
<trkpt lat="32.865669250" lon="35.248371124">
  <ele>286.713379</ele>
  <time>2011-11-12T07:04:59Z</time>
  <speed>1.410000</speed>
</trkpt>
<trkpt lat="32.865692139" lon="35.248382568">
  <ele>288.877441</ele>
  <time>2011-11-12T07:05:01Z</time>
  <speed>1.540000</speed>
</trkpt>
<trkpt lat="32.865726471" lon="35.248416901">
  <ele>289.010254</ele>
  <time>2011-11-12T07:05:04Z</time>
  <speed>1.650000</speed>
</trkpt>
<trkpt lat="32.865760803" lon="35.248443604">
  <ele>289.385254</ele>
  <time>2011-11-12T07:05:06Z</time>
  <speed>1.550000</speed>
</trkpt>
<trkpt lat="32.865806580" lon="35.248447418">
  <ele>290.064941</ele>
  <time>2011-11-12T07:05:09Z</time>
  <speed>1.330000</speed>
</trkpt>
<trkpt lat="32.865829468" lon="35.248462677">
  <ele>291.838379</ele>
  <time>2011-11-12T07:05:12Z</time>
  <speed>1.160000</speed>
</trkpt>
<trkpt lat="32.865867615" lon="35.248466492">
  <ele>292.596191</ele>
  <time>2011-11-12T07:05:15Z</time>
  <speed>0.840000</speed>
</trkpt>
<trkpt lat="32.865898132" lon="35.248458862">
  <ele>293.104004</ele>
  <time>2011-11-12T07:05:17Z</time>
  <speed>1.370000</speed>
</trkpt>
<trkpt lat="32.865928650" lon="35.248462677">
  <ele>292.838379</ele>
  <time>2011-11-12T07:05:19Z</time>
  <speed>1.530000</speed>
</trkpt>
<trkpt lat="32.865970612" lon="35.248462677">
  <ele>293.080566</ele>
  <time>2011-11-12T07:05:21Z</time>
  <speed>1.310000</speed>
</trkpt>
<trkpt lat="32.866001129" lon="35.248462677">
  <ele>293.463379</ele>
  <time>2011-11-12T07:05:23Z</time>
  <speed>1.470000</speed>
</trkpt>
<trkpt lat="32.866035461" lon="35.248477936">
  <ele>293.260254</ele>
  <time>2011-11-12T07:05:25Z</time>
  <speed>1.420000</speed>
</trkpt>
<trkpt lat="32.866058350" lon="35.248504639">
  <ele>293.275879</ele>
  <time>2011-11-12T07:05:27Z</time>
  <speed>1.080000</speed>
</trkpt>
<trkpt lat="32.866085052" lon="35.248527527">
  <ele>293.104004</ele>
  <time>2011-11-12T07:05:29Z</time>
  <speed>1.610000</speed>
</trkpt>
<trkpt lat="32.866104126" lon="35.248546600">
  <ele>295.408691</ele>
  <time>2011-11-12T07:05:31Z</time>
  <speed>1.300000</speed>
</trkpt>
<trkpt lat="32.866088867" lon="35.248588562">
  <ele>295.314941</ele>
  <time>2011-11-12T07:05:34Z</time>
  <speed>1.350000</speed>
</trkpt>
<trkpt lat="32.866077423" lon="35.248630524">
  <ele>295.900879</ele>
  <time>2011-11-12T07:05:37Z</time>
  <speed>1.220000</speed>
</trkpt>
<trkpt lat="32.866046906" lon="35.248661041">
  <ele>296.049316</ele>
  <time>2011-11-12T07:05:40Z</time>
  <speed>1.410000</speed>
</trkpt>
<trkpt lat="32.866020203" lon="35.248695374">
  <ele>296.736816</ele>
  <time>2011-11-12T07:05:42Z</time>
  <speed>1.510000</speed>
</trkpt>
<trkpt lat="32.866001129" lon="35.248718262">
  <ele>296.893066</ele>
  <time>2011-11-12T07:05:44Z</time>
  <speed>1.410000</speed>
</trkpt>
<trkpt lat="32.865978241" lon="35.248733521">
  <ele>297.807129</ele>
  <time>2011-11-12T07:05:46Z</time>
  <speed>1.550000</speed>
</trkpt>
<trkpt lat="32.865947723" lon="35.248744965">
  <ele>297.486816</ele>
  <time>2011-11-12T07:05:48Z</time>
  <speed>1.640000</speed>
</trkpt>
<trkpt lat="32.865913391" lon="35.248760223">
  <ele>297.619629</ele>
  <time>2011-11-12T07:05:50Z</time>
  <speed>1.330000</speed>
</trkpt>
<trkpt lat="32.865886688" lon="35.248767853">
  <ele>296.955566</ele>
  <time>2011-11-12T07:05:52Z</time>
  <speed>1.410000</speed>
</trkpt>
<trkpt lat="32.865856171" lon="35.248783112">
  <ele>297.377441</ele>
  <time>2011-11-12T07:05:54Z</time>
  <speed>1.570000</speed>
</trkpt>
<trkpt lat="32.865829468" lon="35.248798370">
  <ele>298.518066</ele>
  <time>2011-11-12T07:05:55Z</time>
  <speed>1.550000</speed>
</trkpt>
<trkpt lat="32.865806580" lon="35.248817444">
  <ele>299.330566</ele>
  <time>2011-11-12T07:05:56Z</time>
  <speed>1.720000</speed>
</trkpt>
<trkpt lat="32.865776062" lon="35.248817444">
  <ele>299.986816</ele>
  <time>2011-11-12T07:05:58Z</time>
  <speed>1.640000</speed>
</trkpt>
<trkpt lat="32.865737915" lon="35.248828888">
  <ele>300.908691</ele>
  <time>2011-11-12T07:06:01Z</time>
  <speed>1.680000</speed>
</trkpt>
<trkpt lat="32.865711212" lon="35.248844147">
  <ele>301.361816</ele>
  <time>2011-11-12T07:06:03Z</time>
  <speed>1.690000</speed>
</trkpt>
<trkpt lat="32.865680695" lon="35.248844147">
  <ele>302.174316</ele>
  <time>2011-11-12T07:06:05Z</time>
  <speed>1.420000</speed>
</trkpt>
<trkpt lat="32.865650177" lon="35.248847961">
  <ele>301.713379</ele>
  <time>2011-11-12T07:06:07Z</time>
  <speed>1.670000</speed>
</trkpt>
<trkpt lat="32.865619659" lon="35.248863220">
  <ele>302.525879</ele>
  <time>2011-11-12T07:06:09Z</time>
  <speed>1.450000</speed>
</trkpt>
<trkpt lat="32.865589142" lon="35.248882294">
  <ele>303.150879</ele>
  <time>2011-11-12T07:06:11Z</time>
  <speed>1.600000</speed>
</trkpt>
<trkpt lat="32.865562439" lon="35.248889923">
  <ele>303.354004</ele>
  <time>2011-11-12T07:06:13Z</time>
  <speed>1.450000</speed>
</trkpt>
<trkpt lat="32.865531921" lon="35.248893738">
  <ele>303.705566</ele>
  <time>2011-11-12T07:06:15Z</time>
  <speed>1.650000</speed>
</trkpt>
<trkpt lat="32.865501404" lon="35.248889923">
  <ele>303.510254</ele>
  <time>2011-11-12T07:06:17Z</time>
  <speed>1.760000</speed>
</trkpt>
<trkpt lat="32.865463257" lon="35.248897552">
  <ele>303.799316</ele>
  <time>2011-11-12T07:06:19Z</time>
  <speed>1.710000</speed>
</trkpt>
<trkpt lat="32.865432739" lon="35.248905182">
  <ele>303.604004</ele>
  <time>2011-11-12T07:06:21Z</time>
  <speed>1.870000</speed>
</trkpt>
<trkpt lat="32.865390778" lon="35.248897552">
  <ele>303.697754</ele>
  <time>2011-11-12T07:06:24Z</time>
  <speed>1.760000</speed>
</trkpt>
<trkpt lat="32.865345001" lon="35.248901367">
  <ele>303.807129</ele>
  <time>2011-11-12T07:06:27Z</time>
  <speed>1.830000</speed>
</trkpt>
<trkpt lat="32.865314484" lon="35.248905182">
  <ele>305.018066</ele>
  <time>2011-11-12T07:06:29Z</time>
  <speed>1.700000</speed>
</trkpt>
<trkpt lat="32.865280151" lon="35.248897552">
  <ele>305.611816</ele>
  <time>2011-11-12T07:06:31Z</time>
  <speed>1.660000</speed>
</trkpt>
<trkpt lat="32.865242004" lon="35.248897552">
  <ele>306.166504</ele>
  <time>2011-11-12T07:06:33Z</time>
  <speed>1.830000</speed>
</trkpt>
<trkpt lat="32.865200043" lon="35.248886108">
  <ele>306.619629</ele>
  <time>2011-11-12T07:06:36Z</time>
  <speed>1.610000</speed>
</trkpt>
<trkpt lat="32.865169525" lon="35.248889923">
  <ele>307.283691</ele>
  <time>2011-11-12T07:06:38Z</time>
  <speed>1.520000</speed>
</trkpt>
<trkpt lat="32.865142822" lon="35.248882294">
  <ele>306.736816</ele>
  <time>2011-11-12T07:06:40Z</time>
  <speed>1.540000</speed>
</trkpt>
<trkpt lat="32.865108490" lon="35.248870850">
  <ele>307.158691</ele>
  <time>2011-11-12T07:06:42Z</time>
  <speed>1.650000</speed>
</trkpt>
<trkpt lat="32.865081787" lon="35.248867035">
  <ele>307.611816</ele>
  <time>2011-11-12T07:06:44Z</time>
  <speed>1.330000</speed>
</trkpt>
<trkpt lat="32.865055084" lon="35.248863220">
  <ele>306.939941</ele>
  <time>2011-11-12T07:06:46Z</time>
  <speed>1.370000</speed>
</trkpt>
<trkpt lat="32.865028381" lon="35.248874664">
  <ele>307.244629</ele>
  <time>2011-11-12T07:06:48Z</time>
  <speed>1.320000</speed>
</trkpt>
<trkpt lat="32.865001678" lon="35.248874664">
  <ele>306.627441</ele>
  <time>2011-11-12T07:06:50Z</time>
  <speed>1.430000</speed>
</trkpt>
<trkpt lat="32.864959717" lon="35.248886108">
  <ele>305.979004</ele>
  <time>2011-11-12T07:06:53Z</time>
  <speed>1.330000</speed>
</trkpt>
<trkpt lat="32.864936829" lon="35.248908997">
  <ele>305.713379</ele>
  <time>2011-11-12T07:06:55Z</time>
  <speed>1.490000</speed>
</trkpt>
<trkpt lat="32.864913940" lon="35.248928070">
  <ele>305.549316</ele>
  <time>2011-11-12T07:06:57Z</time>
  <speed>1.330000</speed>
</trkpt>
<trkpt lat="32.864875793" lon="35.248954773">
  <ele>305.955566</ele>
  <time>2011-11-12T07:07:00Z</time>
  <speed>1.530000</speed>
</trkpt>
<trkpt lat="32.864845276" lon="35.248970032">
  <ele>306.549316</ele>
  <time>2011-11-12T07:07:02Z</time>
  <speed>1.490000</speed>
</trkpt>
<trkpt lat="32.864807129" lon="35.248981476">
  <ele>306.705566</ele>
  <time>2011-11-12T07:07:05Z</time>
  <speed>1.300000</speed>
</trkpt>
<trkpt lat="32.864776611" lon="35.249008179">
  <ele>306.533691</ele>
  <time>2011-11-12T07:07:08Z</time>
  <speed>1.520000</speed>
</trkpt>
<trkpt lat="32.864746094" lon="35.249019623">
  <ele>306.736816</ele>
  <time>2011-11-12T07:07:10Z</time>
  <speed>1.530000</speed>
</trkpt>
<trkpt lat="32.864719391" lon="35.249031067">
  <ele>306.783691</ele>
  <time>2011-11-12T07:07:12Z</time>
  <speed>1.750000</speed>
</trkpt>
<trkpt lat="32.864688873" lon="35.249034882">
  <ele>307.416504</ele>
  <time>2011-11-12T07:07:14Z</time>
  <speed>1.890000</speed>
</trkpt>
<trkpt lat="32.864643097" lon="35.249050140">
  <ele>308.330566</ele>
  <time>2011-11-12T07:07:16Z</time>
  <speed>2.220000</speed>
</trkpt>
<trkpt lat="32.864612579" lon="35.249057770">
  <ele>307.885254</ele>
  <time>2011-11-12T07:07:18Z</time>
  <speed>1.930000</speed>
</trkpt>
<trkpt lat="32.864574432" lon="35.249065399">
  <ele>307.900879</ele>
  <time>2011-11-12T07:07:20Z</time>
  <speed>2.290000</speed>
</trkpt>
<trkpt lat="32.864532471" lon="35.249076843">
  <ele>308.307129</ele>
  <time>2011-11-12T07:07:22Z</time>
  <speed>2.810000</speed>
</trkpt>
<trkpt lat="32.864479065" lon="35.249088287">
  <ele>307.916504</ele>
  <time>2011-11-12T07:07:24Z</time>
  <speed>3.130000</speed>
</trkpt>
<trkpt lat="32.864421844" lon="35.249107361">
  <ele>306.533691</ele>
  <time>2011-11-12T07:07:26Z</time>
  <speed>3.580000</speed>
</trkpt>
<trkpt lat="32.864395142" lon="35.249114990">
  <ele>306.307129</ele>
  <time>2011-11-12T07:07:27Z</time>
  <speed>3.470000</speed>
</trkpt>
<trkpt lat="32.864360809" lon="35.249122620">
  <ele>306.025879</ele>
  <time>2011-11-12T07:07:28Z</time>
  <speed>3.610000</speed>
</trkpt>
<trkpt lat="32.864330292" lon="35.249126434">
  <ele>305.947754</ele>
  <time>2011-11-12T07:07:29Z</time>
  <speed>3.300000</speed>
</trkpt>
<trkpt lat="32.864295959" lon="35.249130249">
  <ele>305.963379</ele>
  <time>2011-11-12T07:07:30Z</time>
  <speed>3.110000</speed>
</trkpt>
<trkpt lat="32.864250183" lon="35.249149323">
  <ele>305.400879</ele>
  <time>2011-11-12T07:07:32Z</time>
  <speed>2.710000</speed>
</trkpt>
<trkpt lat="32.864208221" lon="35.249164581">
  <ele>304.533691</ele>
  <time>2011-11-12T07:07:34Z</time>
  <speed>2.050000</speed>
</trkpt>
<trkpt lat="32.864170074" lon="35.249179840">
  <ele>303.291504</ele>
  <time>2011-11-12T07:07:36Z</time>
  <speed>2.170000</speed>
</trkpt>
<trkpt lat="32.864124298" lon="35.249202728">
  <ele>302.713379</ele>
  <time>2011-11-12T07:07:38Z</time>
  <speed>2.930000</speed>
</trkpt>
<trkpt lat="32.864097595" lon="35.249214172">
  <ele>302.955566</ele>
  <time>2011-11-12T07:07:39Z</time>
  <speed>3.500000</speed>
</trkpt>
<trkpt lat="32.864063263" lon="35.249229431">
  <ele>302.658691</ele>
  <time>2011-11-12T07:07:40Z</time>
  <speed>4.040000</speed>
</trkpt>
<trkpt lat="32.864028931" lon="35.249248505">
  <ele>302.986816</ele>
  <time>2011-11-12T07:07:41Z</time>
  <speed>4.270000</speed>
</trkpt>
<trkpt lat="32.863990784" lon="35.249263763">
  <ele>302.463379</ele>
  <time>2011-11-12T07:07:42Z</time>
  <speed>4.310000</speed>
</trkpt>
<trkpt lat="32.863948822" lon="35.249286652">
  <ele>302.479004</ele>
  <time>2011-11-12T07:07:43Z</time>
  <speed>4.900000</speed>
</trkpt>
<trkpt lat="32.863903046" lon="35.249309540">
  <ele>304.057129</ele>
  <time>2011-11-12T07:07:44Z</time>
  <speed>4.200000</speed>
</trkpt>
<trkpt lat="32.863861084" lon="35.249328613">
  <ele>305.041504</ele>
  <time>2011-11-12T07:07:45Z</time>
  <speed>4.600000</speed>
</trkpt>
<trkpt lat="32.863822937" lon="35.249343872">
  <ele>304.924316</ele>
  <time>2011-11-12T07:07:46Z</time>
  <speed>4.490000</speed>
</trkpt>
<trkpt lat="32.863784790" lon="35.249351501">
  <ele>304.549316</ele>
  <time>2011-11-12T07:07:47Z</time>
  <speed>3.960000</speed>
</trkpt>
<trkpt lat="32.863750458" lon="35.249359131">
  <ele>304.025879</ele>
  <time>2011-11-12T07:07:48Z</time>
  <speed>3.790000</speed>
</trkpt>
<trkpt lat="32.863712311" lon="35.249366760">
  <ele>303.314941</ele>
  <time>2011-11-12T07:07:49Z</time>
  <speed>4.160000</speed>
</trkpt>
<trkpt lat="32.863677979" lon="35.249370575">
  <ele>303.260254</ele>
  <time>2011-11-12T07:07:50Z</time>
  <speed>4.580000</speed>
</trkpt>
<trkpt lat="32.863632202" lon="35.249382019">
  <ele>302.869629</ele>
  <time>2011-11-12T07:07:51Z</time>
  <speed>4.800000</speed>
</trkpt>
<trkpt lat="32.863590240" lon="35.249401093">
  <ele>302.557129</ele>
  <time>2011-11-12T07:07:52Z</time>
  <speed>4.890000</speed>
</trkpt>
<trkpt lat="32.863548279" lon="35.249431610">
  <ele>302.979004</ele>
  <time>2011-11-12T07:07:53Z</time>
  <speed>4.560000</speed>
</trkpt>
<trkpt lat="32.863517761" lon="35.249454498">
  <ele>302.783691</ele>
  <time>2011-11-12T07:07:54Z</time>
  <speed>4.080000</speed>
</trkpt>
<trkpt lat="32.863491058" lon="35.249481201">
  <ele>303.479004</ele>
  <time>2011-11-12T07:07:55Z</time>
  <speed>3.740000</speed>
</trkpt>
<trkpt lat="32.863464355" lon="35.249507904">
  <ele>303.369629</ele>
  <time>2011-11-12T07:07:56Z</time>
  <speed>3.050000</speed>
</trkpt>
<trkpt lat="32.863452911" lon="35.249534607">
  <ele>302.744629</ele>
  <time>2011-11-12T07:07:57Z</time>
  <speed>2.290000</speed>
</trkpt>
<trkpt lat="32.863449097" lon="35.249576569">
  <ele>302.447754</ele>
  <time>2011-11-12T07:07:59Z</time>
  <speed>0.310000</speed>
</trkpt>
<trkpt lat="32.863433838" lon="35.249610901">
  <ele>301.611816</ele>
  <time>2011-11-12T07:08:04Z</time>
  <speed>0.180000</speed>
</trkpt>
<trkpt lat="32.863433838" lon="35.249584198">
  <ele>303.197754</ele>
  <time>2011-11-12T07:11:34Z</time>
</trkpt>
<trkpt lat="32.863441467" lon="35.249542236">
  <ele>303.135254</ele>
  <time>2011-11-12T07:13:07Z</time>
  <speed>2.590000</speed>
</trkpt>
<trkpt lat="32.863430023" lon="35.249477386">
  <ele>302.939941</ele>
  <time>2011-11-12T07:13:09Z</time>
  <speed>3.680000</speed>
</trkpt>
<trkpt lat="32.863430023" lon="35.249435425">
  <ele>302.236816</ele>
  <time>2011-11-12T07:13:10Z</time>
  <speed>3.360000</speed>
</trkpt>
<trkpt lat="32.863430023" lon="35.249401093">
  <ele>302.182129</ele>
  <time>2011-11-12T07:13:11Z</time>
  <speed>2.320000</speed>
</trkpt>
<trkpt lat="32.863433838" lon="35.249351501">
  <ele>301.768066</ele>
  <time>2011-11-12T07:13:13Z</time>
  <speed>2.370000</speed>
</trkpt>
<trkpt lat="32.863368988" lon="35.249298096">
  <ele>300.236816</ele>
  <time>2011-11-12T07:13:15Z</time>
  <speed>4.160000</speed>
</trkpt>
<trkpt lat="32.863330841" lon="35.249286652">
  <ele>299.822754</ele>
  <time>2011-11-12T07:13:16Z</time>
  <speed>4.040000</speed>
</trkpt>
<trkpt lat="32.863304138" lon="35.249248505">
  <ele>297.924316</ele>
  <time>2011-11-12T07:13:17Z</time>
  <speed>4.390000</speed>
</trkpt>
<trkpt lat="32.863292694" lon="35.249198914">
  <ele>296.814941</ele>
  <time>2011-11-12T07:13:18Z</time>
  <speed>4.590000</speed>
</trkpt>
<trkpt lat="32.863292694" lon="35.249130249">
  <ele>295.439941</ele>
  <time>2011-11-12T07:13:19Z</time>
  <speed>6.290000</speed>
</trkpt>
<trkpt lat="32.863300323" lon="35.249057770">
  <ele>294.596191</ele>
  <time>2011-11-12T07:13:20Z</time>
  <speed>5.930000</speed>
</trkpt>
<trkpt lat="32.863315582" lon="35.249000549">
  <ele>293.564941</ele>
  <time>2011-11-12T07:13:21Z</time>
  <speed>4.800000</speed>
</trkpt>
<trkpt lat="32.863330841" lon="35.248947144">
  <ele>292.158691</ele>
  <time>2011-11-12T07:13:22Z</time>
  <speed>4.460000</speed>
</trkpt>
<trkpt lat="32.863346100" lon="35.248901367">
  <ele>291.752441</ele>
  <time>2011-11-12T07:13:23Z</time>
  <speed>4.070000</speed>
</trkpt>
<trkpt lat="32.863330841" lon="35.248851776">
  <ele>289.791504</ele>
  <time>2011-11-12T07:13:25Z</time>
  <speed>1.790000</speed>
</trkpt>
<trkpt lat="32.863300323" lon="35.248874664">
  <ele>287.854004</ele>
  <time>2011-11-12T07:13:27Z</time>
  <speed>2.610000</speed>
</trkpt>
<trkpt lat="32.863258362" lon="35.248855591">
  <ele>286.150879</ele>
  <time>2011-11-12T07:13:29Z</time>
  <speed>2.950000</speed>
</trkpt>
<trkpt lat="32.863216400" lon="35.248817444">
  <ele>283.049316</ele>
  <time>2011-11-12T07:13:31Z</time>
  <speed>3.270000</speed>
</trkpt>
<trkpt lat="32.863220215" lon="35.248756409">
  <ele>281.854004</ele>
  <time>2011-11-12T07:13:33Z</time>
  <speed>2.750000</speed>
</trkpt>
<trkpt lat="32.863178253" lon="35.248725891">
  <ele>280.736816</ele>
  <time>2011-11-12T07:13:35Z</time>
  <speed>2.910000</speed>
</trkpt>
<trkpt lat="32.863124847" lon="35.248722076">
  <ele>279.268066</ele>
  <time>2011-11-12T07:13:37Z</time>
  <speed>3.400000</speed>
</trkpt>
<trkpt lat="32.863086700" lon="35.248718262">
  <ele>278.658691</ele>
  <time>2011-11-12T07:13:38Z</time>
  <speed>4.310000</speed>
</trkpt>
<trkpt lat="32.863044739" lon="35.248706818">
  <ele>277.947754</ele>
  <time>2011-11-12T07:13:39Z</time>
  <speed>4.600000</speed>
</trkpt>
<trkpt lat="32.863002777" lon="35.248683929">
  <ele>276.729004</ele>
  <time>2011-11-12T07:13:40Z</time>
  <speed>4.530000</speed>
</trkpt>
<trkpt lat="32.862987518" lon="35.248653412">
  <ele>275.893066</ele>
  <time>2011-11-12T07:13:41Z</time>
  <speed>3.260000</speed>
</trkpt>
<trkpt lat="32.862972260" lon="35.248615265">
  <ele>275.033691</ele>
  <time>2011-11-12T07:13:42Z</time>
  <speed>3.860000</speed>
</trkpt>
<trkpt lat="32.862957001" lon="35.248580933">
  <ele>274.189941</ele>
  <time>2011-11-12T07:13:43Z</time>
  <speed>3.190000</speed>
</trkpt>
<trkpt lat="32.862930298" lon="35.248554230">
  <ele>274.564941</ele>
  <time>2011-11-12T07:13:44Z</time>
  <speed>4.460000</speed>
</trkpt>
<trkpt lat="32.862907410" lon="35.248512268">
  <ele>274.479004</ele>
  <time>2011-11-12T07:13:45Z</time>
  <speed>3.640000</speed>
</trkpt>
<trkpt lat="32.862895966" lon="35.248477936">
  <ele>274.143066</ele>
  <time>2011-11-12T07:13:46Z</time>
  <speed>3.620000</speed>
</trkpt>
<trkpt lat="32.862895966" lon="35.248443604">
  <ele>273.963379</ele>
  <time>2011-11-12T07:13:47Z</time>
  <speed>2.870000</speed>
</trkpt>
<trkpt lat="32.862911224" lon="35.248413086">
  <ele>273.697754</ele>
  <time>2011-11-12T07:13:48Z</time>
  <speed>3.440000</speed>
</trkpt>
<trkpt lat="32.862930298" lon="35.248371124">
  <ele>272.955566</ele>
  <time>2011-11-12T07:13:49Z</time>
  <speed>3.840000</speed>
</trkpt>
<trkpt lat="32.862945557" lon="35.248332977">
  <ele>272.150879</ele>
  <time>2011-11-12T07:13:50Z</time>
  <speed>4.070000</speed>
</trkpt>
<trkpt lat="32.862964630" lon="35.248291016">
  <ele>270.705566</ele>
  <time>2011-11-12T07:13:51Z</time>
  <speed>3.620000</speed>
</trkpt>
<trkpt lat="32.862979889" lon="35.248252869">
  <ele>270.033691</ele>
  <time>2011-11-12T07:13:52Z</time>
  <speed>4.010000</speed>
</trkpt>
<trkpt lat="32.862998962" lon="35.248199463">
  <ele>269.588379</ele>
  <time>2011-11-12T07:13:53Z</time>
  <speed>4.570000</speed>
</trkpt>
<trkpt lat="32.863025665" lon="35.248157501">
  <ele>268.971191</ele>
  <time>2011-11-12T07:13:54Z</time>
  <speed>4.840000</speed>
</trkpt>
<trkpt lat="32.863063812" lon="35.248107910">
  <ele>268.627441</ele>
  <time>2011-11-12T07:13:55Z</time>
  <speed>4.370000</speed>
</trkpt>
<trkpt lat="32.863094330" lon="35.248062134">
  <ele>267.416504</ele>
  <time>2011-11-12T07:13:56Z</time>
  <speed>4.950000</speed>
</trkpt>
<trkpt lat="32.863117218" lon="35.248016357">
  <ele>266.549316</ele>
  <time>2011-11-12T07:13:57Z</time>
  <speed>4.720000</speed>
</trkpt>
<trkpt lat="32.863136292" lon="35.247966766">
  <ele>265.939941</ele>
  <time>2011-11-12T07:13:58Z</time>
  <speed>5.180000</speed>
</trkpt>
<trkpt lat="32.863147736" lon="35.247913361">
  <ele>265.346191</ele>
  <time>2011-11-12T07:13:59Z</time>
  <speed>4.880000</speed>
</trkpt>
<trkpt lat="32.863151550" lon="35.247871399">
  <ele>265.080566</ele>
  <time>2011-11-12T07:14:00Z</time>
  <speed>3.730000</speed>
</trkpt>
<trkpt lat="32.863143921" lon="35.247837067">
  <ele>264.775879</ele>
  <time>2011-11-12T07:14:01Z</time>
  <speed>2.690000</speed>
</trkpt>
<trkpt lat="32.863132477" lon="35.247806549">
  <ele>264.158691</ele>
  <time>2011-11-12T07:14:02Z</time>
  <speed>2.050000</speed>
</trkpt>
<trkpt lat="32.863101959" lon="35.247764587">
  <ele>262.135254</ele>
  <time>2011-11-12T07:14:04Z</time>
  <speed>2.770000</speed>
</trkpt>
<trkpt lat="32.863086700" lon="35.247737885">
  <ele>261.197754</ele>
  <time>2011-11-12T07:14:05Z</time>
  <speed>2.170000</speed>
</trkpt>
<trkpt lat="32.863094330" lon="35.247665405">
  <ele>259.658691</ele>
  <time>2011-11-12T07:14:07Z</time>
  <speed>4.740000</speed>
</trkpt>
<trkpt lat="32.863117218" lon="35.247623444">
  <ele>258.877441</ele>
  <time>2011-11-12T07:14:08Z</time>
  <speed>4.600000</speed>
</trkpt>
<trkpt lat="32.863151550" lon="35.247573853">
  <ele>258.588379</ele>
  <time>2011-11-12T07:14:09Z</time>
  <speed>5.360000</speed>
</trkpt>
<trkpt lat="32.863178253" lon="35.247528076">
  <ele>257.963379</ele>
  <time>2011-11-12T07:14:10Z</time>
  <speed>5.320000</speed>
</trkpt>
<trkpt lat="32.863204956" lon="35.247474670">
  <ele>257.385254</ele>
  <time>2011-11-12T07:14:11Z</time>
  <speed>5.860000</speed>
</trkpt>
<trkpt lat="32.863231659" lon="35.247409821">
  <ele>257.166504</ele>
  <time>2011-11-12T07:14:12Z</time>
  <speed>6.390000</speed>
</trkpt>
<trkpt lat="32.863250732" lon="35.247341156">
  <ele>256.994629</ele>
  <time>2011-11-12T07:14:13Z</time>
  <speed>6.870000</speed>
</trkpt>
<trkpt lat="32.863265991" lon="35.247261047">
  <ele>256.088379</ele>
  <time>2011-11-12T07:14:14Z</time>
  <speed>7.210000</speed>
</trkpt>
<trkpt lat="32.863269806" lon="35.247177124">
  <ele>254.821533</ele>
  <time>2011-11-12T07:14:15Z</time>
  <speed>6.520000</speed>
</trkpt>
<trkpt lat="32.863277435" lon="35.247104645">
  <ele>253.200439</ele>
  <time>2011-11-12T07:14:16Z</time>
  <speed>5.790000</speed>
</trkpt>
<trkpt lat="32.863288879" lon="35.247043610">
  <ele>252.575439</ele>
  <time>2011-11-12T07:14:17Z</time>
  <speed>4.680000</speed>
</trkpt>
<trkpt lat="32.863288879" lon="35.247001648">
  <ele>252.302002</ele>
  <time>2011-11-12T07:14:18Z</time>
  <speed>3.380000</speed>
</trkpt>
<trkpt lat="32.863281250" lon="35.246959686">
  <ele>251.825439</ele>
  <time>2011-11-12T07:14:19Z</time>
  <speed>3.770000</speed>
</trkpt>
<trkpt lat="32.863262177" lon="35.246921539">
  <ele>251.637939</ele>
  <time>2011-11-12T07:14:20Z</time>
  <speed>2.820000</speed>
</trkpt>
<trkpt lat="32.863231659" lon="35.246902466">
  <ele>250.141846</ele>
  <time>2011-11-12T07:14:22Z</time>
  <speed>1.760000</speed>
</trkpt>
<trkpt lat="32.863185883" lon="35.246936798">
  <ele>249.532471</ele>
  <time>2011-11-12T07:14:24Z</time>
  <speed>3.350000</speed>
</trkpt>
<trkpt lat="32.863170624" lon="35.246974945">
  <ele>249.384033</ele>
  <time>2011-11-12T07:14:25Z</time>
  <speed>3.040000</speed>
</trkpt>
<trkpt lat="32.863159180" lon="35.247016907">
  <ele>249.173096</ele>
  <time>2011-11-12T07:14:26Z</time>
  <speed>3.090000</speed>
</trkpt>
<trkpt lat="32.863155365" lon="35.247058868">
  <ele>248.348877</ele>
  <time>2011-11-12T07:14:27Z</time>
  <speed>3.700000</speed>
</trkpt>
<trkpt lat="32.863132477" lon="35.247104645">
  <ele>247.302002</ele>
  <time>2011-11-12T07:14:28Z</time>
  <speed>3.890000</speed>
</trkpt>
<trkpt lat="32.863098145" lon="35.247119904">
  <ele>247.376221</ele>
  <time>2011-11-12T07:14:29Z</time>
  <speed>3.610000</speed>
</trkpt>
<trkpt lat="32.863063812" lon="35.247116089">
  <ele>246.384033</ele>
  <time>2011-11-12T07:14:30Z</time>
  <speed>3.690000</speed>
</trkpt>
<trkpt lat="32.863040924" lon="35.247081757">
  <ele>246.622314</ele>
  <time>2011-11-12T07:14:31Z</time>
  <speed>3.690000</speed>
</trkpt>
<trkpt lat="32.863037109" lon="35.247039795">
  <ele>245.942627</ele>
  <time>2011-11-12T07:14:32Z</time>
  <speed>3.790000</speed>
</trkpt>
<trkpt lat="32.863037109" lon="35.246986389">
  <ele>245.692627</ele>
  <time>2011-11-12T07:14:33Z</time>
  <speed>3.990000</speed>
</trkpt>
<trkpt lat="32.863037109" lon="35.246936798">
  <ele>244.852783</ele>
  <time>2011-11-12T07:14:34Z</time>
  <speed>4.190000</speed>
</trkpt>
<trkpt lat="32.863037109" lon="35.246891022">
  <ele>244.169189</ele>
  <time>2011-11-12T07:14:35Z</time>
  <speed>3.940000</speed>
</trkpt>
<trkpt lat="32.863029480" lon="35.246849060">
  <ele>243.512939</ele>
  <time>2011-11-12T07:14:36Z</time>
  <speed>3.330000</speed>
</trkpt>
<trkpt lat="32.862995148" lon="35.246845245">
  <ele>242.532471</ele>
  <time>2011-11-12T07:14:38Z</time>
  <speed>2.510000</speed>
</trkpt>
<trkpt lat="32.862972260" lon="35.246871948">
  <ele>241.235596</ele>
  <time>2011-11-12T07:14:39Z</time>
  <speed>4.240000</speed>
</trkpt>
<trkpt lat="32.862941742" lon="35.246913910">
  <ele>240.634033</ele>
  <time>2011-11-12T07:14:40Z</time>
  <speed>5.150000</speed>
</trkpt>
<trkpt lat="32.862903595" lon="35.246955872">
  <ele>238.618408</ele>
  <time>2011-11-12T07:14:41Z</time>
  <speed>4.900000</speed>
</trkpt>
<trkpt lat="32.862861633" lon="35.246974945">
  <ele>238.161377</ele>
  <time>2011-11-12T07:14:42Z</time>
  <speed>5.220000</speed>
</trkpt>
<trkpt lat="32.862812042" lon="35.246974945">
  <ele>237.059814</ele>
  <time>2011-11-12T07:14:43Z</time>
  <speed>5.030000</speed>
</trkpt>
<trkpt lat="32.862773895" lon="35.246971130">
  <ele>235.540283</ele>
  <time>2011-11-12T07:14:44Z</time>
  <speed>3.580000</speed>
</trkpt>
<trkpt lat="32.862747192" lon="35.246959686">
  <ele>234.606689</ele>
  <time>2011-11-12T07:14:45Z</time>
  <speed>2.790000</speed>
</trkpt>
<trkpt lat="32.862701416" lon="35.246952057">
  <ele>232.411377</ele>
  <time>2011-11-12T07:14:47Z</time>
  <speed>2.160000</speed>
</trkpt>
<trkpt lat="32.862678528" lon="35.246936798">
  <ele>232.415283</ele>
  <time>2011-11-12T07:14:48Z</time>
  <speed>1.980000</speed>
</trkpt>
<trkpt lat="32.862651825" lon="35.246910095">
  <ele>230.993408</ele>
  <time>2011-11-12T07:14:50Z</time>
  <speed>1.640000</speed>
</trkpt>
<trkpt lat="32.862628937" lon="35.246875763">
  <ele>229.567627</ele>
  <time>2011-11-12T07:14:52Z</time>
  <speed>2.140000</speed>
</trkpt>
<trkpt lat="32.862594604" lon="35.246841431">
  <ele>228.177002</ele>
  <time>2011-11-12T07:14:54Z</time>
  <speed>2.820000</speed>
</trkpt>
<trkpt lat="32.862571716" lon="35.246822357">
  <ele>227.243408</ele>
  <time>2011-11-12T07:14:55Z</time>
  <speed>3.030000</speed>
</trkpt>
<trkpt lat="32.862541199" lon="35.246795654">
  <ele>226.348877</ele>
  <time>2011-11-12T07:14:56Z</time>
  <speed>3.480000</speed>
</trkpt>
<trkpt lat="32.862514496" lon="35.246776581">
  <ele>225.571533</ele>
  <time>2011-11-12T07:14:57Z</time>
  <speed>3.410000</speed>
</trkpt>
<trkpt lat="32.862487793" lon="35.246753693">
  <ele>224.809814</ele>
  <time>2011-11-12T07:14:58Z</time>
  <speed>2.490000</speed>
</trkpt>
<trkpt lat="32.862468719" lon="35.246730804">
  <ele>223.594971</ele>
  <time>2011-11-12T07:14:59Z</time>
  <speed>2.850000</speed>
</trkpt>
<trkpt lat="32.862442017" lon="35.246700287">
  <ele>222.579346</ele>
  <time>2011-11-12T07:15:00Z</time>
  <speed>3.900000</speed>
</trkpt>
<trkpt lat="32.862411499" lon="35.246669769">
  <ele>221.825439</ele>
  <time>2011-11-12T07:15:01Z</time>
  <speed>4.230000</speed>
</trkpt>
<trkpt lat="32.862365723" lon="35.246646881">
  <ele>221.512939</ele>
  <time>2011-11-12T07:15:02Z</time>
  <speed>4.650000</speed>
</trkpt>
<trkpt lat="32.862323761" lon="35.246627808">
  <ele>220.434814</ele>
  <time>2011-11-12T07:15:03Z</time>
  <speed>4.690000</speed>
</trkpt>
<trkpt lat="32.862285614" lon="35.246597290">
  <ele>219.509033</ele>
  <time>2011-11-12T07:15:04Z</time>
  <speed>4.940000</speed>
</trkpt>
<trkpt lat="32.862247467" lon="35.246559143">
  <ele>218.208252</ele>
  <time>2011-11-12T07:15:05Z</time>
  <speed>5.400000</speed>
</trkpt>
<trkpt lat="32.862213135" lon="35.246520996">
  <ele>216.579346</ele>
  <time>2011-11-12T07:15:06Z</time>
  <speed>3.790000</speed>
</trkpt>
<trkpt lat="32.862186432" lon="35.246509552">
  <ele>215.626221</ele>
  <time>2011-11-12T07:15:07Z</time>
  <speed>2.120000</speed>
</trkpt>
<trkpt lat="32.862121582" lon="35.246459961">
  <ele>213.942627</ele>
  <time>2011-11-12T07:15:09Z</time>
  <speed>5.570000</speed>
</trkpt>
<trkpt lat="32.862087250" lon="35.246417999">
  <ele>213.188721</ele>
  <time>2011-11-12T07:15:10Z</time>
  <speed>4.780000</speed>
</trkpt>
<trkpt lat="32.862056732" lon="35.246383667">
  <ele>212.536377</ele>
  <time>2011-11-12T07:15:11Z</time>
  <speed>3.890000</speed>
</trkpt>
<trkpt lat="32.862003326" lon="35.246349335">
  <ele>210.844971</ele>
  <time>2011-11-12T07:15:12Z</time>
  <speed>5.260000</speed>
</trkpt>
<trkpt lat="32.861965179" lon="35.246318817">
  <ele>209.485596</ele>
  <time>2011-11-12T07:15:13Z</time>
  <speed>4.510000</speed>
</trkpt>
<trkpt lat="32.861938477" lon="35.246276855">
  <ele>208.427002</ele>
  <time>2011-11-12T07:15:14Z</time>
  <speed>4.920000</speed>
</trkpt>
<trkpt lat="32.861915588" lon="35.246204376">
  <ele>207.294189</ele>
  <time>2011-11-12T07:15:15Z</time>
  <speed>6.160000</speed>
</trkpt>
<trkpt lat="32.861900330" lon="35.246120453">
  <ele>207.091064</ele>
  <time>2011-11-12T07:15:16Z</time>
  <speed>5.940000</speed>
</trkpt>
<trkpt lat="32.861896515" lon="35.246051788">
  <ele>207.219971</ele>
  <time>2011-11-12T07:15:17Z</time>
  <speed>5.440000</speed>
</trkpt>
<trkpt lat="32.861904144" lon="35.245998383">
  <ele>206.723877</ele>
  <time>2011-11-12T07:15:18Z</time>
  <speed>4.640000</speed>
</trkpt>
<trkpt lat="32.861896515" lon="35.245948792">
  <ele>206.216064</ele>
  <time>2011-11-12T07:15:19Z</time>
  <speed>3.930000</speed>
</trkpt>
<trkpt lat="32.861877441" lon="35.245899200">
  <ele>205.677002</ele>
  <time>2011-11-12T07:15:20Z</time>
  <speed>5.330000</speed>
</trkpt>
<trkpt lat="32.861831665" lon="35.245830536">
  <ele>204.454346</ele>
  <time>2011-11-12T07:15:21Z</time>
  <speed>6.620000</speed>
</trkpt>
<trkpt lat="32.861797333" lon="35.245769501">
  <ele>203.841064</ele>
  <time>2011-11-12T07:15:22Z</time>
  <speed>5.990000</speed>
</trkpt>
<trkpt lat="32.861763000" lon="35.245723724">
  <ele>202.989502</ele>
  <time>2011-11-12T07:15:23Z</time>
  <speed>4.080000</speed>
</trkpt>
<trkpt lat="32.861732483" lon="35.245697021">
  <ele>202.243408</ele>
  <time>2011-11-12T07:15:24Z</time>
  <speed>3.650000</speed>
</trkpt>
<trkpt lat="32.861686707" lon="35.245689392">
  <ele>201.630127</ele>
  <time>2011-11-12T07:15:25Z</time>
  <speed>5.650000</speed>
</trkpt>
<trkpt lat="32.861629486" lon="35.245670319">
  <ele>200.188721</ele>
  <time>2011-11-12T07:15:26Z</time>
  <speed>5.590000</speed>
</trkpt>
<trkpt lat="32.861579895" lon="35.245655060">
  <ele>199.239502</ele>
  <time>2011-11-12T07:15:27Z</time>
  <speed>5.360000</speed>
</trkpt>
<trkpt lat="32.861522675" lon="35.245647430">
  <ele>198.430908</ele>
  <time>2011-11-12T07:15:28Z</time>
  <speed>5.350000</speed>
</trkpt>
<trkpt lat="32.861480713" lon="35.245628357">
  <ele>197.782471</ele>
  <time>2011-11-12T07:15:29Z</time>
  <speed>4.350000</speed>
</trkpt>
<trkpt lat="32.861442566" lon="35.245601654">
  <ele>197.153564</ele>
  <time>2011-11-12T07:15:30Z</time>
  <speed>3.670000</speed>
</trkpt>
<trkpt lat="32.861408234" lon="35.245567322">
  <ele>197.048096</ele>
  <time>2011-11-12T07:15:31Z</time>
  <speed>3.080000</speed>
</trkpt>
<trkpt lat="32.861331940" lon="35.245567322">
  <ele>195.137939</ele>
  <time>2011-11-12T07:15:32Z</time>
  <speed>4.970000</speed>
</trkpt>
<trkpt lat="32.861282349" lon="35.245529175">
  <ele>193.907471</ele>
  <time>2011-11-12T07:15:33Z</time>
  <speed>4.560000</speed>
</trkpt>
<trkpt lat="32.861213684" lon="35.245517731">
  <ele>193.899658</ele>
  <time>2011-11-12T07:15:34Z</time>
  <speed>4.910000</speed>
</trkpt>
<trkpt lat="32.861167908" lon="35.245510101">
  <ele>193.895752</ele>
  <time>2011-11-12T07:15:35Z</time>
  <speed>3.810000</speed>
</trkpt>
<trkpt lat="32.861141205" lon="35.245525360">
  <ele>192.802002</ele>
  <time>2011-11-12T07:15:36Z</time>
  <speed>1.800000</speed>
</trkpt>
<trkpt lat="32.861114502" lon="35.245536804">
  <ele>193.302002</ele>
  <time>2011-11-12T07:15:39Z</time>
  <speed>0.240000</speed>
</trkpt>
<trkpt lat="32.861099243" lon="35.245552063">
  <ele>191.372314</ele>
  <time>2011-11-12T07:19:14Z</time>
  <speed>0.630000</speed>
</trkpt>
<trkpt lat="32.861076355" lon="35.245574951">
  <ele>191.493408</ele>
  <time>2011-11-12T07:19:17Z</time>
  <speed>1.460000</speed>
</trkpt>
<trkpt lat="32.861064911" lon="35.245605469">
  <ele>192.091064</ele>
  <time>2011-11-12T07:19:19Z</time>
  <speed>1.590000</speed>
</trkpt>
<trkpt lat="32.861064911" lon="35.245651245">
  <ele>193.262939</ele>
  <time>2011-11-12T07:19:21Z</time>
  <speed>1.770000</speed>
</trkpt>
<trkpt lat="32.861064911" lon="35.245685577">
  <ele>194.196533</ele>
  <time>2011-11-12T07:19:23Z</time>
  <speed>1.310000</speed>
</trkpt>
<trkpt lat="32.861083984" lon="35.245708466">
  <ele>194.505127</ele>
  <time>2011-11-12T07:19:25Z</time>
  <speed>1.680000</speed>
</trkpt>
<trkpt lat="32.861103058" lon="35.245742798">
  <ele>194.802002</ele>
  <time>2011-11-12T07:19:27Z</time>
  <speed>1.650000</speed>
</trkpt>
<trkpt lat="32.861118317" lon="35.245773315">
  <ele>194.786377</ele>
  <time>2011-11-12T07:19:29Z</time>
  <speed>1.200000</speed>
</trkpt>
<trkpt lat="32.861141205" lon="35.245788574">
  <ele>194.899658</ele>
  <time>2011-11-12T07:19:31Z</time>
  <speed>1.670000</speed>
</trkpt>
<trkpt lat="32.861160278" lon="35.245819092">
  <ele>195.661377</ele>
  <time>2011-11-12T07:19:33Z</time>
  <speed>1.260000</speed>
</trkpt>
<trkpt lat="32.861183167" lon="35.245861053">
  <ele>196.044189</ele>
  <time>2011-11-12T07:19:36Z</time>
  <speed>1.530000</speed>
</trkpt>
<trkpt lat="32.861194611" lon="35.245899200">
  <ele>196.536377</ele>
  <time>2011-11-12T07:19:39Z</time>
  <speed>1.130000</speed>
</trkpt>
<trkpt lat="32.861213684" lon="35.245925903">
  <ele>197.852783</ele>
  <time>2011-11-12T07:19:42Z</time>
  <speed>1.280000</speed>
</trkpt>
<trkpt lat="32.861232758" lon="35.245967865">
  <ele>198.411377</ele>
  <time>2011-11-12T07:19:45Z</time>
  <speed>1.460000</speed>
</trkpt>
<trkpt lat="32.861251831" lon="35.246009827">
  <ele>198.305908</ele>
  <time>2011-11-12T07:19:48Z</time>
  <speed>1.340000</speed>
</trkpt>
<trkpt lat="32.861259460" lon="35.246044159">
  <ele>198.856689</ele>
  <time>2011-11-12T07:19:50Z</time>
  <speed>1.280000</speed>
</trkpt>
<trkpt lat="32.861270905" lon="35.246089935">
  <ele>198.794189</ele>
  <time>2011-11-12T07:19:53Z</time>
  <speed>1.440000</speed>
</trkpt>
<trkpt lat="32.861278534" lon="35.246124268">
  <ele>199.399658</ele>
  <time>2011-11-12T07:19:55Z</time>
  <speed>1.750000</speed>
</trkpt>
<trkpt lat="32.861293793" lon="35.246154785">
  <ele>199.684814</ele>
  <time>2011-11-12T07:19:57Z</time>
  <speed>1.560000</speed>
</trkpt>
<trkpt lat="32.861305237" lon="35.246196747">
  <ele>200.200439</ele>
  <time>2011-11-12T07:20:00Z</time>
  <speed>1.580000</speed>
</trkpt>
<trkpt lat="32.861312866" lon="35.246231079">
  <ele>200.872314</ele>
  <time>2011-11-12T07:20:02Z</time>
  <speed>1.120000</speed>
</trkpt>
<trkpt lat="32.861324310" lon="35.246261597">
  <ele>200.954346</ele>
  <time>2011-11-12T07:20:04Z</time>
  <speed>1.650000</speed>
</trkpt>
<trkpt lat="32.861328125" lon="35.246299744">
  <ele>200.559814</ele>
  <time>2011-11-12T07:20:07Z</time>
  <speed>1.300000</speed>
</trkpt>
<trkpt lat="32.861335754" lon="35.246349335">
  <ele>200.493408</ele>
  <time>2011-11-12T07:20:10Z</time>
  <speed>1.890000</speed>
</trkpt>
<trkpt lat="32.861343384" lon="35.246391296">
  <ele>200.735596</ele>
  <time>2011-11-12T07:20:13Z</time>
  <speed>1.430000</speed>
</trkpt>
<trkpt lat="32.861343384" lon="35.246425629">
  <ele>200.591064</ele>
  <time>2011-11-12T07:20:16Z</time>
  <speed>1.550000</speed>
</trkpt>
<trkpt lat="32.861347198" lon="35.246459961">
  <ele>201.813721</ele>
  <time>2011-11-12T07:20:18Z</time>
  <speed>1.120000</speed>
</trkpt>
<trkpt lat="32.861351013" lon="35.246494293">
  <ele>202.884033</ele>
  <time>2011-11-12T07:20:21Z</time>
  <speed>0.930000</speed>
</trkpt>
<trkpt lat="32.861358643" lon="35.246532440">
  <ele>203.571533</ele>
  <time>2011-11-12T07:20:23Z</time>
  <speed>1.400000</speed>
</trkpt>
<trkpt lat="32.861370087" lon="35.246562958">
  <ele>203.911377</ele>
  <time>2011-11-12T07:20:25Z</time>
  <speed>1.360000</speed>
</trkpt>
<trkpt lat="32.861377716" lon="35.246604919">
  <ele>204.341064</ele>
  <time>2011-11-12T07:20:28Z</time>
  <speed>1.140000</speed>
</trkpt>
<trkpt lat="32.861377716" lon="35.246639252">
  <ele>204.782471</ele>
  <time>2011-11-12T07:20:30Z</time>
  <speed>1.300000</speed>
</trkpt>
<trkpt lat="32.861385345" lon="35.246677399">
  <ele>205.466064</ele>
  <time>2011-11-12T07:20:32Z</time>
  <speed>1.350000</speed>
</trkpt>
<trkpt lat="32.861396790" lon="35.246715546">
  <ele>205.899658</ele>
  <time>2011-11-12T07:20:34Z</time>
  <speed>1.290000</speed>
</trkpt>
<trkpt lat="32.861408234" lon="35.246757507">
  <ele>206.153564</ele>
  <time>2011-11-12T07:20:36Z</time>
  <speed>1.540000</speed>
</trkpt>
<trkpt lat="32.861412048" lon="35.246799469">
  <ele>207.407471</ele>
  <time>2011-11-12T07:20:38Z</time>
  <speed>1.680000</speed>
</trkpt>
<trkpt lat="32.861396790" lon="35.246841431">
  <ele>208.575439</ele>
  <time>2011-11-12T07:20:41Z</time>
  <speed>1.450000</speed>
</trkpt>
<trkpt lat="32.861396790" lon="35.246883392">
  <ele>209.555908</ele>
  <time>2011-11-12T07:20:43Z</time>
  <speed>1.290000</speed>
</trkpt>
<trkpt lat="32.861408234" lon="35.246932983">
  <ele>210.973877</ele>
  <time>2011-11-12T07:20:46Z</time>
  <speed>1.150000</speed>
</trkpt>
<trkpt lat="32.861415863" lon="35.246967316">
  <ele>212.149658</ele>
  <time>2011-11-12T07:20:48Z</time>
  <speed>1.280000</speed>
</trkpt>
<trkpt lat="32.861419678" lon="35.246997833">
  <ele>213.927002</ele>
  <time>2011-11-12T07:20:52Z</time>
  <speed>1.420000</speed>
</trkpt>
<trkpt lat="32.861419678" lon="35.247035980">
  <ele>214.411377</ele>
  <time>2011-11-12T07:20:55Z</time>
  <speed>1.320000</speed>
</trkpt>
<trkpt lat="32.861419678" lon="35.247070313">
  <ele>214.649658</ele>
  <time>2011-11-12T07:20:57Z</time>
  <speed>1.420000</speed>
</trkpt>
<trkpt lat="32.861400604" lon="35.247100830">
  <ele>215.356689</ele>
  <time>2011-11-12T07:20:59Z</time>
  <speed>1.560000</speed>
</trkpt>
<trkpt lat="32.861400604" lon="35.247138977">
  <ele>216.399658</ele>
  <time>2011-11-12T07:21:03Z</time>
  <speed>1.390000</speed>
</trkpt>
<trkpt lat="32.861412048" lon="35.247169495">
  <ele>217.016846</ele>
  <time>2011-11-12T07:21:05Z</time>
  <speed>1.350000</speed>
</trkpt>
<trkpt lat="32.861419678" lon="35.247211456">
  <ele>217.466064</ele>
  <time>2011-11-12T07:21:08Z</time>
  <speed>1.490000</speed>
</trkpt>
<trkpt lat="32.861412048" lon="35.247245789">
  <ele>218.747314</ele>
  <time>2011-11-12T07:21:10Z</time>
  <speed>1.370000</speed>
</trkpt>
<trkpt lat="32.861408234" lon="35.247283936">
  <ele>218.677002</ele>
  <time>2011-11-12T07:21:12Z</time>
  <speed>1.470000</speed>
</trkpt>
<trkpt lat="32.861415863" lon="35.247322083">
  <ele>218.891846</ele>
  <time>2011-11-12T07:21:15Z</time>
  <speed>0.710000</speed>
</trkpt>
<trkpt lat="32.861423492" lon="35.247356415">
  <ele>219.137939</ele>
  <time>2011-11-12T07:21:18Z</time>
  <speed>1.090000</speed>
</trkpt>
<trkpt lat="32.861419678" lon="35.247390747">
  <ele>220.266846</ele>
  <time>2011-11-12T07:21:21Z</time>
  <speed>0.920000</speed>
</trkpt>
<trkpt lat="32.861419678" lon="35.247425079">
  <ele>221.087158</ele>
  <time>2011-11-12T07:21:23Z</time>
  <speed>1.100000</speed>
</trkpt>
<trkpt lat="32.861423492" lon="35.247459412">
  <ele>221.813721</ele>
  <time>2011-11-12T07:21:26Z</time>
  <speed>1.160000</speed>
</trkpt>
<trkpt lat="32.861415863" lon="35.247497559">
  <ele>222.352783</ele>
  <time>2011-11-12T07:21:29Z</time>
  <speed>1.140000</speed>
</trkpt>
<trkpt lat="32.861412048" lon="35.247554779">
  <ele>223.016846</ele>
  <time>2011-11-12T07:21:31Z</time>
  <speed>1.640000</speed>
</trkpt>
<trkpt lat="32.861415863" lon="35.247589111">
  <ele>223.352783</ele>
  <time>2011-11-12T07:21:34Z</time>
  <speed>0.590000</speed>
</trkpt>
<trkpt lat="32.861427307" lon="35.247627258">
  <ele>223.446533</ele>
  <time>2011-11-12T07:21:38Z</time>
  <speed>1.450000</speed>
</trkpt>
<trkpt lat="32.861442566" lon="35.247657776">
  <ele>224.204346</ele>
  <time>2011-11-12T07:21:41Z</time>
  <speed>1.190000</speed>
</trkpt>
<trkpt lat="32.861454010" lon="35.247688293">
  <ele>224.329346</ele>
  <time>2011-11-12T07:21:44Z</time>
  <speed>1.500000</speed>
</trkpt>
<trkpt lat="32.861465454" lon="35.247726440">
  <ele>224.790283</ele>
  <time>2011-11-12T07:21:47Z</time>
  <speed>0.920000</speed>
</trkpt>
<trkpt lat="32.861480713" lon="35.247764587">
  <ele>225.497314</ele>
  <time>2011-11-12T07:21:50Z</time>
  <speed>1.250000</speed>
</trkpt>
<trkpt lat="32.861488342" lon="35.247798920">
  <ele>226.177002</ele>
  <time>2011-11-12T07:21:53Z</time>
  <speed>1.420000</speed>
</trkpt>
<trkpt lat="32.861511230" lon="35.247829437">
  <ele>226.356689</ele>
  <time>2011-11-12T07:21:55Z</time>
  <speed>1.260000</speed>
</trkpt>
<trkpt lat="32.861518860" lon="35.247859955">
  <ele>226.563721</ele>
  <time>2011-11-12T07:21:58Z</time>
  <speed>1.400000</speed>
</trkpt>
<trkpt lat="32.861534119" lon="35.247886658">
  <ele>227.895752</ele>
  <time>2011-11-12T07:22:01Z</time>
  <speed>1.210000</speed>
</trkpt>
<trkpt lat="32.861541748" lon="35.247920990">
  <ele>227.798096</ele>
  <time>2011-11-12T07:22:04Z</time>
  <speed>1.010000</speed>
</trkpt>
<trkpt lat="32.861560822" lon="35.247947693">
  <ele>228.059814</ele>
  <time>2011-11-12T07:22:07Z</time>
  <speed>1.380000</speed>
</trkpt>
<trkpt lat="32.861591339" lon="35.247974396">
  <ele>227.794189</ele>
  <time>2011-11-12T07:22:10Z</time>
  <speed>1.140000</speed>
</trkpt>
<trkpt lat="32.861614227" lon="35.248004913">
  <ele>228.591064</ele>
  <time>2011-11-12T07:22:13Z</time>
  <speed>1.040000</speed>
</trkpt>
<trkpt lat="32.861633301" lon="35.248035431">
  <ele>228.907471</ele>
  <time>2011-11-12T07:22:16Z</time>
  <speed>1.020000</speed>
</trkpt>
<trkpt lat="32.861652374" lon="35.248062134">
  <ele>229.141846</ele>
  <time>2011-11-12T07:22:19Z</time>
  <speed>1.100000</speed>
</trkpt>
<trkpt lat="32.861667633" lon="35.248088837">
  <ele>229.141846</ele>
  <time>2011-11-12T07:22:22Z</time>
  <speed>0.940000</speed>
</trkpt>
<trkpt lat="32.861682892" lon="35.248111725">
  <ele>228.786377</ele>
  <time>2011-11-12T07:22:24Z</time>
  <speed>1.220000</speed>
</trkpt>
<trkpt lat="32.861705780" lon="35.248138428">
  <ele>228.044189</ele>
  <time>2011-11-12T07:22:26Z</time>
  <speed>1.140000</speed>
</trkpt>
<trkpt lat="32.861732483" lon="35.248165131">
  <ele>228.266846</ele>
  <time>2011-11-12T07:22:29Z</time>
  <speed>1.260000</speed>
</trkpt>
<trkpt lat="32.861751556" lon="35.248195648">
  <ele>228.548096</ele>
  <time>2011-11-12T07:22:32Z</time>
  <speed>1.270000</speed>
</trkpt>
<trkpt lat="32.861747742" lon="35.248229980">
  <ele>228.415283</ele>
  <time>2011-11-12T07:22:34Z</time>
  <speed>1.180000</speed>
</trkpt>
<trkpt lat="32.861751556" lon="35.248279572">
  <ele>229.376221</ele>
  <time>2011-11-12T07:22:37Z</time>
  <speed>1.320000</speed>
</trkpt>
<trkpt lat="32.861732483" lon="35.248306274">
  <ele>230.157471</ele>
  <time>2011-11-12T07:22:41Z</time>
  <speed>0.980000</speed>
</trkpt>
<trkpt lat="32.861698151" lon="35.248291016">
  <ele>229.399658</ele>
  <time>2011-11-12T07:22:44Z</time>
  <speed>1.360000</speed>
</trkpt>
<trkpt lat="32.861660004" lon="35.248264313">
  <ele>229.958252</ele>
  <time>2011-11-12T07:22:47Z</time>
  <speed>1.710000</speed>
</trkpt>
<trkpt lat="32.861621857" lon="35.248241425">
  <ele>230.841064</ele>
  <time>2011-11-12T07:22:50Z</time>
  <speed>1.640000</speed>
</trkpt>
<trkpt lat="32.861595154" lon="35.248229980">
  <ele>231.462158</ele>
  <time>2011-11-12T07:22:52Z</time>
  <speed>1.790000</speed>
</trkpt>
<trkpt lat="32.861568451" lon="35.248199463">
  <ele>232.661377</ele>
  <time>2011-11-12T07:22:54Z</time>
  <speed>1.490000</speed>
</trkpt>
<trkpt lat="32.861549377" lon="35.248172760">
  <ele>232.934814</ele>
  <time>2011-11-12T07:22:56Z</time>
  <speed>1.550000</speed>
</trkpt>
<trkpt lat="32.861526489" lon="35.248153687">
  <ele>233.094971</ele>
  <time>2011-11-12T07:22:58Z</time>
  <speed>1.720000</speed>
</trkpt>
<trkpt lat="32.861511230" lon="35.248126984">
  <ele>233.485596</ele>
  <time>2011-11-12T07:23:00Z</time>
  <speed>1.760000</speed>
</trkpt>
<trkpt lat="32.861492157" lon="35.248092651">
  <ele>233.841064</ele>
  <time>2011-11-12T07:23:02Z</time>
  <speed>1.450000</speed>
</trkpt>
<trkpt lat="32.861446381" lon="35.248088837">
  <ele>233.630127</ele>
  <time>2011-11-12T07:23:05Z</time>
  <speed>0.780000</speed>
</trkpt>
<trkpt lat="32.861457825" lon="35.248138428">
  <ele>233.395752</ele>
  <time>2011-11-12T07:23:09Z</time>
  <speed>1.400000</speed>
</trkpt>
<trkpt lat="32.861484528" lon="35.248157501">
  <ele>232.641846</ele>
  <time>2011-11-12T07:23:11Z</time>
  <speed>1.590000</speed>
</trkpt>
<trkpt lat="32.861515045" lon="35.248188019">
  <ele>233.153564</ele>
  <time>2011-11-12T07:23:13Z</time>
  <speed>1.750000</speed>
</trkpt>
<trkpt lat="32.861541748" lon="35.248207092">
  <ele>233.126221</ele>
  <time>2011-11-12T07:23:15Z</time>
  <speed>1.600000</speed>
</trkpt>
<trkpt lat="32.861572266" lon="35.248226166">
  <ele>233.266846</ele>
  <time>2011-11-12T07:23:17Z</time>
  <speed>2.170000</speed>
</trkpt>
<trkpt lat="32.861598969" lon="35.248249054">
  <ele>233.177002</ele>
  <time>2011-11-12T07:23:19Z</time>
  <speed>1.530000</speed>
</trkpt>
<trkpt lat="32.861633301" lon="35.248249054">
  <ele>233.594971</ele>
  <time>2011-11-12T07:23:21Z</time>
  <speed>1.270000</speed>
</trkpt>
<trkpt lat="32.861629486" lon="35.248207092">
  <ele>234.059814</ele>
  <time>2011-11-12T07:23:26Z</time>
  <speed>1.150000</speed>
</trkpt>
<trkpt lat="32.861598969" lon="35.248188019">
  <ele>234.415283</ele>
  <time>2011-11-12T07:23:28Z</time>
  <speed>2.160000</speed>
</trkpt>
<trkpt lat="32.861568451" lon="35.248161316">
  <ele>234.946533</ele>
  <time>2011-11-12T07:23:30Z</time>
  <speed>2.000000</speed>
</trkpt>
<trkpt lat="32.861534119" lon="35.248142242">
  <ele>235.118408</ele>
  <time>2011-11-12T07:23:32Z</time>
  <speed>2.070000</speed>
</trkpt>
<trkpt lat="32.861503601" lon="35.248115540">
  <ele>235.270752</ele>
  <time>2011-11-12T07:23:34Z</time>
  <speed>2.080000</speed>
</trkpt>
<trkpt lat="32.861469269" lon="35.248096466">
  <ele>235.407471</ele>
  <time>2011-11-12T07:23:36Z</time>
  <speed>2.290000</speed>
</trkpt>
<trkpt lat="32.861434937" lon="35.248054504">
  <ele>235.376221</ele>
  <time>2011-11-12T07:23:38Z</time>
  <speed>2.420000</speed>
</trkpt>
<trkpt lat="32.861396790" lon="35.248027802">
  <ele>235.161377</ele>
  <time>2011-11-12T07:23:40Z</time>
  <speed>2.110000</speed>
</trkpt>
<trkpt lat="32.861358643" lon="35.247989655">
  <ele>235.579346</ele>
  <time>2011-11-12T07:23:42Z</time>
  <speed>2.310000</speed>
</trkpt>
<trkpt lat="32.861339569" lon="35.247951508">
  <ele>235.317627</ele>
  <time>2011-11-12T07:23:44Z</time>
  <speed>2.110000</speed>
</trkpt>
<trkpt lat="32.861312866" lon="35.247917175">
  <ele>236.016846</ele>
  <time>2011-11-12T07:23:46Z</time>
  <speed>2.030000</speed>
</trkpt>
<trkpt lat="32.861286163" lon="35.247882843">
  <ele>236.177002</ele>
  <time>2011-11-12T07:23:48Z</time>
  <speed>2.130000</speed>
</trkpt>
<trkpt lat="32.861263275" lon="35.247848511">
  <ele>236.259033</ele>
  <time>2011-11-12T07:23:50Z</time>
  <speed>1.710000</speed>
</trkpt>
<trkpt lat="32.861236572" lon="35.247821808">
  <ele>236.829346</ele>
  <time>2011-11-12T07:23:53Z</time>
  <speed>1.500000</speed>
</trkpt>
<trkpt lat="32.861194611" lon="35.247802734">
  <ele>236.536377</ele>
  <time>2011-11-12T07:23:56Z</time>
  <speed>1.560000</speed>
</trkpt>
<trkpt lat="32.861171722" lon="35.247783661">
  <ele>235.450439</ele>
  <time>2011-11-12T07:23:58Z</time>
  <speed>1.950000</speed>
</trkpt>
<trkpt lat="32.861148834" lon="35.247753143">
  <ele>235.555908</ele>
  <time>2011-11-12T07:24:00Z</time>
  <speed>1.930000</speed>
</trkpt>
<trkpt lat="32.861125946" lon="35.247726440">
  <ele>236.044189</ele>
  <time>2011-11-12T07:24:02Z</time>
  <speed>1.960000</speed>
</trkpt>
<trkpt lat="32.861095428" lon="35.247695923">
  <ele>236.450439</ele>
  <time>2011-11-12T07:24:04Z</time>
  <speed>2.170000</speed>
</trkpt>
<trkpt lat="32.861064911" lon="35.247669220">
  <ele>236.716064</ele>
  <time>2011-11-12T07:24:06Z</time>
  <speed>2.030000</speed>
</trkpt>
<trkpt lat="32.861049652" lon="35.247638702">
  <ele>236.438721</ele>
  <time>2011-11-12T07:24:08Z</time>
  <speed>1.780000</speed>
</trkpt>
<trkpt lat="32.861015320" lon="35.247627258">
  <ele>236.903564</ele>
  <time>2011-11-12T07:24:10Z</time>
  <speed>1.670000</speed>
</trkpt>
<trkpt lat="32.860984802" lon="35.247604370">
  <ele>238.075439</ele>
  <time>2011-11-12T07:24:12Z</time>
  <speed>1.960000</speed>
</trkpt>
<trkpt lat="32.860958099" lon="35.247570038">
  <ele>238.145752</ele>
  <time>2011-11-12T07:24:14Z</time>
  <speed>2.130000</speed>
</trkpt>
<trkpt lat="32.860935211" lon="35.247539520">
  <ele>237.673096</ele>
  <time>2011-11-12T07:24:16Z</time>
  <speed>2.100000</speed>
</trkpt>
<trkpt lat="32.860908508" lon="35.247512817">
  <ele>237.790283</ele>
  <time>2011-11-12T07:24:18Z</time>
  <speed>2.090000</speed>
</trkpt>
<trkpt lat="32.860877991" lon="35.247497559">
  <ele>237.430908</ele>
  <time>2011-11-12T07:24:20Z</time>
  <speed>1.620000</speed>
</trkpt>
<trkpt lat="32.860847473" lon="35.247493744">
  <ele>237.594971</ele>
  <time>2011-11-12T07:24:22Z</time>
  <speed>1.830000</speed>
</trkpt>
<trkpt lat="32.860809326" lon="35.247474670">
  <ele>237.587158</ele>
  <time>2011-11-12T07:24:24Z</time>
  <speed>2.490000</speed>
</trkpt>
<trkpt lat="32.860778809" lon="35.247451782">
  <ele>237.759033</ele>
  <time>2011-11-12T07:24:26Z</time>
  <speed>2.490000</speed>
</trkpt>
<trkpt lat="32.860736847" lon="35.247425079">
  <ele>237.837158</ele>
  <time>2011-11-12T07:24:28Z</time>
  <speed>2.400000</speed>
</trkpt>
<trkpt lat="32.860706329" lon="35.247409821">
  <ele>238.274658</ele>
  <time>2011-11-12T07:24:30Z</time>
  <speed>2.290000</speed>
</trkpt>
<trkpt lat="32.860660553" lon="35.247402191">
  <ele>239.657471</ele>
  <time>2011-11-12T07:24:32Z</time>
  <speed>2.240000</speed>
</trkpt>
<trkpt lat="32.860618591" lon="35.247386932">
  <ele>240.645752</ele>
  <time>2011-11-12T07:24:34Z</time>
  <speed>1.950000</speed>
</trkpt>
<trkpt lat="32.860580444" lon="35.247375488">
  <ele>241.438721</ele>
  <time>2011-11-12T07:24:36Z</time>
  <speed>1.970000</speed>
</trkpt>
<trkpt lat="32.860546112" lon="35.247364044">
  <ele>242.067627</ele>
  <time>2011-11-12T07:24:38Z</time>
  <speed>1.940000</speed>
</trkpt>
<trkpt lat="32.860511780" lon="35.247356415">
  <ele>242.481689</ele>
  <time>2011-11-12T07:24:40Z</time>
  <speed>1.860000</speed>
</trkpt>
<trkpt lat="32.860477448" lon="35.247348785">
  <ele>242.837158</ele>
  <time>2011-11-12T07:24:42Z</time>
  <speed>1.930000</speed>
</trkpt>
<trkpt lat="32.860454559" lon="35.247322083">
  <ele>243.180908</ele>
  <time>2011-11-12T07:24:44Z</time>
  <speed>1.630000</speed>
</trkpt>
<trkpt lat="32.860424042" lon="35.247322083">
  <ele>243.219971</ele>
  <time>2011-11-12T07:24:46Z</time>
  <speed>1.910000</speed>
</trkpt>
<trkpt lat="32.860393524" lon="35.247310638">
  <ele>243.430908</ele>
  <time>2011-11-12T07:24:48Z</time>
  <speed>1.920000</speed>
</trkpt>
<trkpt lat="32.860359192" lon="35.247299194">
  <ele>243.708252</ele>
  <time>2011-11-12T07:24:50Z</time>
  <speed>1.630000</speed>
</trkpt>
<trkpt lat="32.860321045" lon="35.247299194">
  <ele>242.946533</ele>
  <time>2011-11-12T07:24:52Z</time>
  <speed>2.120000</speed>
</trkpt>
<trkpt lat="32.860286713" lon="35.247303009">
  <ele>242.622314</ele>
  <time>2011-11-12T07:24:54Z</time>
  <speed>2.100000</speed>
</trkpt>
<trkpt lat="32.860244751" lon="35.247306824">
  <ele>242.927002</ele>
  <time>2011-11-12T07:24:56Z</time>
  <speed>2.370000</speed>
</trkpt>
<trkpt lat="32.860202789" lon="35.247310638">
  <ele>243.446533</ele>
  <time>2011-11-12T07:24:58Z</time>
  <speed>2.150000</speed>
</trkpt>
<trkpt lat="32.860164642" lon="35.247306824">
  <ele>244.106689</ele>
  <time>2011-11-12T07:25:00Z</time>
  <speed>1.860000</speed>
</trkpt>
<trkpt lat="32.860130310" lon="35.247310638">
  <ele>245.368408</ele>
  <time>2011-11-12T07:25:02Z</time>
  <speed>1.860000</speed>
</trkpt>
<trkpt lat="32.860099792" lon="35.247318268">
  <ele>245.774658</ele>
  <time>2011-11-12T07:25:04Z</time>
  <speed>1.960000</speed>
</trkpt>
<trkpt lat="32.860061646" lon="35.247329712">
  <ele>246.309814</ele>
  <time>2011-11-12T07:25:06Z</time>
  <speed>2.150000</speed>
</trkpt>
<trkpt lat="32.860027313" lon="35.247341156">
  <ele>245.274658</ele>
  <time>2011-11-12T07:25:08Z</time>
  <speed>2.100000</speed>
</trkpt>
<trkpt lat="32.859992981" lon="35.247348785">
  <ele>244.305908</ele>
  <time>2011-11-12T07:25:10Z</time>
  <speed>1.900000</speed>
</trkpt>
<trkpt lat="32.859954834" lon="35.247356415">
  <ele>244.071533</ele>
  <time>2011-11-12T07:25:12Z</time>
  <speed>1.980000</speed>
</trkpt>
<trkpt lat="32.859920502" lon="35.247375488">
  <ele>244.079346</ele>
  <time>2011-11-12T07:25:14Z</time>
  <speed>1.810000</speed>
</trkpt>
<trkpt lat="32.859889984" lon="35.247379303">
  <ele>243.876221</ele>
  <time>2011-11-12T07:25:16Z</time>
  <speed>1.710000</speed>
</trkpt>
<trkpt lat="32.859851837" lon="35.247383118">
  <ele>244.587158</ele>
  <time>2011-11-12T07:25:18Z</time>
  <speed>1.320000</speed>
</trkpt>
<trkpt lat="32.859821320" lon="35.247383118">
  <ele>244.509033</ele>
  <time>2011-11-12T07:25:20Z</time>
  <speed>1.860000</speed>
</trkpt>
<trkpt lat="32.859771729" lon="35.247386932">
  <ele>244.516846</ele>
  <time>2011-11-12T07:25:22Z</time>
  <speed>2.170000</speed>
</trkpt>
<trkpt lat="32.859729767" lon="35.247390747">
  <ele>244.450439</ele>
  <time>2011-11-12T07:25:24Z</time>
  <speed>1.930000</speed>
</trkpt>
<trkpt lat="32.859687805" lon="35.247386932">
  <ele>244.317627</ele>
  <time>2011-11-12T07:25:26Z</time>
  <speed>1.860000</speed>
</trkpt>
<trkpt lat="32.859649658" lon="35.247371674">
  <ele>244.856689</ele>
  <time>2011-11-12T07:25:28Z</time>
  <speed>1.700000</speed>
</trkpt>
<trkpt lat="32.859600067" lon="35.247371674">
  <ele>245.915283</ele>
  <time>2011-11-12T07:25:31Z</time>
  <speed>1.650000</speed>
</trkpt>
<trkpt lat="32.859561920" lon="35.247364044">
  <ele>247.235596</ele>
  <time>2011-11-12T07:25:33Z</time>
  <speed>1.480000</speed>
</trkpt>
<trkpt lat="32.859527588" lon="35.247356415">
  <ele>246.438721</ele>
  <time>2011-11-12T07:25:36Z</time>
  <speed>1.400000</speed>
</trkpt>
<trkpt lat="32.859504700" lon="35.247329712">
  <ele>246.344971</ele>
  <time>2011-11-12T07:25:38Z</time>
  <speed>1.450000</speed>
</trkpt>
<trkpt lat="32.859485626" lon="35.247276306">
  <ele>246.630127</ele>
  <time>2011-11-12T07:25:40Z</time>
  <speed>1.600000</speed>
</trkpt>
<trkpt lat="32.859462738" lon="35.247241974">
  <ele>246.661377</ele>
  <time>2011-11-12T07:25:42Z</time>
  <speed>1.970000</speed>
</trkpt>
<trkpt lat="32.859436035" lon="35.247203827">
  <ele>246.516846</ele>
  <time>2011-11-12T07:25:44Z</time>
  <speed>1.840000</speed>
</trkpt>
<trkpt lat="32.859405518" lon="35.247169495">
  <ele>247.020752</ele>
  <time>2011-11-12T07:25:46Z</time>
  <speed>1.540000</speed>
</trkpt>
<trkpt lat="32.859394073" lon="35.247131348">
  <ele>246.966064</ele>
  <time>2011-11-12T07:25:48Z</time>
  <speed>1.800000</speed>
</trkpt>
<trkpt lat="32.859382629" lon="35.247093201">
  <ele>246.653564</ele>
  <time>2011-11-12T07:25:50Z</time>
  <speed>1.800000</speed>
</trkpt>
<trkpt lat="32.859348297" lon="35.247066498">
  <ele>247.958252</ele>
  <time>2011-11-12T07:25:52Z</time>
  <speed>1.600000</speed>
</trkpt>
<trkpt lat="32.859317780" lon="35.247035980">
  <ele>248.817627</ele>
  <time>2011-11-12T07:25:54Z</time>
  <speed>1.660000</speed>
</trkpt>
<trkpt lat="32.859291077" lon="35.247005463">
  <ele>248.360596</ele>
  <time>2011-11-12T07:25:56Z</time>
  <speed>1.540000</speed>
</trkpt>
<trkpt lat="32.859268188" lon="35.246978760">
  <ele>248.274658</ele>
  <time>2011-11-12T07:25:58Z</time>
  <speed>1.850000</speed>
</trkpt>
<trkpt lat="32.859237671" lon="35.246959686">
  <ele>248.731689</ele>
  <time>2011-11-12T07:26:00Z</time>
  <speed>1.910000</speed>
</trkpt>
<trkpt lat="32.859214783" lon="35.246936798">
  <ele>248.915283</ele>
  <time>2011-11-12T07:26:02Z</time>
  <speed>2.070000</speed>
</trkpt>
<trkpt lat="32.859180450" lon="35.246913910">
  <ele>247.934814</ele>
  <time>2011-11-12T07:26:04Z</time>
  <speed>2.140000</speed>
</trkpt>
<trkpt lat="32.859142303" lon="35.246875763">
  <ele>248.594971</ele>
  <time>2011-11-12T07:26:06Z</time>
  <speed>2.390000</speed>
</trkpt>
<trkpt lat="32.859100342" lon="35.246845245">
  <ele>249.321533</ele>
  <time>2011-11-12T07:26:08Z</time>
  <speed>2.380000</speed>
</trkpt>
<trkpt lat="32.859058380" lon="35.246833801">
  <ele>249.411377</ele>
  <time>2011-11-12T07:26:10Z</time>
  <speed>1.990000</speed>
</trkpt>
<trkpt lat="32.859016418" lon="35.246822357">
  <ele>249.544189</ele>
  <time>2011-11-12T07:26:12Z</time>
  <speed>2.120000</speed>
</trkpt>
<trkpt lat="32.858978271" lon="35.246810913">
  <ele>249.309814</ele>
  <time>2011-11-12T07:26:14Z</time>
  <speed>1.980000</speed>
</trkpt>
<trkpt lat="32.858936310" lon="35.246810913">
  <ele>249.380127</ele>
  <time>2011-11-12T07:26:16Z</time>
  <speed>1.830000</speed>
</trkpt>
<trkpt lat="32.858898163" lon="35.246814728">
  <ele>248.794189</ele>
  <time>2011-11-12T07:26:18Z</time>
  <speed>2.000000</speed>
</trkpt>
<trkpt lat="32.858852386" lon="35.246822357">
  <ele>249.067627</ele>
  <time>2011-11-12T07:26:20Z</time>
  <speed>2.250000</speed>
</trkpt>
<trkpt lat="32.858810425" lon="35.246849060">
  <ele>248.567627</ele>
  <time>2011-11-12T07:26:22Z</time>
  <speed>2.650000</speed>
</trkpt>
<trkpt lat="32.858783722" lon="35.246868134">
  <ele>249.372314</ele>
  <time>2011-11-12T07:26:23Z</time>
  <speed>2.790000</speed>
</trkpt>
<trkpt lat="32.858749390" lon="35.246906281">
  <ele>248.958252</ele>
  <time>2011-11-12T07:26:25Z</time>
  <speed>2.440000</speed>
</trkpt>
<trkpt lat="32.858718872" lon="35.246940613">
  <ele>248.575439</ele>
  <time>2011-11-12T07:26:27Z</time>
  <speed>2.640000</speed>
</trkpt>
<trkpt lat="32.858699799" lon="35.246967316">
  <ele>248.536377</ele>
  <time>2011-11-12T07:26:28Z</time>
  <speed>2.820000</speed>
</trkpt>
<trkpt lat="32.858684540" lon="35.246994019">
  <ele>248.735596</ele>
  <time>2011-11-12T07:26:29Z</time>
  <speed>2.740000</speed>
</trkpt>
<trkpt lat="32.858665466" lon="35.247024536">
  <ele>249.032471</ele>
  <time>2011-11-12T07:26:30Z</time>
  <speed>2.560000</speed>
</trkpt>
<trkpt lat="32.858646393" lon="35.247043610">
  <ele>249.462158</ele>
  <time>2011-11-12T07:26:31Z</time>
  <speed>2.740000</speed>
</trkpt>
<trkpt lat="32.858627319" lon="35.247066498">
  <ele>249.575439</ele>
  <time>2011-11-12T07:26:32Z</time>
  <speed>2.770000</speed>
</trkpt>
<trkpt lat="32.858608246" lon="35.247093201">
  <ele>249.384033</ele>
  <time>2011-11-12T07:26:33Z</time>
  <speed>3.160000</speed>
</trkpt>
<trkpt lat="32.858585358" lon="35.247116089">
  <ele>249.583252</ele>
  <time>2011-11-12T07:26:34Z</time>
  <speed>3.290000</speed>
</trkpt>
<trkpt lat="32.858566284" lon="35.247142792">
  <ele>249.919189</ele>
  <time>2011-11-12T07:26:35Z</time>
  <speed>3.340000</speed>
</trkpt>
<trkpt lat="32.858547211" lon="35.247169495">
  <ele>250.337158</ele>
  <time>2011-11-12T07:26:36Z</time>
  <speed>3.210000</speed>
</trkpt>
<trkpt lat="32.858531952" lon="35.247200012">
  <ele>250.173096</ele>
  <time>2011-11-12T07:26:37Z</time>
  <speed>3.010000</speed>
</trkpt>
<trkpt lat="32.858516693" lon="35.247226715">
  <ele>250.302002</ele>
  <time>2011-11-12T07:26:38Z</time>
  <speed>2.940000</speed>
</trkpt>
<trkpt lat="32.858486176" lon="35.247276306">
  <ele>250.149658</ele>
  <time>2011-11-12T07:26:40Z</time>
  <speed>2.640000</speed>
</trkpt>
<trkpt lat="32.858467102" lon="35.247299194">
  <ele>250.630127</ele>
  <time>2011-11-12T07:26:41Z</time>
  <speed>2.790000</speed>
</trkpt>
<trkpt lat="32.858455658" lon="35.247329712">
  <ele>250.786377</ele>
  <time>2011-11-12T07:26:42Z</time>
  <speed>2.770000</speed>
</trkpt>
<trkpt lat="32.858421326" lon="35.247379303">
  <ele>250.637939</ele>
  <time>2011-11-12T07:26:44Z</time>
  <speed>2.440000</speed>
</trkpt>
<trkpt lat="32.858398438" lon="35.247428894">
  <ele>251.403564</ele>
  <time>2011-11-12T07:26:46Z</time>
  <speed>2.570000</speed>
</trkpt>
<trkpt lat="32.858371735" lon="35.247482300">
  <ele>251.938721</ele>
  <time>2011-11-12T07:26:48Z</time>
  <speed>2.810000</speed>
</trkpt>
<trkpt lat="32.858364105" lon="35.247512817">
  <ele>252.329346</ele>
  <time>2011-11-12T07:26:49Z</time>
  <speed>2.490000</speed>
</trkpt>
<trkpt lat="32.858345032" lon="35.247543335">
  <ele>254.173096</ele>
  <time>2011-11-12T07:26:50Z</time>
  <speed>2.550000</speed>
</trkpt>
<trkpt lat="32.858325958" lon="35.247573853">
  <ele>255.274658</ele>
  <time>2011-11-12T07:26:51Z</time>
  <speed>2.360000</speed>
</trkpt>
<trkpt lat="32.858291626" lon="35.247619629">
  <ele>256.213379</ele>
  <time>2011-11-12T07:26:53Z</time>
  <speed>2.340000</speed>
</trkpt>
<trkpt lat="32.858268738" lon="35.247665405">
  <ele>256.127441</ele>
  <time>2011-11-12T07:26:55Z</time>
  <speed>2.620000</speed>
</trkpt>
<trkpt lat="32.858245850" lon="35.247718811">
  <ele>256.393066</ele>
  <time>2011-11-12T07:26:57Z</time>
  <speed>2.760000</speed>
</trkpt>
<trkpt lat="32.858234406" lon="35.247764587">
  <ele>256.377441</ele>
  <time>2011-11-12T07:26:59Z</time>
  <speed>2.400000</speed>
</trkpt>
<trkpt lat="32.858219147" lon="35.247821808">
  <ele>255.993408</ele>
  <time>2011-11-12T07:27:01Z</time>
  <speed>2.490000</speed>
</trkpt>
<trkpt lat="32.858207703" lon="35.247852325">
  <ele>256.502441</ele>
  <time>2011-11-12T07:27:02Z</time>
  <speed>2.900000</speed>
</trkpt>
<trkpt lat="32.858196259" lon="35.247901917">
  <ele>256.783691</ele>
  <time>2011-11-12T07:27:04Z</time>
  <speed>2.220000</speed>
</trkpt>
<trkpt lat="32.858181000" lon="35.247955322">
  <ele>256.947754</ele>
  <time>2011-11-12T07:27:06Z</time>
  <speed>2.620000</speed>
</trkpt>
<trkpt lat="32.858169556" lon="35.247985840">
  <ele>257.611816</ele>
  <time>2011-11-12T07:27:07Z</time>
  <speed>2.710000</speed>
</trkpt>
<trkpt lat="32.858154297" lon="35.248016357">
  <ele>258.619629</ele>
  <time>2011-11-12T07:27:08Z</time>
  <speed>2.690000</speed>
</trkpt>
<trkpt lat="32.858127594" lon="35.248065948">
  <ele>259.221191</ele>
  <time>2011-11-12T07:27:10Z</time>
  <speed>2.660000</speed>
</trkpt>
<trkpt lat="32.858119965" lon="35.248126984">
  <ele>259.338379</ele>
  <time>2011-11-12T07:27:12Z</time>
  <speed>2.750000</speed>
</trkpt>
<trkpt lat="32.858123779" lon="35.248161316">
  <ele>259.822754</ele>
  <time>2011-11-12T07:27:13Z</time>
  <speed>2.940000</speed>
</trkpt>
<trkpt lat="32.858119965" lon="35.248199463">
  <ele>260.291504</ele>
  <time>2011-11-12T07:27:14Z</time>
  <speed>2.570000</speed>
</trkpt>
<trkpt lat="32.858104706" lon="35.248252869">
  <ele>261.189941</ele>
  <time>2011-11-12T07:27:16Z</time>
  <speed>2.890000</speed>
</trkpt>
<trkpt lat="32.858100891" lon="35.248287201">
  <ele>261.619629</ele>
  <time>2011-11-12T07:27:17Z</time>
  <speed>2.730000</speed>
</trkpt>
<trkpt lat="32.858097076" lon="35.248352051">
  <ele>261.682129</ele>
  <time>2011-11-12T07:27:19Z</time>
  <speed>3.060000</speed>
</trkpt>
<trkpt lat="32.858093262" lon="35.248420715">
  <ele>262.096191</ele>
  <time>2011-11-12T07:27:21Z</time>
  <speed>2.760000</speed>
</trkpt>
<trkpt lat="32.858081818" lon="35.248474121">
  <ele>263.307129</ele>
  <time>2011-11-12T07:27:23Z</time>
  <speed>2.770000</speed>
</trkpt>
<trkpt lat="32.858085632" lon="35.248535156">
  <ele>263.299316</ele>
  <time>2011-11-12T07:27:25Z</time>
  <speed>2.490000</speed>
</trkpt>
<trkpt lat="32.858085632" lon="35.248592377">
  <ele>262.572754</ele>
  <time>2011-11-12T07:27:27Z</time>
  <speed>2.960000</speed>
</trkpt>
<trkpt lat="32.858097076" lon="35.248649597">
  <ele>262.049316</ele>
  <time>2011-11-12T07:27:29Z</time>
  <speed>3.020000</speed>
</trkpt>
<trkpt lat="32.858108521" lon="35.248680115">
  <ele>261.713379</ele>
  <time>2011-11-12T07:27:30Z</time>
  <speed>2.810000</speed>
</trkpt>
<trkpt lat="32.858119965" lon="35.248710632">
  <ele>261.658691</ele>
  <time>2011-11-12T07:27:31Z</time>
  <speed>3.090000</speed>
</trkpt>
<trkpt lat="32.858135223" lon="35.248748779">
  <ele>262.291504</ele>
  <time>2011-11-12T07:27:32Z</time>
  <speed>3.320000</speed>
</trkpt>
<trkpt lat="32.858146667" lon="35.248786926">
  <ele>262.471191</ele>
  <time>2011-11-12T07:27:33Z</time>
  <speed>3.560000</speed>
</trkpt>
<trkpt lat="32.858154297" lon="35.248825073">
  <ele>262.869629</ele>
  <time>2011-11-12T07:27:34Z</time>
  <speed>3.680000</speed>
</trkpt>
<trkpt lat="32.858154297" lon="35.248863220">
  <ele>263.236816</ele>
  <time>2011-11-12T07:27:35Z</time>
  <speed>3.780000</speed>
</trkpt>
<trkpt lat="32.858161926" lon="35.248901367">
  <ele>263.307129</ele>
  <time>2011-11-12T07:27:36Z</time>
  <speed>3.750000</speed>
</trkpt>
<trkpt lat="32.858161926" lon="35.248943329">
  <ele>263.908691</ele>
  <time>2011-11-12T07:27:37Z</time>
  <speed>3.660000</speed>
</trkpt>
<trkpt lat="32.858165741" lon="35.248985291">
  <ele>264.338379</ele>
  <time>2011-11-12T07:27:38Z</time>
  <speed>3.560000</speed>
</trkpt>
<trkpt lat="32.858169556" lon="35.249027252">
  <ele>265.502441</ele>
  <time>2011-11-12T07:27:39Z</time>
  <speed>3.460000</speed>
</trkpt>
<trkpt lat="32.858169556" lon="35.249061584">
  <ele>265.721191</ele>
  <time>2011-11-12T07:27:40Z</time>
  <speed>3.470000</speed>
</trkpt>
<trkpt lat="32.858177185" lon="35.249095917">
  <ele>265.666504</ele>
  <time>2011-11-12T07:27:41Z</time>
  <speed>3.650000</speed>
</trkpt>
<trkpt lat="32.858184814" lon="35.249137878">
  <ele>266.244629</ele>
  <time>2011-11-12T07:27:42Z</time>
  <speed>3.280000</speed>
</trkpt>
<trkpt lat="32.858188629" lon="35.249172211">
  <ele>266.713379</ele>
  <time>2011-11-12T07:27:43Z</time>
  <speed>3.270000</speed>
</trkpt>
<trkpt lat="32.858200073" lon="35.249214172">
  <ele>266.963379</ele>
  <time>2011-11-12T07:27:44Z</time>
  <speed>3.360000</speed>
</trkpt>
<trkpt lat="32.858203888" lon="35.249244690">
  <ele>267.705566</ele>
  <time>2011-11-12T07:27:45Z</time>
  <speed>3.310000</speed>
</trkpt>
<trkpt lat="32.858207703" lon="35.249275208">
  <ele>268.525879</ele>
  <time>2011-11-12T07:27:46Z</time>
  <speed>3.230000</speed>
</trkpt>
<trkpt lat="32.858215332" lon="35.249313354">
  <ele>269.143066</ele>
  <time>2011-11-12T07:27:47Z</time>
  <speed>3.390000</speed>
</trkpt>
<trkpt lat="32.858226776" lon="35.249343872">
  <ele>269.541504</ele>
  <time>2011-11-12T07:27:48Z</time>
  <speed>3.320000</speed>
</trkpt>
<trkpt lat="32.858242035" lon="35.249374390">
  <ele>269.393066</ele>
  <time>2011-11-12T07:27:49Z</time>
  <speed>3.520000</speed>
</trkpt>
<trkpt lat="32.858253479" lon="35.249408722">
  <ele>269.307129</ele>
  <time>2011-11-12T07:27:50Z</time>
  <speed>3.700000</speed>
</trkpt>
<trkpt lat="32.858268738" lon="35.249446869">
  <ele>269.025879</ele>
  <time>2011-11-12T07:27:51Z</time>
  <speed>3.730000</speed>
</trkpt>
<trkpt lat="32.858287811" lon="35.249477386">
  <ele>268.596191</ele>
  <time>2011-11-12T07:27:52Z</time>
  <speed>3.970000</speed>
</trkpt>
<trkpt lat="32.858314514" lon="35.249507904">
  <ele>268.330566</ele>
  <time>2011-11-12T07:27:53Z</time>
  <speed>4.390000</speed>
</trkpt>
<trkpt lat="32.858341217" lon="35.249538422">
  <ele>267.885254</ele>
  <time>2011-11-12T07:27:54Z</time>
  <speed>4.010000</speed>
</trkpt>
<trkpt lat="32.858367920" lon="35.249568939">
  <ele>267.260254</ele>
  <time>2011-11-12T07:27:55Z</time>
  <speed>4.010000</speed>
</trkpt>
<trkpt lat="32.858390808" lon="35.249607086">
  <ele>267.236816</ele>
  <time>2011-11-12T07:27:56Z</time>
  <speed>3.720000</speed>
</trkpt>
<trkpt lat="32.858417511" lon="35.249633789">
  <ele>267.400879</ele>
  <time>2011-11-12T07:27:57Z</time>
  <speed>3.820000</speed>
</trkpt>
<trkpt lat="32.858444214" lon="35.249660492">
  <ele>267.424316</ele>
  <time>2011-11-12T07:27:58Z</time>
  <speed>3.710000</speed>
</trkpt>
<trkpt lat="32.858470917" lon="35.249694824">
  <ele>267.604004</ele>
  <time>2011-11-12T07:27:59Z</time>
  <speed>4.000000</speed>
</trkpt>
<trkpt lat="32.858493805" lon="35.249729156">
  <ele>267.861816</ele>
  <time>2011-11-12T07:28:00Z</time>
  <speed>4.060000</speed>
</trkpt>
<trkpt lat="32.858516693" lon="35.249755859">
  <ele>268.119629</ele>
  <time>2011-11-12T07:28:01Z</time>
  <speed>3.840000</speed>
</trkpt>
<trkpt lat="32.858543396" lon="35.249782562">
  <ele>268.205566</ele>
  <time>2011-11-12T07:28:02Z</time>
  <speed>3.610000</speed>
</trkpt>
<trkpt lat="32.858566284" lon="35.249809265">
  <ele>268.283691</ele>
  <time>2011-11-12T07:28:03Z</time>
  <speed>3.390000</speed>
</trkpt>
<trkpt lat="32.858596802" lon="35.249832153">
  <ele>268.471191</ele>
  <time>2011-11-12T07:28:04Z</time>
  <speed>3.510000</speed>
</trkpt>
<trkpt lat="32.858619690" lon="35.249858856">
  <ele>268.518066</ele>
  <time>2011-11-12T07:28:05Z</time>
  <speed>3.470000</speed>
</trkpt>
<trkpt lat="32.858654022" lon="35.249874115">
  <ele>268.307129</ele>
  <time>2011-11-12T07:28:06Z</time>
  <speed>3.720000</speed>
</trkpt>
<trkpt lat="32.858688354" lon="35.249897003">
  <ele>268.400879</ele>
  <time>2011-11-12T07:28:07Z</time>
  <speed>3.990000</speed>
</trkpt>
<trkpt lat="32.858722687" lon="35.249919891">
  <ele>267.885254</ele>
  <time>2011-11-12T07:28:08Z</time>
  <speed>3.770000</speed>
</trkpt>
<trkpt lat="32.858753204" lon="35.249935150">
  <ele>267.518066</ele>
  <time>2011-11-12T07:28:09Z</time>
  <speed>3.560000</speed>
</trkpt>
<trkpt lat="32.858791351" lon="35.249946594">
  <ele>267.814941</ele>
  <time>2011-11-12T07:28:10Z</time>
  <speed>3.340000</speed>
</trkpt>
<trkpt lat="32.858825684" lon="35.249958038">
  <ele>267.994629</ele>
  <time>2011-11-12T07:28:11Z</time>
  <speed>3.400000</speed>
</trkpt>
<trkpt lat="32.858856201" lon="35.249973297">
  <ele>267.752441</ele>
  <time>2011-11-12T07:28:12Z</time>
  <speed>3.490000</speed>
</trkpt>
<trkpt lat="32.858894348" lon="35.249988556">
  <ele>268.182129</ele>
  <time>2011-11-12T07:28:13Z</time>
  <speed>3.630000</speed>
</trkpt>
<trkpt lat="32.858928680" lon="35.250007629">
  <ele>267.689941</ele>
  <time>2011-11-12T07:28:14Z</time>
  <speed>3.660000</speed>
</trkpt>
<trkpt lat="32.858966827" lon="35.250007629">
  <ele>266.658691</ele>
  <time>2011-11-12T07:28:15Z</time>
  <speed>3.810000</speed>
</trkpt>
<trkpt lat="32.859001160" lon="35.250022888">
  <ele>266.229004</ele>
  <time>2011-11-12T07:28:16Z</time>
  <speed>3.970000</speed>
</trkpt>
<trkpt lat="32.859039307" lon="35.250034332">
  <ele>265.744629</ele>
  <time>2011-11-12T07:28:17Z</time>
  <speed>3.800000</speed>
</trkpt>
<trkpt lat="32.859073639" lon="35.250049591">
  <ele>265.775879</ele>
  <time>2011-11-12T07:28:18Z</time>
  <speed>3.770000</speed>
</trkpt>
<trkpt lat="32.859107971" lon="35.250064850">
  <ele>265.080566</ele>
  <time>2011-11-12T07:28:19Z</time>
  <speed>3.690000</speed>
</trkpt>
<trkpt lat="32.859138489" lon="35.250083923">
  <ele>265.221191</ele>
  <time>2011-11-12T07:28:20Z</time>
  <speed>3.780000</speed>
</trkpt>
<trkpt lat="32.859169006" lon="35.250106812">
  <ele>265.143066</ele>
  <time>2011-11-12T07:28:21Z</time>
  <speed>3.740000</speed>
</trkpt>
<trkpt lat="32.859199524" lon="35.250133514">
  <ele>266.518066</ele>
  <time>2011-11-12T07:28:22Z</time>
  <speed>3.760000</speed>
</trkpt>
<trkpt lat="32.859230042" lon="35.250160217">
  <ele>266.775879</ele>
  <time>2011-11-12T07:28:23Z</time>
  <speed>4.010000</speed>
</trkpt>
<trkpt lat="32.859264374" lon="35.250183105">
  <ele>267.479004</ele>
  <time>2011-11-12T07:28:24Z</time>
  <speed>4.030000</speed>
</trkpt>
<trkpt lat="32.859294891" lon="35.250202179">
  <ele>267.533691</ele>
  <time>2011-11-12T07:28:25Z</time>
  <speed>4.150000</speed>
</trkpt>
<trkpt lat="32.859329224" lon="35.250225067">
  <ele>267.721191</ele>
  <time>2011-11-12T07:28:26Z</time>
  <speed>3.710000</speed>
</trkpt>
<trkpt lat="32.859363556" lon="35.250247955">
  <ele>268.104004</ele>
  <time>2011-11-12T07:28:27Z</time>
  <speed>3.760000</speed>
</trkpt>
<trkpt lat="32.859390259" lon="35.250274658">
  <ele>267.932129</ele>
  <time>2011-11-12T07:28:28Z</time>
  <speed>3.580000</speed>
</trkpt>
<trkpt lat="32.859416962" lon="35.250293732">
  <ele>268.479004</ele>
  <time>2011-11-12T07:28:29Z</time>
  <speed>3.670000</speed>
</trkpt>
<trkpt lat="32.859443665" lon="35.250316620">
  <ele>268.088379</ele>
  <time>2011-11-12T07:28:30Z</time>
  <speed>3.820000</speed>
</trkpt>
<trkpt lat="32.859474182" lon="35.250331879">
  <ele>268.064941</ele>
  <time>2011-11-12T07:28:31Z</time>
  <speed>3.840000</speed>
</trkpt>
<trkpt lat="32.859504700" lon="35.250362396">
  <ele>268.088379</ele>
  <time>2011-11-12T07:28:32Z</time>
  <speed>3.860000</speed>
</trkpt>
<trkpt lat="32.859527588" lon="35.250385284">
  <ele>267.979004</ele>
  <time>2011-11-12T07:28:33Z</time>
  <speed>3.540000</speed>
</trkpt>
<trkpt lat="32.859554291" lon="35.250408173">
  <ele>267.408691</ele>
  <time>2011-11-12T07:28:34Z</time>
  <speed>3.060000</speed>
</trkpt>
<trkpt lat="32.859592438" lon="35.250446320">
  <ele>267.533691</ele>
  <time>2011-11-12T07:28:36Z</time>
  <speed>2.610000</speed>
</trkpt>
<trkpt lat="32.859607697" lon="35.250473022">
  <ele>267.814941</ele>
  <time>2011-11-12T07:28:37Z</time>
  <speed>3.060000</speed>
</trkpt>
<trkpt lat="32.859626770" lon="35.250534058">
  <ele>267.416504</ele>
  <time>2011-11-12T07:28:39Z</time>
  <speed>3.030000</speed>
</trkpt>
<trkpt lat="32.859642029" lon="35.250598907">
  <ele>267.518066</ele>
  <time>2011-11-12T07:28:41Z</time>
  <speed>3.550000</speed>
</trkpt>
<trkpt lat="32.859649658" lon="35.250640869">
  <ele>269.010254</ele>
  <time>2011-11-12T07:28:42Z</time>
  <speed>3.200000</speed>
</trkpt>
<trkpt lat="32.859645844" lon="35.250679016">
  <ele>269.369629</ele>
  <time>2011-11-12T07:28:43Z</time>
  <speed>3.200000</speed>
</trkpt>
<trkpt lat="32.859642029" lon="35.250717163">
  <ele>269.057129</ele>
  <time>2011-11-12T07:28:44Z</time>
  <speed>3.260000</speed>
</trkpt>
<trkpt lat="32.859638214" lon="35.250751495">
  <ele>269.650879</ele>
  <time>2011-11-12T07:28:45Z</time>
  <speed>3.400000</speed>
</trkpt>
<trkpt lat="32.859630585" lon="35.250789642">
  <ele>269.752441</ele>
  <time>2011-11-12T07:28:46Z</time>
  <speed>3.600000</speed>
</trkpt>
<trkpt lat="32.859622955" lon="35.250827789">
  <ele>269.900879</ele>
  <time>2011-11-12T07:28:47Z</time>
  <speed>3.280000</speed>
</trkpt>
<trkpt lat="32.859611511" lon="35.250865936">
  <ele>270.197754</ele>
  <time>2011-11-12T07:28:48Z</time>
  <speed>3.280000</speed>
</trkpt>
<trkpt lat="32.859600067" lon="35.250904083">
  <ele>270.400879</ele>
  <time>2011-11-12T07:28:49Z</time>
  <speed>3.310000</speed>
</trkpt>
<trkpt lat="32.859596252" lon="35.250942230">
  <ele>271.143066</ele>
  <time>2011-11-12T07:28:50Z</time>
  <speed>3.330000</speed>
</trkpt>
<trkpt lat="32.859584808" lon="35.250980377">
  <ele>271.299316</ele>
  <time>2011-11-12T07:28:51Z</time>
  <speed>3.360000</speed>
</trkpt>
<trkpt lat="32.859573364" lon="35.251014709">
  <ele>271.455566</ele>
  <time>2011-11-12T07:28:52Z</time>
  <speed>3.330000</speed>
</trkpt>
<trkpt lat="32.859565735" lon="35.251052856">
  <ele>271.283691</ele>
  <time>2011-11-12T07:28:53Z</time>
  <speed>3.100000</speed>
</trkpt>
<trkpt lat="32.859554291" lon="35.251087189">
  <ele>271.354004</ele>
  <time>2011-11-12T07:28:54Z</time>
  <speed>3.270000</speed>
</trkpt>
<trkpt lat="32.859546661" lon="35.251121521">
  <ele>271.752441</ele>
  <time>2011-11-12T07:28:55Z</time>
  <speed>3.120000</speed>
</trkpt>
<trkpt lat="32.859546661" lon="35.251159668">
  <ele>271.932129</ele>
  <time>2011-11-12T07:28:56Z</time>
  <speed>3.080000</speed>
</trkpt>
<trkpt lat="32.859539032" lon="35.251194000">
  <ele>272.291504</ele>
  <time>2011-11-12T07:28:57Z</time>
  <speed>3.500000</speed>
</trkpt>
<trkpt lat="32.859535217" lon="35.251235962">
  <ele>272.822754</ele>
  <time>2011-11-12T07:28:58Z</time>
  <speed>3.240000</speed>
</trkpt>
<trkpt lat="32.859535217" lon="35.251270294">
  <ele>272.666504</ele>
  <time>2011-11-12T07:28:59Z</time>
  <speed>3.110000</speed>
</trkpt>
<trkpt lat="32.859535217" lon="35.251308441">
  <ele>272.814941</ele>
  <time>2011-11-12T07:29:00Z</time>
  <speed>3.580000</speed>
</trkpt>
<trkpt lat="32.859542847" lon="35.251346588">
  <ele>273.025879</ele>
  <time>2011-11-12T07:29:01Z</time>
  <speed>3.410000</speed>
</trkpt>
<trkpt lat="32.859546661" lon="35.251380920">
  <ele>273.213379</ele>
  <time>2011-11-12T07:29:02Z</time>
  <speed>3.130000</speed>
</trkpt>
<trkpt lat="32.859561920" lon="35.251415253">
  <ele>273.455566</ele>
  <time>2011-11-12T07:29:03Z</time>
  <speed>3.150000</speed>
</trkpt>
<trkpt lat="32.859577179" lon="35.251445770">
  <ele>273.635254</ele>
  <time>2011-11-12T07:29:04Z</time>
  <speed>2.970000</speed>
</trkpt>
<trkpt lat="32.859588623" lon="35.251480103">
  <ele>273.697754</ele>
  <time>2011-11-12T07:29:05Z</time>
  <speed>3.130000</speed>
</trkpt>
<trkpt lat="32.859611511" lon="35.251506805">
  <ele>273.736816</ele>
  <time>2011-11-12T07:29:06Z</time>
  <speed>3.160000</speed>
</trkpt>
<trkpt lat="32.859626770" lon="35.251537323">
  <ele>273.682129</ele>
  <time>2011-11-12T07:29:07Z</time>
  <speed>3.280000</speed>
</trkpt>
<trkpt lat="32.859649658" lon="35.251567841">
  <ele>273.783691</ele>
  <time>2011-11-12T07:29:08Z</time>
  <speed>3.370000</speed>
</trkpt>
<trkpt lat="32.859668732" lon="35.251598358">
  <ele>273.307129</ele>
  <time>2011-11-12T07:29:09Z</time>
  <speed>3.570000</speed>
</trkpt>
<trkpt lat="32.859691620" lon="35.251628876">
  <ele>273.213379</ele>
  <time>2011-11-12T07:29:10Z</time>
  <speed>3.550000</speed>
</trkpt>
<trkpt lat="32.859714508" lon="35.251655579">
  <ele>273.174316</ele>
  <time>2011-11-12T07:29:11Z</time>
  <speed>3.590000</speed>
</trkpt>
<trkpt lat="32.859737396" lon="35.251689911">
  <ele>273.330566</ele>
  <time>2011-11-12T07:29:12Z</time>
  <speed>3.560000</speed>
</trkpt>
<trkpt lat="32.859764099" lon="35.251708984">
  <ele>273.314941</ele>
  <time>2011-11-12T07:29:13Z</time>
  <speed>3.680000</speed>
</trkpt>
<trkpt lat="32.859786987" lon="35.251735687">
  <ele>273.455566</ele>
  <time>2011-11-12T07:29:14Z</time>
  <speed>3.600000</speed>
</trkpt>
<trkpt lat="32.859817505" lon="35.251754761">
  <ele>273.346191</ele>
  <time>2011-11-12T07:29:15Z</time>
  <speed>3.600000</speed>
</trkpt>
<trkpt lat="32.859844208" lon="35.251770020">
  <ele>273.018066</ele>
  <time>2011-11-12T07:29:16Z</time>
  <speed>3.540000</speed>
</trkpt>
<trkpt lat="32.859870911" lon="35.251796722">
  <ele>273.150879</ele>
  <time>2011-11-12T07:29:17Z</time>
  <speed>3.610000</speed>
</trkpt>
<trkpt lat="32.859897614" lon="35.251819611">
  <ele>273.049316</ele>
  <time>2011-11-12T07:29:18Z</time>
  <speed>3.570000</speed>
</trkpt>
<trkpt lat="32.859931946" lon="35.251838684">
  <ele>273.658691</ele>
  <time>2011-11-12T07:29:19Z</time>
  <speed>3.340000</speed>
</trkpt>
<trkpt lat="32.859966278" lon="35.251853943">
  <ele>273.619629</ele>
  <time>2011-11-12T07:29:20Z</time>
  <speed>3.540000</speed>
</trkpt>
<trkpt lat="32.859989166" lon="35.251880646">
  <ele>273.635254</ele>
  <time>2011-11-12T07:29:21Z</time>
  <speed>3.430000</speed>
</trkpt>
<trkpt lat="32.860023499" lon="35.251895905">
  <ele>273.807129</ele>
  <time>2011-11-12T07:29:22Z</time>
  <speed>3.540000</speed>
</trkpt>
<trkpt lat="32.860054016" lon="35.251914978">
  <ele>274.150879</ele>
  <time>2011-11-12T07:29:23Z</time>
  <speed>3.610000</speed>
</trkpt>
<trkpt lat="32.860088348" lon="35.251930237">
  <ele>274.010254</ele>
  <time>2011-11-12T07:29:24Z</time>
  <speed>3.550000</speed>
</trkpt>
<trkpt lat="32.860126495" lon="35.251945496">
  <ele>274.471191</ele>
  <time>2011-11-12T07:29:25Z</time>
  <speed>3.450000</speed>
</trkpt>
<trkpt lat="32.860149384" lon="35.251964569">
  <ele>274.369629</ele>
  <time>2011-11-12T07:29:26Z</time>
  <speed>3.190000</speed>
</trkpt>
<trkpt lat="32.860187531" lon="35.251976013">
  <ele>274.893066</ele>
  <time>2011-11-12T07:29:27Z</time>
  <speed>3.440000</speed>
</trkpt>
<trkpt lat="32.860221863" lon="35.251987457">
  <ele>274.955566</ele>
  <time>2011-11-12T07:29:28Z</time>
  <speed>3.310000</speed>
</trkpt>
<trkpt lat="32.860252380" lon="35.251995087">
  <ele>275.158691</ele>
  <time>2011-11-12T07:29:29Z</time>
  <speed>3.150000</speed>
</trkpt>
<trkpt lat="32.860282898" lon="35.251998901">
  <ele>274.697754</ele>
  <time>2011-11-12T07:29:30Z</time>
  <speed>2.980000</speed>
</trkpt>
<trkpt lat="32.860336304" lon="35.252010345">
  <ele>274.986816</ele>
  <time>2011-11-12T07:29:32Z</time>
  <speed>3.290000</speed>
</trkpt>
<trkpt lat="32.860366821" lon="35.252021790">
  <ele>274.619629</ele>
  <time>2011-11-12T07:29:33Z</time>
  <speed>3.210000</speed>
</trkpt>
<trkpt lat="32.860389709" lon="35.252040863">
  <ele>275.033691</ele>
  <time>2011-11-12T07:29:34Z</time>
  <speed>3.200000</speed>
</trkpt>
<trkpt lat="32.860443115" lon="35.252063751">
  <ele>275.213379</ele>
  <time>2011-11-12T07:29:36Z</time>
  <speed>3.270000</speed>
</trkpt>
<trkpt lat="32.860473633" lon="35.252067566">
  <ele>275.158691</ele>
  <time>2011-11-12T07:29:37Z</time>
  <speed>2.980000</speed>
</trkpt>
<trkpt lat="32.860500336" lon="35.252075195">
  <ele>275.268066</ele>
  <time>2011-11-12T07:29:38Z</time>
  <speed>2.920000</speed>
</trkpt>
<trkpt lat="32.860527039" lon="35.252082825">
  <ele>275.408691</ele>
  <time>2011-11-12T07:29:39Z</time>
  <speed>2.900000</speed>
</trkpt>
<trkpt lat="32.860553741" lon="35.252086639">
  <ele>275.885254</ele>
  <time>2011-11-12T07:29:40Z</time>
  <speed>2.790000</speed>
</trkpt>
<trkpt lat="32.860603333" lon="35.252101898">
  <ele>276.869629</ele>
  <time>2011-11-12T07:29:42Z</time>
  <speed>2.700000</speed>
</trkpt>
<trkpt lat="32.860652924" lon="35.252109528">
  <ele>277.760254</ele>
  <time>2011-11-12T07:29:44Z</time>
  <speed>2.340000</speed>
</trkpt>
<trkpt lat="32.860698700" lon="35.252117157">
  <ele>278.518066</ele>
  <time>2011-11-12T07:29:46Z</time>
  <speed>2.340000</speed>
</trkpt>
<trkpt lat="32.860744476" lon="35.252120972">
  <ele>278.775879</ele>
  <time>2011-11-12T07:29:48Z</time>
  <speed>2.350000</speed>
</trkpt>
<trkpt lat="32.860794067" lon="35.252117157">
  <ele>279.400879</ele>
  <time>2011-11-12T07:29:50Z</time>
  <speed>2.410000</speed>
</trkpt>
<trkpt lat="32.860839844" lon="35.252120972">
  <ele>280.221191</ele>
  <time>2011-11-12T07:29:52Z</time>
  <speed>2.500000</speed>
</trkpt>
<trkpt lat="32.860870361" lon="35.252124786">
  <ele>280.619629</ele>
  <time>2011-11-12T07:29:53Z</time>
  <speed>2.650000</speed>
</trkpt>
<trkpt lat="32.860900879" lon="35.252128601">
  <ele>280.955566</ele>
  <time>2011-11-12T07:29:54Z</time>
  <speed>2.920000</speed>
</trkpt>
<trkpt lat="32.860950470" lon="35.252120972">
  <ele>281.471191</ele>
  <time>2011-11-12T07:29:56Z</time>
  <speed>2.710000</speed>
</trkpt>
<trkpt lat="32.860992432" lon="35.252113342">
  <ele>282.213379</ele>
  <time>2011-11-12T07:29:58Z</time>
  <speed>2.420000</speed>
</trkpt>
<trkpt lat="32.861034393" lon="35.252124786">
  <ele>282.986816</ele>
  <time>2011-11-12T07:30:00Z</time>
  <speed>2.800000</speed>
</trkpt>
<trkpt lat="32.861064911" lon="35.252124786">
  <ele>282.768066</ele>
  <time>2011-11-12T07:30:01Z</time>
  <speed>2.790000</speed>
</trkpt>
<trkpt lat="32.861114502" lon="35.252120972">
  <ele>282.877441</ele>
  <time>2011-11-12T07:30:03Z</time>
  <speed>2.670000</speed>
</trkpt>
<trkpt lat="32.861145020" lon="35.252120972">
  <ele>282.439941</ele>
  <time>2011-11-12T07:30:04Z</time>
  <speed>2.600000</speed>
</trkpt>
<trkpt lat="32.861198425" lon="35.252117157">
  <ele>282.096191</ele>
  <time>2011-11-12T07:30:06Z</time>
  <speed>2.740000</speed>
</trkpt>
<trkpt lat="32.861228943" lon="35.252109528">
  <ele>281.783691</ele>
  <time>2011-11-12T07:30:07Z</time>
  <speed>2.750000</speed>
</trkpt>
<trkpt lat="32.861278534" lon="35.252109528">
  <ele>281.807129</ele>
  <time>2011-11-12T07:30:09Z</time>
  <speed>2.510000</speed>
</trkpt>
<trkpt lat="32.861324310" lon="35.252098083">
  <ele>281.174316</ele>
  <time>2011-11-12T07:30:11Z</time>
  <speed>2.470000</speed>
</trkpt>
<trkpt lat="32.861370087" lon="35.252086639">
  <ele>281.291504</ele>
  <time>2011-11-12T07:30:13Z</time>
  <speed>2.360000</speed>
</trkpt>
<trkpt lat="32.861408234" lon="35.252082825">
  <ele>281.658691</ele>
  <time>2011-11-12T07:30:15Z</time>
  <speed>2.100000</speed>
</trkpt>
<trkpt lat="32.861442566" lon="35.252075195">
  <ele>281.525879</ele>
  <time>2011-11-12T07:30:17Z</time>
  <speed>1.880000</speed>
</trkpt>
<trkpt lat="32.861480713" lon="35.252059937">
  <ele>281.822754</ele>
  <time>2011-11-12T07:30:19Z</time>
  <speed>1.910000</speed>
</trkpt>
<trkpt lat="32.861522675" lon="35.252056122">
  <ele>281.564941</ele>
  <time>2011-11-12T07:30:21Z</time>
  <speed>2.200000</speed>
</trkpt>
<trkpt lat="32.861557007" lon="35.252044678">
  <ele>282.275879</ele>
  <time>2011-11-12T07:30:23Z</time>
  <speed>2.460000</speed>
</trkpt>
<trkpt lat="32.861598969" lon="35.252029419">
  <ele>282.604004</ele>
  <time>2011-11-12T07:30:25Z</time>
  <speed>2.490000</speed>
</trkpt>
<trkpt lat="32.861644745" lon="35.252017975">
  <ele>282.252441</ele>
  <time>2011-11-12T07:30:27Z</time>
  <speed>2.300000</speed>
</trkpt>
<trkpt lat="32.861686707" lon="35.251995087">
  <ele>282.807129</ele>
  <time>2011-11-12T07:30:29Z</time>
  <speed>2.450000</speed>
</trkpt>
<trkpt lat="32.861724854" lon="35.251972198">
  <ele>282.736816</ele>
  <time>2011-11-12T07:30:31Z</time>
  <speed>2.730000</speed>
</trkpt>
<trkpt lat="32.861759186" lon="35.251934052">
  <ele>282.854004</ele>
  <time>2011-11-12T07:30:33Z</time>
  <speed>2.530000</speed>
</trkpt>
<trkpt lat="32.861793518" lon="35.251892090">
  <ele>283.143066</ele>
  <time>2011-11-12T07:30:35Z</time>
  <speed>2.510000</speed>
</trkpt>
<trkpt lat="32.861824036" lon="35.251876831">
  <ele>283.541504</ele>
  <time>2011-11-12T07:30:37Z</time>
  <speed>1.820000</speed>
</trkpt>
<trkpt lat="32.861850739" lon="35.251907349">
  <ele>282.658691</ele>
  <time>2011-11-12T07:30:39Z</time>
  <speed>3.140000</speed>
</trkpt>
<trkpt lat="32.861865997" lon="35.251941681">
  <ele>282.533691</ele>
  <time>2011-11-12T07:30:40Z</time>
  <speed>3.320000</speed>
</trkpt>
<trkpt lat="32.861896515" lon="35.251991272">
  <ele>282.377441</ele>
  <time>2011-11-12T07:30:41Z</time>
  <speed>5.930000</speed>
</trkpt>
<trkpt lat="32.861927032" lon="35.252079010">
  <ele>281.611816</ele>
  <time>2011-11-12T07:30:42Z</time>
  <speed>7.360000</speed>
</trkpt>
<trkpt lat="32.861953735" lon="35.252162933">
  <ele>280.682129</ele>
  <time>2011-11-12T07:30:43Z</time>
  <speed>7.760000</speed>
</trkpt>
<trkpt lat="32.861961365" lon="35.252246857">
  <ele>279.979004</ele>
  <time>2011-11-12T07:30:44Z</time>
  <speed>7.870000</speed>
</trkpt>
<trkpt lat="32.861957550" lon="35.252334595">
  <ele>279.486816</ele>
  <time>2011-11-12T07:30:45Z</time>
  <speed>8.150000</speed>
</trkpt>
<trkpt lat="32.861949921" lon="35.252426147">
  <ele>278.807129</ele>
  <time>2011-11-12T07:30:46Z</time>
  <speed>8.890000</speed>
</trkpt>
<trkpt lat="32.861938477" lon="35.252525330">
  <ele>278.939941</ele>
  <time>2011-11-12T07:30:47Z</time>
  <speed>8.090000</speed>
</trkpt>
<trkpt lat="32.861919403" lon="35.252616882">
  <ele>278.322754</ele>
  <time>2011-11-12T07:30:48Z</time>
  <speed>8.190000</speed>
</trkpt>
<trkpt lat="32.861896515" lon="35.252700806">
  <ele>277.361816</ele>
  <time>2011-11-12T07:30:49Z</time>
  <speed>7.640000</speed>
</trkpt>
<trkpt lat="32.861869812" lon="35.252777100">
  <ele>276.971191</ele>
  <time>2011-11-12T07:30:50Z</time>
  <speed>8.060000</speed>
</trkpt>
<trkpt lat="32.861839294" lon="35.252857208">
  <ele>277.533691</ele>
  <time>2011-11-12T07:30:51Z</time>
  <speed>7.270000</speed>
</trkpt>
<trkpt lat="32.861804962" lon="35.252925873">
  <ele>278.119629</ele>
  <time>2011-11-12T07:30:52Z</time>
  <speed>7.020000</speed>
</trkpt>
<trkpt lat="32.861766815" lon="35.252990723">
  <ele>278.033691</ele>
  <time>2011-11-12T07:30:53Z</time>
  <speed>6.690000</speed>
</trkpt>
<trkpt lat="32.861728668" lon="35.253051758">
  <ele>277.572754</ele>
  <time>2011-11-12T07:30:54Z</time>
  <speed>6.780000</speed>
</trkpt>
<trkpt lat="32.861698151" lon="35.253108978">
  <ele>277.533691</ele>
  <time>2011-11-12T07:30:55Z</time>
  <speed>6.650000</speed>
</trkpt>
<trkpt lat="32.861656189" lon="35.253158569">
  <ele>277.439941</ele>
  <time>2011-11-12T07:30:56Z</time>
  <speed>6.800000</speed>
</trkpt>
<trkpt lat="32.861610413" lon="35.253211975">
  <ele>277.330566</ele>
  <time>2011-11-12T07:30:57Z</time>
  <speed>6.560000</speed>
</trkpt>
<trkpt lat="32.861568451" lon="35.253257751">
  <ele>277.338379</ele>
  <time>2011-11-12T07:30:58Z</time>
  <speed>6.550000</speed>
</trkpt>
<trkpt lat="32.861530304" lon="35.253303528">
  <ele>277.314941</ele>
  <time>2011-11-12T07:30:59Z</time>
  <speed>6.200000</speed>
</trkpt>
<trkpt lat="32.861492157" lon="35.253334045">
  <ele>277.549316</ele>
  <time>2011-11-12T07:31:00Z</time>
  <speed>5.760000</speed>
</trkpt>
<trkpt lat="32.861446381" lon="35.253372192">
  <ele>277.955566</ele>
  <time>2011-11-12T07:31:01Z</time>
  <speed>5.970000</speed>
</trkpt>
<trkpt lat="32.861400604" lon="35.253410339">
  <ele>277.658691</ele>
  <time>2011-11-12T07:31:02Z</time>
  <speed>6.500000</speed>
</trkpt>
<trkpt lat="32.861354828" lon="35.253456116">
  <ele>277.439941</ele>
  <time>2011-11-12T07:31:03Z</time>
  <speed>6.460000</speed>
</trkpt>
<trkpt lat="32.861301422" lon="35.253494263">
  <ele>277.119629</ele>
  <time>2011-11-12T07:31:04Z</time>
  <speed>6.180000</speed>
</trkpt>
<trkpt lat="32.861248016" lon="35.253520966">
  <ele>277.275879</ele>
  <time>2011-11-12T07:31:05Z</time>
  <speed>6.580000</speed>
</trkpt>
<trkpt lat="32.861194611" lon="35.253551483">
  <ele>277.596191</ele>
  <time>2011-11-12T07:31:06Z</time>
  <speed>6.380000</speed>
</trkpt>
<trkpt lat="32.861141205" lon="35.253574371">
  <ele>277.775879</ele>
  <time>2011-11-12T07:31:07Z</time>
  <speed>6.130000</speed>
</trkpt>
<trkpt lat="32.861087799" lon="35.253593445">
  <ele>278.010254</ele>
  <time>2011-11-12T07:31:08Z</time>
  <speed>6.220000</speed>
</trkpt>
<trkpt lat="32.861034393" lon="35.253616333">
  <ele>278.939941</ele>
  <time>2011-11-12T07:31:09Z</time>
  <speed>6.400000</speed>
</trkpt>
<trkpt lat="32.860980988" lon="35.253631592">
  <ele>279.432129</ele>
  <time>2011-11-12T07:31:10Z</time>
  <speed>6.150000</speed>
</trkpt>
<trkpt lat="32.860919952" lon="35.253646851">
  <ele>279.869629</ele>
  <time>2011-11-12T07:31:11Z</time>
  <speed>6.250000</speed>
</trkpt>
<trkpt lat="32.860866547" lon="35.253658295">
  <ele>280.158691</ele>
  <time>2011-11-12T07:31:12Z</time>
  <speed>6.170000</speed>
</trkpt>
<trkpt lat="32.860809326" lon="35.253681183">
  <ele>280.564941</ele>
  <time>2011-11-12T07:31:13Z</time>
  <speed>6.280000</speed>
</trkpt>
<trkpt lat="32.860748291" lon="35.253715515">
  <ele>279.018066</ele>
  <time>2011-11-12T07:31:14Z</time>
  <speed>6.170000</speed>
</trkpt>
<trkpt lat="32.860694885" lon="35.253738403">
  <ele>279.002441</ele>
  <time>2011-11-12T07:31:15Z</time>
  <speed>6.030000</speed>
</trkpt>
<trkpt lat="32.860641479" lon="35.253761292">
  <ele>278.877441</ele>
  <time>2011-11-12T07:31:16Z</time>
  <speed>6.200000</speed>
</trkpt>
<trkpt lat="32.860595703" lon="35.253791809">
  <ele>279.197754</ele>
  <time>2011-11-12T07:31:17Z</time>
  <speed>6.130000</speed>
</trkpt>
<trkpt lat="32.860546112" lon="35.253829956">
  <ele>279.799316</ele>
  <time>2011-11-12T07:31:18Z</time>
  <speed>5.900000</speed>
</trkpt>
<trkpt lat="32.860507965" lon="35.253871918">
  <ele>279.760254</ele>
  <time>2011-11-12T07:31:19Z</time>
  <speed>5.660000</speed>
</trkpt>
<trkpt lat="32.860481262" lon="35.253921509">
  <ele>279.471191</ele>
  <time>2011-11-12T07:31:20Z</time>
  <speed>4.870000</speed>
</trkpt>
<trkpt lat="32.860454559" lon="35.253963470">
  <ele>279.877441</ele>
  <time>2011-11-12T07:31:21Z</time>
  <speed>4.660000</speed>
</trkpt>
<trkpt lat="32.860431671" lon="35.254005432">
  <ele>279.979004</ele>
  <time>2011-11-12T07:31:22Z</time>
  <speed>4.210000</speed>
</trkpt>
<trkpt lat="32.860408783" lon="35.254047394">
  <ele>279.666504</ele>
  <time>2011-11-12T07:31:23Z</time>
  <speed>4.350000</speed>
</trkpt>
<trkpt lat="32.860393524" lon="35.254093170">
  <ele>280.205566</ele>
  <time>2011-11-12T07:31:24Z</time>
  <speed>4.230000</speed>
</trkpt>
<trkpt lat="32.860378265" lon="35.254142761">
  <ele>280.307129</ele>
  <time>2011-11-12T07:31:25Z</time>
  <speed>4.260000</speed>
</trkpt>
<trkpt lat="32.860366821" lon="35.254184723">
  <ele>280.979004</ele>
  <time>2011-11-12T07:31:26Z</time>
  <speed>4.290000</speed>
</trkpt>
<trkpt lat="32.860355377" lon="35.254226685">
  <ele>279.939941</ele>
  <time>2011-11-12T07:31:27Z</time>
  <speed>4.230000</speed>
</trkpt>
<trkpt lat="32.860343933" lon="35.254268646">
  <ele>279.854004</ele>
  <time>2011-11-12T07:31:28Z</time>
  <speed>4.130000</speed>
</trkpt>
<trkpt lat="32.860328674" lon="35.254306793">
  <ele>279.752441</ele>
  <time>2011-11-12T07:31:29Z</time>
  <speed>3.920000</speed>
</trkpt>
<trkpt lat="32.860305786" lon="35.254333496">
  <ele>279.174316</ele>
  <time>2011-11-12T07:31:30Z</time>
  <speed>4.010000</speed>
</trkpt>
<trkpt lat="32.860290527" lon="35.254367828">
  <ele>279.268066</ele>
  <time>2011-11-12T07:31:31Z</time>
  <speed>4.240000</speed>
</trkpt>
<trkpt lat="32.860275269" lon="35.254409790">
  <ele>279.658691</ele>
  <time>2011-11-12T07:31:32Z</time>
  <speed>4.060000</speed>
</trkpt>
<trkpt lat="32.860260010" lon="35.254447937">
  <ele>280.041504</ele>
  <time>2011-11-12T07:31:33Z</time>
  <speed>4.070000</speed>
</trkpt>
<trkpt lat="32.860244751" lon="35.254489899">
  <ele>280.252441</ele>
  <time>2011-11-12T07:31:34Z</time>
  <speed>3.950000</speed>
</trkpt>
<trkpt lat="32.860229492" lon="35.254528046">
  <ele>280.541504</ele>
  <time>2011-11-12T07:31:35Z</time>
  <speed>3.840000</speed>
</trkpt>
<trkpt lat="32.860214233" lon="35.254566193">
  <ele>280.736816</ele>
  <time>2011-11-12T07:31:36Z</time>
  <speed>3.890000</speed>
</trkpt>
<trkpt lat="32.860198975" lon="35.254600525">
  <ele>280.658691</ele>
  <time>2011-11-12T07:31:37Z</time>
  <speed>3.710000</speed>
</trkpt>
<trkpt lat="32.860179901" lon="35.254631042">
  <ele>280.939941</ele>
  <time>2011-11-12T07:31:38Z</time>
  <speed>3.660000</speed>
</trkpt>
<trkpt lat="32.860160828" lon="35.254657745">
  <ele>281.041504</ele>
  <time>2011-11-12T07:31:39Z</time>
  <speed>3.490000</speed>
</trkpt>
<trkpt lat="32.860130310" lon="35.254714966">
  <ele>281.588379</ele>
  <time>2011-11-12T07:31:41Z</time>
  <speed>3.150000</speed>
</trkpt>
<trkpt lat="32.860103607" lon="35.254768372">
  <ele>282.268066</ele>
  <time>2011-11-12T07:31:43Z</time>
  <speed>3.280000</speed>
</trkpt>
<trkpt lat="32.860084534" lon="35.254798889">
  <ele>282.361816</ele>
  <time>2011-11-12T07:31:44Z</time>
  <speed>3.040000</speed>
</trkpt>
<trkpt lat="32.860065460" lon="35.254825592">
  <ele>282.736816</ele>
  <time>2011-11-12T07:31:45Z</time>
  <speed>3.530000</speed>
</trkpt>
<trkpt lat="32.860050201" lon="35.254852295">
  <ele>283.275879</ele>
  <time>2011-11-12T07:31:46Z</time>
  <speed>3.180000</speed>
</trkpt>
<trkpt lat="32.860015869" lon="35.254913330">
  <ele>284.783691</ele>
  <time>2011-11-12T07:31:48Z</time>
  <speed>3.500000</speed>
</trkpt>
<trkpt lat="32.859996796" lon="35.254940033">
  <ele>284.635254</ele>
  <time>2011-11-12T07:31:49Z</time>
  <speed>3.180000</speed>
</trkpt>
<trkpt lat="32.859977722" lon="35.254966736">
  <ele>285.229004</ele>
  <time>2011-11-12T07:31:50Z</time>
  <speed>3.390000</speed>
</trkpt>
<trkpt lat="32.859962463" lon="35.255004883">
  <ele>285.814941</ele>
  <time>2011-11-12T07:31:51Z</time>
  <speed>3.440000</speed>
</trkpt>
<trkpt lat="32.859951019" lon="35.255035400">
  <ele>286.260254</ele>
  <time>2011-11-12T07:31:52Z</time>
  <speed>3.810000</speed>
</trkpt>
<trkpt lat="32.859939575" lon="35.255077362">
  <ele>286.744629</ele>
  <time>2011-11-12T07:31:53Z</time>
  <speed>3.940000</speed>
</trkpt>
<trkpt lat="32.859928131" lon="35.255119324">
  <ele>287.752441</ele>
  <time>2011-11-12T07:31:54Z</time>
  <speed>3.610000</speed>
</trkpt>
<trkpt lat="32.859928131" lon="35.255153656">
  <ele>287.275879</ele>
  <time>2011-11-12T07:31:55Z</time>
  <speed>3.480000</speed>
</trkpt>
<trkpt lat="32.859920502" lon="35.255187988">
  <ele>287.838379</ele>
  <time>2011-11-12T07:31:56Z</time>
  <speed>3.440000</speed>
</trkpt>
<trkpt lat="32.859916687" lon="35.255222321">
  <ele>288.182129</ele>
  <time>2011-11-12T07:31:57Z</time>
  <speed>3.040000</speed>
</trkpt>
<trkpt lat="32.859909058" lon="35.255256653">
  <ele>288.705566</ele>
  <time>2011-11-12T07:31:58Z</time>
  <speed>2.840000</speed>
</trkpt>
<trkpt lat="32.859909058" lon="35.255302429">
  <ele>286.908691</ele>
  <time>2011-11-12T07:32:00Z</time>
  <speed>2.370000</speed>
</trkpt>
<trkpt lat="32.859909058" lon="35.255348206">
  <ele>285.830566</ele>
  <time>2011-11-12T07:32:02Z</time>
  <speed>2.650000</speed>
</trkpt>
<trkpt lat="32.859909058" lon="35.255405426">
  <ele>285.416504</ele>
  <time>2011-11-12T07:32:04Z</time>
  <speed>2.810000</speed>
</trkpt>
<trkpt lat="32.859909058" lon="35.255462646">
  <ele>286.252441</ele>
  <time>2011-11-12T07:32:06Z</time>
  <speed>2.640000</speed>
</trkpt>
<trkpt lat="32.859920502" lon="35.255519867">
  <ele>286.197754</ele>
  <time>2011-11-12T07:32:08Z</time>
  <speed>2.710000</speed>
</trkpt>
<trkpt lat="32.859928131" lon="35.255580902">
  <ele>286.557129</ele>
  <time>2011-11-12T07:32:10Z</time>
  <speed>2.990000</speed>
</trkpt>
<trkpt lat="32.859935760" lon="35.255641937">
  <ele>287.525879</ele>
  <time>2011-11-12T07:32:12Z</time>
  <speed>2.780000</speed>
</trkpt>
<trkpt lat="32.859951019" lon="35.255706787">
  <ele>287.814941</ele>
  <time>2011-11-12T07:32:14Z</time>
  <speed>2.630000</speed>
</trkpt>
<trkpt lat="32.859962463" lon="35.255764008">
  <ele>287.229004</ele>
  <time>2011-11-12T07:32:16Z</time>
  <speed>2.700000</speed>
</trkpt>
<trkpt lat="32.859970093" lon="35.255821228">
  <ele>287.416504</ele>
  <time>2011-11-12T07:32:18Z</time>
  <speed>2.700000</speed>
</trkpt>
<trkpt lat="32.859977722" lon="35.255870819">
  <ele>287.619629</ele>
  <time>2011-11-12T07:32:20Z</time>
  <speed>2.750000</speed>
</trkpt>
<trkpt lat="32.859989166" lon="35.255901337">
  <ele>287.822754</ele>
  <time>2011-11-12T07:32:21Z</time>
  <speed>2.880000</speed>
</trkpt>
<trkpt lat="32.859992981" lon="35.255931854">
  <ele>287.885254</ele>
  <time>2011-11-12T07:32:22Z</time>
  <speed>2.910000</speed>
</trkpt>
<trkpt lat="32.859992981" lon="35.255962372">
  <ele>287.463379</ele>
  <time>2011-11-12T07:32:23Z</time>
  <speed>2.610000</speed>
</trkpt>
<trkpt lat="32.860004425" lon="35.256015778">
  <ele>287.471191</ele>
  <time>2011-11-12T07:32:25Z</time>
  <speed>2.560000</speed>
</trkpt>
<trkpt lat="32.860008240" lon="35.256050110">
  <ele>287.893066</ele>
  <time>2011-11-12T07:32:26Z</time>
  <speed>2.630000</speed>
</trkpt>
<trkpt lat="32.860008240" lon="35.256111145">
  <ele>287.510254</ele>
  <time>2011-11-12T07:32:28Z</time>
  <speed>2.680000</speed>
</trkpt>
<trkpt lat="32.860019684" lon="35.256168365">
  <ele>287.471191</ele>
  <time>2011-11-12T07:32:30Z</time>
  <speed>2.740000</speed>
</trkpt>
<trkpt lat="32.860027313" lon="35.256198883">
  <ele>288.252441</ele>
  <time>2011-11-12T07:32:31Z</time>
  <speed>2.920000</speed>
</trkpt>
<trkpt lat="32.860031128" lon="35.256263733">
  <ele>287.979004</ele>
  <time>2011-11-12T07:32:33Z</time>
  <speed>3.020000</speed>
</trkpt>
<trkpt lat="32.860031128" lon="35.256298065">
  <ele>287.760254</ele>
  <time>2011-11-12T07:32:34Z</time>
  <speed>2.910000</speed>
</trkpt>
<trkpt lat="32.860034943" lon="35.256332397">
  <ele>287.385254</ele>
  <time>2011-11-12T07:32:35Z</time>
  <speed>2.920000</speed>
</trkpt>
<trkpt lat="32.860038757" lon="35.256366730">
  <ele>286.955566</ele>
  <time>2011-11-12T07:32:36Z</time>
  <speed>2.880000</speed>
</trkpt>
<trkpt lat="32.860042572" lon="35.256401062">
  <ele>286.182129</ele>
  <time>2011-11-12T07:32:37Z</time>
  <speed>3.320000</speed>
</trkpt>
<trkpt lat="32.860050201" lon="35.256435394">
  <ele>286.377441</ele>
  <time>2011-11-12T07:32:38Z</time>
  <speed>3.570000</speed>
</trkpt>
<trkpt lat="32.860054016" lon="35.256477356">
  <ele>286.479004</ele>
  <time>2011-11-12T07:32:39Z</time>
  <speed>3.960000</speed>
</trkpt>
<trkpt lat="32.860065460" lon="35.256526947">
  <ele>286.986816</ele>
  <time>2011-11-12T07:32:40Z</time>
  <speed>4.390000</speed>
</trkpt>
<trkpt lat="32.860076904" lon="35.256572723">
  <ele>287.713379</ele>
  <time>2011-11-12T07:32:41Z</time>
  <speed>4.510000</speed>
</trkpt>
<trkpt lat="32.860088348" lon="35.256622314">
  <ele>287.432129</ele>
  <time>2011-11-12T07:32:42Z</time>
  <speed>4.730000</speed>
</trkpt>
<trkpt lat="32.860099792" lon="35.256671906">
  <ele>287.307129</ele>
  <time>2011-11-12T07:32:43Z</time>
  <speed>4.750000</speed>
</trkpt>
<trkpt lat="32.860107422" lon="35.256725311">
  <ele>287.049316</ele>
  <time>2011-11-12T07:32:44Z</time>
  <speed>4.640000</speed>
</trkpt>
<trkpt lat="32.860122681" lon="35.256774902">
  <ele>286.455566</ele>
  <time>2011-11-12T07:32:45Z</time>
  <speed>5.060000</speed>
</trkpt>
<trkpt lat="32.860137939" lon="35.256828308">
  <ele>285.916504</ele>
  <time>2011-11-12T07:32:46Z</time>
  <speed>5.080000</speed>
</trkpt>
<trkpt lat="32.860157013" lon="35.256885529">
  <ele>285.822754</ele>
  <time>2011-11-12T07:32:47Z</time>
  <speed>5.410000</speed>
</trkpt>
<trkpt lat="32.860179901" lon="35.256935120">
  <ele>286.150879</ele>
  <time>2011-11-12T07:32:48Z</time>
  <speed>5.530000</speed>
</trkpt>
<trkpt lat="32.860210419" lon="35.256984711">
  <ele>286.369629</ele>
  <time>2011-11-12T07:32:49Z</time>
  <speed>5.630000</speed>
</trkpt>
<trkpt lat="32.860244751" lon="35.257030487">
  <ele>286.408691</ele>
  <time>2011-11-12T07:32:50Z</time>
  <speed>5.680000</speed>
</trkpt>
<trkpt lat="32.860282898" lon="35.257076263">
  <ele>285.721191</ele>
  <time>2011-11-12T07:32:51Z</time>
  <speed>5.640000</speed>
</trkpt>
<trkpt lat="32.860321045" lon="35.257122040">
  <ele>285.650879</ele>
  <time>2011-11-12T07:32:52Z</time>
  <speed>5.510000</speed>
</trkpt>
<trkpt lat="32.860363007" lon="35.257156372">
  <ele>285.502441</ele>
  <time>2011-11-12T07:32:53Z</time>
  <speed>5.280000</speed>
</trkpt>
<trkpt lat="32.860412598" lon="35.257179260">
  <ele>286.064941</ele>
  <time>2011-11-12T07:32:54Z</time>
  <speed>5.070000</speed>
</trkpt>
<trkpt lat="32.860458374" lon="35.257194519">
  <ele>285.596191</ele>
  <time>2011-11-12T07:32:55Z</time>
  <speed>4.720000</speed>
</trkpt>
<trkpt lat="32.860507965" lon="35.257194519">
  <ele>286.025879</ele>
  <time>2011-11-12T07:32:56Z</time>
  <speed>4.520000</speed>
</trkpt>
<trkpt lat="32.860557556" lon="35.257198334">
  <ele>286.064941</ele>
  <time>2011-11-12T07:32:57Z</time>
  <speed>5.070000</speed>
</trkpt>
<trkpt lat="32.860603333" lon="35.257209778">
  <ele>285.783691</ele>
  <time>2011-11-12T07:32:58Z</time>
  <speed>5.260000</speed>
</trkpt>
<trkpt lat="32.860645294" lon="35.257228851">
  <ele>285.799316</ele>
  <time>2011-11-12T07:32:59Z</time>
  <speed>4.850000</speed>
</trkpt>
<trkpt lat="32.860687256" lon="35.257251740">
  <ele>285.713379</ele>
  <time>2011-11-12T07:33:00Z</time>
  <speed>4.740000</speed>
</trkpt>
<trkpt lat="32.860729218" lon="35.257270813">
  <ele>285.525879</ele>
  <time>2011-11-12T07:33:01Z</time>
  <speed>4.580000</speed>
</trkpt>
<trkpt lat="32.860774994" lon="35.257278442">
  <ele>285.752441</ele>
  <time>2011-11-12T07:33:02Z</time>
  <speed>4.370000</speed>
</trkpt>
<trkpt lat="32.860809326" lon="35.257286072">
  <ele>285.518066</ele>
  <time>2011-11-12T07:33:03Z</time>
  <speed>3.770000</speed>
</trkpt>
<trkpt lat="32.860855103" lon="35.257293701">
  <ele>285.924316</ele>
  <time>2011-11-12T07:33:04Z</time>
  <speed>3.710000</speed>
</trkpt>
<trkpt lat="32.860893250" lon="35.257297516">
  <ele>286.002441</ele>
  <time>2011-11-12T07:33:05Z</time>
  <speed>3.760000</speed>
</trkpt>
<trkpt lat="32.860931396" lon="35.257297516">
  <ele>286.111816</ele>
  <time>2011-11-12T07:33:06Z</time>
  <speed>3.540000</speed>
</trkpt>
<trkpt lat="32.860961914" lon="35.257297516">
  <ele>285.986816</ele>
  <time>2011-11-12T07:33:07Z</time>
  <speed>2.970000</speed>
</trkpt>
<trkpt lat="32.860988617" lon="35.257297516">
  <ele>285.721191</ele>
  <time>2011-11-12T07:33:08Z</time>
  <speed>2.680000</speed>
</trkpt>
<trkpt lat="32.861019135" lon="35.257301331">
  <ele>285.783691</ele>
  <time>2011-11-12T07:33:09Z</time>
  <speed>2.800000</speed>
</trkpt>
<trkpt lat="32.861049652" lon="35.257312775">
  <ele>285.939941</ele>
  <time>2011-11-12T07:33:10Z</time>
  <speed>2.370000</speed>
</trkpt>
<trkpt lat="32.861076355" lon="35.257324219">
  <ele>285.932129</ele>
  <time>2011-11-12T07:33:11Z</time>
  <speed>1.910000</speed>
</trkpt>
<trkpt lat="32.861106873" lon="35.257347107">
  <ele>286.025879</ele>
  <time>2011-11-12T07:33:13Z</time>
  <speed>1.410000</speed>
</trkpt>
<trkpt lat="32.861137390" lon="35.257354736">
  <ele>285.752441</ele>
  <time>2011-11-12T07:33:15Z</time>
  <speed>1.860000</speed>
</trkpt>
<trkpt lat="32.861167908" lon="35.257366180">
  <ele>285.713379</ele>
  <time>2011-11-12T07:33:17Z</time>
  <speed>1.760000</speed>
</trkpt>
<trkpt lat="32.861194611" lon="35.257411957">
  <ele>285.893066</ele>
  <time>2011-11-12T07:33:19Z</time>
  <speed>2.590000</speed>
</trkpt>
<trkpt lat="32.861209869" lon="35.257438660">
  <ele>284.932129</ele>
  <time>2011-11-12T07:33:20Z</time>
  <speed>3.900000</speed>
</trkpt>
<trkpt lat="32.861228943" lon="35.257488251">
  <ele>284.447754</ele>
  <time>2011-11-12T07:33:21Z</time>
  <speed>5.000000</speed>
</trkpt>
<trkpt lat="32.861236572" lon="35.257545471">
  <ele>284.010254</ele>
  <time>2011-11-12T07:33:22Z</time>
  <speed>5.520000</speed>
</trkpt>
<trkpt lat="32.861236572" lon="35.257602692">
  <ele>282.689941</ele>
  <time>2011-11-12T07:33:23Z</time>
  <speed>4.980000</speed>
</trkpt>
<trkpt lat="32.861228943" lon="35.257659912">
  <ele>282.674316</ele>
  <time>2011-11-12T07:33:24Z</time>
  <speed>4.340000</speed>
</trkpt>
<trkpt lat="32.861228943" lon="35.257709503">
  <ele>281.861816</ele>
  <time>2011-11-12T07:33:25Z</time>
  <speed>3.510000</speed>
</trkpt>
<trkpt lat="32.861228943" lon="35.257751465">
  <ele>281.705566</ele>
  <time>2011-11-12T07:33:26Z</time>
  <speed>3.140000</speed>
</trkpt>
<trkpt lat="32.861225128" lon="35.257789612">
  <ele>281.486816</ele>
  <time>2011-11-12T07:33:27Z</time>
  <speed>3.530000</speed>
</trkpt>
<trkpt lat="32.861209869" lon="35.257827759">
  <ele>281.213379</ele>
  <time>2011-11-12T07:33:28Z</time>
  <speed>3.710000</speed>
</trkpt>
<trkpt lat="32.861183167" lon="35.257862091">
  <ele>281.275879</ele>
  <time>2011-11-12T07:33:29Z</time>
  <speed>4.270000</speed>
</trkpt>
<trkpt lat="32.861156464" lon="35.257900238">
  <ele>281.307129</ele>
  <time>2011-11-12T07:33:30Z</time>
  <speed>4.890000</speed>
</trkpt>
<trkpt lat="32.861129761" lon="35.257946014">
  <ele>280.596191</ele>
  <time>2011-11-12T07:33:31Z</time>
  <speed>4.820000</speed>
</trkpt>
<trkpt lat="32.861099243" lon="35.257991791">
  <ele>279.994629</ele>
  <time>2011-11-12T07:33:32Z</time>
  <speed>4.710000</speed>
</trkpt>
<trkpt lat="32.861064911" lon="35.258026123">
  <ele>278.963379</ele>
  <time>2011-11-12T07:33:33Z</time>
  <speed>4.630000</speed>
</trkpt>
<trkpt lat="32.861030579" lon="35.258052826">
  <ele>278.799316</ele>
  <time>2011-11-12T07:33:34Z</time>
  <speed>4.570000</speed>
</trkpt>
<trkpt lat="32.860988617" lon="35.258068085">
  <ele>278.971191</ele>
  <time>2011-11-12T07:33:35Z</time>
  <speed>4.520000</speed>
</trkpt>
<trkpt lat="32.860950470" lon="35.258071899">
  <ele>279.088379</ele>
  <time>2011-11-12T07:33:36Z</time>
  <speed>3.790000</speed>
</trkpt>
<trkpt lat="32.860912323" lon="35.258071899">
  <ele>279.244629</ele>
  <time>2011-11-12T07:33:37Z</time>
  <speed>3.230000</speed>
</trkpt>
<trkpt lat="32.860881805" lon="35.258068085">
  <ele>279.010254</ele>
  <time>2011-11-12T07:33:38Z</time>
  <speed>2.530000</speed>
</trkpt>
<trkpt lat="32.860847473" lon="35.258064270">
  <ele>278.057129</ele>
  <time>2011-11-12T07:33:40Z</time>
  <speed>1.740000</speed>
</trkpt>
<trkpt lat="32.860839844" lon="35.258029938">
  <ele>276.604004</ele>
  <time>2011-11-12T07:33:42Z</time>
  <speed>1.270000</speed>
</trkpt>
<trkpt lat="32.860855103" lon="35.257991791">
  <ele>276.064941</ele>
  <time>2011-11-12T07:33:44Z</time>
  <speed>1.760000</speed>
</trkpt>
<trkpt lat="32.860889435" lon="35.257957458">
  <ele>276.768066</ele>
  <time>2011-11-12T07:33:46Z</time>
  <speed>1.700000</speed>
</trkpt>
<trkpt lat="32.860923767" lon="35.257965088">
  <ele>277.557129</ele>
  <time>2011-11-12T07:33:48Z</time>
  <speed>1.250000</speed>
</trkpt>
<trkpt lat="32.860942841" lon="35.257953644">
  <ele>279.268066</ele>
  <time>2011-11-12T07:34:21Z</time>
  <speed>0.050000</speed>
</trkpt>
<trkpt lat="32.860931396" lon="35.257942200">
  <ele>282.361816</ele>
  <time>2011-11-12T07:34:25Z</time>
  <speed>0.090000</speed>
</trkpt>
<trkpt lat="32.860916138" lon="35.257949829">
  <ele>284.963379</ele>
  <time>2011-11-12T07:34:29Z</time>
  <speed>0.080000</speed>
</trkpt>
<trkpt lat="32.860908508" lon="35.257934570">
  <ele>287.838379</ele>
  <time>2011-11-12T07:34:33Z</time>
  <speed>0.100000</speed>
</trkpt>
<trkpt lat="32.860900879" lon="35.257926941">
  <ele>290.729004</ele>
  <time>2011-11-12T07:34:40Z</time>
  <speed>0.090000</speed>
</trkpt>
<trkpt lat="32.860904694" lon="35.257904053">
  <ele>292.932129</ele>
  <time>2011-11-12T07:34:52Z</time>
  <speed>0.080000</speed>
</trkpt>
<trkpt lat="32.860889435" lon="35.257896423">
  <ele>295.393066</ele>
  <time>2011-11-12T07:35:07Z</time>
  <speed>0.110000</speed>
</trkpt>
<trkpt lat="32.860877991" lon="35.257888794">
  <ele>298.119629</ele>
  <time>2011-11-12T07:35:19Z</time>
  <speed>0.120000</speed>
</trkpt>
<trkpt lat="32.860893250" lon="35.257869720">
  <ele>297.533691</ele>
  <time>2011-11-12T07:39:00Z</time>
</trkpt>
</trkseg>
</trk>
</gpx>
